<?xml version="1.0" encoding="UTF-8" standalone="no" ?>
<gpx xmlns="http://www.topografix.com/GPX/1/1" xmlns:xsi="http://www.w3.org/2001/XMLSchema-instance" xsi:schemaLocation="http://www.topografix.com/GPX/1/1 http://www.topografix.com/GPX/1/1/gpx.xsd" version="1.1" creator="VisuGPX - https://www.visugpx.com">
  <metadata>
    <name>Depart Albiez - Gros meleze et velours aux Karellis</name>
    <desc><![CDATA[Sortie A/R au depart d' Albiez : a cliquets, possibiliés d'enlever des traces suivant la forme / L'horaire]]></desc>
  </metadata>
  <trk>
    <name><![CDATA[Afternoon Ride ]]></name>
    <trkseg>
      <trkpt lat="45.21894" lon="6.34414">
        <ele>1512.4</ele>
        <time>2020-08-22T11:56:00.000Z</time>
      </trkpt>
      <trkpt lat="45.21894" lon="6.34414">
        <ele>1512.4</ele>
        <time>2020-08-22T11:56:00.000Z</time>
      </trkpt>
      <trkpt lat="45.21894" lon="6.34414">
        <ele>1512.4</ele>
        <time>2020-08-22T11:56:01.000Z</time>
      </trkpt>
      <trkpt lat="45.21894" lon="6.34414">
        <ele>1512.4</ele>
        <time>2020-08-22T11:56:02.000Z</time>
      </trkpt>
      <trkpt lat="45.21894" lon="6.34414">
        <ele>1512.4</ele>
        <time>2020-08-22T11:56:05.000Z</time>
      </trkpt>
      <trkpt lat="45.21894" lon="6.34414">
        <ele>1512.4</ele>
        <time>2020-08-22T11:56:06.000Z</time>
      </trkpt>
      <trkpt lat="45.21894" lon="6.34414">
        <ele>1512.4</ele>
        <time>2020-08-22T11:56:08.000Z</time>
      </trkpt>
      <trkpt lat="45.21894" lon="6.34414">
        <ele>1512.4</ele>
        <time>2020-08-22T11:56:10.000Z</time>
      </trkpt>
      <trkpt lat="45.21894" lon="6.34414">
        <ele>1512.4</ele>
        <time>2020-08-22T11:56:12.000Z</time>
      </trkpt>
      <trkpt lat="45.21894" lon="6.34414">
        <ele>1512.4</ele>
        <time>2020-08-22T11:56:14.000Z</time>
      </trkpt>
      <trkpt lat="45.21894" lon="6.34414">
        <ele>1512.4</ele>
        <time>2020-08-22T11:56:15.000Z</time>
      </trkpt>
      <trkpt lat="45.21894" lon="6.34414">
        <ele>1512.4</ele>
        <time>2020-08-22T11:56:17.000Z</time>
      </trkpt>
      <trkpt lat="45.21894" lon="6.34414">
        <ele>1512.4</ele>
        <time>2020-08-22T11:56:18.000Z</time>
      </trkpt>
      <trkpt lat="45.21894" lon="6.34414">
        <ele>1512.4</ele>
        <time>2020-08-22T11:56:19.000Z</time>
      </trkpt>
      <trkpt lat="45.21894" lon="6.34414">
        <ele>1512.4</ele>
        <time>2020-08-22T11:56:20.000Z</time>
      </trkpt>
      <trkpt lat="45.21894" lon="6.34414">
        <ele>1512.4</ele>
        <time>2020-08-22T11:56:21.000Z</time>
      </trkpt>
      <trkpt lat="45.21894" lon="6.34414">
        <ele>1512.4</ele>
        <time>2020-08-22T11:56:22.000Z</time>
      </trkpt>
      <trkpt lat="45.21894" lon="6.34414">
        <ele>1512.4</ele>
        <time>2020-08-22T11:56:23.000Z</time>
      </trkpt>
      <trkpt lat="45.21894" lon="6.34414">
        <ele>1512.4</ele>
        <time>2020-08-22T11:56:24.000Z</time>
      </trkpt>
      <trkpt lat="45.21894" lon="6.34414">
        <ele>1512.4</ele>
        <time>2020-08-22T11:56:25.000Z</time>
      </trkpt>
      <trkpt lat="45.21894" lon="6.34414">
        <ele>1512.4</ele>
        <time>2020-08-22T11:56:26.000Z</time>
      </trkpt>
      <trkpt lat="45.21894" lon="6.34414">
        <ele>1512.4</ele>
        <time>2020-08-22T11:56:27.000Z</time>
      </trkpt>
      <trkpt lat="45.21894" lon="6.34414">
        <ele>1512.4</ele>
        <time>2020-08-22T11:56:28.000Z</time>
      </trkpt>
      <trkpt lat="45.21894" lon="6.34414">
        <ele>1512.4</ele>
        <time>2020-08-22T11:56:29.000Z</time>
      </trkpt>
      <trkpt lat="45.21894" lon="6.34414">
        <ele>1512.4</ele>
        <time>2020-08-22T11:56:30.000Z</time>
      </trkpt>
      <trkpt lat="45.21894" lon="6.34414">
        <ele>1512.4</ele>
        <time>2020-08-22T11:56:31.000Z</time>
      </trkpt>
      <trkpt lat="45.21894" lon="6.34414">
        <ele>1512.4</ele>
        <time>2020-08-22T11:56:32.000Z</time>
      </trkpt>
      <trkpt lat="45.21894" lon="6.34414">
        <ele>1512.4</ele>
        <time>2020-08-22T11:56:33.000Z</time>
      </trkpt>
      <trkpt lat="45.21894" lon="6.34414">
        <ele>1512.4</ele>
        <time>2020-08-22T11:56:34.000Z</time>
      </trkpt>
      <trkpt lat="45.21894" lon="6.34414">
        <ele>1512.4</ele>
        <time>2020-08-22T11:56:35.000Z</time>
      </trkpt>
      <trkpt lat="45.21894" lon="6.34414">
        <ele>1512.4</ele>
        <time>2020-08-22T11:56:36.000Z</time>
      </trkpt>
      <trkpt lat="45.21894" lon="6.34414">
        <ele>1512.4</ele>
        <time>2020-08-22T11:56:37.000Z</time>
      </trkpt>
      <trkpt lat="45.21894" lon="6.34414">
        <ele>1512.4</ele>
        <time>2020-08-22T11:56:39.000Z</time>
      </trkpt>
      <trkpt lat="45.21894" lon="6.34414">
        <ele>1512.4</ele>
        <time>2020-08-22T11:56:40.000Z</time>
      </trkpt>
      <trkpt lat="45.21894" lon="6.34414">
        <ele>1512.4</ele>
        <time>2020-08-22T11:56:41.000Z</time>
      </trkpt>
      <trkpt lat="45.21894" lon="6.34414">
        <ele>1512.4</ele>
        <time>2020-08-22T11:56:42.000Z</time>
      </trkpt>
      <trkpt lat="45.21894" lon="6.34414">
        <ele>1512.4</ele>
        <time>2020-08-22T11:56:45.000Z</time>
      </trkpt>
      <trkpt lat="45.21894" lon="6.34414">
        <ele>1512.4</ele>
        <time>2020-08-22T11:56:47.000Z</time>
      </trkpt>
      <trkpt lat="45.21894" lon="6.34414">
        <ele>1512.4</ele>
        <time>2020-08-22T11:56:48.000Z</time>
      </trkpt>
      <trkpt lat="45.21894" lon="6.34414">
        <ele>1512.4</ele>
        <time>2020-08-22T11:56:49.000Z</time>
      </trkpt>
      <trkpt lat="45.21894" lon="6.34414">
        <ele>1512.4</ele>
        <time>2020-08-22T11:56:50.000Z</time>
      </trkpt>
      <trkpt lat="45.21894" lon="6.34414">
        <ele>1512.4</ele>
        <time>2020-08-22T11:56:51.000Z</time>
      </trkpt>
      <trkpt lat="45.21894" lon="6.34414">
        <ele>1512.4</ele>
        <time>2020-08-22T11:56:52.000Z</time>
      </trkpt>
      <trkpt lat="45.21894" lon="6.34414">
        <ele>1512.4</ele>
        <time>2020-08-22T11:56:53.000Z</time>
      </trkpt>
      <trkpt lat="45.21894" lon="6.34414">
        <ele>1512.4</ele>
        <time>2020-08-22T11:56:55.000Z</time>
      </trkpt>
      <trkpt lat="45.21894" lon="6.34414">
        <ele>1512.4</ele>
        <time>2020-08-22T11:57:02.000Z</time>
      </trkpt>
      <trkpt lat="45.21894" lon="6.34414">
        <ele>1512.4</ele>
        <time>2020-08-22T11:57:03.000Z</time>
      </trkpt>
      <trkpt lat="45.21894" lon="6.34414">
        <ele>1512.4</ele>
        <time>2020-08-22T11:57:04.000Z</time>
      </trkpt>
      <trkpt lat="45.21894" lon="6.34414">
        <ele>1512.4</ele>
        <time>2020-08-22T11:57:11.000Z</time>
      </trkpt>
      <trkpt lat="45.21894" lon="6.34414">
        <ele>1512.4</ele>
        <time>2020-08-22T11:57:22.000Z</time>
      </trkpt>
      <trkpt lat="45.21894" lon="6.34424">
        <ele>1512.4</ele>
        <time>2020-08-22T11:57:24.000Z</time>
      </trkpt>
      <trkpt lat="45.2189" lon="6.34442">
        <ele>1511.8</ele>
        <time>2020-08-22T11:57:26.000Z</time>
      </trkpt>
      <trkpt lat="45.21884" lon="6.34459">
        <ele>1510.9</ele>
        <time>2020-08-22T11:57:28.000Z</time>
      </trkpt>
      <trkpt lat="45.21875" lon="6.34475">
        <ele>1509.9</ele>
        <time>2020-08-22T11:57:30.000Z</time>
      </trkpt>
      <trkpt lat="45.2187" lon="6.34483">
        <ele>1509.3</ele>
        <time>2020-08-22T11:57:31.000Z</time>
      </trkpt>
      <trkpt lat="45.21863" lon="6.3449">
        <ele>1508.8</ele>
        <time>2020-08-22T11:57:32.000Z</time>
      </trkpt>
      <trkpt lat="45.2185" lon="6.34506">
        <ele>1507.9</ele>
        <time>2020-08-22T11:57:34.000Z</time>
      </trkpt>
      <trkpt lat="45.21844" lon="6.34515">
        <ele>1507.6</ele>
        <time>2020-08-22T11:57:35.000Z</time>
      </trkpt>
      <trkpt lat="45.21819" lon="6.34562">
        <ele>1507</ele>
        <time>2020-08-22T11:57:40.000Z</time>
      </trkpt>
      <trkpt lat="45.2181" lon="6.34579">
        <ele>1506.6</ele>
        <time>2020-08-22T11:57:42.000Z</time>
      </trkpt>
      <trkpt lat="45.21806" lon="6.34588">
        <ele>1506.4</ele>
        <time>2020-08-22T11:57:43.000Z</time>
      </trkpt>
      <trkpt lat="45.21803" lon="6.34598">
        <ele>1506.2</ele>
        <time>2020-08-22T11:57:44.000Z</time>
      </trkpt>
      <trkpt lat="45.218" lon="6.34608">
        <ele>1506</ele>
        <time>2020-08-22T11:57:45.000Z</time>
      </trkpt>
      <trkpt lat="45.21795" lon="6.34629">
        <ele>1505.5</ele>
        <time>2020-08-22T11:57:47.000Z</time>
      </trkpt>
      <trkpt lat="45.21789" lon="6.34661">
        <ele>1504.8</ele>
        <time>2020-08-22T11:57:50.000Z</time>
      </trkpt>
      <trkpt lat="45.21782" lon="6.34693">
        <ele>1503.9</ele>
        <time>2020-08-22T11:57:53.000Z</time>
      </trkpt>
      <trkpt lat="45.21777" lon="6.34735">
        <ele>1502.3</ele>
        <time>2020-08-22T11:57:57.000Z</time>
      </trkpt>
      <trkpt lat="45.21774" lon="6.34796">
        <ele>1498.9</ele>
        <time>2020-08-22T11:58:02.000Z</time>
      </trkpt>
      <trkpt lat="45.21774" lon="6.34806">
        <ele>1498.5</ele>
        <time>2020-08-22T11:58:03.000Z</time>
      </trkpt>
      <trkpt lat="45.21777" lon="6.34823">
        <ele>1497.8</ele>
        <time>2020-08-22T11:58:05.000Z</time>
      </trkpt>
      <trkpt lat="45.2178" lon="6.34841">
        <ele>1497.3</ele>
        <time>2020-08-22T11:58:07.000Z</time>
      </trkpt>
      <trkpt lat="45.21785" lon="6.34859">
        <ele>1497</ele>
        <time>2020-08-22T11:58:09.000Z</time>
      </trkpt>
      <trkpt lat="45.21788" lon="6.34867">
        <ele>1496.9</ele>
        <time>2020-08-22T11:58:10.000Z</time>
      </trkpt>
      <trkpt lat="45.21791" lon="6.34875">
        <ele>1496.8</ele>
        <time>2020-08-22T11:58:11.000Z</time>
      </trkpt>
      <trkpt lat="45.21799" lon="6.34889">
        <ele>1496.7</ele>
        <time>2020-08-22T11:58:13.000Z</time>
      </trkpt>
      <trkpt lat="45.21803" lon="6.34897">
        <ele>1496.6</ele>
        <time>2020-08-22T11:58:14.000Z</time>
      </trkpt>
      <trkpt lat="45.2181" lon="6.34911">
        <ele>1496.4</ele>
        <time>2020-08-22T11:58:16.000Z</time>
      </trkpt>
      <trkpt lat="45.2183" lon="6.34945">
        <ele>1495.9</ele>
        <time>2020-08-22T11:58:21.000Z</time>
      </trkpt>
      <trkpt lat="45.21839" lon="6.34956">
        <ele>1495.8</ele>
        <time>2020-08-22T11:58:23.000Z</time>
      </trkpt>
      <trkpt lat="45.21869" lon="6.34985">
        <ele>1495.5</ele>
        <time>2020-08-22T11:58:29.000Z</time>
      </trkpt>
      <trkpt lat="45.21878" lon="6.34996">
        <ele>1495.3</ele>
        <time>2020-08-22T11:58:31.000Z</time>
      </trkpt>
      <trkpt lat="45.21881" lon="6.35003">
        <ele>1495.1</ele>
        <time>2020-08-22T11:58:32.000Z</time>
      </trkpt>
      <trkpt lat="45.21884" lon="6.3501">
        <ele>1494.8</ele>
        <time>2020-08-22T11:58:33.000Z</time>
      </trkpt>
      <trkpt lat="45.21883" lon="6.35027">
        <ele>1494.1</ele>
        <time>2020-08-22T11:58:35.000Z</time>
      </trkpt>
      <trkpt lat="45.21877" lon="6.35044">
        <ele>1493.2</ele>
        <time>2020-08-22T11:58:37.000Z</time>
      </trkpt>
      <trkpt lat="45.21873" lon="6.35052">
        <ele>1492.7</ele>
        <time>2020-08-22T11:58:38.000Z</time>
      </trkpt>
      <trkpt lat="45.21841" lon="6.35098">
        <ele>1489.7</ele>
        <time>2020-08-22T11:58:44.000Z</time>
      </trkpt>
      <trkpt lat="45.21831" lon="6.35113">
        <ele>1488.9</ele>
        <time>2020-08-22T11:58:46.000Z</time>
      </trkpt>
      <trkpt lat="45.21823" lon="6.35131">
        <ele>1488.4</ele>
        <time>2020-08-22T11:58:48.000Z</time>
      </trkpt>
      <trkpt lat="45.21818" lon="6.35151">
        <ele>1488.4</ele>
        <time>2020-08-22T11:58:50.000Z</time>
      </trkpt>
      <trkpt lat="45.21816" lon="6.35171">
        <ele>1488.6</ele>
        <time>2020-08-22T11:58:52.000Z</time>
      </trkpt>
      <trkpt lat="45.21811" lon="6.35225">
        <ele>1490.6</ele>
        <time>2020-08-22T11:58:58.000Z</time>
      </trkpt>
      <trkpt lat="45.21808" lon="6.35254">
        <ele>1492.2</ele>
        <time>2020-08-22T11:59:02.000Z</time>
      </trkpt>
      <trkpt lat="45.21808" lon="6.3526">
        <ele>1492.5</ele>
        <time>2020-08-22T11:59:03.000Z</time>
      </trkpt>
      <trkpt lat="45.2181" lon="6.35266">
        <ele>1492.7</ele>
        <time>2020-08-22T11:59:04.000Z</time>
      </trkpt>
      <trkpt lat="45.21817" lon="6.35284">
        <ele>1493.6</ele>
        <time>2020-08-22T11:59:08.000Z</time>
      </trkpt>
      <trkpt lat="45.21823" lon="6.35291">
        <ele>1494</ele>
        <time>2020-08-22T11:59:10.000Z</time>
      </trkpt>
      <trkpt lat="45.21835" lon="6.35302">
        <ele>1494.9</ele>
        <time>2020-08-22T11:59:14.000Z</time>
      </trkpt>
      <trkpt lat="45.21848" lon="6.35312">
        <ele>1495.8</ele>
        <time>2020-08-22T11:59:18.000Z</time>
      </trkpt>
      <trkpt lat="45.21857" lon="6.3532">
        <ele>1496.4</ele>
        <time>2020-08-22T11:59:21.000Z</time>
      </trkpt>
      <trkpt lat="45.21861" lon="6.35322">
        <ele>1496.6</ele>
        <time>2020-08-22T11:59:22.000Z</time>
      </trkpt>
      <trkpt lat="45.2187" lon="6.35331">
        <ele>1497.4</ele>
        <time>2020-08-22T11:59:25.000Z</time>
      </trkpt>
      <trkpt lat="45.21873" lon="6.35333">
        <ele>1497.7</ele>
        <time>2020-08-22T11:59:26.000Z</time>
      </trkpt>
      <trkpt lat="45.21881" lon="6.35341">
        <ele>1498.5</ele>
        <time>2020-08-22T11:59:29.000Z</time>
      </trkpt>
      <trkpt lat="45.21888" lon="6.35346">
        <ele>1499.1</ele>
        <time>2020-08-22T11:59:32.000Z</time>
      </trkpt>
      <trkpt lat="45.21892" lon="6.3535">
        <ele>1499.5</ele>
        <time>2020-08-22T11:59:34.000Z</time>
      </trkpt>
      <trkpt lat="45.21902" lon="6.35353">
        <ele>1500.1</ele>
        <time>2020-08-22T11:59:37.000Z</time>
      </trkpt>
      <trkpt lat="45.21909" lon="6.35353">
        <ele>1500.3</ele>
        <time>2020-08-22T11:59:39.000Z</time>
      </trkpt>
      <trkpt lat="45.21912" lon="6.35352">
        <ele>1500.3</ele>
        <time>2020-08-22T11:59:40.000Z</time>
      </trkpt>
      <trkpt lat="45.21935" lon="6.35346">
        <ele>1499.9</ele>
        <time>2020-08-22T11:59:46.000Z</time>
      </trkpt>
      <trkpt lat="45.21938" lon="6.35345">
        <ele>1499.8</ele>
        <time>2020-08-22T11:59:47.000Z</time>
      </trkpt>
      <trkpt lat="45.21943" lon="6.35345">
        <ele>1499.6</ele>
        <time>2020-08-22T11:59:48.000Z</time>
      </trkpt>
      <trkpt lat="45.21947" lon="6.35344">
        <ele>1499.4</ele>
        <time>2020-08-22T11:59:49.000Z</time>
      </trkpt>
      <trkpt lat="45.21961" lon="6.35342">
        <ele>1498.4</ele>
        <time>2020-08-22T11:59:52.000Z</time>
      </trkpt>
      <trkpt lat="45.21966" lon="6.35343">
        <ele>1498</ele>
        <time>2020-08-22T11:59:53.000Z</time>
      </trkpt>
      <trkpt lat="45.21978" lon="6.35344">
        <ele>1497</ele>
        <time>2020-08-22T11:59:55.000Z</time>
      </trkpt>
      <trkpt lat="45.21995" lon="6.35346">
        <ele>1495.4</ele>
        <time>2020-08-22T11:59:58.000Z</time>
      </trkpt>
      <trkpt lat="45.2202" lon="6.35351">
        <ele>1492.9</ele>
        <time>2020-08-22T12:00:02.000Z</time>
      </trkpt>
      <trkpt lat="45.22026" lon="6.35353">
        <ele>1492.4</ele>
        <time>2020-08-22T12:00:03.000Z</time>
      </trkpt>
      <trkpt lat="45.2203" lon="6.35355">
        <ele>1492</ele>
        <time>2020-08-22T12:00:04.000Z</time>
      </trkpt>
      <trkpt lat="45.22037" lon="6.35357">
        <ele>1491.4</ele>
        <time>2020-08-22T12:00:06.000Z</time>
      </trkpt>
      <trkpt lat="45.22039" lon="6.35356">
        <ele>1491.2</ele>
        <time>2020-08-22T12:00:07.000Z</time>
      </trkpt>
      <trkpt lat="45.22041" lon="6.3535">
        <ele>1490.8</ele>
        <time>2020-08-22T12:00:09.000Z</time>
      </trkpt>
      <trkpt lat="45.22041" lon="6.35346">
        <ele>1489.8</ele>
        <time>2020-08-22T12:00:10.000Z</time>
      </trkpt>
      <trkpt lat="45.22039" lon="6.3534">
        <ele>1489.1</ele>
        <time>2020-08-22T12:00:11.000Z</time>
      </trkpt>
      <trkpt lat="45.22034" lon="6.35329">
        <ele>1487.7</ele>
        <time>2020-08-22T12:00:13.000Z</time>
      </trkpt>
      <trkpt lat="45.22034" lon="6.35321">
        <ele>1486.5</ele>
        <time>2020-08-22T12:00:15.000Z</time>
      </trkpt>
      <trkpt lat="45.2204" lon="6.35317">
        <ele>1484.7</ele>
        <time>2020-08-22T12:00:18.000Z</time>
      </trkpt>
      <trkpt lat="45.2204" lon="6.35315">
        <ele>1484.3</ele>
        <time>2020-08-22T12:00:19.000Z</time>
      </trkpt>
      <trkpt lat="45.22039" lon="6.3531">
        <ele>1483.2</ele>
        <time>2020-08-22T12:00:20.000Z</time>
      </trkpt>
      <trkpt lat="45.22037" lon="6.35306">
        <ele>1482.2</ele>
        <time>2020-08-22T12:00:21.000Z</time>
      </trkpt>
      <trkpt lat="45.22037" lon="6.35298">
        <ele>1480.3</ele>
        <time>2020-08-22T12:00:23.000Z</time>
      </trkpt>
      <trkpt lat="45.2204" lon="6.35296">
        <ele>1479.4</ele>
        <time>2020-08-22T12:00:24.000Z</time>
      </trkpt>
      <trkpt lat="45.22047" lon="6.35296">
        <ele>1477.5</ele>
        <time>2020-08-22T12:00:26.000Z</time>
      </trkpt>
      <trkpt lat="45.22052" lon="6.35299">
        <ele>1476.2</ele>
        <time>2020-08-22T12:00:27.000Z</time>
      </trkpt>
      <trkpt lat="45.22057" lon="6.35301">
        <ele>1475</ele>
        <time>2020-08-22T12:00:28.000Z</time>
      </trkpt>
      <trkpt lat="45.22068" lon="6.35309">
        <ele>1473</ele>
        <time>2020-08-22T12:00:30.000Z</time>
      </trkpt>
      <trkpt lat="45.22079" lon="6.35317">
        <ele>1471.2</ele>
        <time>2020-08-22T12:00:32.000Z</time>
      </trkpt>
      <trkpt lat="45.22085" lon="6.3532">
        <ele>1470.2</ele>
        <time>2020-08-22T12:00:33.000Z</time>
      </trkpt>
      <trkpt lat="45.22098" lon="6.35322">
        <ele>1468.3</ele>
        <time>2020-08-22T12:00:35.000Z</time>
      </trkpt>
      <trkpt lat="45.22105" lon="6.35321">
        <ele>1467.4</ele>
        <time>2020-08-22T12:00:36.000Z</time>
      </trkpt>
      <trkpt lat="45.22112" lon="6.35322">
        <ele>1466.5</ele>
        <time>2020-08-22T12:00:37.000Z</time>
      </trkpt>
      <trkpt lat="45.22118" lon="6.35325">
        <ele>1465.6</ele>
        <time>2020-08-22T12:00:38.000Z</time>
      </trkpt>
      <trkpt lat="45.22124" lon="6.35327">
        <ele>1464.7</ele>
        <time>2020-08-22T12:00:39.000Z</time>
      </trkpt>
      <trkpt lat="45.22129" lon="6.35328">
        <ele>1463.9</ele>
        <time>2020-08-22T12:00:40.000Z</time>
      </trkpt>
      <trkpt lat="45.22134" lon="6.3533">
        <ele>1463.1</ele>
        <time>2020-08-22T12:00:41.000Z</time>
      </trkpt>
      <trkpt lat="45.22139" lon="6.35332">
        <ele>1462.3</ele>
        <time>2020-08-22T12:00:42.000Z</time>
      </trkpt>
      <trkpt lat="45.22143" lon="6.35334">
        <ele>1461.4</ele>
        <time>2020-08-22T12:00:43.000Z</time>
      </trkpt>
      <trkpt lat="45.22149" lon="6.35335">
        <ele>1460.4</ele>
        <time>2020-08-22T12:00:44.000Z</time>
      </trkpt>
      <trkpt lat="45.22155" lon="6.35336">
        <ele>1459.2</ele>
        <time>2020-08-22T12:00:45.000Z</time>
      </trkpt>
      <trkpt lat="45.22161" lon="6.35338">
        <ele>1458.1</ele>
        <time>2020-08-22T12:00:46.000Z</time>
      </trkpt>
      <trkpt lat="45.22167" lon="6.35341">
        <ele>1457.1</ele>
        <time>2020-08-22T12:00:47.000Z</time>
      </trkpt>
      <trkpt lat="45.22172" lon="6.35344">
        <ele>1456.2</ele>
        <time>2020-08-22T12:00:48.000Z</time>
      </trkpt>
      <trkpt lat="45.22178" lon="6.35346">
        <ele>1455.6</ele>
        <time>2020-08-22T12:00:49.000Z</time>
      </trkpt>
      <trkpt lat="45.22184" lon="6.35347">
        <ele>1455</ele>
        <time>2020-08-22T12:00:50.000Z</time>
      </trkpt>
      <trkpt lat="45.22188" lon="6.35349">
        <ele>1454.6</ele>
        <time>2020-08-22T12:00:51.000Z</time>
      </trkpt>
      <trkpt lat="45.2219" lon="6.35351">
        <ele>1454.3</ele>
        <time>2020-08-22T12:00:52.000Z</time>
      </trkpt>
      <trkpt lat="45.2219" lon="6.35352">
        <ele>1454.3</ele>
        <time>2020-08-22T12:00:53.000Z</time>
      </trkpt>
      <trkpt lat="45.2219" lon="6.35352">
        <ele>1454.2</ele>
        <time>2020-08-22T12:00:54.000Z</time>
      </trkpt>
      <trkpt lat="45.22191" lon="6.35351">
        <ele>1454.1</ele>
        <time>2020-08-22T12:00:57.000Z</time>
      </trkpt>
      <trkpt lat="45.22191" lon="6.3535">
        <ele>1454.1</ele>
        <time>2020-08-22T12:00:59.000Z</time>
      </trkpt>
      <trkpt lat="45.22194" lon="6.35349">
        <ele>1453.7</ele>
        <time>2020-08-22T12:01:05.000Z</time>
      </trkpt>
      <trkpt lat="45.22197" lon="6.35347">
        <ele>1453.3</ele>
        <time>2020-08-22T12:01:08.000Z</time>
      </trkpt>
      <trkpt lat="45.22203" lon="6.35335">
        <ele>1452.1</ele>
        <time>2020-08-22T12:01:11.000Z</time>
      </trkpt>
      <trkpt lat="45.2221" lon="6.35331">
        <ele>1451.2</ele>
        <time>2020-08-22T12:01:13.000Z</time>
      </trkpt>
      <trkpt lat="45.22214" lon="6.35333">
        <ele>1450.5</ele>
        <time>2020-08-22T12:01:14.000Z</time>
      </trkpt>
      <trkpt lat="45.22219" lon="6.35335">
        <ele>1449.8</ele>
        <time>2020-08-22T12:01:15.000Z</time>
      </trkpt>
      <trkpt lat="45.22228" lon="6.35334">
        <ele>1448.5</ele>
        <time>2020-08-22T12:01:17.000Z</time>
      </trkpt>
      <trkpt lat="45.22232" lon="6.35332">
        <ele>1448</ele>
        <time>2020-08-22T12:01:18.000Z</time>
      </trkpt>
      <trkpt lat="45.22238" lon="6.35323">
        <ele>1447.2</ele>
        <time>2020-08-22T12:01:20.000Z</time>
      </trkpt>
      <trkpt lat="45.22244" lon="6.35314">
        <ele>1445.9</ele>
        <time>2020-08-22T12:01:22.000Z</time>
      </trkpt>
      <trkpt lat="45.22247" lon="6.35309">
        <ele>1445.1</ele>
        <time>2020-08-22T12:01:23.000Z</time>
      </trkpt>
      <trkpt lat="45.2225" lon="6.35304">
        <ele>1444.1</ele>
        <time>2020-08-22T12:01:24.000Z</time>
      </trkpt>
      <trkpt lat="45.22259" lon="6.35296">
        <ele>1441.6</ele>
        <time>2020-08-22T12:01:26.000Z</time>
      </trkpt>
      <trkpt lat="45.22264" lon="6.35293">
        <ele>1440.1</ele>
        <time>2020-08-22T12:01:27.000Z</time>
      </trkpt>
      <trkpt lat="45.22269" lon="6.3529">
        <ele>1438.4</ele>
        <time>2020-08-22T12:01:28.000Z</time>
      </trkpt>
      <trkpt lat="45.22274" lon="6.35289">
        <ele>1436.9</ele>
        <time>2020-08-22T12:01:29.000Z</time>
      </trkpt>
      <trkpt lat="45.2228" lon="6.35289">
        <ele>1434.9</ele>
        <time>2020-08-22T12:01:30.000Z</time>
      </trkpt>
      <trkpt lat="45.22287" lon="6.35287">
        <ele>1433</ele>
        <time>2020-08-22T12:01:31.000Z</time>
      </trkpt>
      <trkpt lat="45.22293" lon="6.35285">
        <ele>1431.2</ele>
        <time>2020-08-22T12:01:32.000Z</time>
      </trkpt>
      <trkpt lat="45.22299" lon="6.35284">
        <ele>1429.6</ele>
        <time>2020-08-22T12:01:33.000Z</time>
      </trkpt>
      <trkpt lat="45.22303" lon="6.35282">
        <ele>1428.1</ele>
        <time>2020-08-22T12:01:34.000Z</time>
      </trkpt>
      <trkpt lat="45.22307" lon="6.35281">
        <ele>1426.9</ele>
        <time>2020-08-22T12:01:35.000Z</time>
      </trkpt>
      <trkpt lat="45.22308" lon="6.35278">
        <ele>1426.3</ele>
        <time>2020-08-22T12:01:36.000Z</time>
      </trkpt>
      <trkpt lat="45.22307" lon="6.35275">
        <ele>1425.4</ele>
        <time>2020-08-22T12:01:37.000Z</time>
      </trkpt>
      <trkpt lat="45.22307" lon="6.3527">
        <ele>1424.4</ele>
        <time>2020-08-22T12:01:38.000Z</time>
      </trkpt>
      <trkpt lat="45.22305" lon="6.35262">
        <ele>1423.1</ele>
        <time>2020-08-22T12:01:39.000Z</time>
      </trkpt>
      <trkpt lat="45.22302" lon="6.35254">
        <ele>1422</ele>
        <time>2020-08-22T12:01:40.000Z</time>
      </trkpt>
      <trkpt lat="45.22299" lon="6.35245">
        <ele>1421.1</ele>
        <time>2020-08-22T12:01:41.000Z</time>
      </trkpt>
      <trkpt lat="45.22292" lon="6.35229">
        <ele>1419.2</ele>
        <time>2020-08-22T12:01:43.000Z</time>
      </trkpt>
      <trkpt lat="45.22285" lon="6.35211">
        <ele>1417.5</ele>
        <time>2020-08-22T12:01:45.000Z</time>
      </trkpt>
      <trkpt lat="45.22274" lon="6.35181">
        <ele>1415.4</ele>
        <time>2020-08-22T12:01:48.000Z</time>
      </trkpt>
      <trkpt lat="45.2227" lon="6.3516">
        <ele>1415.1</ele>
        <time>2020-08-22T12:01:50.000Z</time>
      </trkpt>
      <trkpt lat="45.22268" lon="6.35153">
        <ele>1415.3</ele>
        <time>2020-08-22T12:01:51.000Z</time>
      </trkpt>
      <trkpt lat="45.22266" lon="6.35145">
        <ele>1415.6</ele>
        <time>2020-08-22T12:01:52.000Z</time>
      </trkpt>
      <trkpt lat="45.22266" lon="6.35138">
        <ele>1415.8</ele>
        <time>2020-08-22T12:01:53.000Z</time>
      </trkpt>
      <trkpt lat="45.22267" lon="6.35131">
        <ele>1416</ele>
        <time>2020-08-22T12:01:54.000Z</time>
      </trkpt>
      <trkpt lat="45.22273" lon="6.35121">
        <ele>1416.1</ele>
        <time>2020-08-22T12:01:56.000Z</time>
      </trkpt>
      <trkpt lat="45.22277" lon="6.35117">
        <ele>1415.7</ele>
        <time>2020-08-22T12:01:57.000Z</time>
      </trkpt>
      <trkpt lat="45.22287" lon="6.35111">
        <ele>1414.9</ele>
        <time>2020-08-22T12:01:59.000Z</time>
      </trkpt>
      <trkpt lat="45.22302" lon="6.35106">
        <ele>1413.6</ele>
        <time>2020-08-22T12:02:02.000Z</time>
      </trkpt>
      <trkpt lat="45.22314" lon="6.35105">
        <ele>1412.7</ele>
        <time>2020-08-22T12:02:04.000Z</time>
      </trkpt>
      <trkpt lat="45.22341" lon="6.35099">
        <ele>1410.6</ele>
        <time>2020-08-22T12:02:08.000Z</time>
      </trkpt>
      <trkpt lat="45.2235" lon="6.351">
        <ele>1409.9</ele>
        <time>2020-08-22T12:02:09.000Z</time>
      </trkpt>
      <trkpt lat="45.22369" lon="6.35099">
        <ele>1408.5</ele>
        <time>2020-08-22T12:02:11.000Z</time>
      </trkpt>
      <trkpt lat="45.22378" lon="6.35097">
        <ele>1407.7</ele>
        <time>2020-08-22T12:02:12.000Z</time>
      </trkpt>
      <trkpt lat="45.22388" lon="6.35095">
        <ele>1406.9</ele>
        <time>2020-08-22T12:02:13.000Z</time>
      </trkpt>
      <trkpt lat="45.22407" lon="6.35093">
        <ele>1405.5</ele>
        <time>2020-08-22T12:02:15.000Z</time>
      </trkpt>
      <trkpt lat="45.22414" lon="6.35095">
        <ele>1404.9</ele>
        <time>2020-08-22T12:02:16.000Z</time>
      </trkpt>
      <trkpt lat="45.22419" lon="6.35099">
        <ele>1404.5</ele>
        <time>2020-08-22T12:02:17.000Z</time>
      </trkpt>
      <trkpt lat="45.2242" lon="6.35104">
        <ele>1404.2</ele>
        <time>2020-08-22T12:02:18.000Z</time>
      </trkpt>
      <trkpt lat="45.2242" lon="6.35107">
        <ele>1404</ele>
        <time>2020-08-22T12:02:19.000Z</time>
      </trkpt>
      <trkpt lat="45.22418" lon="6.3511">
        <ele>1403.8</ele>
        <time>2020-08-22T12:02:20.000Z</time>
      </trkpt>
      <trkpt lat="45.22417" lon="6.35112">
        <ele>1403.7</ele>
        <time>2020-08-22T12:02:21.000Z</time>
      </trkpt>
      <trkpt lat="45.22415" lon="6.35116">
        <ele>1403.4</ele>
        <time>2020-08-22T12:02:22.000Z</time>
      </trkpt>
      <trkpt lat="45.22415" lon="6.35122">
        <ele>1403.1</ele>
        <time>2020-08-22T12:02:23.000Z</time>
      </trkpt>
      <trkpt lat="45.22415" lon="6.35128">
        <ele>1402.8</ele>
        <time>2020-08-22T12:02:24.000Z</time>
      </trkpt>
      <trkpt lat="45.22417" lon="6.35134">
        <ele>1402.4</ele>
        <time>2020-08-22T12:02:25.000Z</time>
      </trkpt>
      <trkpt lat="45.22426" lon="6.35147">
        <ele>1401.4</ele>
        <time>2020-08-22T12:02:28.000Z</time>
      </trkpt>
      <trkpt lat="45.22431" lon="6.35147">
        <ele>1401.1</ele>
        <time>2020-08-22T12:02:29.000Z</time>
      </trkpt>
      <trkpt lat="45.22443" lon="6.35149">
        <ele>1400.2</ele>
        <time>2020-08-22T12:02:31.000Z</time>
      </trkpt>
      <trkpt lat="45.22449" lon="6.35154">
        <ele>1399.7</ele>
        <time>2020-08-22T12:02:32.000Z</time>
      </trkpt>
      <trkpt lat="45.2246" lon="6.35165">
        <ele>1398.6</ele>
        <time>2020-08-22T12:02:34.000Z</time>
      </trkpt>
      <trkpt lat="45.22465" lon="6.3517">
        <ele>1398.1</ele>
        <time>2020-08-22T12:02:35.000Z</time>
      </trkpt>
      <trkpt lat="45.22478" lon="6.35174">
        <ele>1397.1</ele>
        <time>2020-08-22T12:02:37.000Z</time>
      </trkpt>
      <trkpt lat="45.22485" lon="6.35176">
        <ele>1396.6</ele>
        <time>2020-08-22T12:02:38.000Z</time>
      </trkpt>
      <trkpt lat="45.22491" lon="6.3518">
        <ele>1396</ele>
        <time>2020-08-22T12:02:39.000Z</time>
      </trkpt>
      <trkpt lat="45.22495" lon="6.35185">
        <ele>1395.6</ele>
        <time>2020-08-22T12:02:40.000Z</time>
      </trkpt>
      <trkpt lat="45.22505" lon="6.352">
        <ele>1394.5</ele>
        <time>2020-08-22T12:02:42.000Z</time>
      </trkpt>
      <trkpt lat="45.22511" lon="6.35206">
        <ele>1393.9</ele>
        <time>2020-08-22T12:02:43.000Z</time>
      </trkpt>
      <trkpt lat="45.22525" lon="6.35216">
        <ele>1392.7</ele>
        <time>2020-08-22T12:02:45.000Z</time>
      </trkpt>
      <trkpt lat="45.22537" lon="6.35226">
        <ele>1391.7</ele>
        <time>2020-08-22T12:02:47.000Z</time>
      </trkpt>
      <trkpt lat="45.2254" lon="6.35231">
        <ele>1391.3</ele>
        <time>2020-08-22T12:02:48.000Z</time>
      </trkpt>
      <trkpt lat="45.22543" lon="6.35235">
        <ele>1391</ele>
        <time>2020-08-22T12:02:50.000Z</time>
      </trkpt>
      <trkpt lat="45.22543" lon="6.35236">
        <ele>1391</ele>
        <time>2020-08-22T12:02:51.000Z</time>
      </trkpt>
      <trkpt lat="45.22542" lon="6.35236">
        <ele>1390.9</ele>
        <time>2020-08-22T12:02:56.000Z</time>
      </trkpt>
      <trkpt lat="45.22542" lon="6.35236">
        <ele>1390.9</ele>
        <time>2020-08-22T12:02:57.000Z</time>
      </trkpt>
      <trkpt lat="45.22545" lon="6.35239">
        <ele>1390.6</ele>
        <time>2020-08-22T12:03:02.000Z</time>
      </trkpt>
      <trkpt lat="45.22547" lon="6.3524">
        <ele>1390.5</ele>
        <time>2020-08-22T12:03:04.000Z</time>
      </trkpt>
      <trkpt lat="45.22548" lon="6.3524">
        <ele>1390.4</ele>
        <time>2020-08-22T12:03:09.000Z</time>
      </trkpt>
      <trkpt lat="45.22549" lon="6.35237">
        <ele>1390.2</ele>
        <time>2020-08-22T12:03:17.000Z</time>
      </trkpt>
      <trkpt lat="45.22554" lon="6.35231">
        <ele>1389.7</ele>
        <time>2020-08-22T12:03:22.000Z</time>
      </trkpt>
      <trkpt lat="45.22555" lon="6.35229">
        <ele>1389.6</ele>
        <time>2020-08-22T12:03:27.000Z</time>
      </trkpt>
      <trkpt lat="45.22555" lon="6.35229">
        <ele>1389.5</ele>
        <time>2020-08-22T12:03:30.000Z</time>
      </trkpt>
      <trkpt lat="45.22555" lon="6.35229">
        <ele>1389.5</ele>
        <time>2020-08-22T12:03:32.000Z</time>
      </trkpt>
      <trkpt lat="45.22555" lon="6.3523">
        <ele>1389.5</ele>
        <time>2020-08-22T12:03:35.000Z</time>
      </trkpt>
      <trkpt lat="45.22555" lon="6.3523">
        <ele>1389.4</ele>
        <time>2020-08-22T12:03:37.000Z</time>
      </trkpt>
      <trkpt lat="45.22553" lon="6.3523">
        <ele>1389.3</ele>
        <time>2020-08-22T12:03:41.000Z</time>
      </trkpt>
      <trkpt lat="45.2255" lon="6.35231">
        <ele>1389.1</ele>
        <time>2020-08-22T12:03:44.000Z</time>
      </trkpt>
      <trkpt lat="45.2255" lon="6.35231">
        <ele>1389</ele>
        <time>2020-08-22T12:03:45.000Z</time>
      </trkpt>
      <trkpt lat="45.22551" lon="6.35234">
        <ele>1388.9</ele>
        <time>2020-08-22T12:03:50.000Z</time>
      </trkpt>
      <trkpt lat="45.22551" lon="6.35233">
        <ele>1388.8</ele>
        <time>2020-08-22T12:03:53.000Z</time>
      </trkpt>
      <trkpt lat="45.22552" lon="6.35234">
        <ele>1388.7</ele>
        <time>2020-08-22T12:03:59.000Z</time>
      </trkpt>
      <trkpt lat="45.22553" lon="6.35239">
        <ele>1388.4</ele>
        <time>2020-08-22T12:04:01.000Z</time>
      </trkpt>
      <trkpt lat="45.22554" lon="6.35242">
        <ele>1388.3</ele>
        <time>2020-08-22T12:04:02.000Z</time>
      </trkpt>
      <trkpt lat="45.22555" lon="6.35245">
        <ele>1388.1</ele>
        <time>2020-08-22T12:04:03.000Z</time>
      </trkpt>
      <trkpt lat="45.2256" lon="6.35254">
        <ele>1387.5</ele>
        <time>2020-08-22T12:04:05.000Z</time>
      </trkpt>
      <trkpt lat="45.22561" lon="6.35259">
        <ele>1387.2</ele>
        <time>2020-08-22T12:04:06.000Z</time>
      </trkpt>
      <trkpt lat="45.22563" lon="6.35265">
        <ele>1386.8</ele>
        <time>2020-08-22T12:04:07.000Z</time>
      </trkpt>
      <trkpt lat="45.2257" lon="6.35272">
        <ele>1386.2</ele>
        <time>2020-08-22T12:04:09.000Z</time>
      </trkpt>
      <trkpt lat="45.22574" lon="6.35273">
        <ele>1385.9</ele>
        <time>2020-08-22T12:04:10.000Z</time>
      </trkpt>
      <trkpt lat="45.22578" lon="6.35272">
        <ele>1385.6</ele>
        <time>2020-08-22T12:04:11.000Z</time>
      </trkpt>
      <trkpt lat="45.22582" lon="6.35268">
        <ele>1385.2</ele>
        <time>2020-08-22T12:04:12.000Z</time>
      </trkpt>
      <trkpt lat="45.22591" lon="6.3526">
        <ele>1384.3</ele>
        <time>2020-08-22T12:04:14.000Z</time>
      </trkpt>
      <trkpt lat="45.22597" lon="6.35255">
        <ele>1383.8</ele>
        <time>2020-08-22T12:04:15.000Z</time>
      </trkpt>
      <trkpt lat="45.22604" lon="6.35252">
        <ele>1383.3</ele>
        <time>2020-08-22T12:04:16.000Z</time>
      </trkpt>
      <trkpt lat="45.2261" lon="6.35253">
        <ele>1382.8</ele>
        <time>2020-08-22T12:04:17.000Z</time>
      </trkpt>
      <trkpt lat="45.22622" lon="6.35253">
        <ele>1381.9</ele>
        <time>2020-08-22T12:04:19.000Z</time>
      </trkpt>
      <trkpt lat="45.22627" lon="6.3525">
        <ele>1381.4</ele>
        <time>2020-08-22T12:04:20.000Z</time>
      </trkpt>
      <trkpt lat="45.22633" lon="6.35247">
        <ele>1381</ele>
        <time>2020-08-22T12:04:21.000Z</time>
      </trkpt>
      <trkpt lat="45.22638" lon="6.35247">
        <ele>1380.6</ele>
        <time>2020-08-22T12:04:22.000Z</time>
      </trkpt>
      <trkpt lat="45.22641" lon="6.35246">
        <ele>1380.3</ele>
        <time>2020-08-22T12:04:23.000Z</time>
      </trkpt>
      <trkpt lat="45.22646" lon="6.35243">
        <ele>1379.9</ele>
        <time>2020-08-22T12:04:25.000Z</time>
      </trkpt>
      <trkpt lat="45.22647" lon="6.3524">
        <ele>1379.7</ele>
        <time>2020-08-22T12:04:26.000Z</time>
      </trkpt>
      <trkpt lat="45.22649" lon="6.35238">
        <ele>1379.6</ele>
        <time>2020-08-22T12:04:27.000Z</time>
      </trkpt>
      <trkpt lat="45.22654" lon="6.35242">
        <ele>1379.1</ele>
        <time>2020-08-22T12:04:29.000Z</time>
      </trkpt>
      <trkpt lat="45.22659" lon="6.35243">
        <ele>1378.7</ele>
        <time>2020-08-22T12:04:31.000Z</time>
      </trkpt>
      <trkpt lat="45.22662" lon="6.35243">
        <ele>1378.5</ele>
        <time>2020-08-22T12:04:32.000Z</time>
      </trkpt>
      <trkpt lat="45.22666" lon="6.35243">
        <ele>1378.2</ele>
        <time>2020-08-22T12:04:33.000Z</time>
      </trkpt>
      <trkpt lat="45.22669" lon="6.35242">
        <ele>1378</ele>
        <time>2020-08-22T12:04:34.000Z</time>
      </trkpt>
      <trkpt lat="45.22675" lon="6.35232">
        <ele>1377.3</ele>
        <time>2020-08-22T12:04:36.000Z</time>
      </trkpt>
      <trkpt lat="45.22682" lon="6.35223">
        <ele>1376.5</ele>
        <time>2020-08-22T12:04:38.000Z</time>
      </trkpt>
      <trkpt lat="45.22684" lon="6.35221">
        <ele>1376.3</ele>
        <time>2020-08-22T12:04:39.000Z</time>
      </trkpt>
      <trkpt lat="45.22686" lon="6.35221">
        <ele>1376.2</ele>
        <time>2020-08-22T12:04:40.000Z</time>
      </trkpt>
      <trkpt lat="45.22688" lon="6.35222">
        <ele>1376</ele>
        <time>2020-08-22T12:04:42.000Z</time>
      </trkpt>
      <trkpt lat="45.22689" lon="6.35223">
        <ele>1375.9</ele>
        <time>2020-08-22T12:04:43.000Z</time>
      </trkpt>
      <trkpt lat="45.22689" lon="6.35223">
        <ele>1375.9</ele>
        <time>2020-08-22T12:04:44.000Z</time>
      </trkpt>
      <trkpt lat="45.22691" lon="6.35223">
        <ele>1375.8</ele>
        <time>2020-08-22T12:04:49.000Z</time>
      </trkpt>
      <trkpt lat="45.22691" lon="6.35223">
        <ele>1375.8</ele>
        <time>2020-08-22T12:04:50.000Z</time>
      </trkpt>
      <trkpt lat="45.227" lon="6.35219">
        <ele>1375</ele>
        <time>2020-08-22T12:04:58.000Z</time>
      </trkpt>
      <trkpt lat="45.22703" lon="6.35218">
        <ele>1374.8</ele>
        <time>2020-08-22T12:04:59.000Z</time>
      </trkpt>
      <trkpt lat="45.2271" lon="6.35213">
        <ele>1374.2</ele>
        <time>2020-08-22T12:05:02.000Z</time>
      </trkpt>
      <trkpt lat="45.22714" lon="6.35211">
        <ele>1373.9</ele>
        <time>2020-08-22T12:05:03.000Z</time>
      </trkpt>
      <trkpt lat="45.22731" lon="6.35206">
        <ele>1372.5</ele>
        <time>2020-08-22T12:05:07.000Z</time>
      </trkpt>
      <trkpt lat="45.22733" lon="6.35204">
        <ele>1372.3</ele>
        <time>2020-08-22T12:05:08.000Z</time>
      </trkpt>
      <trkpt lat="45.22735" lon="6.35201">
        <ele>1372.1</ele>
        <time>2020-08-22T12:05:09.000Z</time>
      </trkpt>
      <trkpt lat="45.22737" lon="6.352">
        <ele>1371.9</ele>
        <time>2020-08-22T12:05:10.000Z</time>
      </trkpt>
      <trkpt lat="45.22741" lon="6.35199">
        <ele>1371.7</ele>
        <time>2020-08-22T12:05:11.000Z</time>
      </trkpt>
      <trkpt lat="45.2275" lon="6.35201">
        <ele>1370.9</ele>
        <time>2020-08-22T12:05:13.000Z</time>
      </trkpt>
      <trkpt lat="45.22757" lon="6.35199">
        <ele>1370.4</ele>
        <time>2020-08-22T12:05:14.000Z</time>
      </trkpt>
      <trkpt lat="45.22768" lon="6.35197">
        <ele>1369.5</ele>
        <time>2020-08-22T12:05:16.000Z</time>
      </trkpt>
      <trkpt lat="45.22774" lon="6.35196">
        <ele>1369.1</ele>
        <time>2020-08-22T12:05:17.000Z</time>
      </trkpt>
      <trkpt lat="45.22779" lon="6.35194">
        <ele>1368.7</ele>
        <time>2020-08-22T12:05:18.000Z</time>
      </trkpt>
      <trkpt lat="45.22788" lon="6.35189">
        <ele>1368</ele>
        <time>2020-08-22T12:05:20.000Z</time>
      </trkpt>
      <trkpt lat="45.22789" lon="6.35188">
        <ele>1367.8</ele>
        <time>2020-08-22T12:05:21.000Z</time>
      </trkpt>
      <trkpt lat="45.22791" lon="6.35186">
        <ele>1367.7</ele>
        <time>2020-08-22T12:05:23.000Z</time>
      </trkpt>
      <trkpt lat="45.22792" lon="6.35186">
        <ele>1367.6</ele>
        <time>2020-08-22T12:05:25.000Z</time>
      </trkpt>
      <trkpt lat="45.22792" lon="6.35185">
        <ele>1367.5</ele>
        <time>2020-08-22T12:05:26.000Z</time>
      </trkpt>
      <trkpt lat="45.22792" lon="6.35185">
        <ele>1367.5</ele>
        <time>2020-08-22T12:05:27.000Z</time>
      </trkpt>
      <trkpt lat="45.22791" lon="6.35187">
        <ele>1367.4</ele>
        <time>2020-08-22T12:05:29.000Z</time>
      </trkpt>
      <trkpt lat="45.22795" lon="6.35177">
        <ele>1366.8</ele>
        <time>2020-08-22T12:05:36.000Z</time>
      </trkpt>
      <trkpt lat="45.22801" lon="6.35174">
        <ele>1366.3</ele>
        <time>2020-08-22T12:05:39.000Z</time>
      </trkpt>
      <trkpt lat="45.22808" lon="6.35179">
        <ele>1365.7</ele>
        <time>2020-08-22T12:05:43.000Z</time>
      </trkpt>
      <trkpt lat="45.2281" lon="6.35184">
        <ele>1365.4</ele>
        <time>2020-08-22T12:05:44.000Z</time>
      </trkpt>
      <trkpt lat="45.22812" lon="6.35198">
        <ele>1364.6</ele>
        <time>2020-08-22T12:05:47.000Z</time>
      </trkpt>
      <trkpt lat="45.22811" lon="6.35205">
        <ele>1364.2</ele>
        <time>2020-08-22T12:05:50.000Z</time>
      </trkpt>
      <trkpt lat="45.2281" lon="6.35208">
        <ele>1364</ele>
        <time>2020-08-22T12:05:52.000Z</time>
      </trkpt>
      <trkpt lat="45.22808" lon="6.35213">
        <ele>1363.7</ele>
        <time>2020-08-22T12:05:55.000Z</time>
      </trkpt>
      <trkpt lat="45.22807" lon="6.35214">
        <ele>1363.6</ele>
        <time>2020-08-22T12:05:56.000Z</time>
      </trkpt>
      <trkpt lat="45.22808" lon="6.35216">
        <ele>1363.5</ele>
        <time>2020-08-22T12:05:57.000Z</time>
      </trkpt>
      <trkpt lat="45.22808" lon="6.35217">
        <ele>1363.5</ele>
        <time>2020-08-22T12:05:58.000Z</time>
      </trkpt>
      <trkpt lat="45.22807" lon="6.35221">
        <ele>1363.2</ele>
        <time>2020-08-22T12:06:01.000Z</time>
      </trkpt>
      <trkpt lat="45.22807" lon="6.35224">
        <ele>1363</ele>
        <time>2020-08-22T12:06:03.000Z</time>
      </trkpt>
      <trkpt lat="45.22806" lon="6.35228">
        <ele>1362.9</ele>
        <time>2020-08-22T12:06:05.000Z</time>
      </trkpt>
      <trkpt lat="45.22804" lon="6.35234">
        <ele>1362.5</ele>
        <time>2020-08-22T12:06:08.000Z</time>
      </trkpt>
      <trkpt lat="45.22804" lon="6.35238">
        <ele>1362.3</ele>
        <time>2020-08-22T12:06:09.000Z</time>
      </trkpt>
      <trkpt lat="45.22802" lon="6.35255">
        <ele>1361.3</ele>
        <time>2020-08-22T12:06:12.000Z</time>
      </trkpt>
      <trkpt lat="45.22801" lon="6.3526">
        <ele>1361.1</ele>
        <time>2020-08-22T12:06:13.000Z</time>
      </trkpt>
      <trkpt lat="45.22796" lon="6.35278">
        <ele>1360</ele>
        <time>2020-08-22T12:06:17.000Z</time>
      </trkpt>
      <trkpt lat="45.22792" lon="6.35292">
        <ele>1358.6</ele>
        <time>2020-08-22T12:06:22.000Z</time>
      </trkpt>
      <trkpt lat="45.22793" lon="6.35294">
        <ele>1358.6</ele>
        <time>2020-08-22T12:06:23.000Z</time>
      </trkpt>
      <trkpt lat="45.22797" lon="6.35296">
        <ele>1358.6</ele>
        <time>2020-08-22T12:06:26.000Z</time>
      </trkpt>
      <trkpt lat="45.22803" lon="6.35296">
        <ele>1357.6</ele>
        <time>2020-08-22T12:06:28.000Z</time>
      </trkpt>
      <trkpt lat="45.22808" lon="6.35292">
        <ele>1356.8</ele>
        <time>2020-08-22T12:06:30.000Z</time>
      </trkpt>
      <trkpt lat="45.22809" lon="6.35291">
        <ele>1356.5</ele>
        <time>2020-08-22T12:06:31.000Z</time>
      </trkpt>
      <trkpt lat="45.22814" lon="6.35286">
        <ele>1355.9</ele>
        <time>2020-08-22T12:06:33.000Z</time>
      </trkpt>
      <trkpt lat="45.22816" lon="6.35282">
        <ele>1355.6</ele>
        <time>2020-08-22T12:06:34.000Z</time>
      </trkpt>
      <trkpt lat="45.22819" lon="6.35277">
        <ele>1355.4</ele>
        <time>2020-08-22T12:06:37.000Z</time>
      </trkpt>
      <trkpt lat="45.22818" lon="6.35277">
        <ele>1355.4</ele>
        <time>2020-08-22T12:06:38.000Z</time>
      </trkpt>
      <trkpt lat="45.22821" lon="6.35278">
        <ele>1355.4</ele>
        <time>2020-08-22T12:06:45.000Z</time>
      </trkpt>
      <trkpt lat="45.22821" lon="6.35278">
        <ele>1355.4</ele>
        <time>2020-08-22T12:06:46.000Z</time>
      </trkpt>
      <trkpt lat="45.22819" lon="6.3528">
        <ele>1355.5</ele>
        <time>2020-08-22T12:06:49.000Z</time>
      </trkpt>
      <trkpt lat="45.22819" lon="6.35281">
        <ele>1355.5</ele>
        <time>2020-08-22T12:06:51.000Z</time>
      </trkpt>
      <trkpt lat="45.22819" lon="6.3528">
        <ele>1355.6</ele>
        <time>2020-08-22T12:06:52.000Z</time>
      </trkpt>
      <trkpt lat="45.2282" lon="6.3528">
        <ele>1355.6</ele>
        <time>2020-08-22T12:06:58.000Z</time>
      </trkpt>
      <trkpt lat="45.22818" lon="6.35282">
        <ele>1355.7</ele>
        <time>2020-08-22T12:07:03.000Z</time>
      </trkpt>
      <trkpt lat="45.22818" lon="6.35282">
        <ele>1355.7</ele>
        <time>2020-08-22T12:07:04.000Z</time>
      </trkpt>
      <trkpt lat="45.22818" lon="6.35283">
        <ele>1355.8</ele>
        <time>2020-08-22T12:07:10.000Z</time>
      </trkpt>
      <trkpt lat="45.2282" lon="6.35282">
        <ele>1356</ele>
        <time>2020-08-22T12:07:14.000Z</time>
      </trkpt>
      <trkpt lat="45.22823" lon="6.35278">
        <ele>1356.5</ele>
        <time>2020-08-22T12:07:17.000Z</time>
      </trkpt>
      <trkpt lat="45.22824" lon="6.35277">
        <ele>1356.7</ele>
        <time>2020-08-22T12:07:18.000Z</time>
      </trkpt>
      <trkpt lat="45.22828" lon="6.35273">
        <ele>1357.5</ele>
        <time>2020-08-22T12:07:21.000Z</time>
      </trkpt>
      <trkpt lat="45.22835" lon="6.35261">
        <ele>1358.6</ele>
        <time>2020-08-22T12:07:27.000Z</time>
      </trkpt>
      <trkpt lat="45.22836" lon="6.35259">
        <ele>1358.8</ele>
        <time>2020-08-22T12:07:28.000Z</time>
      </trkpt>
      <trkpt lat="45.22837" lon="6.35258">
        <ele>1358.9</ele>
        <time>2020-08-22T12:07:29.000Z</time>
      </trkpt>
      <trkpt lat="45.22838" lon="6.35256">
        <ele>1359</ele>
        <time>2020-08-22T12:07:30.000Z</time>
      </trkpt>
      <trkpt lat="45.22841" lon="6.35246">
        <ele>1359.4</ele>
        <time>2020-08-22T12:07:35.000Z</time>
      </trkpt>
      <trkpt lat="45.22842" lon="6.35242">
        <ele>1359.6</ele>
        <time>2020-08-22T12:07:37.000Z</time>
      </trkpt>
      <trkpt lat="45.22844" lon="6.35237">
        <ele>1359.8</ele>
        <time>2020-08-22T12:07:39.000Z</time>
      </trkpt>
      <trkpt lat="45.22848" lon="6.35233">
        <ele>1360.1</ele>
        <time>2020-08-22T12:07:41.000Z</time>
      </trkpt>
      <trkpt lat="45.22849" lon="6.35231">
        <ele>1360.2</ele>
        <time>2020-08-22T12:07:42.000Z</time>
      </trkpt>
      <trkpt lat="45.22851" lon="6.35229">
        <ele>1360.2</ele>
        <time>2020-08-22T12:07:47.000Z</time>
      </trkpt>
      <trkpt lat="45.22852" lon="6.35229">
        <ele>1360.2</ele>
        <time>2020-08-22T12:07:52.000Z</time>
      </trkpt>
      <trkpt lat="45.22852" lon="6.3523">
        <ele>1360.2</ele>
        <time>2020-08-22T12:07:56.000Z</time>
      </trkpt>
      <trkpt lat="45.22853" lon="6.35229">
        <ele>1360.2</ele>
        <time>2020-08-22T12:07:59.000Z</time>
      </trkpt>
      <trkpt lat="45.22853" lon="6.35229">
        <ele>1360.2</ele>
        <time>2020-08-22T12:08:00.000Z</time>
      </trkpt>
      <trkpt lat="45.22855" lon="6.35226">
        <ele>1360.2</ele>
        <time>2020-08-22T12:08:02.000Z</time>
      </trkpt>
      <trkpt lat="45.22856" lon="6.35223">
        <ele>1360.1</ele>
        <time>2020-08-22T12:08:03.000Z</time>
      </trkpt>
      <trkpt lat="45.22858" lon="6.35218">
        <ele>1359.8</ele>
        <time>2020-08-22T12:08:04.000Z</time>
      </trkpt>
      <trkpt lat="45.22863" lon="6.35203">
        <ele>1358.7</ele>
        <time>2020-08-22T12:08:07.000Z</time>
      </trkpt>
      <trkpt lat="45.22865" lon="6.35198">
        <ele>1358.2</ele>
        <time>2020-08-22T12:08:08.000Z</time>
      </trkpt>
      <trkpt lat="45.22869" lon="6.35192">
        <ele>1357.6</ele>
        <time>2020-08-22T12:08:09.000Z</time>
      </trkpt>
      <trkpt lat="45.22872" lon="6.35185">
        <ele>1356.9</ele>
        <time>2020-08-22T12:08:10.000Z</time>
      </trkpt>
      <trkpt lat="45.2288" lon="6.35162">
        <ele>1354.9</ele>
        <time>2020-08-22T12:08:13.000Z</time>
      </trkpt>
      <trkpt lat="45.22883" lon="6.35154">
        <ele>1354.1</ele>
        <time>2020-08-22T12:08:14.000Z</time>
      </trkpt>
      <trkpt lat="45.22892" lon="6.35139">
        <ele>1352.4</ele>
        <time>2020-08-22T12:08:16.000Z</time>
      </trkpt>
      <trkpt lat="45.22897" lon="6.35133">
        <ele>1351.7</ele>
        <time>2020-08-22T12:08:17.000Z</time>
      </trkpt>
      <trkpt lat="45.22903" lon="6.35128">
        <ele>1351</ele>
        <time>2020-08-22T12:08:18.000Z</time>
      </trkpt>
      <trkpt lat="45.22908" lon="6.35121">
        <ele>1350.2</ele>
        <time>2020-08-22T12:08:19.000Z</time>
      </trkpt>
      <trkpt lat="45.22917" lon="6.35107">
        <ele>1348.3</ele>
        <time>2020-08-22T12:08:21.000Z</time>
      </trkpt>
      <trkpt lat="45.22923" lon="6.35101">
        <ele>1347.1</ele>
        <time>2020-08-22T12:08:22.000Z</time>
      </trkpt>
      <trkpt lat="45.22929" lon="6.35097">
        <ele>1345.8</ele>
        <time>2020-08-22T12:08:23.000Z</time>
      </trkpt>
      <trkpt lat="45.22941" lon="6.35087">
        <ele>1342.3</ele>
        <time>2020-08-22T12:08:25.000Z</time>
      </trkpt>
      <trkpt lat="45.22949" lon="6.35083">
        <ele>1340</ele>
        <time>2020-08-22T12:08:26.000Z</time>
      </trkpt>
      <trkpt lat="45.22955" lon="6.35079">
        <ele>1338.2</ele>
        <time>2020-08-22T12:08:27.000Z</time>
      </trkpt>
      <trkpt lat="45.2296" lon="6.35075">
        <ele>1337</ele>
        <time>2020-08-22T12:08:28.000Z</time>
      </trkpt>
      <trkpt lat="45.22967" lon="6.35071">
        <ele>1336</ele>
        <time>2020-08-22T12:08:30.000Z</time>
      </trkpt>
      <trkpt lat="45.22969" lon="6.35069">
        <ele>1335.9</ele>
        <time>2020-08-22T12:08:31.000Z</time>
      </trkpt>
      <trkpt lat="45.2297" lon="6.35067">
        <ele>1335.8</ele>
        <time>2020-08-22T12:08:32.000Z</time>
      </trkpt>
      <trkpt lat="45.22973" lon="6.35064">
        <ele>1335.8</ele>
        <time>2020-08-22T12:08:34.000Z</time>
      </trkpt>
      <trkpt lat="45.22985" lon="6.35062">
        <ele>1336.6</ele>
        <time>2020-08-22T12:08:41.000Z</time>
      </trkpt>
      <trkpt lat="45.22997" lon="6.35064">
        <ele>1337.7</ele>
        <time>2020-08-22T12:08:47.000Z</time>
      </trkpt>
      <trkpt lat="45.22999" lon="6.35065">
        <ele>1337.9</ele>
        <time>2020-08-22T12:08:48.000Z</time>
      </trkpt>
      <trkpt lat="45.2301" lon="6.35069">
        <ele>1338.3</ele>
        <time>2020-08-22T12:08:53.000Z</time>
      </trkpt>
      <trkpt lat="45.23012" lon="6.3507">
        <ele>1338.3</ele>
        <time>2020-08-22T12:08:54.000Z</time>
      </trkpt>
      <trkpt lat="45.23028" lon="6.3508">
        <ele>1337.2</ele>
        <time>2020-08-22T12:08:59.000Z</time>
      </trkpt>
      <trkpt lat="45.23053" lon="6.35088">
        <ele>1335.2</ele>
        <time>2020-08-22T12:09:03.000Z</time>
      </trkpt>
      <trkpt lat="45.23071" lon="6.35095">
        <ele>1333.9</ele>
        <time>2020-08-22T12:09:07.000Z</time>
      </trkpt>
      <trkpt lat="45.23077" lon="6.35093">
        <ele>1333.4</ele>
        <time>2020-08-22T12:09:09.000Z</time>
      </trkpt>
      <trkpt lat="45.23083" lon="6.35086">
        <ele>1332.8</ele>
        <time>2020-08-22T12:09:11.000Z</time>
      </trkpt>
      <trkpt lat="45.23088" lon="6.35077">
        <ele>1332</ele>
        <time>2020-08-22T12:09:13.000Z</time>
      </trkpt>
      <trkpt lat="45.23094" lon="6.35068">
        <ele>1331.3</ele>
        <time>2020-08-22T12:09:15.000Z</time>
      </trkpt>
      <trkpt lat="45.23098" lon="6.35066">
        <ele>1331</ele>
        <time>2020-08-22T12:09:16.000Z</time>
      </trkpt>
      <trkpt lat="45.23101" lon="6.35065">
        <ele>1330.6</ele>
        <time>2020-08-22T12:09:17.000Z</time>
      </trkpt>
      <trkpt lat="45.23105" lon="6.35066">
        <ele>1330.4</ele>
        <time>2020-08-22T12:09:18.000Z</time>
      </trkpt>
      <trkpt lat="45.23107" lon="6.35066">
        <ele>1330.2</ele>
        <time>2020-08-22T12:09:19.000Z</time>
      </trkpt>
      <trkpt lat="45.2311" lon="6.35065">
        <ele>1330</ele>
        <time>2020-08-22T12:09:23.000Z</time>
      </trkpt>
      <trkpt lat="45.2311" lon="6.35065">
        <ele>1329.9</ele>
        <time>2020-08-22T12:09:26.000Z</time>
      </trkpt>
      <trkpt lat="45.2311" lon="6.35065">
        <ele>1329.9</ele>
        <time>2020-08-22T12:09:27.000Z</time>
      </trkpt>
      <trkpt lat="45.2311" lon="6.35065">
        <ele>1329.9</ele>
        <time>2020-08-22T12:09:29.000Z</time>
      </trkpt>
      <trkpt lat="45.2311" lon="6.35065">
        <ele>1329.9</ele>
        <time>2020-08-22T12:09:30.000Z</time>
      </trkpt>
      <trkpt lat="45.2311" lon="6.35065">
        <ele>1329.9</ele>
        <time>2020-08-22T12:09:31.000Z</time>
      </trkpt>
      <trkpt lat="45.23115" lon="6.35058">
        <ele>1329.6</ele>
        <time>2020-08-22T12:09:39.000Z</time>
      </trkpt>
      <trkpt lat="45.23115" lon="6.35057">
        <ele>1329.5</ele>
        <time>2020-08-22T12:09:40.000Z</time>
      </trkpt>
      <trkpt lat="45.23118" lon="6.35032">
        <ele>1329.3</ele>
        <time>2020-08-22T12:09:52.000Z</time>
      </trkpt>
      <trkpt lat="45.23118" lon="6.35031">
        <ele>1329.3</ele>
        <time>2020-08-22T12:09:53.000Z</time>
      </trkpt>
      <trkpt lat="45.23121" lon="6.35023">
        <ele>1329.4</ele>
        <time>2020-08-22T12:09:58.000Z</time>
      </trkpt>
      <trkpt lat="45.23122" lon="6.35019">
        <ele>1329.6</ele>
        <time>2020-08-22T12:10:01.000Z</time>
      </trkpt>
      <trkpt lat="45.23125" lon="6.35016">
        <ele>1329.8</ele>
        <time>2020-08-22T12:10:04.000Z</time>
      </trkpt>
      <trkpt lat="45.23128" lon="6.35013">
        <ele>1330.1</ele>
        <time>2020-08-22T12:10:07.000Z</time>
      </trkpt>
      <trkpt lat="45.23131" lon="6.35011">
        <ele>1330.5</ele>
        <time>2020-08-22T12:10:10.000Z</time>
      </trkpt>
      <trkpt lat="45.23131" lon="6.3501">
        <ele>1330.7</ele>
        <time>2020-08-22T12:10:11.000Z</time>
      </trkpt>
      <trkpt lat="45.23136" lon="6.35006">
        <ele>1331.5</ele>
        <time>2020-08-22T12:10:15.000Z</time>
      </trkpt>
      <trkpt lat="45.23137" lon="6.35005">
        <ele>1331.6</ele>
        <time>2020-08-22T12:10:16.000Z</time>
      </trkpt>
      <trkpt lat="45.23138" lon="6.35005">
        <ele>1331.8</ele>
        <time>2020-08-22T12:10:17.000Z</time>
      </trkpt>
      <trkpt lat="45.23142" lon="6.35002">
        <ele>1332.5</ele>
        <time>2020-08-22T12:10:22.000Z</time>
      </trkpt>
      <trkpt lat="45.23146" lon="6.35001">
        <ele>1333.3</ele>
        <time>2020-08-22T12:10:26.000Z</time>
      </trkpt>
      <trkpt lat="45.23152" lon="6.35001">
        <ele>1334.5</ele>
        <time>2020-08-22T12:10:31.000Z</time>
      </trkpt>
      <trkpt lat="45.23157" lon="6.35004">
        <ele>1335.5</ele>
        <time>2020-08-22T12:10:36.000Z</time>
      </trkpt>
      <trkpt lat="45.23157" lon="6.35004">
        <ele>1335.7</ele>
        <time>2020-08-22T12:10:37.000Z</time>
      </trkpt>
      <trkpt lat="45.23158" lon="6.35005">
        <ele>1335.9</ele>
        <time>2020-08-22T12:10:38.000Z</time>
      </trkpt>
      <trkpt lat="45.23158" lon="6.35009">
        <ele>1336.5</ele>
        <time>2020-08-22T12:10:41.000Z</time>
      </trkpt>
      <trkpt lat="45.23158" lon="6.35012">
        <ele>1336.9</ele>
        <time>2020-08-22T12:10:43.000Z</time>
      </trkpt>
      <trkpt lat="45.23156" lon="6.35017">
        <ele>1337.7</ele>
        <time>2020-08-22T12:10:47.000Z</time>
      </trkpt>
      <trkpt lat="45.23156" lon="6.35018">
        <ele>1337.9</ele>
        <time>2020-08-22T12:10:48.000Z</time>
      </trkpt>
      <trkpt lat="45.23154" lon="6.35022">
        <ele>1338.5</ele>
        <time>2020-08-22T12:10:51.000Z</time>
      </trkpt>
      <trkpt lat="45.23153" lon="6.35023">
        <ele>1338.8</ele>
        <time>2020-08-22T12:10:53.000Z</time>
      </trkpt>
      <trkpt lat="45.2315" lon="6.35033">
        <ele>1340.1</ele>
        <time>2020-08-22T12:11:00.000Z</time>
      </trkpt>
      <trkpt lat="45.2315" lon="6.35034">
        <ele>1340.2</ele>
        <time>2020-08-22T12:11:01.000Z</time>
      </trkpt>
      <trkpt lat="45.23157" lon="6.35036">
        <ele>1341.5</ele>
        <time>2020-08-22T12:11:07.000Z</time>
      </trkpt>
      <trkpt lat="45.23158" lon="6.35037">
        <ele>1341.8</ele>
        <time>2020-08-22T12:11:08.000Z</time>
      </trkpt>
      <trkpt lat="45.2316" lon="6.35039">
        <ele>1342.3</ele>
        <time>2020-08-22T12:11:10.000Z</time>
      </trkpt>
      <trkpt lat="45.2316" lon="6.3504">
        <ele>1342.5</ele>
        <time>2020-08-22T12:11:11.000Z</time>
      </trkpt>
      <trkpt lat="45.23161" lon="6.35041">
        <ele>1342.7</ele>
        <time>2020-08-22T12:11:12.000Z</time>
      </trkpt>
      <trkpt lat="45.23161" lon="6.35042">
        <ele>1342.8</ele>
        <time>2020-08-22T12:11:13.000Z</time>
      </trkpt>
      <trkpt lat="45.23162" lon="6.35044">
        <ele>1343</ele>
        <time>2020-08-22T12:11:14.000Z</time>
      </trkpt>
      <trkpt lat="45.23163" lon="6.35047">
        <ele>1343.6</ele>
        <time>2020-08-22T12:11:17.000Z</time>
      </trkpt>
      <trkpt lat="45.23163" lon="6.35048">
        <ele>1343.8</ele>
        <time>2020-08-22T12:11:18.000Z</time>
      </trkpt>
      <trkpt lat="45.23165" lon="6.35049">
        <ele>1344.1</ele>
        <time>2020-08-22T12:11:19.000Z</time>
      </trkpt>
      <trkpt lat="45.23165" lon="6.3505">
        <ele>1344.3</ele>
        <time>2020-08-22T12:11:20.000Z</time>
      </trkpt>
      <trkpt lat="45.23168" lon="6.35052">
        <ele>1344.8</ele>
        <time>2020-08-22T12:11:22.000Z</time>
      </trkpt>
      <trkpt lat="45.23171" lon="6.35055">
        <ele>1345.7</ele>
        <time>2020-08-22T12:11:26.000Z</time>
      </trkpt>
      <trkpt lat="45.23172" lon="6.35056">
        <ele>1345.9</ele>
        <time>2020-08-22T12:11:27.000Z</time>
      </trkpt>
      <trkpt lat="45.23174" lon="6.35058">
        <ele>1346.4</ele>
        <time>2020-08-22T12:11:29.000Z</time>
      </trkpt>
      <trkpt lat="45.23177" lon="6.35059">
        <ele>1346.9</ele>
        <time>2020-08-22T12:11:31.000Z</time>
      </trkpt>
      <trkpt lat="45.2318" lon="6.3506">
        <ele>1347.4</ele>
        <time>2020-08-22T12:11:33.000Z</time>
      </trkpt>
      <trkpt lat="45.23181" lon="6.3506">
        <ele>1347.7</ele>
        <time>2020-08-22T12:11:34.000Z</time>
      </trkpt>
      <trkpt lat="45.23185" lon="6.35062">
        <ele>1348.2</ele>
        <time>2020-08-22T12:11:37.000Z</time>
      </trkpt>
      <trkpt lat="45.2319" lon="6.35062">
        <ele>1348.8</ele>
        <time>2020-08-22T12:11:40.000Z</time>
      </trkpt>
      <trkpt lat="45.23195" lon="6.35062">
        <ele>1349.3</ele>
        <time>2020-08-22T12:11:43.000Z</time>
      </trkpt>
      <trkpt lat="45.23203" lon="6.35064">
        <ele>1350.2</ele>
        <time>2020-08-22T12:11:48.000Z</time>
      </trkpt>
      <trkpt lat="45.23208" lon="6.35064">
        <ele>1350.7</ele>
        <time>2020-08-22T12:11:51.000Z</time>
      </trkpt>
      <trkpt lat="45.23211" lon="6.35066">
        <ele>1351</ele>
        <time>2020-08-22T12:11:54.000Z</time>
      </trkpt>
      <trkpt lat="45.23211" lon="6.35068">
        <ele>1351.1</ele>
        <time>2020-08-22T12:11:55.000Z</time>
      </trkpt>
      <trkpt lat="45.23207" lon="6.35078">
        <ele>1351.8</ele>
        <time>2020-08-22T12:12:01.000Z</time>
      </trkpt>
      <trkpt lat="45.23206" lon="6.3508">
        <ele>1351.9</ele>
        <time>2020-08-22T12:12:02.000Z</time>
      </trkpt>
      <trkpt lat="45.23204" lon="6.35088">
        <ele>1352.4</ele>
        <time>2020-08-22T12:12:06.000Z</time>
      </trkpt>
      <trkpt lat="45.23203" lon="6.35091">
        <ele>1352.6</ele>
        <time>2020-08-22T12:12:08.000Z</time>
      </trkpt>
      <trkpt lat="45.23201" lon="6.351">
        <ele>1353.1</ele>
        <time>2020-08-22T12:12:12.000Z</time>
      </trkpt>
      <trkpt lat="45.232" lon="6.35104">
        <ele>1353.4</ele>
        <time>2020-08-22T12:12:14.000Z</time>
      </trkpt>
      <trkpt lat="45.232" lon="6.35116">
        <ele>1355.2</ele>
        <time>2020-08-22T12:12:20.000Z</time>
      </trkpt>
      <trkpt lat="45.232" lon="6.35118">
        <ele>1355.2</ele>
        <time>2020-08-22T12:12:21.000Z</time>
      </trkpt>
      <trkpt lat="45.23204" lon="6.35129">
        <ele>1355.4</ele>
        <time>2020-08-22T12:12:25.000Z</time>
      </trkpt>
      <trkpt lat="45.23205" lon="6.35136">
        <ele>1355.4</ele>
        <time>2020-08-22T12:12:27.000Z</time>
      </trkpt>
      <trkpt lat="45.23209" lon="6.35147">
        <ele>1355.3</ele>
        <time>2020-08-22T12:12:30.000Z</time>
      </trkpt>
      <trkpt lat="45.23212" lon="6.35158">
        <ele>1355.4</ele>
        <time>2020-08-22T12:12:33.000Z</time>
      </trkpt>
      <trkpt lat="45.23214" lon="6.35166">
        <ele>1355.6</ele>
        <time>2020-08-22T12:12:35.000Z</time>
      </trkpt>
      <trkpt lat="45.23219" lon="6.35189">
        <ele>1356.2</ele>
        <time>2020-08-22T12:12:42.000Z</time>
      </trkpt>
      <trkpt lat="45.23224" lon="6.35216">
        <ele>1357.3</ele>
        <time>2020-08-22T12:12:49.000Z</time>
      </trkpt>
      <trkpt lat="45.23224" lon="6.3524">
        <ele>1358.1</ele>
        <time>2020-08-22T12:12:55.000Z</time>
      </trkpt>
      <trkpt lat="45.23224" lon="6.35244">
        <ele>1358.2</ele>
        <time>2020-08-22T12:12:56.000Z</time>
      </trkpt>
      <trkpt lat="45.23223" lon="6.3526">
        <ele>1358.8</ele>
        <time>2020-08-22T12:13:00.000Z</time>
      </trkpt>
      <trkpt lat="45.23223" lon="6.35268">
        <ele>1359</ele>
        <time>2020-08-22T12:13:02.000Z</time>
      </trkpt>
      <trkpt lat="45.23222" lon="6.35289">
        <ele>1359.9</ele>
        <time>2020-08-22T12:13:07.000Z</time>
      </trkpt>
      <trkpt lat="45.23223" lon="6.35296">
        <ele>1360.1</ele>
        <time>2020-08-22T12:13:09.000Z</time>
      </trkpt>
      <trkpt lat="45.23222" lon="6.35317">
        <ele>1360.8</ele>
        <time>2020-08-22T12:13:14.000Z</time>
      </trkpt>
      <trkpt lat="45.23222" lon="6.35322">
        <ele>1360.9</ele>
        <time>2020-08-22T12:13:15.000Z</time>
      </trkpt>
      <trkpt lat="45.23217" lon="6.3535">
        <ele>1362.1</ele>
        <time>2020-08-22T12:13:22.000Z</time>
      </trkpt>
      <trkpt lat="45.23218" lon="6.35372">
        <ele>1363.1</ele>
        <time>2020-08-22T12:13:27.000Z</time>
      </trkpt>
      <trkpt lat="45.23221" lon="6.35396">
        <ele>1364.1</ele>
        <time>2020-08-22T12:13:32.000Z</time>
      </trkpt>
      <trkpt lat="45.23221" lon="6.35406">
        <ele>1364.3</ele>
        <time>2020-08-22T12:13:34.000Z</time>
      </trkpt>
      <trkpt lat="45.23224" lon="6.3544">
        <ele>1364.8</ele>
        <time>2020-08-22T12:13:40.000Z</time>
      </trkpt>
      <trkpt lat="45.23225" lon="6.35453">
        <ele>1364.7</ele>
        <time>2020-08-22T12:13:42.000Z</time>
      </trkpt>
      <trkpt lat="45.23229" lon="6.35479">
        <ele>1364.8</ele>
        <time>2020-08-22T12:13:46.000Z</time>
      </trkpt>
      <trkpt lat="45.23237" lon="6.35489">
        <ele>1364.9</ele>
        <time>2020-08-22T12:13:48.000Z</time>
      </trkpt>
      <trkpt lat="45.23243" lon="6.35492">
        <ele>1364.9</ele>
        <time>2020-08-22T12:13:49.000Z</time>
      </trkpt>
      <trkpt lat="45.23248" lon="6.35493">
        <ele>1364.9</ele>
        <time>2020-08-22T12:13:50.000Z</time>
      </trkpt>
      <trkpt lat="45.23258" lon="6.35488">
        <ele>1365</ele>
        <time>2020-08-22T12:13:52.000Z</time>
      </trkpt>
      <trkpt lat="45.23269" lon="6.35472">
        <ele>1365</ele>
        <time>2020-08-22T12:13:55.000Z</time>
      </trkpt>
      <trkpt lat="45.23274" lon="6.35467">
        <ele>1365</ele>
        <time>2020-08-22T12:13:56.000Z</time>
      </trkpt>
      <trkpt lat="45.23279" lon="6.35463">
        <ele>1364.9</ele>
        <time>2020-08-22T12:13:57.000Z</time>
      </trkpt>
      <trkpt lat="45.23296" lon="6.35454">
        <ele>1364.5</ele>
        <time>2020-08-22T12:14:00.000Z</time>
      </trkpt>
      <trkpt lat="45.23335" lon="6.3543">
        <ele>1364</ele>
        <time>2020-08-22T12:14:07.000Z</time>
      </trkpt>
      <trkpt lat="45.23345" lon="6.3542">
        <ele>1364</ele>
        <time>2020-08-22T12:14:09.000Z</time>
      </trkpt>
      <trkpt lat="45.23351" lon="6.35415">
        <ele>1364</ele>
        <time>2020-08-22T12:14:10.000Z</time>
      </trkpt>
      <trkpt lat="45.23367" lon="6.35403">
        <ele>1364</ele>
        <time>2020-08-22T12:14:13.000Z</time>
      </trkpt>
      <trkpt lat="45.23379" lon="6.35395">
        <ele>1364.2</ele>
        <time>2020-08-22T12:14:15.000Z</time>
      </trkpt>
      <trkpt lat="45.23384" lon="6.35391">
        <ele>1364.4</ele>
        <time>2020-08-22T12:14:16.000Z</time>
      </trkpt>
      <trkpt lat="45.23392" lon="6.3538">
        <ele>1364.8</ele>
        <time>2020-08-22T12:14:18.000Z</time>
      </trkpt>
      <trkpt lat="45.23395" lon="6.35373">
        <ele>1365</ele>
        <time>2020-08-22T12:14:19.000Z</time>
      </trkpt>
      <trkpt lat="45.23404" lon="6.35348">
        <ele>1366.1</ele>
        <time>2020-08-22T12:14:23.000Z</time>
      </trkpt>
      <trkpt lat="45.23412" lon="6.3534">
        <ele>1366.4</ele>
        <time>2020-08-22T12:14:25.000Z</time>
      </trkpt>
      <trkpt lat="45.23432" lon="6.35335">
        <ele>1367.3</ele>
        <time>2020-08-22T12:14:29.000Z</time>
      </trkpt>
      <trkpt lat="45.23442" lon="6.35331">
        <ele>1367.7</ele>
        <time>2020-08-22T12:14:31.000Z</time>
      </trkpt>
      <trkpt lat="45.23455" lon="6.35322">
        <ele>1368.3</ele>
        <time>2020-08-22T12:14:34.000Z</time>
      </trkpt>
      <trkpt lat="45.23476" lon="6.35302">
        <ele>1369.2</ele>
        <time>2020-08-22T12:14:39.000Z</time>
      </trkpt>
      <trkpt lat="45.2348" lon="6.35297">
        <ele>1369.4</ele>
        <time>2020-08-22T12:14:40.000Z</time>
      </trkpt>
      <trkpt lat="45.23484" lon="6.35293">
        <ele>1369.6</ele>
        <time>2020-08-22T12:14:41.000Z</time>
      </trkpt>
      <trkpt lat="45.23488" lon="6.35288">
        <ele>1369.8</ele>
        <time>2020-08-22T12:14:42.000Z</time>
      </trkpt>
      <trkpt lat="45.23499" lon="6.35267">
        <ele>1371.1</ele>
        <time>2020-08-22T12:14:46.000Z</time>
      </trkpt>
      <trkpt lat="45.23513" lon="6.35241">
        <ele>1373.1</ele>
        <time>2020-08-22T12:14:52.000Z</time>
      </trkpt>
      <trkpt lat="45.23514" lon="6.35237">
        <ele>1373.5</ele>
        <time>2020-08-22T12:14:53.000Z</time>
      </trkpt>
      <trkpt lat="45.23523" lon="6.3522">
        <ele>1375.2</ele>
        <time>2020-08-22T12:14:58.000Z</time>
      </trkpt>
      <trkpt lat="45.23526" lon="6.35214">
        <ele>1375.8</ele>
        <time>2020-08-22T12:15:00.000Z</time>
      </trkpt>
      <trkpt lat="45.23527" lon="6.35211">
        <ele>1376.1</ele>
        <time>2020-08-22T12:15:01.000Z</time>
      </trkpt>
      <trkpt lat="45.23531" lon="6.35202">
        <ele>1376.8</ele>
        <time>2020-08-22T12:15:04.000Z</time>
      </trkpt>
      <trkpt lat="45.23538" lon="6.35192">
        <ele>1377.4</ele>
        <time>2020-08-22T12:15:07.000Z</time>
      </trkpt>
      <trkpt lat="45.2354" lon="6.3519">
        <ele>1377.5</ele>
        <time>2020-08-22T12:15:08.000Z</time>
      </trkpt>
      <trkpt lat="45.23553" lon="6.35186">
        <ele>1378.2</ele>
        <time>2020-08-22T12:15:12.000Z</time>
      </trkpt>
      <trkpt lat="45.23566" lon="6.35186">
        <ele>1378.6</ele>
        <time>2020-08-22T12:15:16.000Z</time>
      </trkpt>
      <trkpt lat="45.23578" lon="6.35181">
        <ele>1378.6</ele>
        <time>2020-08-22T12:15:20.000Z</time>
      </trkpt>
      <trkpt lat="45.23586" lon="6.35171">
        <ele>1378.6</ele>
        <time>2020-08-22T12:15:23.000Z</time>
      </trkpt>
      <trkpt lat="45.23596" lon="6.35159">
        <ele>1378.8</ele>
        <time>2020-08-22T12:15:27.000Z</time>
      </trkpt>
      <trkpt lat="45.23604" lon="6.35152">
        <ele>1378.9</ele>
        <time>2020-08-22T12:15:30.000Z</time>
      </trkpt>
      <trkpt lat="45.23615" lon="6.3514">
        <ele>1378.9</ele>
        <time>2020-08-22T12:15:34.000Z</time>
      </trkpt>
      <trkpt lat="45.23626" lon="6.35129">
        <ele>1378.9</ele>
        <time>2020-08-22T12:15:38.000Z</time>
      </trkpt>
      <trkpt lat="45.23636" lon="6.35123">
        <ele>1378.8</ele>
        <time>2020-08-22T12:15:41.000Z</time>
      </trkpt>
      <trkpt lat="45.23649" lon="6.35114">
        <ele>1378.6</ele>
        <time>2020-08-22T12:15:45.000Z</time>
      </trkpt>
      <trkpt lat="45.23668" lon="6.35103">
        <ele>1378.2</ele>
        <time>2020-08-22T12:15:51.000Z</time>
      </trkpt>
      <trkpt lat="45.23681" lon="6.35094">
        <ele>1377.9</ele>
        <time>2020-08-22T12:15:55.000Z</time>
      </trkpt>
      <trkpt lat="45.23688" lon="6.35088">
        <ele>1377.6</ele>
        <time>2020-08-22T12:15:57.000Z</time>
      </trkpt>
      <trkpt lat="45.23713" lon="6.35067">
        <ele>1375.9</ele>
        <time>2020-08-22T12:16:04.000Z</time>
      </trkpt>
      <trkpt lat="45.23716" lon="6.35062">
        <ele>1374.7</ele>
        <time>2020-08-22T12:16:05.000Z</time>
      </trkpt>
      <trkpt lat="45.23716" lon="6.35053">
        <ele>1373.2</ele>
        <time>2020-08-22T12:16:07.000Z</time>
      </trkpt>
      <trkpt lat="45.23708" lon="6.35046">
        <ele>1370.8</ele>
        <time>2020-08-22T12:16:11.000Z</time>
      </trkpt>
      <trkpt lat="45.23687" lon="6.35032">
        <ele>1365.5</ele>
        <time>2020-08-22T12:16:16.000Z</time>
      </trkpt>
      <trkpt lat="45.23674" lon="6.3502">
        <ele>1361.8</ele>
        <time>2020-08-22T12:16:20.000Z</time>
      </trkpt>
      <trkpt lat="45.23675" lon="6.35015">
        <ele>1360.9</ele>
        <time>2020-08-22T12:16:21.000Z</time>
      </trkpt>
      <trkpt lat="45.23676" lon="6.35009">
        <ele>1359.9</ele>
        <time>2020-08-22T12:16:22.000Z</time>
      </trkpt>
      <trkpt lat="45.23677" lon="6.35003">
        <ele>1358.8</ele>
        <time>2020-08-22T12:16:23.000Z</time>
      </trkpt>
      <trkpt lat="45.23677" lon="6.34997">
        <ele>1357.9</ele>
        <time>2020-08-22T12:16:24.000Z</time>
      </trkpt>
      <trkpt lat="45.23676" lon="6.34991">
        <ele>1356.9</ele>
        <time>2020-08-22T12:16:25.000Z</time>
      </trkpt>
      <trkpt lat="45.23674" lon="6.34986">
        <ele>1355.9</ele>
        <time>2020-08-22T12:16:26.000Z</time>
      </trkpt>
      <trkpt lat="45.23672" lon="6.3498">
        <ele>1354.8</ele>
        <time>2020-08-22T12:16:27.000Z</time>
      </trkpt>
      <trkpt lat="45.2367" lon="6.34958">
        <ele>1351.2</ele>
        <time>2020-08-22T12:16:29.000Z</time>
      </trkpt>
      <trkpt lat="45.23669" lon="6.34945">
        <ele>1349.1</ele>
        <time>2020-08-22T12:16:30.000Z</time>
      </trkpt>
      <trkpt lat="45.23669" lon="6.34934">
        <ele>1347.2</ele>
        <time>2020-08-22T12:16:31.000Z</time>
      </trkpt>
      <trkpt lat="45.23669" lon="6.34923">
        <ele>1345.5</ele>
        <time>2020-08-22T12:16:32.000Z</time>
      </trkpt>
      <trkpt lat="45.23669" lon="6.34915">
        <ele>1344.1</ele>
        <time>2020-08-22T12:16:33.000Z</time>
      </trkpt>
      <trkpt lat="45.23669" lon="6.34908">
        <ele>1343.1</ele>
        <time>2020-08-22T12:16:34.000Z</time>
      </trkpt>
      <trkpt lat="45.23668" lon="6.34905">
        <ele>1342.4</ele>
        <time>2020-08-22T12:16:35.000Z</time>
      </trkpt>
      <trkpt lat="45.23667" lon="6.34903">
        <ele>1342</ele>
        <time>2020-08-22T12:16:36.000Z</time>
      </trkpt>
      <trkpt lat="45.23665" lon="6.349">
        <ele>1341.3</ele>
        <time>2020-08-22T12:16:37.000Z</time>
      </trkpt>
      <trkpt lat="45.23663" lon="6.34895">
        <ele>1340.4</ele>
        <time>2020-08-22T12:16:38.000Z</time>
      </trkpt>
      <trkpt lat="45.23662" lon="6.34887">
        <ele>1339.2</ele>
        <time>2020-08-22T12:16:39.000Z</time>
      </trkpt>
      <trkpt lat="45.23664" lon="6.34878">
        <ele>1337.6</ele>
        <time>2020-08-22T12:16:40.000Z</time>
      </trkpt>
      <trkpt lat="45.23666" lon="6.34867">
        <ele>1335.7</ele>
        <time>2020-08-22T12:16:41.000Z</time>
      </trkpt>
      <trkpt lat="45.2367" lon="6.34856">
        <ele>1333.8</ele>
        <time>2020-08-22T12:16:42.000Z</time>
      </trkpt>
      <trkpt lat="45.23675" lon="6.34846">
        <ele>1331.8</ele>
        <time>2020-08-22T12:16:43.000Z</time>
      </trkpt>
      <trkpt lat="45.23685" lon="6.34826">
        <ele>1327.7</ele>
        <time>2020-08-22T12:16:45.000Z</time>
      </trkpt>
      <trkpt lat="45.23688" lon="6.34814">
        <ele>1325.6</ele>
        <time>2020-08-22T12:16:46.000Z</time>
      </trkpt>
      <trkpt lat="45.23689" lon="6.348">
        <ele>1323.4</ele>
        <time>2020-08-22T12:16:47.000Z</time>
      </trkpt>
      <trkpt lat="45.23691" lon="6.34787">
        <ele>1321.1</ele>
        <time>2020-08-22T12:16:48.000Z</time>
      </trkpt>
      <trkpt lat="45.23692" lon="6.34774">
        <ele>1319.9</ele>
        <time>2020-08-22T12:16:49.000Z</time>
      </trkpt>
      <trkpt lat="45.23693" lon="6.34764">
        <ele>1319.4</ele>
        <time>2020-08-22T12:16:50.000Z</time>
      </trkpt>
      <trkpt lat="45.23695" lon="6.34758">
        <ele>1319.1</ele>
        <time>2020-08-22T12:16:51.000Z</time>
      </trkpt>
      <trkpt lat="45.23695" lon="6.34751">
        <ele>1318.8</ele>
        <time>2020-08-22T12:16:52.000Z</time>
      </trkpt>
      <trkpt lat="45.23697" lon="6.34745">
        <ele>1318.4</ele>
        <time>2020-08-22T12:16:53.000Z</time>
      </trkpt>
      <trkpt lat="45.237" lon="6.34739">
        <ele>1318</ele>
        <time>2020-08-22T12:16:54.000Z</time>
      </trkpt>
      <trkpt lat="45.23704" lon="6.34731">
        <ele>1317.6</ele>
        <time>2020-08-22T12:16:55.000Z</time>
      </trkpt>
      <trkpt lat="45.23706" lon="6.34722">
        <ele>1317.1</ele>
        <time>2020-08-22T12:16:56.000Z</time>
      </trkpt>
      <trkpt lat="45.23711" lon="6.347">
        <ele>1315.9</ele>
        <time>2020-08-22T12:16:58.000Z</time>
      </trkpt>
      <trkpt lat="45.23714" lon="6.3469">
        <ele>1315.4</ele>
        <time>2020-08-22T12:16:59.000Z</time>
      </trkpt>
      <trkpt lat="45.23717" lon="6.34683">
        <ele>1315</ele>
        <time>2020-08-22T12:17:00.000Z</time>
      </trkpt>
      <trkpt lat="45.23721" lon="6.34673">
        <ele>1314.4</ele>
        <time>2020-08-22T12:17:02.000Z</time>
      </trkpt>
      <trkpt lat="45.2372" lon="6.34665">
        <ele>1314</ele>
        <time>2020-08-22T12:17:04.000Z</time>
      </trkpt>
      <trkpt lat="45.2372" lon="6.34663">
        <ele>1313.9</ele>
        <time>2020-08-22T12:17:05.000Z</time>
      </trkpt>
      <trkpt lat="45.2372" lon="6.34661">
        <ele>1313.8</ele>
        <time>2020-08-22T12:17:06.000Z</time>
      </trkpt>
      <trkpt lat="45.2372" lon="6.34659">
        <ele>1313.7</ele>
        <time>2020-08-22T12:17:07.000Z</time>
      </trkpt>
      <trkpt lat="45.23721" lon="6.34661">
        <ele>1313.6</ele>
        <time>2020-08-22T12:17:08.000Z</time>
      </trkpt>
      <trkpt lat="45.23723" lon="6.34663">
        <ele>1313.4</ele>
        <time>2020-08-22T12:17:09.000Z</time>
      </trkpt>
      <trkpt lat="45.23726" lon="6.34662">
        <ele>1313.2</ele>
        <time>2020-08-22T12:17:12.000Z</time>
      </trkpt>
      <trkpt lat="45.23725" lon="6.34659">
        <ele>1313.1</ele>
        <time>2020-08-22T12:17:13.000Z</time>
      </trkpt>
      <trkpt lat="45.23725" lon="6.34646">
        <ele>1312.4</ele>
        <time>2020-08-22T12:17:15.000Z</time>
      </trkpt>
      <trkpt lat="45.23726" lon="6.34639">
        <ele>1310.2</ele>
        <time>2020-08-22T12:17:16.000Z</time>
      </trkpt>
      <trkpt lat="45.23726" lon="6.34624">
        <ele>1306.6</ele>
        <time>2020-08-22T12:17:18.000Z</time>
      </trkpt>
      <trkpt lat="45.23725" lon="6.34617">
        <ele>1304.2</ele>
        <time>2020-08-22T12:17:19.000Z</time>
      </trkpt>
      <trkpt lat="45.23723" lon="6.34611">
        <ele>1303.2</ele>
        <time>2020-08-22T12:17:20.000Z</time>
      </trkpt>
      <trkpt lat="45.23723" lon="6.34606">
        <ele>1301</ele>
        <time>2020-08-22T12:17:21.000Z</time>
      </trkpt>
      <trkpt lat="45.23723" lon="6.34602">
        <ele>1301.1</ele>
        <time>2020-08-22T12:17:22.000Z</time>
      </trkpt>
      <trkpt lat="45.23723" lon="6.346">
        <ele>1300.1</ele>
        <time>2020-08-22T12:17:23.000Z</time>
      </trkpt>
      <trkpt lat="45.23723" lon="6.34598">
        <ele>1300.3</ele>
        <time>2020-08-22T12:17:25.000Z</time>
      </trkpt>
      <trkpt lat="45.23723" lon="6.34598">
        <ele>1300.4</ele>
        <time>2020-08-22T12:17:26.000Z</time>
      </trkpt>
      <trkpt lat="45.23724" lon="6.346">
        <ele>1300.5</ele>
        <time>2020-08-22T12:17:27.000Z</time>
      </trkpt>
      <trkpt lat="45.23725" lon="6.34602">
        <ele>1300.5</ele>
        <time>2020-08-22T12:17:28.000Z</time>
      </trkpt>
      <trkpt lat="45.23728" lon="6.34606">
        <ele>1301.5</ele>
        <time>2020-08-22T12:17:29.000Z</time>
      </trkpt>
      <trkpt lat="45.23732" lon="6.3461">
        <ele>1302.5</ele>
        <time>2020-08-22T12:17:30.000Z</time>
      </trkpt>
      <trkpt lat="45.23735" lon="6.34614">
        <ele>1303.6</ele>
        <time>2020-08-22T12:17:31.000Z</time>
      </trkpt>
      <trkpt lat="45.23738" lon="6.34619">
        <ele>1304.6</ele>
        <time>2020-08-22T12:17:32.000Z</time>
      </trkpt>
      <trkpt lat="45.23742" lon="6.34624">
        <ele>1306.8</ele>
        <time>2020-08-22T12:17:33.000Z</time>
      </trkpt>
      <trkpt lat="45.23746" lon="6.34632">
        <ele>1307.7</ele>
        <time>2020-08-22T12:17:35.000Z</time>
      </trkpt>
      <trkpt lat="45.23746" lon="6.34632">
        <ele>1308.6</ele>
        <time>2020-08-22T12:17:36.000Z</time>
      </trkpt>
      <trkpt lat="45.23747" lon="6.3463">
        <ele>1307.5</ele>
        <time>2020-08-22T12:17:37.000Z</time>
      </trkpt>
      <trkpt lat="45.23747" lon="6.34625">
        <ele>1306.4</ele>
        <time>2020-08-22T12:17:38.000Z</time>
      </trkpt>
      <trkpt lat="45.23747" lon="6.3462">
        <ele>1305.3</ele>
        <time>2020-08-22T12:17:39.000Z</time>
      </trkpt>
      <trkpt lat="45.23747" lon="6.34614">
        <ele>1303</ele>
        <time>2020-08-22T12:17:40.000Z</time>
      </trkpt>
      <trkpt lat="45.23746" lon="6.34602">
        <ele>1299.9</ele>
        <time>2020-08-22T12:17:42.000Z</time>
      </trkpt>
      <trkpt lat="45.23745" lon="6.34594">
        <ele>1299.5</ele>
        <time>2020-08-22T12:17:43.000Z</time>
      </trkpt>
      <trkpt lat="45.23745" lon="6.34586">
        <ele>1297.5</ele>
        <time>2020-08-22T12:17:44.000Z</time>
      </trkpt>
      <trkpt lat="45.23744" lon="6.34568">
        <ele>1293.4</ele>
        <time>2020-08-22T12:17:46.000Z</time>
      </trkpt>
      <trkpt lat="45.23742" lon="6.34558">
        <ele>1290.9</ele>
        <time>2020-08-22T12:17:47.000Z</time>
      </trkpt>
      <trkpt lat="45.23741" lon="6.34548">
        <ele>1289.2</ele>
        <time>2020-08-22T12:17:48.000Z</time>
      </trkpt>
      <trkpt lat="45.2374" lon="6.34538">
        <ele>1287.6</ele>
        <time>2020-08-22T12:17:49.000Z</time>
      </trkpt>
      <trkpt lat="45.23739" lon="6.34529">
        <ele>1285</ele>
        <time>2020-08-22T12:17:50.000Z</time>
      </trkpt>
      <trkpt lat="45.23738" lon="6.34521">
        <ele>1284.2</ele>
        <time>2020-08-22T12:17:51.000Z</time>
      </trkpt>
      <trkpt lat="45.23737" lon="6.34515">
        <ele>1282.8</ele>
        <time>2020-08-22T12:17:52.000Z</time>
      </trkpt>
      <trkpt lat="45.23737" lon="6.3451">
        <ele>1282.3</ele>
        <time>2020-08-22T12:17:53.000Z</time>
      </trkpt>
      <trkpt lat="45.23735" lon="6.34506">
        <ele>1281.7</ele>
        <time>2020-08-22T12:17:54.000Z</time>
      </trkpt>
      <trkpt lat="45.23732" lon="6.34503">
        <ele>1281.1</ele>
        <time>2020-08-22T12:17:55.000Z</time>
      </trkpt>
      <trkpt lat="45.23724" lon="6.34498">
        <ele>1280.2</ele>
        <time>2020-08-22T12:17:57.000Z</time>
      </trkpt>
      <trkpt lat="45.23722" lon="6.34495">
        <ele>1280.3</ele>
        <time>2020-08-22T12:17:58.000Z</time>
      </trkpt>
      <trkpt lat="45.23722" lon="6.34493">
        <ele>1279.5</ele>
        <time>2020-08-22T12:17:59.000Z</time>
      </trkpt>
      <trkpt lat="45.23721" lon="6.34492">
        <ele>1279.4</ele>
        <time>2020-08-22T12:18:00.000Z</time>
      </trkpt>
      <trkpt lat="45.23724" lon="6.3449">
        <ele>1278.8</ele>
        <time>2020-08-22T12:18:02.000Z</time>
      </trkpt>
      <trkpt lat="45.23727" lon="6.34489">
        <ele>1279.2</ele>
        <time>2020-08-22T12:18:03.000Z</time>
      </trkpt>
      <trkpt lat="45.23731" lon="6.34488">
        <ele>1279.5</ele>
        <time>2020-08-22T12:18:04.000Z</time>
      </trkpt>
      <trkpt lat="45.23735" lon="6.34489">
        <ele>1279.6</ele>
        <time>2020-08-22T12:18:05.000Z</time>
      </trkpt>
      <trkpt lat="45.23739" lon="6.3449">
        <ele>1279.7</ele>
        <time>2020-08-22T12:18:06.000Z</time>
      </trkpt>
      <trkpt lat="45.23745" lon="6.34495">
        <ele>1281.3</ele>
        <time>2020-08-22T12:18:08.000Z</time>
      </trkpt>
      <trkpt lat="45.23747" lon="6.34499">
        <ele>1282.1</ele>
        <time>2020-08-22T12:18:09.000Z</time>
      </trkpt>
      <trkpt lat="45.23752" lon="6.34515">
        <ele>1283.9</ele>
        <time>2020-08-22T12:18:12.000Z</time>
      </trkpt>
      <trkpt lat="45.23754" lon="6.34521">
        <ele>1285.6</ele>
        <time>2020-08-22T12:18:13.000Z</time>
      </trkpt>
      <trkpt lat="45.23756" lon="6.34527">
        <ele>1286.3</ele>
        <time>2020-08-22T12:18:14.000Z</time>
      </trkpt>
      <trkpt lat="45.23757" lon="6.34533">
        <ele>1287.2</ele>
        <time>2020-08-22T12:18:15.000Z</time>
      </trkpt>
      <trkpt lat="45.2376" lon="6.34545">
        <ele>1289.5</ele>
        <time>2020-08-22T12:18:17.000Z</time>
      </trkpt>
      <trkpt lat="45.23764" lon="6.34555">
        <ele>1291.5</ele>
        <time>2020-08-22T12:18:19.000Z</time>
      </trkpt>
      <trkpt lat="45.23766" lon="6.3456">
        <ele>1291.9</ele>
        <time>2020-08-22T12:18:20.000Z</time>
      </trkpt>
      <trkpt lat="45.23771" lon="6.34571">
        <ele>1292.6</ele>
        <time>2020-08-22T12:18:22.000Z</time>
      </trkpt>
      <trkpt lat="45.23775" lon="6.34581">
        <ele>1295.3</ele>
        <time>2020-08-22T12:18:24.000Z</time>
      </trkpt>
      <trkpt lat="45.23778" lon="6.34586">
        <ele>1295.8</ele>
        <time>2020-08-22T12:18:25.000Z</time>
      </trkpt>
      <trkpt lat="45.23786" lon="6.34602">
        <ele>1297.8</ele>
        <time>2020-08-22T12:18:28.000Z</time>
      </trkpt>
      <trkpt lat="45.23789" lon="6.34608">
        <ele>1298.3</ele>
        <time>2020-08-22T12:18:29.000Z</time>
      </trkpt>
      <trkpt lat="45.23791" lon="6.34613">
        <ele>1298.9</ele>
        <time>2020-08-22T12:18:30.000Z</time>
      </trkpt>
      <trkpt lat="45.23803" lon="6.34629">
        <ele>1301.7</ele>
        <time>2020-08-22T12:18:34.000Z</time>
      </trkpt>
      <trkpt lat="45.23814" lon="6.34638">
        <ele>1301.5</ele>
        <time>2020-08-22T12:18:38.000Z</time>
      </trkpt>
      <trkpt lat="45.23818" lon="6.34641">
        <ele>1302.3</ele>
        <time>2020-08-22T12:18:39.000Z</time>
      </trkpt>
      <trkpt lat="45.23822" lon="6.34642">
        <ele>1301.1</ele>
        <time>2020-08-22T12:18:40.000Z</time>
      </trkpt>
      <trkpt lat="45.23833" lon="6.34642">
        <ele>1299.1</ele>
        <time>2020-08-22T12:18:42.000Z</time>
      </trkpt>
      <trkpt lat="45.23857" lon="6.34639">
        <ele>1293.5</ele>
        <time>2020-08-22T12:18:45.000Z</time>
      </trkpt>
      <trkpt lat="45.23871" lon="6.34635">
        <ele>1290.3</ele>
        <time>2020-08-22T12:18:47.000Z</time>
      </trkpt>
      <trkpt lat="45.23886" lon="6.34633">
        <ele>1289.2</ele>
        <time>2020-08-22T12:18:49.000Z</time>
      </trkpt>
      <trkpt lat="45.23893" lon="6.34632">
        <ele>1288.7</ele>
        <time>2020-08-22T12:18:50.000Z</time>
      </trkpt>
      <trkpt lat="45.23901" lon="6.34633">
        <ele>1288.1</ele>
        <time>2020-08-22T12:18:51.000Z</time>
      </trkpt>
      <trkpt lat="45.23909" lon="6.34636">
        <ele>1287.5</ele>
        <time>2020-08-22T12:18:52.000Z</time>
      </trkpt>
      <trkpt lat="45.23917" lon="6.34638">
        <ele>1287</ele>
        <time>2020-08-22T12:18:53.000Z</time>
      </trkpt>
      <trkpt lat="45.23924" lon="6.3464">
        <ele>1286.5</ele>
        <time>2020-08-22T12:18:54.000Z</time>
      </trkpt>
      <trkpt lat="45.23937" lon="6.34642">
        <ele>1285.5</ele>
        <time>2020-08-22T12:18:56.000Z</time>
      </trkpt>
      <trkpt lat="45.23943" lon="6.34641">
        <ele>1285.1</ele>
        <time>2020-08-22T12:18:57.000Z</time>
      </trkpt>
      <trkpt lat="45.2395" lon="6.34641">
        <ele>1284.6</ele>
        <time>2020-08-22T12:18:58.000Z</time>
      </trkpt>
      <trkpt lat="45.23956" lon="6.34639">
        <ele>1284.1</ele>
        <time>2020-08-22T12:18:59.000Z</time>
      </trkpt>
      <trkpt lat="45.23972" lon="6.34634">
        <ele>1282.9</ele>
        <time>2020-08-22T12:19:01.000Z</time>
      </trkpt>
      <trkpt lat="45.2398" lon="6.34633">
        <ele>1282.3</ele>
        <time>2020-08-22T12:19:02.000Z</time>
      </trkpt>
      <trkpt lat="45.23989" lon="6.34634">
        <ele>1281.7</ele>
        <time>2020-08-22T12:19:03.000Z</time>
      </trkpt>
      <trkpt lat="45.23997" lon="6.34636">
        <ele>1281.1</ele>
        <time>2020-08-22T12:19:04.000Z</time>
      </trkpt>
      <trkpt lat="45.24016" lon="6.34638">
        <ele>1279.7</ele>
        <time>2020-08-22T12:19:06.000Z</time>
      </trkpt>
      <trkpt lat="45.24026" lon="6.34638">
        <ele>1279</ele>
        <time>2020-08-22T12:19:07.000Z</time>
      </trkpt>
      <trkpt lat="45.24036" lon="6.34639">
        <ele>1278.3</ele>
        <time>2020-08-22T12:19:08.000Z</time>
      </trkpt>
      <trkpt lat="45.24045" lon="6.3464">
        <ele>1277.6</ele>
        <time>2020-08-22T12:19:09.000Z</time>
      </trkpt>
      <trkpt lat="45.24054" lon="6.34641">
        <ele>1276.9</ele>
        <time>2020-08-22T12:19:10.000Z</time>
      </trkpt>
      <trkpt lat="45.24063" lon="6.34642">
        <ele>1276.3</ele>
        <time>2020-08-22T12:19:11.000Z</time>
      </trkpt>
      <trkpt lat="45.24081" lon="6.34642">
        <ele>1275</ele>
        <time>2020-08-22T12:19:13.000Z</time>
      </trkpt>
      <trkpt lat="45.24111" lon="6.34638">
        <ele>1272.8</ele>
        <time>2020-08-22T12:19:17.000Z</time>
      </trkpt>
      <trkpt lat="45.24118" lon="6.34635">
        <ele>1272.3</ele>
        <time>2020-08-22T12:19:18.000Z</time>
      </trkpt>
      <trkpt lat="45.24138" lon="6.34625">
        <ele>1270.8</ele>
        <time>2020-08-22T12:19:21.000Z</time>
      </trkpt>
      <trkpt lat="45.24156" lon="6.34614">
        <ele>1269.3</ele>
        <time>2020-08-22T12:19:24.000Z</time>
      </trkpt>
      <trkpt lat="45.24176" lon="6.34605">
        <ele>1267.8</ele>
        <time>2020-08-22T12:19:27.000Z</time>
      </trkpt>
      <trkpt lat="45.24183" lon="6.34604">
        <ele>1267.3</ele>
        <time>2020-08-22T12:19:28.000Z</time>
      </trkpt>
      <trkpt lat="45.24191" lon="6.34602">
        <ele>1266.7</ele>
        <time>2020-08-22T12:19:29.000Z</time>
      </trkpt>
      <trkpt lat="45.24206" lon="6.34599">
        <ele>1265.6</ele>
        <time>2020-08-22T12:19:31.000Z</time>
      </trkpt>
      <trkpt lat="45.24221" lon="6.34595">
        <ele>1264.5</ele>
        <time>2020-08-22T12:19:33.000Z</time>
      </trkpt>
      <trkpt lat="45.24228" lon="6.34592">
        <ele>1264</ele>
        <time>2020-08-22T12:19:34.000Z</time>
      </trkpt>
      <trkpt lat="45.24236" lon="6.34589">
        <ele>1263.4</ele>
        <time>2020-08-22T12:19:35.000Z</time>
      </trkpt>
      <trkpt lat="45.2425" lon="6.34585">
        <ele>1262.3</ele>
        <time>2020-08-22T12:19:37.000Z</time>
      </trkpt>
      <trkpt lat="45.24263" lon="6.34583">
        <ele>1261.4</ele>
        <time>2020-08-22T12:19:39.000Z</time>
      </trkpt>
      <trkpt lat="45.24269" lon="6.34583">
        <ele>1261</ele>
        <time>2020-08-22T12:19:40.000Z</time>
      </trkpt>
      <trkpt lat="45.24289" lon="6.34587">
        <ele>1259.5</ele>
        <time>2020-08-22T12:19:44.000Z</time>
      </trkpt>
      <trkpt lat="45.24294" lon="6.34588">
        <ele>1259.2</ele>
        <time>2020-08-22T12:19:45.000Z</time>
      </trkpt>
      <trkpt lat="45.24303" lon="6.3459">
        <ele>1258.5</ele>
        <time>2020-08-22T12:19:47.000Z</time>
      </trkpt>
      <trkpt lat="45.24311" lon="6.34588">
        <ele>1257.9</ele>
        <time>2020-08-22T12:19:49.000Z</time>
      </trkpt>
      <trkpt lat="45.24315" lon="6.34585">
        <ele>1257.5</ele>
        <time>2020-08-22T12:19:50.000Z</time>
      </trkpt>
      <trkpt lat="45.24324" lon="6.3458">
        <ele>1257.1</ele>
        <time>2020-08-22T12:19:52.000Z</time>
      </trkpt>
      <trkpt lat="45.24332" lon="6.34575">
        <ele>1256.8</ele>
        <time>2020-08-22T12:19:54.000Z</time>
      </trkpt>
      <trkpt lat="45.2434" lon="6.34568">
        <ele>1256.2</ele>
        <time>2020-08-22T12:19:56.000Z</time>
      </trkpt>
      <trkpt lat="45.24344" lon="6.34565">
        <ele>1255.8</ele>
        <time>2020-08-22T12:19:57.000Z</time>
      </trkpt>
      <trkpt lat="45.24348" lon="6.34562">
        <ele>1255.6</ele>
        <time>2020-08-22T12:19:58.000Z</time>
      </trkpt>
      <trkpt lat="45.24362" lon="6.34552">
        <ele>1255.4</ele>
        <time>2020-08-22T12:20:02.000Z</time>
      </trkpt>
      <trkpt lat="45.24375" lon="6.34543">
        <ele>1255.8</ele>
        <time>2020-08-22T12:20:06.000Z</time>
      </trkpt>
      <trkpt lat="45.24381" lon="6.34539">
        <ele>1256</ele>
        <time>2020-08-22T12:20:08.000Z</time>
      </trkpt>
      <trkpt lat="45.24391" lon="6.3453">
        <ele>1256.5</ele>
        <time>2020-08-22T12:20:12.000Z</time>
      </trkpt>
      <trkpt lat="45.24393" lon="6.34528">
        <ele>1256.6</ele>
        <time>2020-08-22T12:20:13.000Z</time>
      </trkpt>
      <trkpt lat="45.24407" lon="6.34511">
        <ele>1257.1</ele>
        <time>2020-08-22T12:20:19.000Z</time>
      </trkpt>
      <trkpt lat="45.24409" lon="6.34508">
        <ele>1257.2</ele>
        <time>2020-08-22T12:20:20.000Z</time>
      </trkpt>
      <trkpt lat="45.24415" lon="6.34499">
        <ele>1257.4</ele>
        <time>2020-08-22T12:20:23.000Z</time>
      </trkpt>
      <trkpt lat="45.24418" lon="6.34496">
        <ele>1257.5</ele>
        <time>2020-08-22T12:20:24.000Z</time>
      </trkpt>
      <trkpt lat="45.24425" lon="6.34486">
        <ele>1257.9</ele>
        <time>2020-08-22T12:20:27.000Z</time>
      </trkpt>
      <trkpt lat="45.24432" lon="6.34477">
        <ele>1258.2</ele>
        <time>2020-08-22T12:20:30.000Z</time>
      </trkpt>
      <trkpt lat="45.24443" lon="6.34469">
        <ele>1257.5</ele>
        <time>2020-08-22T12:20:34.000Z</time>
      </trkpt>
      <trkpt lat="45.24448" lon="6.34466">
        <ele>1256.5</ele>
        <time>2020-08-22T12:20:36.000Z</time>
      </trkpt>
      <trkpt lat="45.24457" lon="6.34463">
        <ele>1255</ele>
        <time>2020-08-22T12:20:39.000Z</time>
      </trkpt>
      <trkpt lat="45.24463" lon="6.34468">
        <ele>1257</ele>
        <time>2020-08-22T12:20:43.000Z</time>
      </trkpt>
      <trkpt lat="45.24465" lon="6.3447">
        <ele>1257.9</ele>
        <time>2020-08-22T12:20:45.000Z</time>
      </trkpt>
      <trkpt lat="45.24469" lon="6.34473">
        <ele>1259.3</ele>
        <time>2020-08-22T12:20:48.000Z</time>
      </trkpt>
      <trkpt lat="45.24469" lon="6.34475">
        <ele>1260.3</ele>
        <time>2020-08-22T12:20:49.000Z</time>
      </trkpt>
      <trkpt lat="45.24472" lon="6.34487">
        <ele>1263.4</ele>
        <time>2020-08-22T12:20:56.000Z</time>
      </trkpt>
      <trkpt lat="45.24474" lon="6.34494">
        <ele>1264.4</ele>
        <time>2020-08-22T12:21:00.000Z</time>
      </trkpt>
      <trkpt lat="45.24474" lon="6.34496">
        <ele>1266</ele>
        <time>2020-08-22T12:21:01.000Z</time>
      </trkpt>
      <trkpt lat="45.24475" lon="6.34498">
        <ele>1266.1</ele>
        <time>2020-08-22T12:21:02.000Z</time>
      </trkpt>
      <trkpt lat="45.24476" lon="6.34503">
        <ele>1267.1</ele>
        <time>2020-08-22T12:21:04.000Z</time>
      </trkpt>
      <trkpt lat="45.24476" lon="6.34504">
        <ele>1268.1</ele>
        <time>2020-08-22T12:21:05.000Z</time>
      </trkpt>
      <trkpt lat="45.24476" lon="6.34509">
        <ele>1269</ele>
        <time>2020-08-22T12:21:08.000Z</time>
      </trkpt>
      <trkpt lat="45.24478" lon="6.34517">
        <ele>1271.3</ele>
        <time>2020-08-22T12:21:12.000Z</time>
      </trkpt>
      <trkpt lat="45.2448" lon="6.34523">
        <ele>1272.3</ele>
        <time>2020-08-22T12:21:15.000Z</time>
      </trkpt>
      <trkpt lat="45.24479" lon="6.34525">
        <ele>1273.3</ele>
        <time>2020-08-22T12:21:16.000Z</time>
      </trkpt>
      <trkpt lat="45.24478" lon="6.34527">
        <ele>1273.5</ele>
        <time>2020-08-22T12:21:17.000Z</time>
      </trkpt>
      <trkpt lat="45.24476" lon="6.3453">
        <ele>1274</ele>
        <time>2020-08-22T12:21:19.000Z</time>
      </trkpt>
      <trkpt lat="45.24473" lon="6.34532">
        <ele>1273.6</ele>
        <time>2020-08-22T12:21:21.000Z</time>
      </trkpt>
      <trkpt lat="45.24468" lon="6.34539">
        <ele>1274.4</ele>
        <time>2020-08-22T12:21:25.000Z</time>
      </trkpt>
      <trkpt lat="45.24466" lon="6.34541">
        <ele>1274.6</ele>
        <time>2020-08-22T12:21:27.000Z</time>
      </trkpt>
      <trkpt lat="45.24461" lon="6.34548">
        <ele>1275.3</ele>
        <time>2020-08-22T12:21:33.000Z</time>
      </trkpt>
      <trkpt lat="45.2446" lon="6.34549">
        <ele>1275.4</ele>
        <time>2020-08-22T12:21:34.000Z</time>
      </trkpt>
      <trkpt lat="45.24454" lon="6.34559">
        <ele>1276.3</ele>
        <time>2020-08-22T12:21:41.000Z</time>
      </trkpt>
      <trkpt lat="45.24451" lon="6.34564">
        <ele>1277.6</ele>
        <time>2020-08-22T12:21:44.000Z</time>
      </trkpt>
      <trkpt lat="45.2445" lon="6.34567">
        <ele>1277.8</ele>
        <time>2020-08-22T12:21:45.000Z</time>
      </trkpt>
      <trkpt lat="45.24448" lon="6.3457">
        <ele>1278.3</ele>
        <time>2020-08-22T12:21:47.000Z</time>
      </trkpt>
      <trkpt lat="45.24447" lon="6.34574">
        <ele>1279.4</ele>
        <time>2020-08-22T12:21:49.000Z</time>
      </trkpt>
      <trkpt lat="45.24443" lon="6.34586">
        <ele>1281.2</ele>
        <time>2020-08-22T12:21:55.000Z</time>
      </trkpt>
      <trkpt lat="45.2444" lon="6.34598">
        <ele>1283.6</ele>
        <time>2020-08-22T12:22:01.000Z</time>
      </trkpt>
      <trkpt lat="45.24437" lon="6.34602">
        <ele>1283.4</ele>
        <time>2020-08-22T12:22:05.000Z</time>
      </trkpt>
      <trkpt lat="45.24435" lon="6.34604">
        <ele>1284.5</ele>
        <time>2020-08-22T12:22:07.000Z</time>
      </trkpt>
      <trkpt lat="45.2443" lon="6.3461">
        <ele>1285.1</ele>
        <time>2020-08-22T12:22:13.000Z</time>
      </trkpt>
      <trkpt lat="45.24429" lon="6.34613">
        <ele>1286.2</ele>
        <time>2020-08-22T12:22:15.000Z</time>
      </trkpt>
      <trkpt lat="45.24425" lon="6.34618">
        <ele>1286.8</ele>
        <time>2020-08-22T12:22:19.000Z</time>
      </trkpt>
      <trkpt lat="45.24422" lon="6.34622">
        <ele>1287.7</ele>
        <time>2020-08-22T12:22:22.000Z</time>
      </trkpt>
      <trkpt lat="45.2442" lon="6.34624">
        <ele>1288.8</ele>
        <time>2020-08-22T12:22:24.000Z</time>
      </trkpt>
      <trkpt lat="45.24417" lon="6.3463">
        <ele>1289.6</ele>
        <time>2020-08-22T12:22:28.000Z</time>
      </trkpt>
      <trkpt lat="45.24415" lon="6.34634">
        <ele>1290.3</ele>
        <time>2020-08-22T12:22:30.000Z</time>
      </trkpt>
      <trkpt lat="45.24414" lon="6.34637">
        <ele>1291.4</ele>
        <time>2020-08-22T12:22:32.000Z</time>
      </trkpt>
      <trkpt lat="45.2441" lon="6.34642">
        <ele>1291.8</ele>
        <time>2020-08-22T12:22:36.000Z</time>
      </trkpt>
      <trkpt lat="45.24407" lon="6.3465">
        <ele>1293.4</ele>
        <time>2020-08-22T12:22:42.000Z</time>
      </trkpt>
      <trkpt lat="45.24406" lon="6.34652">
        <ele>1293.5</ele>
        <time>2020-08-22T12:22:43.000Z</time>
      </trkpt>
      <trkpt lat="45.24402" lon="6.34658">
        <ele>1294</ele>
        <time>2020-08-22T12:22:48.000Z</time>
      </trkpt>
      <trkpt lat="45.24399" lon="6.34663">
        <ele>1294.3</ele>
        <time>2020-08-22T12:22:51.000Z</time>
      </trkpt>
      <trkpt lat="45.24398" lon="6.3467">
        <ele>1294.7</ele>
        <time>2020-08-22T12:22:54.000Z</time>
      </trkpt>
      <trkpt lat="45.24398" lon="6.34672">
        <ele>1294.8</ele>
        <time>2020-08-22T12:22:55.000Z</time>
      </trkpt>
      <trkpt lat="45.24395" lon="6.34677">
        <ele>1295.2</ele>
        <time>2020-08-22T12:22:58.000Z</time>
      </trkpt>
      <trkpt lat="45.24392" lon="6.34682">
        <ele>1295.6</ele>
        <time>2020-08-22T12:23:01.000Z</time>
      </trkpt>
      <trkpt lat="45.24391" lon="6.34684">
        <ele>1295.7</ele>
        <time>2020-08-22T12:23:02.000Z</time>
      </trkpt>
      <trkpt lat="45.24383" lon="6.34695">
        <ele>1296.6</ele>
        <time>2020-08-22T12:23:08.000Z</time>
      </trkpt>
      <trkpt lat="45.24381" lon="6.34696">
        <ele>1296.8</ele>
        <time>2020-08-22T12:23:09.000Z</time>
      </trkpt>
      <trkpt lat="45.24377" lon="6.34701">
        <ele>1297.3</ele>
        <time>2020-08-22T12:23:12.000Z</time>
      </trkpt>
      <trkpt lat="45.24373" lon="6.34704">
        <ele>1297.7</ele>
        <time>2020-08-22T12:23:14.000Z</time>
      </trkpt>
      <trkpt lat="45.24367" lon="6.34708">
        <ele>1298.3</ele>
        <time>2020-08-22T12:23:18.000Z</time>
      </trkpt>
      <trkpt lat="45.24361" lon="6.34713">
        <ele>1299</ele>
        <time>2020-08-22T12:23:22.000Z</time>
      </trkpt>
      <trkpt lat="45.24353" lon="6.34719">
        <ele>1299.7</ele>
        <time>2020-08-22T12:23:27.000Z</time>
      </trkpt>
      <trkpt lat="45.24349" lon="6.34722">
        <ele>1300.1</ele>
        <time>2020-08-22T12:23:29.000Z</time>
      </trkpt>
      <trkpt lat="45.24337" lon="6.3473">
        <ele>1301.1</ele>
        <time>2020-08-22T12:23:36.000Z</time>
      </trkpt>
      <trkpt lat="45.24325" lon="6.34739">
        <ele>1302.1</ele>
        <time>2020-08-22T12:23:42.000Z</time>
      </trkpt>
      <trkpt lat="45.24323" lon="6.34741">
        <ele>1302.2</ele>
        <time>2020-08-22T12:23:43.000Z</time>
      </trkpt>
      <trkpt lat="45.24314" lon="6.34753">
        <ele>1302.9</ele>
        <time>2020-08-22T12:23:48.000Z</time>
      </trkpt>
      <trkpt lat="45.24313" lon="6.34757">
        <ele>1303.1</ele>
        <time>2020-08-22T12:23:49.000Z</time>
      </trkpt>
      <trkpt lat="45.24309" lon="6.34776">
        <ele>1303.9</ele>
        <time>2020-08-22T12:23:55.000Z</time>
      </trkpt>
      <trkpt lat="45.24305" lon="6.34786">
        <ele>1304.7</ele>
        <time>2020-08-22T12:23:59.000Z</time>
      </trkpt>
      <trkpt lat="45.24303" lon="6.34791">
        <ele>1305.2</ele>
        <time>2020-08-22T12:24:01.000Z</time>
      </trkpt>
      <trkpt lat="45.24301" lon="6.34801">
        <ele>1306.8</ele>
        <time>2020-08-22T12:24:05.000Z</time>
      </trkpt>
      <trkpt lat="45.24301" lon="6.34806">
        <ele>1307.4</ele>
        <time>2020-08-22T12:24:07.000Z</time>
      </trkpt>
      <trkpt lat="45.24301" lon="6.34812">
        <ele>1307.9</ele>
        <time>2020-08-22T12:24:09.000Z</time>
      </trkpt>
      <trkpt lat="45.243" lon="6.34825">
        <ele>1309.8</ele>
        <time>2020-08-22T12:24:14.000Z</time>
      </trkpt>
      <trkpt lat="45.24297" lon="6.3483">
        <ele>1310</ele>
        <time>2020-08-22T12:24:16.000Z</time>
      </trkpt>
      <trkpt lat="45.24291" lon="6.34838">
        <ele>1310</ele>
        <time>2020-08-22T12:24:20.000Z</time>
      </trkpt>
      <trkpt lat="45.24287" lon="6.34844">
        <ele>1310.8</ele>
        <time>2020-08-22T12:24:23.000Z</time>
      </trkpt>
      <trkpt lat="45.24282" lon="6.34851">
        <ele>1310.9</ele>
        <time>2020-08-22T12:24:26.000Z</time>
      </trkpt>
      <trkpt lat="45.24278" lon="6.34859">
        <ele>1311.7</ele>
        <time>2020-08-22T12:24:30.000Z</time>
      </trkpt>
      <trkpt lat="45.24271" lon="6.3487">
        <ele>1312.5</ele>
        <time>2020-08-22T12:24:35.000Z</time>
      </trkpt>
      <trkpt lat="45.24269" lon="6.34874">
        <ele>1312.9</ele>
        <time>2020-08-22T12:24:37.000Z</time>
      </trkpt>
      <trkpt lat="45.24269" lon="6.34884">
        <ele>1313.7</ele>
        <time>2020-08-22T12:24:41.000Z</time>
      </trkpt>
      <trkpt lat="45.24269" lon="6.34888">
        <ele>1314.1</ele>
        <time>2020-08-22T12:24:43.000Z</time>
      </trkpt>
      <trkpt lat="45.24269" lon="6.34892">
        <ele>1314.6</ele>
        <time>2020-08-22T12:24:45.000Z</time>
      </trkpt>
      <trkpt lat="45.24269" lon="6.34896">
        <ele>1315</ele>
        <time>2020-08-22T12:24:47.000Z</time>
      </trkpt>
      <trkpt lat="45.24268" lon="6.34898">
        <ele>1315.4</ele>
        <time>2020-08-22T12:24:48.000Z</time>
      </trkpt>
      <trkpt lat="45.24268" lon="6.34911">
        <ele>1316.3</ele>
        <time>2020-08-22T12:24:54.000Z</time>
      </trkpt>
      <trkpt lat="45.24268" lon="6.34913">
        <ele>1316.7</ele>
        <time>2020-08-22T12:24:55.000Z</time>
      </trkpt>
      <trkpt lat="45.24264" lon="6.34921">
        <ele>1317.6</ele>
        <time>2020-08-22T12:25:00.000Z</time>
      </trkpt>
      <trkpt lat="45.24264" lon="6.34923">
        <ele>1317.5</ele>
        <time>2020-08-22T12:25:01.000Z</time>
      </trkpt>
      <trkpt lat="45.24261" lon="6.34934">
        <ele>1318.9</ele>
        <time>2020-08-22T12:25:07.000Z</time>
      </trkpt>
      <trkpt lat="45.24261" lon="6.34938">
        <ele>1319.3</ele>
        <time>2020-08-22T12:25:09.000Z</time>
      </trkpt>
      <trkpt lat="45.24261" lon="6.34939">
        <ele>1319.3</ele>
        <time>2020-08-22T12:25:10.000Z</time>
      </trkpt>
      <trkpt lat="45.24262" lon="6.34944">
        <ele>1319.7</ele>
        <time>2020-08-22T12:25:13.000Z</time>
      </trkpt>
      <trkpt lat="45.24262" lon="6.34947">
        <ele>1320.1</ele>
        <time>2020-08-22T12:25:14.000Z</time>
      </trkpt>
      <trkpt lat="45.24262" lon="6.34949">
        <ele>1320</ele>
        <time>2020-08-22T12:25:15.000Z</time>
      </trkpt>
      <trkpt lat="45.24263" lon="6.34952">
        <ele>1320.4</ele>
        <time>2020-08-22T12:25:17.000Z</time>
      </trkpt>
      <trkpt lat="45.24264" lon="6.34955">
        <ele>1320.8</ele>
        <time>2020-08-22T12:25:18.000Z</time>
      </trkpt>
      <trkpt lat="45.24264" lon="6.3497">
        <ele>1322.3</ele>
        <time>2020-08-22T12:25:25.000Z</time>
      </trkpt>
      <trkpt lat="45.24266" lon="6.34989">
        <ele>1325.2</ele>
        <time>2020-08-22T12:25:32.000Z</time>
      </trkpt>
      <trkpt lat="45.24269" lon="6.35">
        <ele>1326.1</ele>
        <time>2020-08-22T12:25:37.000Z</time>
      </trkpt>
      <trkpt lat="45.2427" lon="6.35002">
        <ele>1326.6</ele>
        <time>2020-08-22T12:25:38.000Z</time>
      </trkpt>
      <trkpt lat="45.24271" lon="6.35005">
        <ele>1326.5</ele>
        <time>2020-08-22T12:25:40.000Z</time>
      </trkpt>
      <trkpt lat="45.24273" lon="6.35008">
        <ele>1326.9</ele>
        <time>2020-08-22T12:25:42.000Z</time>
      </trkpt>
      <trkpt lat="45.24279" lon="6.35016">
        <ele>1328.1</ele>
        <time>2020-08-22T12:25:48.000Z</time>
      </trkpt>
      <trkpt lat="45.2428" lon="6.35018">
        <ele>1328</ele>
        <time>2020-08-22T12:25:49.000Z</time>
      </trkpt>
      <trkpt lat="45.24287" lon="6.35023">
        <ele>1328.7</ele>
        <time>2020-08-22T12:25:54.000Z</time>
      </trkpt>
      <trkpt lat="45.243" lon="6.35031">
        <ele>1330.3</ele>
        <time>2020-08-22T12:26:02.000Z</time>
      </trkpt>
      <trkpt lat="45.2431" lon="6.35042">
        <ele>1332.3</ele>
        <time>2020-08-22T12:26:09.000Z</time>
      </trkpt>
      <trkpt lat="45.24316" lon="6.35049">
        <ele>1333.6</ele>
        <time>2020-08-22T12:26:14.000Z</time>
      </trkpt>
      <trkpt lat="45.24329" lon="6.3505">
        <ele>1334.8</ele>
        <time>2020-08-22T12:26:21.000Z</time>
      </trkpt>
      <trkpt lat="45.24332" lon="6.35049">
        <ele>1335.1</ele>
        <time>2020-08-22T12:26:23.000Z</time>
      </trkpt>
      <trkpt lat="45.24338" lon="6.35049">
        <ele>1335.4</ele>
        <time>2020-08-22T12:26:26.000Z</time>
      </trkpt>
      <trkpt lat="45.24339" lon="6.35053">
        <ele>1336.1</ele>
        <time>2020-08-22T12:26:28.000Z</time>
      </trkpt>
      <trkpt lat="45.24332" lon="6.35068">
        <ele>1337.1</ele>
        <time>2020-08-22T12:26:35.000Z</time>
      </trkpt>
      <trkpt lat="45.24331" lon="6.35075">
        <ele>1337.6</ele>
        <time>2020-08-22T12:26:38.000Z</time>
      </trkpt>
      <trkpt lat="45.24332" lon="6.35079">
        <ele>1338</ele>
        <time>2020-08-22T12:26:40.000Z</time>
      </trkpt>
      <trkpt lat="45.24333" lon="6.35081">
        <ele>1338</ele>
        <time>2020-08-22T12:26:41.000Z</time>
      </trkpt>
      <trkpt lat="45.24334" lon="6.35084">
        <ele>1338.1</ele>
        <time>2020-08-22T12:26:42.000Z</time>
      </trkpt>
      <trkpt lat="45.24335" lon="6.35086">
        <ele>1338.4</ele>
        <time>2020-08-22T12:26:43.000Z</time>
      </trkpt>
      <trkpt lat="45.24335" lon="6.35088">
        <ele>1338.6</ele>
        <time>2020-08-22T12:26:44.000Z</time>
      </trkpt>
      <trkpt lat="45.24336" lon="6.3509">
        <ele>1338.8</ele>
        <time>2020-08-22T12:26:45.000Z</time>
      </trkpt>
      <trkpt lat="45.24337" lon="6.35091">
        <ele>1339.1</ele>
        <time>2020-08-22T12:26:46.000Z</time>
      </trkpt>
      <trkpt lat="45.24339" lon="6.35095">
        <ele>1339.5</ele>
        <time>2020-08-22T12:26:48.000Z</time>
      </trkpt>
      <trkpt lat="45.2434" lon="6.35096">
        <ele>1339.7</ele>
        <time>2020-08-22T12:26:49.000Z</time>
      </trkpt>
      <trkpt lat="45.24341" lon="6.35098">
        <ele>1339.9</ele>
        <time>2020-08-22T12:26:50.000Z</time>
      </trkpt>
      <trkpt lat="45.24343" lon="6.35101">
        <ele>1340.3</ele>
        <time>2020-08-22T12:26:52.000Z</time>
      </trkpt>
      <trkpt lat="45.24345" lon="6.35104">
        <ele>1340.9</ele>
        <time>2020-08-22T12:26:54.000Z</time>
      </trkpt>
      <trkpt lat="45.24345" lon="6.35106">
        <ele>1341.1</ele>
        <time>2020-08-22T12:26:55.000Z</time>
      </trkpt>
      <trkpt lat="45.24346" lon="6.35108">
        <ele>1341.4</ele>
        <time>2020-08-22T12:26:56.000Z</time>
      </trkpt>
      <trkpt lat="45.24346" lon="6.3511">
        <ele>1341.6</ele>
        <time>2020-08-22T12:26:57.000Z</time>
      </trkpt>
      <trkpt lat="45.24348" lon="6.35111">
        <ele>1341.9</ele>
        <time>2020-08-22T12:26:58.000Z</time>
      </trkpt>
      <trkpt lat="45.24349" lon="6.35113">
        <ele>1342.1</ele>
        <time>2020-08-22T12:26:59.000Z</time>
      </trkpt>
      <trkpt lat="45.2435" lon="6.35114">
        <ele>1342.4</ele>
        <time>2020-08-22T12:27:00.000Z</time>
      </trkpt>
      <trkpt lat="45.24351" lon="6.35115">
        <ele>1342.6</ele>
        <time>2020-08-22T12:27:01.000Z</time>
      </trkpt>
      <trkpt lat="45.24351" lon="6.35117">
        <ele>1342.8</ele>
        <time>2020-08-22T12:27:02.000Z</time>
      </trkpt>
      <trkpt lat="45.24357" lon="6.35125">
        <ele>1344.2</ele>
        <time>2020-08-22T12:27:08.000Z</time>
      </trkpt>
      <trkpt lat="45.24358" lon="6.3513">
        <ele>1344.8</ele>
        <time>2020-08-22T12:27:11.000Z</time>
      </trkpt>
      <trkpt lat="45.2436" lon="6.35135">
        <ele>1345.5</ele>
        <time>2020-08-22T12:27:14.000Z</time>
      </trkpt>
      <trkpt lat="45.24361" lon="6.35139">
        <ele>1345.9</ele>
        <time>2020-08-22T12:27:16.000Z</time>
      </trkpt>
      <trkpt lat="45.24362" lon="6.3514">
        <ele>1346.1</ele>
        <time>2020-08-22T12:27:17.000Z</time>
      </trkpt>
      <trkpt lat="45.24363" lon="6.35144">
        <ele>1346.5</ele>
        <time>2020-08-22T12:27:19.000Z</time>
      </trkpt>
      <trkpt lat="45.24363" lon="6.35146">
        <ele>1346.7</ele>
        <time>2020-08-22T12:27:20.000Z</time>
      </trkpt>
      <trkpt lat="45.24363" lon="6.3515">
        <ele>1347.2</ele>
        <time>2020-08-22T12:27:22.000Z</time>
      </trkpt>
      <trkpt lat="45.24362" lon="6.35154">
        <ele>1347.6</ele>
        <time>2020-08-22T12:27:24.000Z</time>
      </trkpt>
      <trkpt lat="45.24362" lon="6.35157">
        <ele>1348</ele>
        <time>2020-08-22T12:27:25.000Z</time>
      </trkpt>
      <trkpt lat="45.24361" lon="6.35159">
        <ele>1348.3</ele>
        <time>2020-08-22T12:27:26.000Z</time>
      </trkpt>
      <trkpt lat="45.2436" lon="6.35164">
        <ele>1348.9</ele>
        <time>2020-08-22T12:27:28.000Z</time>
      </trkpt>
      <trkpt lat="45.24359" lon="6.35166">
        <ele>1349.2</ele>
        <time>2020-08-22T12:27:29.000Z</time>
      </trkpt>
      <trkpt lat="45.24359" lon="6.35167">
        <ele>1349.4</ele>
        <time>2020-08-22T12:27:30.000Z</time>
      </trkpt>
      <trkpt lat="45.24358" lon="6.35168">
        <ele>1349.6</ele>
        <time>2020-08-22T12:27:31.000Z</time>
      </trkpt>
      <trkpt lat="45.24356" lon="6.35172">
        <ele>1350.1</ele>
        <time>2020-08-22T12:27:33.000Z</time>
      </trkpt>
      <trkpt lat="45.24355" lon="6.35176">
        <ele>1352.5</ele>
        <time>2020-08-22T12:27:36.000Z</time>
      </trkpt>
      <trkpt lat="45.24356" lon="6.35177">
        <ele>1352.6</ele>
        <time>2020-08-22T12:27:37.000Z</time>
      </trkpt>
      <trkpt lat="45.24356" lon="6.35178">
        <ele>1352.7</ele>
        <time>2020-08-22T12:27:38.000Z</time>
      </trkpt>
      <trkpt lat="45.24359" lon="6.35179">
        <ele>1352.9</ele>
        <time>2020-08-22T12:27:40.000Z</time>
      </trkpt>
      <trkpt lat="45.2436" lon="6.35179">
        <ele>1353</ele>
        <time>2020-08-22T12:27:41.000Z</time>
      </trkpt>
      <trkpt lat="45.24369" lon="6.35175">
        <ele>1353.6</ele>
        <time>2020-08-22T12:27:46.000Z</time>
      </trkpt>
      <trkpt lat="45.24371" lon="6.35174">
        <ele>1353.7</ele>
        <time>2020-08-22T12:27:47.000Z</time>
      </trkpt>
      <trkpt lat="45.24381" lon="6.35171">
        <ele>1354.4</ele>
        <time>2020-08-22T12:27:51.000Z</time>
      </trkpt>
      <trkpt lat="45.24391" lon="6.35169">
        <ele>1355.3</ele>
        <time>2020-08-22T12:27:55.000Z</time>
      </trkpt>
      <trkpt lat="45.24394" lon="6.35168">
        <ele>1355.6</ele>
        <time>2020-08-22T12:27:56.000Z</time>
      </trkpt>
      <trkpt lat="45.24399" lon="6.35166">
        <ele>1356.1</ele>
        <time>2020-08-22T12:27:58.000Z</time>
      </trkpt>
      <trkpt lat="45.24406" lon="6.35161">
        <ele>1356.8</ele>
        <time>2020-08-22T12:28:01.000Z</time>
      </trkpt>
      <trkpt lat="45.24411" lon="6.35155">
        <ele>1357.4</ele>
        <time>2020-08-22T12:28:04.000Z</time>
      </trkpt>
      <trkpt lat="45.24415" lon="6.3515">
        <ele>1357.9</ele>
        <time>2020-08-22T12:28:06.000Z</time>
      </trkpt>
      <trkpt lat="45.24419" lon="6.35147">
        <ele>1358.3</ele>
        <time>2020-08-22T12:28:08.000Z</time>
      </trkpt>
      <trkpt lat="45.24425" lon="6.35142">
        <ele>1359</ele>
        <time>2020-08-22T12:28:11.000Z</time>
      </trkpt>
      <trkpt lat="45.24434" lon="6.35137">
        <ele>1359.9</ele>
        <time>2020-08-22T12:28:15.000Z</time>
      </trkpt>
      <trkpt lat="45.24436" lon="6.35137">
        <ele>1360.1</ele>
        <time>2020-08-22T12:28:16.000Z</time>
      </trkpt>
      <trkpt lat="45.24442" lon="6.35135">
        <ele>1360.8</ele>
        <time>2020-08-22T12:28:19.000Z</time>
      </trkpt>
      <trkpt lat="45.24447" lon="6.35133">
        <ele>1361.2</ele>
        <time>2020-08-22T12:28:21.000Z</time>
      </trkpt>
      <trkpt lat="45.24457" lon="6.35129">
        <ele>1362.1</ele>
        <time>2020-08-22T12:28:26.000Z</time>
      </trkpt>
      <trkpt lat="45.24474" lon="6.35122">
        <ele>1362.8</ele>
        <time>2020-08-22T12:28:33.000Z</time>
      </trkpt>
      <trkpt lat="45.24481" lon="6.3512">
        <ele>1363</ele>
        <time>2020-08-22T12:28:36.000Z</time>
      </trkpt>
      <trkpt lat="45.24484" lon="6.35118">
        <ele>1363.1</ele>
        <time>2020-08-22T12:28:37.000Z</time>
      </trkpt>
      <trkpt lat="45.24486" lon="6.35118">
        <ele>1363.1</ele>
        <time>2020-08-22T12:28:38.000Z</time>
      </trkpt>
      <trkpt lat="45.24488" lon="6.35118">
        <ele>1363.1</ele>
        <time>2020-08-22T12:28:39.000Z</time>
      </trkpt>
      <trkpt lat="45.24491" lon="6.35117">
        <ele>1363.1</ele>
        <time>2020-08-22T12:28:40.000Z</time>
      </trkpt>
      <trkpt lat="45.24496" lon="6.35114">
        <ele>1363.6</ele>
        <time>2020-08-22T12:28:42.000Z</time>
      </trkpt>
      <trkpt lat="45.245" lon="6.35109">
        <ele>1364.1</ele>
        <time>2020-08-22T12:28:44.000Z</time>
      </trkpt>
      <trkpt lat="45.24503" lon="6.35105">
        <ele>1364.2</ele>
        <time>2020-08-22T12:28:45.000Z</time>
      </trkpt>
      <trkpt lat="45.24518" lon="6.35081">
        <ele>1364.1</ele>
        <time>2020-08-22T12:28:53.000Z</time>
      </trkpt>
      <trkpt lat="45.24525" lon="6.35065">
        <ele>1363.7</ele>
        <time>2020-08-22T12:28:58.000Z</time>
      </trkpt>
      <trkpt lat="45.2453" lon="6.35052">
        <ele>1363.4</ele>
        <time>2020-08-22T12:29:02.000Z</time>
      </trkpt>
      <trkpt lat="45.24534" lon="6.35047">
        <ele>1363.2</ele>
        <time>2020-08-22T12:29:04.000Z</time>
      </trkpt>
      <trkpt lat="45.24549" lon="6.35026">
        <ele>1362</ele>
        <time>2020-08-22T12:29:11.000Z</time>
      </trkpt>
      <trkpt lat="45.24552" lon="6.35023">
        <ele>1361.8</ele>
        <time>2020-08-22T12:29:12.000Z</time>
      </trkpt>
      <trkpt lat="45.24558" lon="6.35018">
        <ele>1362</ele>
        <time>2020-08-22T12:29:14.000Z</time>
      </trkpt>
      <trkpt lat="45.24562" lon="6.35017">
        <ele>1362.2</ele>
        <time>2020-08-22T12:29:15.000Z</time>
      </trkpt>
      <trkpt lat="45.24571" lon="6.35021">
        <ele>1362.5</ele>
        <time>2020-08-22T12:29:20.000Z</time>
      </trkpt>
      <trkpt lat="45.24576" lon="6.35023">
        <ele>1362.8</ele>
        <time>2020-08-22T12:29:23.000Z</time>
      </trkpt>
      <trkpt lat="45.24582" lon="6.35025">
        <ele>1363.1</ele>
        <time>2020-08-22T12:29:26.000Z</time>
      </trkpt>
      <trkpt lat="45.24587" lon="6.35025">
        <ele>1363.5</ele>
        <time>2020-08-22T12:29:29.000Z</time>
      </trkpt>
      <trkpt lat="45.24591" lon="6.35025">
        <ele>1363.9</ele>
        <time>2020-08-22T12:29:32.000Z</time>
      </trkpt>
      <trkpt lat="45.24601" lon="6.35023">
        <ele>1364.8</ele>
        <time>2020-08-22T12:29:37.000Z</time>
      </trkpt>
      <trkpt lat="45.24603" lon="6.35022">
        <ele>1365</ele>
        <time>2020-08-22T12:29:38.000Z</time>
      </trkpt>
      <trkpt lat="45.24605" lon="6.35022">
        <ele>1365.1</ele>
        <time>2020-08-22T12:29:39.000Z</time>
      </trkpt>
      <trkpt lat="45.24612" lon="6.3502">
        <ele>1365.6</ele>
        <time>2020-08-22T12:29:42.000Z</time>
      </trkpt>
      <trkpt lat="45.24618" lon="6.35019">
        <ele>1366.1</ele>
        <time>2020-08-22T12:29:45.000Z</time>
      </trkpt>
      <trkpt lat="45.2462" lon="6.35019">
        <ele>1366.2</ele>
        <time>2020-08-22T12:29:46.000Z</time>
      </trkpt>
      <trkpt lat="45.24624" lon="6.35018">
        <ele>1366.6</ele>
        <time>2020-08-22T12:29:48.000Z</time>
      </trkpt>
      <trkpt lat="45.24628" lon="6.35017">
        <ele>1366.9</ele>
        <time>2020-08-22T12:29:50.000Z</time>
      </trkpt>
      <trkpt lat="45.24633" lon="6.35016">
        <ele>1367.4</ele>
        <time>2020-08-22T12:29:53.000Z</time>
      </trkpt>
      <trkpt lat="45.24637" lon="6.35015">
        <ele>1367.8</ele>
        <time>2020-08-22T12:29:55.000Z</time>
      </trkpt>
      <trkpt lat="45.24641" lon="6.35014">
        <ele>1368.4</ele>
        <time>2020-08-22T12:29:58.000Z</time>
      </trkpt>
      <trkpt lat="45.24645" lon="6.35014">
        <ele>1368.8</ele>
        <time>2020-08-22T12:30:00.000Z</time>
      </trkpt>
      <trkpt lat="45.24648" lon="6.35014">
        <ele>1369.2</ele>
        <time>2020-08-22T12:30:02.000Z</time>
      </trkpt>
      <trkpt lat="45.24656" lon="6.35014">
        <ele>1370.3</ele>
        <time>2020-08-22T12:30:07.000Z</time>
      </trkpt>
      <trkpt lat="45.24657" lon="6.35015">
        <ele>1370.5</ele>
        <time>2020-08-22T12:30:08.000Z</time>
      </trkpt>
      <trkpt lat="45.24664" lon="6.35016">
        <ele>1371.4</ele>
        <time>2020-08-22T12:30:12.000Z</time>
      </trkpt>
      <trkpt lat="45.24666" lon="6.35016">
        <ele>1371.7</ele>
        <time>2020-08-22T12:30:13.000Z</time>
      </trkpt>
      <trkpt lat="45.24674" lon="6.35013">
        <ele>1372.5</ele>
        <time>2020-08-22T12:30:17.000Z</time>
      </trkpt>
      <trkpt lat="45.24676" lon="6.35011">
        <ele>1372.7</ele>
        <time>2020-08-22T12:30:18.000Z</time>
      </trkpt>
      <trkpt lat="45.24677" lon="6.35009">
        <ele>1372.9</ele>
        <time>2020-08-22T12:30:19.000Z</time>
      </trkpt>
      <trkpt lat="45.24683" lon="6.35004">
        <ele>1373.6</ele>
        <time>2020-08-22T12:30:22.000Z</time>
      </trkpt>
      <trkpt lat="45.24686" lon="6.35">
        <ele>1374</ele>
        <time>2020-08-22T12:30:24.000Z</time>
      </trkpt>
      <trkpt lat="45.24688" lon="6.34999">
        <ele>1374.2</ele>
        <time>2020-08-22T12:30:25.000Z</time>
      </trkpt>
      <trkpt lat="45.24689" lon="6.34997">
        <ele>1374.5</ele>
        <time>2020-08-22T12:30:26.000Z</time>
      </trkpt>
      <trkpt lat="45.24692" lon="6.34994">
        <ele>1374.9</ele>
        <time>2020-08-22T12:30:28.000Z</time>
      </trkpt>
      <trkpt lat="45.24693" lon="6.34991">
        <ele>1375.3</ele>
        <time>2020-08-22T12:30:30.000Z</time>
      </trkpt>
      <trkpt lat="45.24696" lon="6.34987">
        <ele>1375.8</ele>
        <time>2020-08-22T12:30:32.000Z</time>
      </trkpt>
      <trkpt lat="45.24697" lon="6.34985">
        <ele>1376.1</ele>
        <time>2020-08-22T12:30:33.000Z</time>
      </trkpt>
      <trkpt lat="45.24703" lon="6.34977">
        <ele>1377.4</ele>
        <time>2020-08-22T12:30:38.000Z</time>
      </trkpt>
      <trkpt lat="45.24706" lon="6.34973">
        <ele>1377.9</ele>
        <time>2020-08-22T12:30:40.000Z</time>
      </trkpt>
      <trkpt lat="45.2471" lon="6.34969">
        <ele>1378.7</ele>
        <time>2020-08-22T12:30:44.000Z</time>
      </trkpt>
      <trkpt lat="45.24714" lon="6.34966">
        <ele>1379.5</ele>
        <time>2020-08-22T12:30:47.000Z</time>
      </trkpt>
      <trkpt lat="45.24715" lon="6.34966">
        <ele>1379.7</ele>
        <time>2020-08-22T12:30:48.000Z</time>
      </trkpt>
      <trkpt lat="45.24716" lon="6.34965">
        <ele>1380.3</ele>
        <time>2020-08-22T12:30:49.000Z</time>
      </trkpt>
      <trkpt lat="45.2472" lon="6.34964">
        <ele>1381.5</ele>
        <time>2020-08-22T12:30:52.000Z</time>
      </trkpt>
      <trkpt lat="45.24723" lon="6.34963">
        <ele>1382.3</ele>
        <time>2020-08-22T12:30:54.000Z</time>
      </trkpt>
      <trkpt lat="45.24728" lon="6.34962">
        <ele>1383.6</ele>
        <time>2020-08-22T12:30:58.000Z</time>
      </trkpt>
      <trkpt lat="45.24732" lon="6.34961">
        <ele>1384.5</ele>
        <time>2020-08-22T12:31:01.000Z</time>
      </trkpt>
      <trkpt lat="45.24734" lon="6.34961">
        <ele>1384.8</ele>
        <time>2020-08-22T12:31:02.000Z</time>
      </trkpt>
      <trkpt lat="45.24739" lon="6.3496">
        <ele>1385.9</ele>
        <time>2020-08-22T12:31:06.000Z</time>
      </trkpt>
      <trkpt lat="45.24745" lon="6.34961">
        <ele>1387.1</ele>
        <time>2020-08-22T12:31:10.000Z</time>
      </trkpt>
      <trkpt lat="45.24746" lon="6.34961">
        <ele>1387.3</ele>
        <time>2020-08-22T12:31:11.000Z</time>
      </trkpt>
      <trkpt lat="45.24749" lon="6.34962">
        <ele>1388.2</ele>
        <time>2020-08-22T12:31:14.000Z</time>
      </trkpt>
      <trkpt lat="45.24754" lon="6.34963">
        <ele>1389.2</ele>
        <time>2020-08-22T12:31:18.000Z</time>
      </trkpt>
      <trkpt lat="45.24755" lon="6.34963">
        <ele>1389.5</ele>
        <time>2020-08-22T12:31:19.000Z</time>
      </trkpt>
      <trkpt lat="45.24761" lon="6.34964">
        <ele>1390.7</ele>
        <time>2020-08-22T12:31:24.000Z</time>
      </trkpt>
      <trkpt lat="45.24763" lon="6.34965">
        <ele>1391.1</ele>
        <time>2020-08-22T12:31:26.000Z</time>
      </trkpt>
      <trkpt lat="45.24765" lon="6.34965">
        <ele>1391.4</ele>
        <time>2020-08-22T12:31:28.000Z</time>
      </trkpt>
      <trkpt lat="45.24769" lon="6.34966">
        <ele>1392.2</ele>
        <time>2020-08-22T12:31:32.000Z</time>
      </trkpt>
      <trkpt lat="45.24772" lon="6.34967">
        <ele>1392.6</ele>
        <time>2020-08-22T12:31:34.000Z</time>
      </trkpt>
      <trkpt lat="45.2478" lon="6.34966">
        <ele>1394</ele>
        <time>2020-08-22T12:31:41.000Z</time>
      </trkpt>
      <trkpt lat="45.24782" lon="6.34965">
        <ele>1394.4</ele>
        <time>2020-08-22T12:31:43.000Z</time>
      </trkpt>
      <trkpt lat="45.24787" lon="6.34964">
        <ele>1395.2</ele>
        <time>2020-08-22T12:31:47.000Z</time>
      </trkpt>
      <trkpt lat="45.24792" lon="6.34962">
        <ele>1396</ele>
        <time>2020-08-22T12:31:50.000Z</time>
      </trkpt>
      <trkpt lat="45.24794" lon="6.3496">
        <ele>1396.5</ele>
        <time>2020-08-22T12:31:52.000Z</time>
      </trkpt>
      <trkpt lat="45.24798" lon="6.34959">
        <ele>1397.3</ele>
        <time>2020-08-22T12:31:55.000Z</time>
      </trkpt>
      <trkpt lat="45.24799" lon="6.34958">
        <ele>1397.6</ele>
        <time>2020-08-22T12:31:56.000Z</time>
      </trkpt>
      <trkpt lat="45.248" lon="6.34958">
        <ele>1397.8</ele>
        <time>2020-08-22T12:31:57.000Z</time>
      </trkpt>
      <trkpt lat="45.24804" lon="6.34956">
        <ele>1398.5</ele>
        <time>2020-08-22T12:32:00.000Z</time>
      </trkpt>
      <trkpt lat="45.24809" lon="6.34954">
        <ele>1399.6</ele>
        <time>2020-08-22T12:32:04.000Z</time>
      </trkpt>
      <trkpt lat="45.2481" lon="6.34954">
        <ele>1399.8</ele>
        <time>2020-08-22T12:32:05.000Z</time>
      </trkpt>
      <trkpt lat="45.24814" lon="6.34952">
        <ele>1400.6</ele>
        <time>2020-08-22T12:32:08.000Z</time>
      </trkpt>
      <trkpt lat="45.24819" lon="6.3495">
        <ele>1401.7</ele>
        <time>2020-08-22T12:32:12.000Z</time>
      </trkpt>
      <trkpt lat="45.24823" lon="6.34948">
        <ele>1402.7</ele>
        <time>2020-08-22T12:32:15.000Z</time>
      </trkpt>
      <trkpt lat="45.24829" lon="6.34945">
        <ele>1404.1</ele>
        <time>2020-08-22T12:32:19.000Z</time>
      </trkpt>
      <trkpt lat="45.24831" lon="6.34945">
        <ele>1404.4</ele>
        <time>2020-08-22T12:32:20.000Z</time>
      </trkpt>
      <trkpt lat="45.24835" lon="6.34943">
        <ele>1405.4</ele>
        <time>2020-08-22T12:32:23.000Z</time>
      </trkpt>
      <trkpt lat="45.24839" lon="6.34941">
        <ele>1406.1</ele>
        <time>2020-08-22T12:32:26.000Z</time>
      </trkpt>
      <trkpt lat="45.24843" lon="6.3494">
        <ele>1407.1</ele>
        <time>2020-08-22T12:32:29.000Z</time>
      </trkpt>
      <trkpt lat="45.24849" lon="6.34939">
        <ele>1408.6</ele>
        <time>2020-08-22T12:32:33.000Z</time>
      </trkpt>
      <trkpt lat="45.2485" lon="6.34939">
        <ele>1409</ele>
        <time>2020-08-22T12:32:34.000Z</time>
      </trkpt>
      <trkpt lat="45.24851" lon="6.34939">
        <ele>1409.4</ele>
        <time>2020-08-22T12:32:35.000Z</time>
      </trkpt>
      <trkpt lat="45.24855" lon="6.3494">
        <ele>1410.6</ele>
        <time>2020-08-22T12:32:38.000Z</time>
      </trkpt>
      <trkpt lat="45.24859" lon="6.34941">
        <ele>1411.4</ele>
        <time>2020-08-22T12:32:41.000Z</time>
      </trkpt>
      <trkpt lat="45.24862" lon="6.34942">
        <ele>1411.9</ele>
        <time>2020-08-22T12:32:43.000Z</time>
      </trkpt>
      <trkpt lat="45.24864" lon="6.34942">
        <ele>1412.4</ele>
        <time>2020-08-22T12:32:45.000Z</time>
      </trkpt>
      <trkpt lat="45.24869" lon="6.34943">
        <ele>1413</ele>
        <time>2020-08-22T12:32:48.000Z</time>
      </trkpt>
      <trkpt lat="45.24875" lon="6.34942">
        <ele>1413.6</ele>
        <time>2020-08-22T12:32:51.000Z</time>
      </trkpt>
      <trkpt lat="45.2488" lon="6.3494">
        <ele>1414</ele>
        <time>2020-08-22T12:32:54.000Z</time>
      </trkpt>
      <trkpt lat="45.24882" lon="6.3494">
        <ele>1414.1</ele>
        <time>2020-08-22T12:32:55.000Z</time>
      </trkpt>
      <trkpt lat="45.24884" lon="6.34938">
        <ele>1414.3</ele>
        <time>2020-08-22T12:32:57.000Z</time>
      </trkpt>
      <trkpt lat="45.24887" lon="6.34936">
        <ele>1414.6</ele>
        <time>2020-08-22T12:32:59.000Z</time>
      </trkpt>
      <trkpt lat="45.2489" lon="6.34933">
        <ele>1415</ele>
        <time>2020-08-22T12:33:01.000Z</time>
      </trkpt>
      <trkpt lat="45.24893" lon="6.34932">
        <ele>1415.5</ele>
        <time>2020-08-22T12:33:03.000Z</time>
      </trkpt>
      <trkpt lat="45.24895" lon="6.34931">
        <ele>1415.7</ele>
        <time>2020-08-22T12:33:04.000Z</time>
      </trkpt>
      <trkpt lat="45.24899" lon="6.3493">
        <ele>1416.3</ele>
        <time>2020-08-22T12:33:06.000Z</time>
      </trkpt>
      <trkpt lat="45.24902" lon="6.34929">
        <ele>1416.7</ele>
        <time>2020-08-22T12:33:08.000Z</time>
      </trkpt>
      <trkpt lat="45.24907" lon="6.34928">
        <ele>1417.2</ele>
        <time>2020-08-22T12:33:11.000Z</time>
      </trkpt>
      <trkpt lat="45.24909" lon="6.34929">
        <ele>1417.4</ele>
        <time>2020-08-22T12:33:12.000Z</time>
      </trkpt>
      <trkpt lat="45.24916" lon="6.34929">
        <ele>1418</ele>
        <time>2020-08-22T12:33:16.000Z</time>
      </trkpt>
      <trkpt lat="45.24919" lon="6.3493">
        <ele>1418.3</ele>
        <time>2020-08-22T12:33:18.000Z</time>
      </trkpt>
      <trkpt lat="45.2492" lon="6.3493">
        <ele>1418.5</ele>
        <time>2020-08-22T12:33:19.000Z</time>
      </trkpt>
      <trkpt lat="45.24924" lon="6.34931">
        <ele>1418.9</ele>
        <time>2020-08-22T12:33:21.000Z</time>
      </trkpt>
      <trkpt lat="45.24925" lon="6.3493">
        <ele>1419.1</ele>
        <time>2020-08-22T12:33:22.000Z</time>
      </trkpt>
      <trkpt lat="45.24928" lon="6.3493">
        <ele>1419.5</ele>
        <time>2020-08-22T12:33:24.000Z</time>
      </trkpt>
      <trkpt lat="45.24934" lon="6.3493">
        <ele>1420.2</ele>
        <time>2020-08-22T12:33:27.000Z</time>
      </trkpt>
      <trkpt lat="45.24942" lon="6.3493">
        <ele>1421.4</ele>
        <time>2020-08-22T12:33:31.000Z</time>
      </trkpt>
      <trkpt lat="45.24948" lon="6.3493">
        <ele>1422.5</ele>
        <time>2020-08-22T12:33:34.000Z</time>
      </trkpt>
      <trkpt lat="45.24952" lon="6.34929">
        <ele>1423.2</ele>
        <time>2020-08-22T12:33:36.000Z</time>
      </trkpt>
      <trkpt lat="45.24958" lon="6.34928">
        <ele>1424.3</ele>
        <time>2020-08-22T12:33:39.000Z</time>
      </trkpt>
      <trkpt lat="45.24963" lon="6.34928">
        <ele>1425.1</ele>
        <time>2020-08-22T12:33:41.000Z</time>
      </trkpt>
      <trkpt lat="45.24965" lon="6.34927">
        <ele>1425.5</ele>
        <time>2020-08-22T12:33:42.000Z</time>
      </trkpt>
      <trkpt lat="45.24967" lon="6.34927">
        <ele>1425.9</ele>
        <time>2020-08-22T12:33:43.000Z</time>
      </trkpt>
      <trkpt lat="45.2497" lon="6.34926">
        <ele>1426.4</ele>
        <time>2020-08-22T12:33:44.000Z</time>
      </trkpt>
      <trkpt lat="45.24975" lon="6.34926">
        <ele>1427.2</ele>
        <time>2020-08-22T12:33:46.000Z</time>
      </trkpt>
      <trkpt lat="45.24977" lon="6.34925">
        <ele>1427.5</ele>
        <time>2020-08-22T12:33:47.000Z</time>
      </trkpt>
      <trkpt lat="45.2498" lon="6.34925">
        <ele>1427.9</ele>
        <time>2020-08-22T12:33:48.000Z</time>
      </trkpt>
      <trkpt lat="45.24983" lon="6.34924">
        <ele>1428.2</ele>
        <time>2020-08-22T12:33:49.000Z</time>
      </trkpt>
      <trkpt lat="45.24987" lon="6.34924">
        <ele>1428.5</ele>
        <time>2020-08-22T12:33:50.000Z</time>
      </trkpt>
      <trkpt lat="45.24994" lon="6.34923">
        <ele>1428.9</ele>
        <time>2020-08-22T12:33:52.000Z</time>
      </trkpt>
      <trkpt lat="45.25001" lon="6.34922">
        <ele>1429.1</ele>
        <time>2020-08-22T12:33:54.000Z</time>
      </trkpt>
      <trkpt lat="45.25005" lon="6.34921">
        <ele>1429.2</ele>
        <time>2020-08-22T12:33:55.000Z</time>
      </trkpt>
      <trkpt lat="45.25009" lon="6.34921">
        <ele>1429.3</ele>
        <time>2020-08-22T12:33:56.000Z</time>
      </trkpt>
      <trkpt lat="45.25016" lon="6.34921">
        <ele>1429.5</ele>
        <time>2020-08-22T12:33:58.000Z</time>
      </trkpt>
      <trkpt lat="45.25029" lon="6.3492">
        <ele>1429.9</ele>
        <time>2020-08-22T12:34:02.000Z</time>
      </trkpt>
      <trkpt lat="45.25042" lon="6.34919">
        <ele>1430.2</ele>
        <time>2020-08-22T12:34:06.000Z</time>
      </trkpt>
      <trkpt lat="45.25048" lon="6.3492">
        <ele>1430.2</ele>
        <time>2020-08-22T12:34:08.000Z</time>
      </trkpt>
      <trkpt lat="45.25063" lon="6.34928">
        <ele>1430</ele>
        <time>2020-08-22T12:34:13.000Z</time>
      </trkpt>
      <trkpt lat="45.25066" lon="6.3493">
        <ele>1430</ele>
        <time>2020-08-22T12:34:14.000Z</time>
      </trkpt>
      <trkpt lat="45.25075" lon="6.34937">
        <ele>1429.8</ele>
        <time>2020-08-22T12:34:17.000Z</time>
      </trkpt>
      <trkpt lat="45.25078" lon="6.3494">
        <ele>1429.8</ele>
        <time>2020-08-22T12:34:18.000Z</time>
      </trkpt>
      <trkpt lat="45.25084" lon="6.34944">
        <ele>1429.6</ele>
        <time>2020-08-22T12:34:20.000Z</time>
      </trkpt>
      <trkpt lat="45.25087" lon="6.34946">
        <ele>1429.6</ele>
        <time>2020-08-22T12:34:21.000Z</time>
      </trkpt>
      <trkpt lat="45.2509" lon="6.34948">
        <ele>1429.5</ele>
        <time>2020-08-22T12:34:22.000Z</time>
      </trkpt>
      <trkpt lat="45.25096" lon="6.34952">
        <ele>1429.5</ele>
        <time>2020-08-22T12:34:24.000Z</time>
      </trkpt>
      <trkpt lat="45.25103" lon="6.34956">
        <ele>1429.4</ele>
        <time>2020-08-22T12:34:26.000Z</time>
      </trkpt>
      <trkpt lat="45.25114" lon="6.34963">
        <ele>1429.3</ele>
        <time>2020-08-22T12:34:29.000Z</time>
      </trkpt>
      <trkpt lat="45.25128" lon="6.34971">
        <ele>1428.9</ele>
        <time>2020-08-22T12:34:33.000Z</time>
      </trkpt>
      <trkpt lat="45.25138" lon="6.34977">
        <ele>1428.7</ele>
        <time>2020-08-22T12:34:36.000Z</time>
      </trkpt>
      <trkpt lat="45.25146" lon="6.3498">
        <ele>1428.8</ele>
        <time>2020-08-22T12:34:38.000Z</time>
      </trkpt>
      <trkpt lat="45.2515" lon="6.34981">
        <ele>1429</ele>
        <time>2020-08-22T12:34:39.000Z</time>
      </trkpt>
      <trkpt lat="45.25153" lon="6.34983">
        <ele>1429.2</ele>
        <time>2020-08-22T12:34:40.000Z</time>
      </trkpt>
      <trkpt lat="45.25161" lon="6.34985">
        <ele>1429.5</ele>
        <time>2020-08-22T12:34:42.000Z</time>
      </trkpt>
      <trkpt lat="45.25173" lon="6.34988">
        <ele>1428.8</ele>
        <time>2020-08-22T12:34:45.000Z</time>
      </trkpt>
      <trkpt lat="45.2518" lon="6.34989">
        <ele>1427.3</ele>
        <time>2020-08-22T12:34:47.000Z</time>
      </trkpt>
      <trkpt lat="45.25188" lon="6.34989">
        <ele>1424.9</ele>
        <time>2020-08-22T12:34:49.000Z</time>
      </trkpt>
      <trkpt lat="45.25196" lon="6.34988">
        <ele>1422.6</ele>
        <time>2020-08-22T12:34:51.000Z</time>
      </trkpt>
      <trkpt lat="45.25205" lon="6.3499">
        <ele>1419.7</ele>
        <time>2020-08-22T12:34:54.000Z</time>
      </trkpt>
      <trkpt lat="45.25208" lon="6.3499">
        <ele>1418.9</ele>
        <time>2020-08-22T12:34:55.000Z</time>
      </trkpt>
      <trkpt lat="45.2522" lon="6.34992">
        <ele>1417</ele>
        <time>2020-08-22T12:34:59.000Z</time>
      </trkpt>
      <trkpt lat="45.2523" lon="6.34992">
        <ele>1416.4</ele>
        <time>2020-08-22T12:35:03.000Z</time>
      </trkpt>
      <trkpt lat="45.25232" lon="6.34991">
        <ele>1416.3</ele>
        <time>2020-08-22T12:35:04.000Z</time>
      </trkpt>
      <trkpt lat="45.25249" lon="6.34986">
        <ele>1415.9</ele>
        <time>2020-08-22T12:35:11.000Z</time>
      </trkpt>
      <trkpt lat="45.25251" lon="6.34977">
        <ele>1415.9</ele>
        <time>2020-08-22T12:35:15.000Z</time>
      </trkpt>
      <trkpt lat="45.25253" lon="6.34972">
        <ele>1415.9</ele>
        <time>2020-08-22T12:35:18.000Z</time>
      </trkpt>
      <trkpt lat="45.25256" lon="6.34967">
        <ele>1415.9</ele>
        <time>2020-08-22T12:35:21.000Z</time>
      </trkpt>
      <trkpt lat="45.25259" lon="6.34963">
        <ele>1415.9</ele>
        <time>2020-08-22T12:35:24.000Z</time>
      </trkpt>
      <trkpt lat="45.2526" lon="6.34962">
        <ele>1415.9</ele>
        <time>2020-08-22T12:35:25.000Z</time>
      </trkpt>
      <trkpt lat="45.25263" lon="6.34959">
        <ele>1415.9</ele>
        <time>2020-08-22T12:35:28.000Z</time>
      </trkpt>
      <trkpt lat="45.25263" lon="6.34957">
        <ele>1415.9</ele>
        <time>2020-08-22T12:35:29.000Z</time>
      </trkpt>
      <trkpt lat="45.25265" lon="6.34953">
        <ele>1415.9</ele>
        <time>2020-08-22T12:35:32.000Z</time>
      </trkpt>
      <trkpt lat="45.25266" lon="6.3495">
        <ele>1415.8</ele>
        <time>2020-08-22T12:35:34.000Z</time>
      </trkpt>
      <trkpt lat="45.25268" lon="6.34948">
        <ele>1415.8</ele>
        <time>2020-08-22T12:35:36.000Z</time>
      </trkpt>
      <trkpt lat="45.25269" lon="6.34947">
        <ele>1415.8</ele>
        <time>2020-08-22T12:35:37.000Z</time>
      </trkpt>
      <trkpt lat="45.25275" lon="6.34945">
        <ele>1415.8</ele>
        <time>2020-08-22T12:35:41.000Z</time>
      </trkpt>
      <trkpt lat="45.25279" lon="6.34945">
        <ele>1415.8</ele>
        <time>2020-08-22T12:35:44.000Z</time>
      </trkpt>
      <trkpt lat="45.25283" lon="6.34945">
        <ele>1415.8</ele>
        <time>2020-08-22T12:35:47.000Z</time>
      </trkpt>
      <trkpt lat="45.2529" lon="6.34943">
        <ele>1415.8</ele>
        <time>2020-08-22T12:35:51.000Z</time>
      </trkpt>
      <trkpt lat="45.25299" lon="6.3494">
        <ele>1415.7</ele>
        <time>2020-08-22T12:35:56.000Z</time>
      </trkpt>
      <trkpt lat="45.25304" lon="6.34938">
        <ele>1415.7</ele>
        <time>2020-08-22T12:35:59.000Z</time>
      </trkpt>
      <trkpt lat="45.25308" lon="6.34939">
        <ele>1415.7</ele>
        <time>2020-08-22T12:36:01.000Z</time>
      </trkpt>
      <trkpt lat="45.25317" lon="6.34939">
        <ele>1415.7</ele>
        <time>2020-08-22T12:36:06.000Z</time>
      </trkpt>
      <trkpt lat="45.25319" lon="6.34938">
        <ele>1415.6</ele>
        <time>2020-08-22T12:36:08.000Z</time>
      </trkpt>
      <trkpt lat="45.25324" lon="6.34937">
        <ele>1415.6</ele>
        <time>2020-08-22T12:36:11.000Z</time>
      </trkpt>
      <trkpt lat="45.25327" lon="6.34938">
        <ele>1415.7</ele>
        <time>2020-08-22T12:36:12.000Z</time>
      </trkpt>
      <trkpt lat="45.2534" lon="6.34946">
        <ele>1415.8</ele>
        <time>2020-08-22T12:36:16.000Z</time>
      </trkpt>
      <trkpt lat="45.25348" lon="6.34945">
        <ele>1415.9</ele>
        <time>2020-08-22T12:36:18.000Z</time>
      </trkpt>
      <trkpt lat="45.25356" lon="6.34949">
        <ele>1416</ele>
        <time>2020-08-22T12:36:20.000Z</time>
      </trkpt>
      <trkpt lat="45.2536" lon="6.34949">
        <ele>1415.9</ele>
        <time>2020-08-22T12:36:21.000Z</time>
      </trkpt>
      <trkpt lat="45.25369" lon="6.34948">
        <ele>1415.8</ele>
        <time>2020-08-22T12:36:23.000Z</time>
      </trkpt>
      <trkpt lat="45.25381" lon="6.34947">
        <ele>1415.7</ele>
        <time>2020-08-22T12:36:25.000Z</time>
      </trkpt>
      <trkpt lat="45.25386" lon="6.34949">
        <ele>1415.7</ele>
        <time>2020-08-22T12:36:26.000Z</time>
      </trkpt>
      <trkpt lat="45.25391" lon="6.34952">
        <ele>1415.6</ele>
        <time>2020-08-22T12:36:27.000Z</time>
      </trkpt>
      <trkpt lat="45.25399" lon="6.34954">
        <ele>1415.2</ele>
        <time>2020-08-22T12:36:29.000Z</time>
      </trkpt>
      <trkpt lat="45.25402" lon="6.34953">
        <ele>1415</ele>
        <time>2020-08-22T12:36:30.000Z</time>
      </trkpt>
      <trkpt lat="45.25409" lon="6.34947">
        <ele>1414.3</ele>
        <time>2020-08-22T12:36:32.000Z</time>
      </trkpt>
      <trkpt lat="45.25413" lon="6.34946">
        <ele>1413.9</ele>
        <time>2020-08-22T12:36:35.000Z</time>
      </trkpt>
      <trkpt lat="45.25415" lon="6.34943">
        <ele>1413.7</ele>
        <time>2020-08-22T12:36:40.000Z</time>
      </trkpt>
      <trkpt lat="45.25415" lon="6.34943">
        <ele>1413.7</ele>
        <time>2020-08-22T12:36:42.000Z</time>
      </trkpt>
      <trkpt lat="45.25415" lon="6.34941">
        <ele>1413.8</ele>
        <time>2020-08-22T12:36:44.000Z</time>
      </trkpt>
      <trkpt lat="45.25412" lon="6.34937">
        <ele>1414.2</ele>
        <time>2020-08-22T12:36:46.000Z</time>
      </trkpt>
      <trkpt lat="45.25408" lon="6.34939">
        <ele>1414.6</ele>
        <time>2020-08-22T12:36:50.000Z</time>
      </trkpt>
      <trkpt lat="45.25407" lon="6.34942">
        <ele>1414.8</ele>
        <time>2020-08-22T12:36:51.000Z</time>
      </trkpt>
      <trkpt lat="45.25405" lon="6.34944">
        <ele>1415</ele>
        <time>2020-08-22T12:36:53.000Z</time>
      </trkpt>
      <trkpt lat="45.25403" lon="6.34945">
        <ele>1415.1</ele>
        <time>2020-08-22T12:36:54.000Z</time>
      </trkpt>
      <trkpt lat="45.25401" lon="6.34945">
        <ele>1415.3</ele>
        <time>2020-08-22T12:36:56.000Z</time>
      </trkpt>
      <trkpt lat="45.25395" lon="6.34944">
        <ele>1415.5</ele>
        <time>2020-08-22T12:37:00.000Z</time>
      </trkpt>
      <trkpt lat="45.25392" lon="6.34943">
        <ele>1415.6</ele>
        <time>2020-08-22T12:37:02.000Z</time>
      </trkpt>
      <trkpt lat="45.25383" lon="6.34942">
        <ele>1415.7</ele>
        <time>2020-08-22T12:37:06.000Z</time>
      </trkpt>
      <trkpt lat="45.25381" lon="6.34943">
        <ele>1415.7</ele>
        <time>2020-08-22T12:37:07.000Z</time>
      </trkpt>
      <trkpt lat="45.25379" lon="6.34943">
        <ele>1415.7</ele>
        <time>2020-08-22T12:37:08.000Z</time>
      </trkpt>
      <trkpt lat="45.25374" lon="6.34941">
        <ele>1415.8</ele>
        <time>2020-08-22T12:37:11.000Z</time>
      </trkpt>
      <trkpt lat="45.2537" lon="6.34942">
        <ele>1415.8</ele>
        <time>2020-08-22T12:37:13.000Z</time>
      </trkpt>
      <trkpt lat="45.25365" lon="6.34946">
        <ele>1415.9</ele>
        <time>2020-08-22T12:37:15.000Z</time>
      </trkpt>
      <trkpt lat="45.25363" lon="6.34946">
        <ele>1415.9</ele>
        <time>2020-08-22T12:37:16.000Z</time>
      </trkpt>
      <trkpt lat="45.2536" lon="6.34944">
        <ele>1416</ele>
        <time>2020-08-22T12:37:18.000Z</time>
      </trkpt>
      <trkpt lat="45.25358" lon="6.34943">
        <ele>1416</ele>
        <time>2020-08-22T12:37:19.000Z</time>
      </trkpt>
      <trkpt lat="45.25353" lon="6.34938">
        <ele>1415.9</ele>
        <time>2020-08-22T12:37:23.000Z</time>
      </trkpt>
      <trkpt lat="45.25351" lon="6.34939">
        <ele>1415.9</ele>
        <time>2020-08-22T12:37:24.000Z</time>
      </trkpt>
      <trkpt lat="45.25349" lon="6.3494">
        <ele>1415.9</ele>
        <time>2020-08-22T12:37:25.000Z</time>
      </trkpt>
      <trkpt lat="45.25339" lon="6.34939">
        <ele>1415.7</ele>
        <time>2020-08-22T12:37:30.000Z</time>
      </trkpt>
      <trkpt lat="45.25335" lon="6.34938">
        <ele>1415.7</ele>
        <time>2020-08-22T12:37:32.000Z</time>
      </trkpt>
      <trkpt lat="45.25331" lon="6.34937">
        <ele>1415.6</ele>
        <time>2020-08-22T12:37:34.000Z</time>
      </trkpt>
      <trkpt lat="45.2533" lon="6.34937">
        <ele>1415.6</ele>
        <time>2020-08-22T12:37:35.000Z</time>
      </trkpt>
      <trkpt lat="45.25327" lon="6.34936">
        <ele>1415.7</ele>
        <time>2020-08-22T12:37:38.000Z</time>
      </trkpt>
      <trkpt lat="45.25326" lon="6.34936">
        <ele>1415.7</ele>
        <time>2020-08-22T12:37:41.000Z</time>
      </trkpt>
      <trkpt lat="45.25325" lon="6.34937">
        <ele>1415.7</ele>
        <time>2020-08-22T12:37:44.000Z</time>
      </trkpt>
      <trkpt lat="45.25326" lon="6.34936">
        <ele>1415.7</ele>
        <time>2020-08-22T12:37:47.000Z</time>
      </trkpt>
      <trkpt lat="45.25325" lon="6.34936">
        <ele>1415.7</ele>
        <time>2020-08-22T12:37:48.000Z</time>
      </trkpt>
      <trkpt lat="45.25325" lon="6.34937">
        <ele>1415.7</ele>
        <time>2020-08-22T12:37:50.000Z</time>
      </trkpt>
      <trkpt lat="45.25325" lon="6.34937">
        <ele>1415.7</ele>
        <time>2020-08-22T12:37:52.000Z</time>
      </trkpt>
      <trkpt lat="45.25326" lon="6.34937">
        <ele>1415.7</ele>
        <time>2020-08-22T12:37:54.000Z</time>
      </trkpt>
      <trkpt lat="45.25329" lon="6.3494">
        <ele>1415.7</ele>
        <time>2020-08-22T12:37:55.000Z</time>
      </trkpt>
      <trkpt lat="45.25332" lon="6.34943">
        <ele>1415.8</ele>
        <time>2020-08-22T12:37:56.000Z</time>
      </trkpt>
      <trkpt lat="45.25334" lon="6.34944">
        <ele>1415.8</ele>
        <time>2020-08-22T12:37:57.000Z</time>
      </trkpt>
      <trkpt lat="45.25342" lon="6.34946">
        <ele>1415.9</ele>
        <time>2020-08-22T12:37:59.000Z</time>
      </trkpt>
      <trkpt lat="45.25347" lon="6.34945">
        <ele>1415.9</ele>
        <time>2020-08-22T12:38:00.000Z</time>
      </trkpt>
      <trkpt lat="45.25361" lon="6.34947">
        <ele>1415.9</ele>
        <time>2020-08-22T12:38:03.000Z</time>
      </trkpt>
      <trkpt lat="45.25366" lon="6.34946">
        <ele>1415.8</ele>
        <time>2020-08-22T12:38:04.000Z</time>
      </trkpt>
      <trkpt lat="45.25375" lon="6.34946">
        <ele>1415.7</ele>
        <time>2020-08-22T12:38:06.000Z</time>
      </trkpt>
      <trkpt lat="45.25379" lon="6.34946">
        <ele>1415.7</ele>
        <time>2020-08-22T12:38:07.000Z</time>
      </trkpt>
      <trkpt lat="45.25384" lon="6.34947">
        <ele>1415.6</ele>
        <time>2020-08-22T12:38:08.000Z</time>
      </trkpt>
      <trkpt lat="45.25389" lon="6.34949">
        <ele>1415.5</ele>
        <time>2020-08-22T12:38:09.000Z</time>
      </trkpt>
      <trkpt lat="45.25394" lon="6.34951">
        <ele>1415.3</ele>
        <time>2020-08-22T12:38:10.000Z</time>
      </trkpt>
      <trkpt lat="45.25402" lon="6.34949">
        <ele>1414.8</ele>
        <time>2020-08-22T12:38:12.000Z</time>
      </trkpt>
      <trkpt lat="45.25405" lon="6.34946">
        <ele>1414.5</ele>
        <time>2020-08-22T12:38:13.000Z</time>
      </trkpt>
      <trkpt lat="45.25408" lon="6.34943">
        <ele>1414.1</ele>
        <time>2020-08-22T12:38:14.000Z</time>
      </trkpt>
      <trkpt lat="45.25421" lon="6.34942">
        <ele>1412.9</ele>
        <time>2020-08-22T12:38:17.000Z</time>
      </trkpt>
      <trkpt lat="45.25435" lon="6.34937">
        <ele>1411.7</ele>
        <time>2020-08-22T12:38:19.000Z</time>
      </trkpt>
      <trkpt lat="45.25443" lon="6.34932">
        <ele>1411</ele>
        <time>2020-08-22T12:38:20.000Z</time>
      </trkpt>
      <trkpt lat="45.25457" lon="6.34923">
        <ele>1409.3</ele>
        <time>2020-08-22T12:38:22.000Z</time>
      </trkpt>
      <trkpt lat="45.25468" lon="6.34916">
        <ele>1408.2</ele>
        <time>2020-08-22T12:38:24.000Z</time>
      </trkpt>
      <trkpt lat="45.25498" lon="6.34902">
        <ele>1407</ele>
        <time>2020-08-22T12:38:30.000Z</time>
      </trkpt>
      <trkpt lat="45.25501" lon="6.34901">
        <ele>1406.9</ele>
        <time>2020-08-22T12:38:31.000Z</time>
      </trkpt>
      <trkpt lat="45.25513" lon="6.34897">
        <ele>1406.7</ele>
        <time>2020-08-22T12:38:35.000Z</time>
      </trkpt>
      <trkpt lat="45.25522" lon="6.34895">
        <ele>1406.6</ele>
        <time>2020-08-22T12:38:38.000Z</time>
      </trkpt>
      <trkpt lat="45.25527" lon="6.34893">
        <ele>1406.6</ele>
        <time>2020-08-22T12:38:40.000Z</time>
      </trkpt>
      <trkpt lat="45.25529" lon="6.34892">
        <ele>1406.6</ele>
        <time>2020-08-22T12:38:41.000Z</time>
      </trkpt>
      <trkpt lat="45.25531" lon="6.34891">
        <ele>1406.7</ele>
        <time>2020-08-22T12:38:42.000Z</time>
      </trkpt>
      <trkpt lat="45.2554" lon="6.34891">
        <ele>1406.8</ele>
        <time>2020-08-22T12:38:47.000Z</time>
      </trkpt>
      <trkpt lat="45.25548" lon="6.34892">
        <ele>1406.9</ele>
        <time>2020-08-22T12:38:52.000Z</time>
      </trkpt>
      <trkpt lat="45.25552" lon="6.34894">
        <ele>1406.9</ele>
        <time>2020-08-22T12:38:54.000Z</time>
      </trkpt>
      <trkpt lat="45.25562" lon="6.34892">
        <ele>1406.7</ele>
        <time>2020-08-22T12:38:58.000Z</time>
      </trkpt>
      <trkpt lat="45.25567" lon="6.34893">
        <ele>1406.4</ele>
        <time>2020-08-22T12:39:00.000Z</time>
      </trkpt>
      <trkpt lat="45.25573" lon="6.34895">
        <ele>1406</ele>
        <time>2020-08-22T12:39:03.000Z</time>
      </trkpt>
      <trkpt lat="45.25579" lon="6.34896">
        <ele>1405.5</ele>
        <time>2020-08-22T12:39:06.000Z</time>
      </trkpt>
      <trkpt lat="45.2559" lon="6.34901">
        <ele>1404.5</ele>
        <time>2020-08-22T12:39:12.000Z</time>
      </trkpt>
      <trkpt lat="45.25597" lon="6.34896">
        <ele>1403.8</ele>
        <time>2020-08-22T12:39:15.000Z</time>
      </trkpt>
      <trkpt lat="45.256" lon="6.34894">
        <ele>1403.5</ele>
        <time>2020-08-22T12:39:16.000Z</time>
      </trkpt>
      <trkpt lat="45.25602" lon="6.34895">
        <ele>1403.3</ele>
        <time>2020-08-22T12:39:17.000Z</time>
      </trkpt>
      <trkpt lat="45.25607" lon="6.34899">
        <ele>1402.7</ele>
        <time>2020-08-22T12:39:19.000Z</time>
      </trkpt>
      <trkpt lat="45.25609" lon="6.34902">
        <ele>1402.3</ele>
        <time>2020-08-22T12:39:20.000Z</time>
      </trkpt>
      <trkpt lat="45.25612" lon="6.34904">
        <ele>1401.6</ele>
        <time>2020-08-22T12:39:22.000Z</time>
      </trkpt>
      <trkpt lat="45.25613" lon="6.34901">
        <ele>1401.7</ele>
        <time>2020-08-22T12:39:23.000Z</time>
      </trkpt>
      <trkpt lat="45.25614" lon="6.34897">
        <ele>1401</ele>
        <time>2020-08-22T12:39:24.000Z</time>
      </trkpt>
      <trkpt lat="45.25616" lon="6.34893">
        <ele>1401</ele>
        <time>2020-08-22T12:39:25.000Z</time>
      </trkpt>
      <trkpt lat="45.25618" lon="6.34893">
        <ele>1400.2</ele>
        <time>2020-08-22T12:39:26.000Z</time>
      </trkpt>
      <trkpt lat="45.25623" lon="6.34894">
        <ele>1398.7</ele>
        <time>2020-08-22T12:39:28.000Z</time>
      </trkpt>
      <trkpt lat="45.25626" lon="6.3489">
        <ele>1397.9</ele>
        <time>2020-08-22T12:39:30.000Z</time>
      </trkpt>
      <trkpt lat="45.25628" lon="6.34882">
        <ele>1397.8</ele>
        <time>2020-08-22T12:39:32.000Z</time>
      </trkpt>
      <trkpt lat="45.25629" lon="6.34881">
        <ele>1396.9</ele>
        <time>2020-08-22T12:39:33.000Z</time>
      </trkpt>
      <trkpt lat="45.25631" lon="6.34879">
        <ele>1397</ele>
        <time>2020-08-22T12:39:34.000Z</time>
      </trkpt>
      <trkpt lat="45.25631" lon="6.34872">
        <ele>1396</ele>
        <time>2020-08-22T12:39:36.000Z</time>
      </trkpt>
      <trkpt lat="45.25632" lon="6.34866">
        <ele>1396</ele>
        <time>2020-08-22T12:39:37.000Z</time>
      </trkpt>
      <trkpt lat="45.25634" lon="6.34851">
        <ele>1395.9</ele>
        <time>2020-08-22T12:39:39.000Z</time>
      </trkpt>
      <trkpt lat="45.25637" lon="6.34842">
        <ele>1395.1</ele>
        <time>2020-08-22T12:39:40.000Z</time>
      </trkpt>
      <trkpt lat="45.25639" lon="6.34835">
        <ele>1394.3</ele>
        <time>2020-08-22T12:39:41.000Z</time>
      </trkpt>
      <trkpt lat="45.25642" lon="6.34829">
        <ele>1393.5</ele>
        <time>2020-08-22T12:39:42.000Z</time>
      </trkpt>
      <trkpt lat="45.2565" lon="6.3482">
        <ele>1391.3</ele>
        <time>2020-08-22T12:39:44.000Z</time>
      </trkpt>
      <trkpt lat="45.2566" lon="6.34807">
        <ele>1389</ele>
        <time>2020-08-22T12:39:47.000Z</time>
      </trkpt>
      <trkpt lat="45.2566" lon="6.348">
        <ele>1389</ele>
        <time>2020-08-22T12:39:48.000Z</time>
      </trkpt>
      <trkpt lat="45.25659" lon="6.34793">
        <ele>1388.9</ele>
        <time>2020-08-22T12:39:49.000Z</time>
      </trkpt>
      <trkpt lat="45.25659" lon="6.34786">
        <ele>1388.8</ele>
        <time>2020-08-22T12:39:50.000Z</time>
      </trkpt>
      <trkpt lat="45.25656" lon="6.34778">
        <ele>1389.5</ele>
        <time>2020-08-22T12:39:51.000Z</time>
      </trkpt>
      <trkpt lat="45.2565" lon="6.34761">
        <ele>1390.7</ele>
        <time>2020-08-22T12:39:53.000Z</time>
      </trkpt>
      <trkpt lat="45.2564" lon="6.34735">
        <ele>1392.7</ele>
        <time>2020-08-22T12:39:56.000Z</time>
      </trkpt>
      <trkpt lat="45.25631" lon="6.34717">
        <ele>1392.8</ele>
        <time>2020-08-22T12:39:58.000Z</time>
      </trkpt>
      <trkpt lat="45.25626" lon="6.34708">
        <ele>1392.3</ele>
        <time>2020-08-22T12:39:59.000Z</time>
      </trkpt>
      <trkpt lat="45.25622" lon="6.34702">
        <ele>1393.3</ele>
        <time>2020-08-22T12:40:00.000Z</time>
      </trkpt>
      <trkpt lat="45.25617" lon="6.34695">
        <ele>1392.8</ele>
        <time>2020-08-22T12:40:01.000Z</time>
      </trkpt>
      <trkpt lat="45.25612" lon="6.34689">
        <ele>1393.8</ele>
        <time>2020-08-22T12:40:02.000Z</time>
      </trkpt>
      <trkpt lat="45.25608" lon="6.34683">
        <ele>1393.2</ele>
        <time>2020-08-22T12:40:03.000Z</time>
      </trkpt>
      <trkpt lat="45.25598" lon="6.34672">
        <ele>1394</ele>
        <time>2020-08-22T12:40:05.000Z</time>
      </trkpt>
      <trkpt lat="45.2559" lon="6.34663">
        <ele>1393.1</ele>
        <time>2020-08-22T12:40:07.000Z</time>
      </trkpt>
      <trkpt lat="45.25586" lon="6.34658">
        <ele>1392.6</ele>
        <time>2020-08-22T12:40:08.000Z</time>
      </trkpt>
      <trkpt lat="45.25572" lon="6.34643">
        <ele>1390.8</ele>
        <time>2020-08-22T12:40:12.000Z</time>
      </trkpt>
      <trkpt lat="45.25568" lon="6.3464">
        <ele>1390.2</ele>
        <time>2020-08-22T12:40:13.000Z</time>
      </trkpt>
      <trkpt lat="45.25565" lon="6.34636">
        <ele>1389.5</ele>
        <time>2020-08-22T12:40:14.000Z</time>
      </trkpt>
      <trkpt lat="45.25556" lon="6.34625">
        <ele>1388.3</ele>
        <time>2020-08-22T12:40:16.000Z</time>
      </trkpt>
      <trkpt lat="45.25546" lon="6.34618">
        <ele>1387.1</ele>
        <time>2020-08-22T12:40:18.000Z</time>
      </trkpt>
      <trkpt lat="45.25544" lon="6.34615">
        <ele>1386.5</ele>
        <time>2020-08-22T12:40:19.000Z</time>
      </trkpt>
      <trkpt lat="45.25542" lon="6.3461">
        <ele>1385.8</ele>
        <time>2020-08-22T12:40:20.000Z</time>
      </trkpt>
      <trkpt lat="45.25536" lon="6.34599">
        <ele>1384.6</ele>
        <time>2020-08-22T12:40:22.000Z</time>
      </trkpt>
      <trkpt lat="45.25532" lon="6.34596">
        <ele>1384.1</ele>
        <time>2020-08-22T12:40:23.000Z</time>
      </trkpt>
      <trkpt lat="45.25527" lon="6.34587">
        <ele>1383</ele>
        <time>2020-08-22T12:40:25.000Z</time>
      </trkpt>
      <trkpt lat="45.25527" lon="6.34579">
        <ele>1381.6</ele>
        <time>2020-08-22T12:40:26.000Z</time>
      </trkpt>
      <trkpt lat="45.25524" lon="6.34571">
        <ele>1380.1</ele>
        <time>2020-08-22T12:40:29.000Z</time>
      </trkpt>
      <trkpt lat="45.25514" lon="6.34576">
        <ele>1379.2</ele>
        <time>2020-08-22T12:40:33.000Z</time>
      </trkpt>
      <trkpt lat="45.25503" lon="6.34578">
        <ele>1378.4</ele>
        <time>2020-08-22T12:40:37.000Z</time>
      </trkpt>
      <trkpt lat="45.255" lon="6.34577">
        <ele>1378.3</ele>
        <time>2020-08-22T12:40:38.000Z</time>
      </trkpt>
      <trkpt lat="45.25497" lon="6.34577">
        <ele>1378.2</ele>
        <time>2020-08-22T12:40:39.000Z</time>
      </trkpt>
      <trkpt lat="45.2549" lon="6.34577">
        <ele>1378</ele>
        <time>2020-08-22T12:40:42.000Z</time>
      </trkpt>
      <trkpt lat="45.25486" lon="6.34575">
        <ele>1378</ele>
        <time>2020-08-22T12:40:44.000Z</time>
      </trkpt>
      <trkpt lat="45.25477" lon="6.34572">
        <ele>1378.2</ele>
        <time>2020-08-22T12:40:50.000Z</time>
      </trkpt>
      <trkpt lat="45.25474" lon="6.34571">
        <ele>1378.3</ele>
        <time>2020-08-22T12:40:52.000Z</time>
      </trkpt>
      <trkpt lat="45.25471" lon="6.34569">
        <ele>1378.4</ele>
        <time>2020-08-22T12:40:54.000Z</time>
      </trkpt>
      <trkpt lat="45.25468" lon="6.34569">
        <ele>1378.5</ele>
        <time>2020-08-22T12:40:56.000Z</time>
      </trkpt>
      <trkpt lat="45.25464" lon="6.34569">
        <ele>1378.7</ele>
        <time>2020-08-22T12:40:58.000Z</time>
      </trkpt>
      <trkpt lat="45.25461" lon="6.3457">
        <ele>1378.9</ele>
        <time>2020-08-22T12:41:00.000Z</time>
      </trkpt>
      <trkpt lat="45.25459" lon="6.3457">
        <ele>1379</ele>
        <time>2020-08-22T12:41:01.000Z</time>
      </trkpt>
      <trkpt lat="45.25455" lon="6.34571">
        <ele>1379.3</ele>
        <time>2020-08-22T12:41:03.000Z</time>
      </trkpt>
      <trkpt lat="45.25445" lon="6.34571">
        <ele>1380</ele>
        <time>2020-08-22T12:41:07.000Z</time>
      </trkpt>
      <trkpt lat="45.25432" lon="6.34571">
        <ele>1381</ele>
        <time>2020-08-22T12:41:12.000Z</time>
      </trkpt>
      <trkpt lat="45.25425" lon="6.34572">
        <ele>1381.5</ele>
        <time>2020-08-22T12:41:14.000Z</time>
      </trkpt>
      <trkpt lat="45.25407" lon="6.34578">
        <ele>1383</ele>
        <time>2020-08-22T12:41:20.000Z</time>
      </trkpt>
      <trkpt lat="45.25404" lon="6.34582">
        <ele>1383.3</ele>
        <time>2020-08-22T12:41:21.000Z</time>
      </trkpt>
      <trkpt lat="45.25401" lon="6.34601">
        <ele>1384.2</ele>
        <time>2020-08-22T12:41:26.000Z</time>
      </trkpt>
      <trkpt lat="45.25411" lon="6.34619">
        <ele>1384.6</ele>
        <time>2020-08-22T12:41:33.000Z</time>
      </trkpt>
      <trkpt lat="45.25417" lon="6.34625">
        <ele>1384.8</ele>
        <time>2020-08-22T12:41:36.000Z</time>
      </trkpt>
      <trkpt lat="45.25425" lon="6.34633">
        <ele>1385.1</ele>
        <time>2020-08-22T12:41:40.000Z</time>
      </trkpt>
      <trkpt lat="45.25428" lon="6.34634">
        <ele>1385.2</ele>
        <time>2020-08-22T12:41:41.000Z</time>
      </trkpt>
      <trkpt lat="45.25442" lon="6.34648">
        <ele>1385.5</ele>
        <time>2020-08-22T12:41:48.000Z</time>
      </trkpt>
      <trkpt lat="45.25454" lon="6.34661">
        <ele>1386</ele>
        <time>2020-08-22T12:41:54.000Z</time>
      </trkpt>
      <trkpt lat="45.25458" lon="6.34665">
        <ele>1386.2</ele>
        <time>2020-08-22T12:41:56.000Z</time>
      </trkpt>
      <trkpt lat="45.25472" lon="6.34682">
        <ele>1386.9</ele>
        <time>2020-08-22T12:42:03.000Z</time>
      </trkpt>
      <trkpt lat="45.25483" lon="6.34697">
        <ele>1387.5</ele>
        <time>2020-08-22T12:42:09.000Z</time>
      </trkpt>
      <trkpt lat="45.25484" lon="6.34699">
        <ele>1387.6</ele>
        <time>2020-08-22T12:42:10.000Z</time>
      </trkpt>
      <trkpt lat="45.25493" lon="6.34714">
        <ele>1388.2</ele>
        <time>2020-08-22T12:42:16.000Z</time>
      </trkpt>
      <trkpt lat="45.25496" lon="6.34719">
        <ele>1388.4</ele>
        <time>2020-08-22T12:42:18.000Z</time>
      </trkpt>
      <trkpt lat="45.25499" lon="6.34724">
        <ele>1388.6</ele>
        <time>2020-08-22T12:42:20.000Z</time>
      </trkpt>
      <trkpt lat="45.255" lon="6.34726">
        <ele>1388.8</ele>
        <time>2020-08-22T12:42:21.000Z</time>
      </trkpt>
      <trkpt lat="45.25507" lon="6.34743">
        <ele>1389.8</ele>
        <time>2020-08-22T12:42:28.000Z</time>
      </trkpt>
      <trkpt lat="45.25509" lon="6.34745">
        <ele>1389.9</ele>
        <time>2020-08-22T12:42:29.000Z</time>
      </trkpt>
      <trkpt lat="45.25514" lon="6.34749">
        <ele>1390.4</ele>
        <time>2020-08-22T12:42:32.000Z</time>
      </trkpt>
      <trkpt lat="45.25526" lon="6.34753">
        <ele>1391.6</ele>
        <time>2020-08-22T12:42:39.000Z</time>
      </trkpt>
      <trkpt lat="45.25529" lon="6.34753">
        <ele>1392</ele>
        <time>2020-08-22T12:42:41.000Z</time>
      </trkpt>
      <trkpt lat="45.25533" lon="6.34753">
        <ele>1392.5</ele>
        <time>2020-08-22T12:42:43.000Z</time>
      </trkpt>
      <trkpt lat="45.25538" lon="6.34753">
        <ele>1393.3</ele>
        <time>2020-08-22T12:42:46.000Z</time>
      </trkpt>
      <trkpt lat="45.25544" lon="6.34753">
        <ele>1394.1</ele>
        <time>2020-08-22T12:42:49.000Z</time>
      </trkpt>
      <trkpt lat="45.25548" lon="6.34752">
        <ele>1394.7</ele>
        <time>2020-08-22T12:42:51.000Z</time>
      </trkpt>
      <trkpt lat="45.25556" lon="6.34753">
        <ele>1395.8</ele>
        <time>2020-08-22T12:42:55.000Z</time>
      </trkpt>
      <trkpt lat="45.25558" lon="6.34753">
        <ele>1396</ele>
        <time>2020-08-22T12:42:56.000Z</time>
      </trkpt>
      <trkpt lat="45.2556" lon="6.34754">
        <ele>1396.3</ele>
        <time>2020-08-22T12:42:57.000Z</time>
      </trkpt>
      <trkpt lat="45.25565" lon="6.34756">
        <ele>1396.6</ele>
        <time>2020-08-22T12:42:59.000Z</time>
      </trkpt>
      <trkpt lat="45.25569" lon="6.34758">
        <ele>1396.9</ele>
        <time>2020-08-22T12:43:01.000Z</time>
      </trkpt>
      <trkpt lat="45.25573" lon="6.3476">
        <ele>1397.1</ele>
        <time>2020-08-22T12:43:03.000Z</time>
      </trkpt>
      <trkpt lat="45.25575" lon="6.34761">
        <ele>1397.2</ele>
        <time>2020-08-22T12:43:04.000Z</time>
      </trkpt>
      <trkpt lat="45.25585" lon="6.34767">
        <ele>1397.7</ele>
        <time>2020-08-22T12:43:09.000Z</time>
      </trkpt>
      <trkpt lat="45.25587" lon="6.34768">
        <ele>1397.8</ele>
        <time>2020-08-22T12:43:10.000Z</time>
      </trkpt>
      <trkpt lat="45.25605" lon="6.34779">
        <ele>1398.7</ele>
        <time>2020-08-22T12:43:18.000Z</time>
      </trkpt>
      <trkpt lat="45.2561" lon="6.34782">
        <ele>1398.8</ele>
        <time>2020-08-22T12:43:20.000Z</time>
      </trkpt>
      <trkpt lat="45.25623" lon="6.34788">
        <ele>1399</ele>
        <time>2020-08-22T12:43:25.000Z</time>
      </trkpt>
      <trkpt lat="45.25637" lon="6.34794">
        <ele>1398.7</ele>
        <time>2020-08-22T12:43:31.000Z</time>
      </trkpt>
      <trkpt lat="45.25646" lon="6.34801">
        <ele>1398.4</ele>
        <time>2020-08-22T12:43:36.000Z</time>
      </trkpt>
      <trkpt lat="45.25648" lon="6.34802">
        <ele>1398.4</ele>
        <time>2020-08-22T12:43:37.000Z</time>
      </trkpt>
      <trkpt lat="45.25649" lon="6.34803">
        <ele>1398.4</ele>
        <time>2020-08-22T12:43:38.000Z</time>
      </trkpt>
      <trkpt lat="45.25653" lon="6.34803">
        <ele>1398.3</ele>
        <time>2020-08-22T12:43:40.000Z</time>
      </trkpt>
      <trkpt lat="45.25658" lon="6.34801">
        <ele>1398.1</ele>
        <time>2020-08-22T12:43:42.000Z</time>
      </trkpt>
      <trkpt lat="45.25659" lon="6.34798">
        <ele>1397.2</ele>
        <time>2020-08-22T12:43:43.000Z</time>
      </trkpt>
      <trkpt lat="45.2566" lon="6.34793">
        <ele>1397.1</ele>
        <time>2020-08-22T12:43:44.000Z</time>
      </trkpt>
      <trkpt lat="45.25657" lon="6.34774">
        <ele>1397.5</ele>
        <time>2020-08-22T12:43:47.000Z</time>
      </trkpt>
      <trkpt lat="45.25647" lon="6.34741">
        <ele>1397.8</ele>
        <time>2020-08-22T12:43:52.000Z</time>
      </trkpt>
      <trkpt lat="45.25645" lon="6.3474">
        <ele>1398.9</ele>
        <time>2020-08-22T12:43:55.000Z</time>
      </trkpt>
      <trkpt lat="45.25643" lon="6.3474">
        <ele>1398.9</ele>
        <time>2020-08-22T12:43:57.000Z</time>
      </trkpt>
      <trkpt lat="45.25644" lon="6.34742">
        <ele>1398.8</ele>
        <time>2020-08-22T12:44:01.000Z</time>
      </trkpt>
      <trkpt lat="45.25645" lon="6.34745">
        <ele>1399.2</ele>
        <time>2020-08-22T12:44:04.000Z</time>
      </trkpt>
      <trkpt lat="45.25646" lon="6.34747">
        <ele>1399.2</ele>
        <time>2020-08-22T12:44:06.000Z</time>
      </trkpt>
      <trkpt lat="45.25646" lon="6.34749">
        <ele>1398.6</ele>
        <time>2020-08-22T12:44:08.000Z</time>
      </trkpt>
      <trkpt lat="45.25647" lon="6.34751">
        <ele>1398.5</ele>
        <time>2020-08-22T12:44:11.000Z</time>
      </trkpt>
      <trkpt lat="45.25647" lon="6.34752">
        <ele>1398.5</ele>
        <time>2020-08-22T12:44:12.000Z</time>
      </trkpt>
      <trkpt lat="45.25647" lon="6.34753">
        <ele>1398.8</ele>
        <time>2020-08-22T12:44:14.000Z</time>
      </trkpt>
      <trkpt lat="45.25646" lon="6.34752">
        <ele>1398.5</ele>
        <time>2020-08-22T12:44:16.000Z</time>
      </trkpt>
      <trkpt lat="45.25646" lon="6.34751">
        <ele>1399.4</ele>
        <time>2020-08-22T12:44:17.000Z</time>
      </trkpt>
      <trkpt lat="45.25643" lon="6.34742">
        <ele>1399.7</ele>
        <time>2020-08-22T12:44:20.000Z</time>
      </trkpt>
      <trkpt lat="45.25643" lon="6.34732">
        <ele>1397.6</ele>
        <time>2020-08-22T12:44:22.000Z</time>
      </trkpt>
      <trkpt lat="45.25645" lon="6.3473">
        <ele>1397</ele>
        <time>2020-08-22T12:44:23.000Z</time>
      </trkpt>
      <trkpt lat="45.25655" lon="6.34728">
        <ele>1393.7</ele>
        <time>2020-08-22T12:44:26.000Z</time>
      </trkpt>
      <trkpt lat="45.2566" lon="6.34729">
        <ele>1391.2</ele>
        <time>2020-08-22T12:44:27.000Z</time>
      </trkpt>
      <trkpt lat="45.25682" lon="6.3473">
        <ele>1381.4</ele>
        <time>2020-08-22T12:44:31.000Z</time>
      </trkpt>
      <trkpt lat="45.25687" lon="6.34734">
        <ele>1379.2</ele>
        <time>2020-08-22T12:44:32.000Z</time>
      </trkpt>
      <trkpt lat="45.2569" lon="6.3474">
        <ele>1379.3</ele>
        <time>2020-08-22T12:44:33.000Z</time>
      </trkpt>
      <trkpt lat="45.25694" lon="6.34747">
        <ele>1378.7</ele>
        <time>2020-08-22T12:44:34.000Z</time>
      </trkpt>
      <trkpt lat="45.25701" lon="6.34756">
        <ele>1376.3</ele>
        <time>2020-08-22T12:44:36.000Z</time>
      </trkpt>
      <trkpt lat="45.25708" lon="6.34758">
        <ele>1374.7</ele>
        <time>2020-08-22T12:44:38.000Z</time>
      </trkpt>
      <trkpt lat="45.25711" lon="6.34759">
        <ele>1373.5</ele>
        <time>2020-08-22T12:44:39.000Z</time>
      </trkpt>
      <trkpt lat="45.25715" lon="6.34761">
        <ele>1372.3</ele>
        <time>2020-08-22T12:44:40.000Z</time>
      </trkpt>
      <trkpt lat="45.2572" lon="6.34762">
        <ele>1370.7</ele>
        <time>2020-08-22T12:44:41.000Z</time>
      </trkpt>
      <trkpt lat="45.25725" lon="6.34765">
        <ele>1367.8</ele>
        <time>2020-08-22T12:44:42.000Z</time>
      </trkpt>
      <trkpt lat="45.25733" lon="6.34771">
        <ele>1366.9</ele>
        <time>2020-08-22T12:44:44.000Z</time>
      </trkpt>
      <trkpt lat="45.25735" lon="6.34769">
        <ele>1364.9</ele>
        <time>2020-08-22T12:44:45.000Z</time>
      </trkpt>
      <trkpt lat="45.25738" lon="6.34765">
        <ele>1362.8</ele>
        <time>2020-08-22T12:44:46.000Z</time>
      </trkpt>
      <trkpt lat="45.25745" lon="6.34761">
        <ele>1359.4</ele>
        <time>2020-08-22T12:44:48.000Z</time>
      </trkpt>
      <trkpt lat="45.25753" lon="6.34773">
        <ele>1357.5</ele>
        <time>2020-08-22T12:44:51.000Z</time>
      </trkpt>
      <trkpt lat="45.2576" lon="6.34792">
        <ele>1358.4</ele>
        <time>2020-08-22T12:44:55.000Z</time>
      </trkpt>
      <trkpt lat="45.2576" lon="6.34799">
        <ele>1359.2</ele>
        <time>2020-08-22T12:44:57.000Z</time>
      </trkpt>
      <trkpt lat="45.25761" lon="6.348">
        <ele>1359.9</ele>
        <time>2020-08-22T12:44:58.000Z</time>
      </trkpt>
      <trkpt lat="45.25762" lon="6.348">
        <ele>1358.6</ele>
        <time>2020-08-22T12:44:59.000Z</time>
      </trkpt>
      <trkpt lat="45.25764" lon="6.34799">
        <ele>1356.5</ele>
        <time>2020-08-22T12:45:00.000Z</time>
      </trkpt>
      <trkpt lat="45.25767" lon="6.34794">
        <ele>1354.4</ele>
        <time>2020-08-22T12:45:02.000Z</time>
      </trkpt>
      <trkpt lat="45.25769" lon="6.3479">
        <ele>1353.6</ele>
        <time>2020-08-22T12:45:03.000Z</time>
      </trkpt>
      <trkpt lat="45.2577" lon="6.34786">
        <ele>1351.4</ele>
        <time>2020-08-22T12:45:04.000Z</time>
      </trkpt>
      <trkpt lat="45.25777" lon="6.34775">
        <ele>1346.9</ele>
        <time>2020-08-22T12:45:07.000Z</time>
      </trkpt>
      <trkpt lat="45.25784" lon="6.34777">
        <ele>1343.9</ele>
        <time>2020-08-22T12:45:09.000Z</time>
      </trkpt>
      <trkpt lat="45.25787" lon="6.34781">
        <ele>1343.3</ele>
        <time>2020-08-22T12:45:10.000Z</time>
      </trkpt>
      <trkpt lat="45.25797" lon="6.34789">
        <ele>1341</ele>
        <time>2020-08-22T12:45:12.000Z</time>
      </trkpt>
      <trkpt lat="45.25801" lon="6.34794">
        <ele>1339.3</ele>
        <time>2020-08-22T12:45:13.000Z</time>
      </trkpt>
      <trkpt lat="45.25805" lon="6.348">
        <ele>1340</ele>
        <time>2020-08-22T12:45:14.000Z</time>
      </trkpt>
      <trkpt lat="45.2581" lon="6.34804">
        <ele>1338.4</ele>
        <time>2020-08-22T12:45:16.000Z</time>
      </trkpt>
      <trkpt lat="45.25812" lon="6.34803">
        <ele>1336</ele>
        <time>2020-08-22T12:45:17.000Z</time>
      </trkpt>
      <trkpt lat="45.25815" lon="6.34805">
        <ele>1337.1</ele>
        <time>2020-08-22T12:45:18.000Z</time>
      </trkpt>
      <trkpt lat="45.25816" lon="6.34808">
        <ele>1335.9</ele>
        <time>2020-08-22T12:45:19.000Z</time>
      </trkpt>
      <trkpt lat="45.25819" lon="6.34809">
        <ele>1336</ele>
        <time>2020-08-22T12:45:20.000Z</time>
      </trkpt>
      <trkpt lat="45.25824" lon="6.34809">
        <ele>1333.9</ele>
        <time>2020-08-22T12:45:22.000Z</time>
      </trkpt>
      <trkpt lat="45.25835" lon="6.34813">
        <ele>1331</ele>
        <time>2020-08-22T12:45:25.000Z</time>
      </trkpt>
      <trkpt lat="45.2584" lon="6.34819">
        <ele>1329.3</ele>
        <time>2020-08-22T12:45:26.000Z</time>
      </trkpt>
      <trkpt lat="45.25844" lon="6.34825">
        <ele>1329.1</ele>
        <time>2020-08-22T12:45:27.000Z</time>
      </trkpt>
      <trkpt lat="45.25847" lon="6.34836">
        <ele>1330.6</ele>
        <time>2020-08-22T12:45:29.000Z</time>
      </trkpt>
      <trkpt lat="45.25846" lon="6.34841">
        <ele>1331.4</ele>
        <time>2020-08-22T12:45:30.000Z</time>
      </trkpt>
      <trkpt lat="45.25843" lon="6.34847">
        <ele>1333.9</ele>
        <time>2020-08-22T12:45:32.000Z</time>
      </trkpt>
      <trkpt lat="45.25839" lon="6.34856">
        <ele>1337.1</ele>
        <time>2020-08-22T12:45:35.000Z</time>
      </trkpt>
      <trkpt lat="45.25838" lon="6.34862">
        <ele>1337.5</ele>
        <time>2020-08-22T12:45:37.000Z</time>
      </trkpt>
      <trkpt lat="45.25839" lon="6.34882">
        <ele>1338.9</ele>
        <time>2020-08-22T12:45:43.000Z</time>
      </trkpt>
      <trkpt lat="45.2584" lon="6.34897">
        <ele>1338.3</ele>
        <time>2020-08-22T12:45:48.000Z</time>
      </trkpt>
      <trkpt lat="45.25839" lon="6.34901">
        <ele>1339.6</ele>
        <time>2020-08-22T12:45:50.000Z</time>
      </trkpt>
      <trkpt lat="45.25833" lon="6.34919">
        <ele>1342.2</ele>
        <time>2020-08-22T12:45:57.000Z</time>
      </trkpt>
      <trkpt lat="45.25828" lon="6.34938">
        <ele>1342.4</ele>
        <time>2020-08-22T12:46:03.000Z</time>
      </trkpt>
      <trkpt lat="45.25827" lon="6.34944">
        <ele>1343.1</ele>
        <time>2020-08-22T12:46:05.000Z</time>
      </trkpt>
      <trkpt lat="45.25823" lon="6.34954">
        <ele>1342.9</ele>
        <time>2020-08-22T12:46:08.000Z</time>
      </trkpt>
      <trkpt lat="45.2582" lon="6.34965">
        <ele>1342.8</ele>
        <time>2020-08-22T12:46:11.000Z</time>
      </trkpt>
      <trkpt lat="45.25816" lon="6.34977">
        <ele>1341.8</ele>
        <time>2020-08-22T12:46:15.000Z</time>
      </trkpt>
      <trkpt lat="45.25808" lon="6.34996">
        <ele>1341.3</ele>
        <time>2020-08-22T12:46:22.000Z</time>
      </trkpt>
      <trkpt lat="45.25807" lon="6.34999">
        <ele>1340.4</ele>
        <time>2020-08-22T12:46:23.000Z</time>
      </trkpt>
      <trkpt lat="45.25799" lon="6.35017">
        <ele>1338.3</ele>
        <time>2020-08-22T12:46:29.000Z</time>
      </trkpt>
      <trkpt lat="45.25798" lon="6.3502">
        <ele>1337.1</ele>
        <time>2020-08-22T12:46:30.000Z</time>
      </trkpt>
      <trkpt lat="45.25792" lon="6.35029">
        <ele>1335.8</ele>
        <time>2020-08-22T12:46:34.000Z</time>
      </trkpt>
      <trkpt lat="45.25788" lon="6.35032">
        <ele>1335.1</ele>
        <time>2020-08-22T12:46:36.000Z</time>
      </trkpt>
      <trkpt lat="45.2578" lon="6.3504">
        <ele>1334.7</ele>
        <time>2020-08-22T12:46:41.000Z</time>
      </trkpt>
      <trkpt lat="45.25765" lon="6.35047">
        <ele>1337.1</ele>
        <time>2020-08-22T12:46:48.000Z</time>
      </trkpt>
      <trkpt lat="45.25762" lon="6.35048">
        <ele>1337.8</ele>
        <time>2020-08-22T12:46:49.000Z</time>
      </trkpt>
      <trkpt lat="45.2576" lon="6.35048">
        <ele>1338.5</ele>
        <time>2020-08-22T12:46:50.000Z</time>
      </trkpt>
      <trkpt lat="45.2575" lon="6.35048">
        <ele>1341</ele>
        <time>2020-08-22T12:46:54.000Z</time>
      </trkpt>
      <trkpt lat="45.25748" lon="6.35047">
        <ele>1341.9</ele>
        <time>2020-08-22T12:46:55.000Z</time>
      </trkpt>
      <trkpt lat="45.25736" lon="6.35052">
        <ele>1343.9</ele>
        <time>2020-08-22T12:47:00.000Z</time>
      </trkpt>
      <trkpt lat="45.25722" lon="6.35066">
        <ele>1342</ele>
        <time>2020-08-22T12:47:07.000Z</time>
      </trkpt>
      <trkpt lat="45.25708" lon="6.35083">
        <ele>1340.4</ele>
        <time>2020-08-22T12:47:14.000Z</time>
      </trkpt>
      <trkpt lat="45.25702" lon="6.3509">
        <ele>1340.5</ele>
        <time>2020-08-22T12:47:17.000Z</time>
      </trkpt>
      <trkpt lat="45.25697" lon="6.35094">
        <ele>1340.7</ele>
        <time>2020-08-22T12:47:19.000Z</time>
      </trkpt>
      <trkpt lat="45.2569" lon="6.35101">
        <ele>1339.4</ele>
        <time>2020-08-22T12:47:22.000Z</time>
      </trkpt>
      <trkpt lat="45.25686" lon="6.35104">
        <ele>1338.6</ele>
        <time>2020-08-22T12:47:24.000Z</time>
      </trkpt>
      <trkpt lat="45.25683" lon="6.35106">
        <ele>1339.3</ele>
        <time>2020-08-22T12:47:25.000Z</time>
      </trkpt>
      <trkpt lat="45.25677" lon="6.3511">
        <ele>1339</ele>
        <time>2020-08-22T12:47:28.000Z</time>
      </trkpt>
      <trkpt lat="45.25668" lon="6.35114">
        <ele>1339.6</ele>
        <time>2020-08-22T12:47:32.000Z</time>
      </trkpt>
      <trkpt lat="45.25661" lon="6.35118">
        <ele>1340.6</ele>
        <time>2020-08-22T12:47:35.000Z</time>
      </trkpt>
      <trkpt lat="45.2564" lon="6.35127">
        <ele>1342.3</ele>
        <time>2020-08-22T12:47:44.000Z</time>
      </trkpt>
      <trkpt lat="45.25625" lon="6.35127">
        <ele>1347.8</ele>
        <time>2020-08-22T12:47:50.000Z</time>
      </trkpt>
      <trkpt lat="45.25609" lon="6.35128">
        <ele>1353.3</ele>
        <time>2020-08-22T12:47:56.000Z</time>
      </trkpt>
      <trkpt lat="45.256" lon="6.35127">
        <ele>1356.5</ele>
        <time>2020-08-22T12:47:59.000Z</time>
      </trkpt>
      <trkpt lat="45.25595" lon="6.35126">
        <ele>1358.6</ele>
        <time>2020-08-22T12:48:01.000Z</time>
      </trkpt>
      <trkpt lat="45.25589" lon="6.35126">
        <ele>1359.6</ele>
        <time>2020-08-22T12:48:03.000Z</time>
      </trkpt>
      <trkpt lat="45.25581" lon="6.35126">
        <ele>1362.6</ele>
        <time>2020-08-22T12:48:06.000Z</time>
      </trkpt>
      <trkpt lat="45.25568" lon="6.35128">
        <ele>1366</ele>
        <time>2020-08-22T12:48:10.000Z</time>
      </trkpt>
      <trkpt lat="45.25553" lon="6.35133">
        <ele>1367.8</ele>
        <time>2020-08-22T12:48:16.000Z</time>
      </trkpt>
      <trkpt lat="45.25552" lon="6.35132">
        <ele>1368.4</ele>
        <time>2020-08-22T12:48:17.000Z</time>
      </trkpt>
      <trkpt lat="45.25553" lon="6.3513">
        <ele>1369.5</ele>
        <time>2020-08-22T12:48:19.000Z</time>
      </trkpt>
      <trkpt lat="45.25554" lon="6.35129">
        <ele>1369.4</ele>
        <time>2020-08-22T12:48:20.000Z</time>
      </trkpt>
      <trkpt lat="45.25563" lon="6.35125">
        <ele>1369</ele>
        <time>2020-08-22T12:48:25.000Z</time>
      </trkpt>
      <trkpt lat="45.25567" lon="6.35123">
        <ele>1368.3</ele>
        <time>2020-08-22T12:48:27.000Z</time>
      </trkpt>
      <trkpt lat="45.2558" lon="6.35121">
        <ele>1365.7</ele>
        <time>2020-08-22T12:48:32.000Z</time>
      </trkpt>
      <trkpt lat="45.25587" lon="6.35122">
        <ele>1362</ele>
        <time>2020-08-22T12:48:34.000Z</time>
      </trkpt>
      <trkpt lat="45.25599" lon="6.35123">
        <ele>1357.8</ele>
        <time>2020-08-22T12:48:38.000Z</time>
      </trkpt>
      <trkpt lat="45.25602" lon="6.35123">
        <ele>1356.7</ele>
        <time>2020-08-22T12:48:39.000Z</time>
      </trkpt>
      <trkpt lat="45.25616" lon="6.35122">
        <ele>1351</ele>
        <time>2020-08-22T12:48:43.000Z</time>
      </trkpt>
      <trkpt lat="45.25619" lon="6.3512">
        <ele>1351.4</ele>
        <time>2020-08-22T12:48:44.000Z</time>
      </trkpt>
      <trkpt lat="45.25625" lon="6.35118">
        <ele>1349.4</ele>
        <time>2020-08-22T12:48:46.000Z</time>
      </trkpt>
      <trkpt lat="45.25636" lon="6.3511">
        <ele>1349.6</ele>
        <time>2020-08-22T12:48:50.000Z</time>
      </trkpt>
      <trkpt lat="45.2564" lon="6.35105">
        <ele>1349</ele>
        <time>2020-08-22T12:48:52.000Z</time>
      </trkpt>
      <trkpt lat="45.25642" lon="6.35103">
        <ele>1350.5</ele>
        <time>2020-08-22T12:48:53.000Z</time>
      </trkpt>
      <trkpt lat="45.25649" lon="6.35095">
        <ele>1351.6</ele>
        <time>2020-08-22T12:48:56.000Z</time>
      </trkpt>
      <trkpt lat="45.25653" lon="6.35088">
        <ele>1351.5</ele>
        <time>2020-08-22T12:48:58.000Z</time>
      </trkpt>
      <trkpt lat="45.25659" lon="6.35079">
        <ele>1353.2</ele>
        <time>2020-08-22T12:49:01.000Z</time>
      </trkpt>
      <trkpt lat="45.25665" lon="6.3507">
        <ele>1356.4</ele>
        <time>2020-08-22T12:49:04.000Z</time>
      </trkpt>
      <trkpt lat="45.25667" lon="6.35066">
        <ele>1356.4</ele>
        <time>2020-08-22T12:49:05.000Z</time>
      </trkpt>
      <trkpt lat="45.25672" lon="6.35058">
        <ele>1357.8</ele>
        <time>2020-08-22T12:49:08.000Z</time>
      </trkpt>
      <trkpt lat="45.25678" lon="6.35049">
        <ele>1358.9</ele>
        <time>2020-08-22T12:49:11.000Z</time>
      </trkpt>
      <trkpt lat="45.2569" lon="6.35033">
        <ele>1360</ele>
        <time>2020-08-22T12:49:16.000Z</time>
      </trkpt>
      <trkpt lat="45.25692" lon="6.3503">
        <ele>1360.3</ele>
        <time>2020-08-22T12:49:17.000Z</time>
      </trkpt>
      <trkpt lat="45.25694" lon="6.35027">
        <ele>1360.2</ele>
        <time>2020-08-22T12:49:18.000Z</time>
      </trkpt>
      <trkpt lat="45.25697" lon="6.35024">
        <ele>1360.5</ele>
        <time>2020-08-22T12:49:19.000Z</time>
      </trkpt>
      <trkpt lat="45.25699" lon="6.35021">
        <ele>1360.8</ele>
        <time>2020-08-22T12:49:20.000Z</time>
      </trkpt>
      <trkpt lat="45.25703" lon="6.35015">
        <ele>1361.1</ele>
        <time>2020-08-22T12:49:22.000Z</time>
      </trkpt>
      <trkpt lat="45.25705" lon="6.35012">
        <ele>1361.3</ele>
        <time>2020-08-22T12:49:23.000Z</time>
      </trkpt>
      <trkpt lat="45.25711" lon="6.35003">
        <ele>1362</ele>
        <time>2020-08-22T12:49:26.000Z</time>
      </trkpt>
      <trkpt lat="45.2572" lon="6.34993">
        <ele>1361.9</ele>
        <time>2020-08-22T12:49:30.000Z</time>
      </trkpt>
      <trkpt lat="45.25734" lon="6.34978">
        <ele>1360.8</ele>
        <time>2020-08-22T12:49:36.000Z</time>
      </trkpt>
      <trkpt lat="45.25737" lon="6.34976">
        <ele>1360.8</ele>
        <time>2020-08-22T12:49:37.000Z</time>
      </trkpt>
      <trkpt lat="45.25743" lon="6.3496">
        <ele>1363.2</ele>
        <time>2020-08-22T12:49:42.000Z</time>
      </trkpt>
      <trkpt lat="45.25741" lon="6.3494">
        <ele>1367</ele>
        <time>2020-08-22T12:49:48.000Z</time>
      </trkpt>
      <trkpt lat="45.25741" lon="6.34937">
        <ele>1367</ele>
        <time>2020-08-22T12:49:49.000Z</time>
      </trkpt>
      <trkpt lat="45.25741" lon="6.34924">
        <ele>1368.9</ele>
        <time>2020-08-22T12:49:53.000Z</time>
      </trkpt>
      <trkpt lat="45.2574" lon="6.34916">
        <ele>1369.8</ele>
        <time>2020-08-22T12:49:56.000Z</time>
      </trkpt>
      <trkpt lat="45.25741" lon="6.34895">
        <ele>1371.1</ele>
        <time>2020-08-22T12:50:02.000Z</time>
      </trkpt>
      <trkpt lat="45.25739" lon="6.34886">
        <ele>1372.1</ele>
        <time>2020-08-22T12:50:04.000Z</time>
      </trkpt>
      <trkpt lat="45.25735" lon="6.34863">
        <ele>1372.7</ele>
        <time>2020-08-22T12:50:09.000Z</time>
      </trkpt>
      <trkpt lat="45.25733" lon="6.34854">
        <ele>1373.2</ele>
        <time>2020-08-22T12:50:12.000Z</time>
      </trkpt>
      <trkpt lat="45.25731" lon="6.34848">
        <ele>1373</ele>
        <time>2020-08-22T12:50:14.000Z</time>
      </trkpt>
      <trkpt lat="45.25727" lon="6.34839">
        <ele>1374.6</ele>
        <time>2020-08-22T12:50:17.000Z</time>
      </trkpt>
      <trkpt lat="45.25723" lon="6.34832">
        <ele>1375.2</ele>
        <time>2020-08-22T12:50:19.000Z</time>
      </trkpt>
      <trkpt lat="45.2572" lon="6.34824">
        <ele>1375.8</ele>
        <time>2020-08-22T12:50:21.000Z</time>
      </trkpt>
      <trkpt lat="45.25714" lon="6.34807">
        <ele>1376.2</ele>
        <time>2020-08-22T12:50:26.000Z</time>
      </trkpt>
      <trkpt lat="45.257" lon="6.3478">
        <ele>1378.7</ele>
        <time>2020-08-22T12:50:35.000Z</time>
      </trkpt>
      <trkpt lat="45.25695" lon="6.34772">
        <ele>1379</ele>
        <time>2020-08-22T12:50:38.000Z</time>
      </trkpt>
      <trkpt lat="45.25692" lon="6.34768">
        <ele>1379.7</ele>
        <time>2020-08-22T12:50:40.000Z</time>
      </trkpt>
      <trkpt lat="45.25691" lon="6.34765">
        <ele>1380.4</ele>
        <time>2020-08-22T12:50:41.000Z</time>
      </trkpt>
      <trkpt lat="45.25686" lon="6.34756">
        <ele>1380.3</ele>
        <time>2020-08-22T12:50:44.000Z</time>
      </trkpt>
      <trkpt lat="45.25681" lon="6.34745">
        <ele>1381.4</ele>
        <time>2020-08-22T12:50:48.000Z</time>
      </trkpt>
      <trkpt lat="45.25673" lon="6.34728">
        <ele>1382.5</ele>
        <time>2020-08-22T12:50:54.000Z</time>
      </trkpt>
      <trkpt lat="45.2566" lon="6.34702">
        <ele>1383.1</ele>
        <time>2020-08-22T12:51:02.000Z</time>
      </trkpt>
      <trkpt lat="45.25645" lon="6.34686">
        <ele>1385.7</ele>
        <time>2020-08-22T12:51:09.000Z</time>
      </trkpt>
      <trkpt lat="45.25635" lon="6.3468">
        <ele>1388.7</ele>
        <time>2020-08-22T12:51:13.000Z</time>
      </trkpt>
      <trkpt lat="45.25627" lon="6.34677">
        <ele>1390.9</ele>
        <time>2020-08-22T12:51:16.000Z</time>
      </trkpt>
      <trkpt lat="45.25618" lon="6.34672">
        <ele>1392.8</ele>
        <time>2020-08-22T12:51:20.000Z</time>
      </trkpt>
      <trkpt lat="45.25611" lon="6.34663">
        <ele>1392.5</ele>
        <time>2020-08-22T12:51:23.000Z</time>
      </trkpt>
      <trkpt lat="45.25603" lon="6.34652">
        <ele>1391.8</ele>
        <time>2020-08-22T12:51:26.000Z</time>
      </trkpt>
      <trkpt lat="45.25599" lon="6.34643">
        <ele>1390.5</ele>
        <time>2020-08-22T12:51:28.000Z</time>
      </trkpt>
      <trkpt lat="45.25596" lon="6.34638">
        <ele>1390.2</ele>
        <time>2020-08-22T12:51:29.000Z</time>
      </trkpt>
      <trkpt lat="45.25589" lon="6.34626">
        <ele>1389.1</ele>
        <time>2020-08-22T12:51:31.000Z</time>
      </trkpt>
      <trkpt lat="45.25579" lon="6.34613">
        <ele>1387.8</ele>
        <time>2020-08-22T12:51:33.000Z</time>
      </trkpt>
      <trkpt lat="45.2555" lon="6.34575">
        <ele>1383.2</ele>
        <time>2020-08-22T12:51:38.000Z</time>
      </trkpt>
      <trkpt lat="45.25538" lon="6.3456">
        <ele>1381.3</ele>
        <time>2020-08-22T12:51:40.000Z</time>
      </trkpt>
      <trkpt lat="45.25531" lon="6.34551">
        <ele>1379.8</ele>
        <time>2020-08-22T12:51:42.000Z</time>
      </trkpt>
      <trkpt lat="45.25526" lon="6.3455">
        <ele>1379</ele>
        <time>2020-08-22T12:51:43.000Z</time>
      </trkpt>
      <trkpt lat="45.25521" lon="6.34552">
        <ele>1380.1</ele>
        <time>2020-08-22T12:51:44.000Z</time>
      </trkpt>
      <trkpt lat="45.25516" lon="6.34556">
        <ele>1379.6</ele>
        <time>2020-08-22T12:51:45.000Z</time>
      </trkpt>
      <trkpt lat="45.25512" lon="6.3456">
        <ele>1379.2</ele>
        <time>2020-08-22T12:51:46.000Z</time>
      </trkpt>
      <trkpt lat="45.25504" lon="6.34565">
        <ele>1378.5</ele>
        <time>2020-08-22T12:51:48.000Z</time>
      </trkpt>
      <trkpt lat="45.255" lon="6.34567">
        <ele>1378.3</ele>
        <time>2020-08-22T12:51:49.000Z</time>
      </trkpt>
      <trkpt lat="45.25493" lon="6.34568">
        <ele>1378</ele>
        <time>2020-08-22T12:51:51.000Z</time>
      </trkpt>
      <trkpt lat="45.25482" lon="6.34567">
        <ele>1378.1</ele>
        <time>2020-08-22T12:51:54.000Z</time>
      </trkpt>
      <trkpt lat="45.25473" lon="6.34567">
        <ele>1378.3</ele>
        <time>2020-08-22T12:51:58.000Z</time>
      </trkpt>
      <trkpt lat="45.25469" lon="6.34565">
        <ele>1378.5</ele>
        <time>2020-08-22T12:52:00.000Z</time>
      </trkpt>
      <trkpt lat="45.25452" lon="6.34564">
        <ele>1379.6</ele>
        <time>2020-08-22T12:52:08.000Z</time>
      </trkpt>
      <trkpt lat="45.25449" lon="6.34564">
        <ele>1379.8</ele>
        <time>2020-08-22T12:52:09.000Z</time>
      </trkpt>
      <trkpt lat="45.25442" lon="6.34565">
        <ele>1380.5</ele>
        <time>2020-08-22T12:52:12.000Z</time>
      </trkpt>
      <trkpt lat="45.25433" lon="6.34566">
        <ele>1381.2</ele>
        <time>2020-08-22T12:52:15.000Z</time>
      </trkpt>
      <trkpt lat="45.25424" lon="6.34567">
        <ele>1381.9</ele>
        <time>2020-08-22T12:52:18.000Z</time>
      </trkpt>
      <trkpt lat="45.25412" lon="6.34566">
        <ele>1382.8</ele>
        <time>2020-08-22T12:52:21.000Z</time>
      </trkpt>
      <trkpt lat="45.25409" lon="6.34567">
        <ele>1383.1</ele>
        <time>2020-08-22T12:52:22.000Z</time>
      </trkpt>
      <trkpt lat="45.25402" lon="6.3458">
        <ele>1384</ele>
        <time>2020-08-22T12:52:26.000Z</time>
      </trkpt>
      <trkpt lat="45.25402" lon="6.34585">
        <ele>1384.1</ele>
        <time>2020-08-22T12:52:27.000Z</time>
      </trkpt>
      <trkpt lat="45.25405" lon="6.34601">
        <ele>1384.5</ele>
        <time>2020-08-22T12:52:31.000Z</time>
      </trkpt>
      <trkpt lat="45.25406" lon="6.34604">
        <ele>1384.6</ele>
        <time>2020-08-22T12:52:32.000Z</time>
      </trkpt>
      <trkpt lat="45.25411" lon="6.34613">
        <ele>1384.8</ele>
        <time>2020-08-22T12:52:35.000Z</time>
      </trkpt>
      <trkpt lat="45.25413" lon="6.34615">
        <ele>1384.9</ele>
        <time>2020-08-22T12:52:36.000Z</time>
      </trkpt>
      <trkpt lat="45.25415" lon="6.34618">
        <ele>1384.9</ele>
        <time>2020-08-22T12:52:37.000Z</time>
      </trkpt>
      <trkpt lat="45.25417" lon="6.3462">
        <ele>1385</ele>
        <time>2020-08-22T12:52:38.000Z</time>
      </trkpt>
      <trkpt lat="45.25429" lon="6.34631">
        <ele>1385.3</ele>
        <time>2020-08-22T12:52:43.000Z</time>
      </trkpt>
      <trkpt lat="45.25431" lon="6.34634">
        <ele>1385.4</ele>
        <time>2020-08-22T12:52:44.000Z</time>
      </trkpt>
      <trkpt lat="45.25433" lon="6.34636">
        <ele>1385.4</ele>
        <time>2020-08-22T12:52:45.000Z</time>
      </trkpt>
      <trkpt lat="45.25447" lon="6.34649">
        <ele>1386</ele>
        <time>2020-08-22T12:52:51.000Z</time>
      </trkpt>
      <trkpt lat="45.25453" lon="6.34657">
        <ele>1386.3</ele>
        <time>2020-08-22T12:52:54.000Z</time>
      </trkpt>
      <trkpt lat="45.2547" lon="6.34679">
        <ele>1387.3</ele>
        <time>2020-08-22T12:53:02.000Z</time>
      </trkpt>
      <trkpt lat="45.25476" lon="6.34687">
        <ele>1387.6</ele>
        <time>2020-08-22T12:53:05.000Z</time>
      </trkpt>
      <trkpt lat="45.25487" lon="6.34703">
        <ele>1388.4</ele>
        <time>2020-08-22T12:53:11.000Z</time>
      </trkpt>
      <trkpt lat="45.25489" lon="6.34706">
        <ele>1388.5</ele>
        <time>2020-08-22T12:53:12.000Z</time>
      </trkpt>
      <trkpt lat="45.25496" lon="6.34716">
        <ele>1389.1</ele>
        <time>2020-08-22T12:53:16.000Z</time>
      </trkpt>
      <trkpt lat="45.25498" lon="6.34719">
        <ele>1389.3</ele>
        <time>2020-08-22T12:53:17.000Z</time>
      </trkpt>
      <trkpt lat="45.25501" lon="6.34724">
        <ele>1389.7</ele>
        <time>2020-08-22T12:53:19.000Z</time>
      </trkpt>
      <trkpt lat="45.25505" lon="6.34732">
        <ele>1390.4</ele>
        <time>2020-08-22T12:53:22.000Z</time>
      </trkpt>
      <trkpt lat="45.25514" lon="6.34746">
        <ele>1391.7</ele>
        <time>2020-08-22T12:53:28.000Z</time>
      </trkpt>
      <trkpt lat="45.25517" lon="6.34749">
        <ele>1392.2</ele>
        <time>2020-08-22T12:53:30.000Z</time>
      </trkpt>
      <trkpt lat="45.25524" lon="6.34751">
        <ele>1393.2</ele>
        <time>2020-08-22T12:53:34.000Z</time>
      </trkpt>
      <trkpt lat="45.25532" lon="6.34751">
        <ele>1394.4</ele>
        <time>2020-08-22T12:53:38.000Z</time>
      </trkpt>
      <trkpt lat="45.25537" lon="6.34751">
        <ele>1395.3</ele>
        <time>2020-08-22T12:53:41.000Z</time>
      </trkpt>
      <trkpt lat="45.25541" lon="6.34751">
        <ele>1395.8</ele>
        <time>2020-08-22T12:53:43.000Z</time>
      </trkpt>
      <trkpt lat="45.25545" lon="6.34751">
        <ele>1396.2</ele>
        <time>2020-08-22T12:53:45.000Z</time>
      </trkpt>
      <trkpt lat="45.25549" lon="6.3475">
        <ele>1396.6</ele>
        <time>2020-08-22T12:53:47.000Z</time>
      </trkpt>
      <trkpt lat="45.25552" lon="6.3475">
        <ele>1396.8</ele>
        <time>2020-08-22T12:53:48.000Z</time>
      </trkpt>
      <trkpt lat="45.25553" lon="6.3475">
        <ele>1396.9</ele>
        <time>2020-08-22T12:53:49.000Z</time>
      </trkpt>
      <trkpt lat="45.2556" lon="6.34751">
        <ele>1397.2</ele>
        <time>2020-08-22T12:53:52.000Z</time>
      </trkpt>
      <trkpt lat="45.25566" lon="6.34754">
        <ele>1397.5</ele>
        <time>2020-08-22T12:53:55.000Z</time>
      </trkpt>
      <trkpt lat="45.25569" lon="6.34755">
        <ele>1397.6</ele>
        <time>2020-08-22T12:53:56.000Z</time>
      </trkpt>
      <trkpt lat="45.25581" lon="6.34761">
        <ele>1398.2</ele>
        <time>2020-08-22T12:54:02.000Z</time>
      </trkpt>
      <trkpt lat="45.2559" lon="6.34767">
        <ele>1398.7</ele>
        <time>2020-08-22T12:54:06.000Z</time>
      </trkpt>
      <trkpt lat="45.25596" lon="6.34772">
        <ele>1398.9</ele>
        <time>2020-08-22T12:54:09.000Z</time>
      </trkpt>
      <trkpt lat="45.25598" lon="6.34774">
        <ele>1398.9</ele>
        <time>2020-08-22T12:54:10.000Z</time>
      </trkpt>
      <trkpt lat="45.25618" lon="6.34785">
        <ele>1398.7</ele>
        <time>2020-08-22T12:54:18.000Z</time>
      </trkpt>
      <trkpt lat="45.25627" lon="6.34789">
        <ele>1398.5</ele>
        <time>2020-08-22T12:54:21.000Z</time>
      </trkpt>
      <trkpt lat="45.2564" lon="6.34794">
        <ele>1398.1</ele>
        <time>2020-08-22T12:54:25.000Z</time>
      </trkpt>
      <trkpt lat="45.25643" lon="6.34796">
        <ele>1398.1</ele>
        <time>2020-08-22T12:54:26.000Z</time>
      </trkpt>
      <trkpt lat="45.25648" lon="6.34803">
        <ele>1398</ele>
        <time>2020-08-22T12:54:28.000Z</time>
      </trkpt>
      <trkpt lat="45.25651" lon="6.34812">
        <ele>1397.7</ele>
        <time>2020-08-22T12:54:30.000Z</time>
      </trkpt>
      <trkpt lat="45.25653" lon="6.34817">
        <ele>1397.6</ele>
        <time>2020-08-22T12:54:31.000Z</time>
      </trkpt>
      <trkpt lat="45.2566" lon="6.34842">
        <ele>1396.8</ele>
        <time>2020-08-22T12:54:36.000Z</time>
      </trkpt>
      <trkpt lat="45.25662" lon="6.34865">
        <ele>1396.7</ele>
        <time>2020-08-22T12:54:40.000Z</time>
      </trkpt>
      <trkpt lat="45.25661" lon="6.34871">
        <ele>1396.6</ele>
        <time>2020-08-22T12:54:41.000Z</time>
      </trkpt>
      <trkpt lat="45.25655" lon="6.349">
        <ele>1397.1</ele>
        <time>2020-08-22T12:54:47.000Z</time>
      </trkpt>
      <trkpt lat="45.25651" lon="6.34912">
        <ele>1397.7</ele>
        <time>2020-08-22T12:54:50.000Z</time>
      </trkpt>
      <trkpt lat="45.25644" lon="6.34923">
        <ele>1398.5</ele>
        <time>2020-08-22T12:54:53.000Z</time>
      </trkpt>
      <trkpt lat="45.25633" lon="6.34934">
        <ele>1399.8</ele>
        <time>2020-08-22T12:54:58.000Z</time>
      </trkpt>
      <trkpt lat="45.25615" lon="6.34937">
        <ele>1401.7</ele>
        <time>2020-08-22T12:55:05.000Z</time>
      </trkpt>
      <trkpt lat="45.25602" lon="6.34939">
        <ele>1403.1</ele>
        <time>2020-08-22T12:55:11.000Z</time>
      </trkpt>
      <trkpt lat="45.256" lon="6.34939">
        <ele>1403.4</ele>
        <time>2020-08-22T12:55:12.000Z</time>
      </trkpt>
      <trkpt lat="45.25595" lon="6.34937">
        <ele>1403.9</ele>
        <time>2020-08-22T12:55:14.000Z</time>
      </trkpt>
      <trkpt lat="45.25588" lon="6.34937">
        <ele>1404.6</ele>
        <time>2020-08-22T12:55:17.000Z</time>
      </trkpt>
      <trkpt lat="45.25583" lon="6.34937">
        <ele>1405.1</ele>
        <time>2020-08-22T12:55:19.000Z</time>
      </trkpt>
      <trkpt lat="45.25572" lon="6.34936">
        <ele>1406</ele>
        <time>2020-08-22T12:55:23.000Z</time>
      </trkpt>
      <trkpt lat="45.25561" lon="6.34938">
        <ele>1406.7</ele>
        <time>2020-08-22T12:55:27.000Z</time>
      </trkpt>
      <trkpt lat="45.25556" lon="6.3494">
        <ele>1406.8</ele>
        <time>2020-08-22T12:55:29.000Z</time>
      </trkpt>
      <trkpt lat="45.25549" lon="6.34943">
        <ele>1406.9</ele>
        <time>2020-08-22T12:55:31.000Z</time>
      </trkpt>
      <trkpt lat="45.25541" lon="6.34945">
        <ele>1406.8</ele>
        <time>2020-08-22T12:55:33.000Z</time>
      </trkpt>
      <trkpt lat="45.25533" lon="6.34947">
        <ele>1406.7</ele>
        <time>2020-08-22T12:55:35.000Z</time>
      </trkpt>
      <trkpt lat="45.25517" lon="6.34952">
        <ele>1406.6</ele>
        <time>2020-08-22T12:55:39.000Z</time>
      </trkpt>
      <trkpt lat="45.25505" lon="6.34957">
        <ele>1406.9</ele>
        <time>2020-08-22T12:55:42.000Z</time>
      </trkpt>
      <trkpt lat="45.25502" lon="6.34958">
        <ele>1406.9</ele>
        <time>2020-08-22T12:55:43.000Z</time>
      </trkpt>
      <trkpt lat="45.25484" lon="6.34963">
        <ele>1407.4</ele>
        <time>2020-08-22T12:55:49.000Z</time>
      </trkpt>
      <trkpt lat="45.25482" lon="6.34964">
        <ele>1407.5</ele>
        <time>2020-08-22T12:55:50.000Z</time>
      </trkpt>
      <trkpt lat="45.25467" lon="6.34971">
        <ele>1408.4</ele>
        <time>2020-08-22T12:55:56.000Z</time>
      </trkpt>
      <trkpt lat="45.25463" lon="6.34971">
        <ele>1408.8</ele>
        <time>2020-08-22T12:55:58.000Z</time>
      </trkpt>
      <trkpt lat="45.25459" lon="6.34972">
        <ele>1409.1</ele>
        <time>2020-08-22T12:56:00.000Z</time>
      </trkpt>
      <trkpt lat="45.25453" lon="6.34972">
        <ele>1409.8</ele>
        <time>2020-08-22T12:56:03.000Z</time>
      </trkpt>
      <trkpt lat="45.25438" lon="6.34972">
        <ele>1411.4</ele>
        <time>2020-08-22T12:56:10.000Z</time>
      </trkpt>
      <trkpt lat="45.25434" lon="6.34972">
        <ele>1411.8</ele>
        <time>2020-08-22T12:56:12.000Z</time>
      </trkpt>
      <trkpt lat="45.25427" lon="6.34973">
        <ele>1412.4</ele>
        <time>2020-08-22T12:56:15.000Z</time>
      </trkpt>
      <trkpt lat="45.2542" lon="6.34974">
        <ele>1412.9</ele>
        <time>2020-08-22T12:56:18.000Z</time>
      </trkpt>
      <trkpt lat="45.25416" lon="6.34975">
        <ele>1413.3</ele>
        <time>2020-08-22T12:56:20.000Z</time>
      </trkpt>
      <trkpt lat="45.25405" lon="6.34975">
        <ele>1414.4</ele>
        <time>2020-08-22T12:56:25.000Z</time>
      </trkpt>
      <trkpt lat="45.25395" lon="6.34979">
        <ele>1415.2</ele>
        <time>2020-08-22T12:56:29.000Z</time>
      </trkpt>
      <trkpt lat="45.25385" lon="6.34985">
        <ele>1415.6</ele>
        <time>2020-08-22T12:56:33.000Z</time>
      </trkpt>
      <trkpt lat="45.25383" lon="6.34987">
        <ele>1415.6</ele>
        <time>2020-08-22T12:56:34.000Z</time>
      </trkpt>
      <trkpt lat="45.25375" lon="6.34992">
        <ele>1415.7</ele>
        <time>2020-08-22T12:56:37.000Z</time>
      </trkpt>
      <trkpt lat="45.25368" lon="6.34994">
        <ele>1415.8</ele>
        <time>2020-08-22T12:56:39.000Z</time>
      </trkpt>
      <trkpt lat="45.25365" lon="6.34994">
        <ele>1415.8</ele>
        <time>2020-08-22T12:56:40.000Z</time>
      </trkpt>
      <trkpt lat="45.25359" lon="6.34994">
        <ele>1415.9</ele>
        <time>2020-08-22T12:56:42.000Z</time>
      </trkpt>
      <trkpt lat="45.2535" lon="6.34994">
        <ele>1416</ele>
        <time>2020-08-22T12:56:45.000Z</time>
      </trkpt>
      <trkpt lat="45.2533" lon="6.34993">
        <ele>1415.7</ele>
        <time>2020-08-22T12:56:51.000Z</time>
      </trkpt>
      <trkpt lat="45.2532" lon="6.34991">
        <ele>1415.6</ele>
        <time>2020-08-22T12:56:54.000Z</time>
      </trkpt>
      <trkpt lat="45.25306" lon="6.34988">
        <ele>1415.7</ele>
        <time>2020-08-22T12:56:58.000Z</time>
      </trkpt>
      <trkpt lat="45.253" lon="6.34987">
        <ele>1415.7</ele>
        <time>2020-08-22T12:57:00.000Z</time>
      </trkpt>
      <trkpt lat="45.25282" lon="6.34984">
        <ele>1415.8</ele>
        <time>2020-08-22T12:57:05.000Z</time>
      </trkpt>
      <trkpt lat="45.25256" lon="6.34982">
        <ele>1415.9</ele>
        <time>2020-08-22T12:57:12.000Z</time>
      </trkpt>
      <trkpt lat="45.25235" lon="6.34988">
        <ele>1415.9</ele>
        <time>2020-08-22T12:57:17.000Z</time>
      </trkpt>
      <trkpt lat="45.2523" lon="6.34987">
        <ele>1416</ele>
        <time>2020-08-22T12:57:18.000Z</time>
      </trkpt>
      <trkpt lat="45.25215" lon="6.34989">
        <ele>1416.4</ele>
        <time>2020-08-22T12:57:22.000Z</time>
      </trkpt>
      <trkpt lat="45.25213" lon="6.34992">
        <ele>1416.5</ele>
        <time>2020-08-22T12:57:23.000Z</time>
      </trkpt>
      <trkpt lat="45.25207" lon="6.35001">
        <ele>1417.1</ele>
        <time>2020-08-22T12:57:26.000Z</time>
      </trkpt>
      <trkpt lat="45.25207" lon="6.35002">
        <ele>1417.2</ele>
        <time>2020-08-22T12:57:27.000Z</time>
      </trkpt>
      <trkpt lat="45.25206" lon="6.35005">
        <ele>1417.6</ele>
        <time>2020-08-22T12:57:31.000Z</time>
      </trkpt>
      <trkpt lat="45.25208" lon="6.35007">
        <ele>1418</ele>
        <time>2020-08-22T12:57:33.000Z</time>
      </trkpt>
      <trkpt lat="45.25208" lon="6.35008">
        <ele>1418</ele>
        <time>2020-08-22T12:57:34.000Z</time>
      </trkpt>
      <trkpt lat="45.25208" lon="6.35008">
        <ele>1418.2</ele>
        <time>2020-08-22T12:57:37.000Z</time>
      </trkpt>
      <trkpt lat="45.25208" lon="6.35008">
        <ele>1418.3</ele>
        <time>2020-08-22T12:57:39.000Z</time>
      </trkpt>
      <trkpt lat="45.25206" lon="6.35009">
        <ele>1418.7</ele>
        <time>2020-08-22T12:57:46.000Z</time>
      </trkpt>
      <trkpt lat="45.25205" lon="6.3501">
        <ele>1419</ele>
        <time>2020-08-22T12:57:51.000Z</time>
      </trkpt>
      <trkpt lat="45.25198" lon="6.35013">
        <ele>1421.2</ele>
        <time>2020-08-22T12:57:57.000Z</time>
      </trkpt>
      <trkpt lat="45.25195" lon="6.35016">
        <ele>1422.5</ele>
        <time>2020-08-22T12:58:00.000Z</time>
      </trkpt>
      <trkpt lat="45.25187" lon="6.35017">
        <ele>1425.1</ele>
        <time>2020-08-22T12:58:06.000Z</time>
      </trkpt>
      <trkpt lat="45.25185" lon="6.35017">
        <ele>1425.6</ele>
        <time>2020-08-22T12:58:07.000Z</time>
      </trkpt>
      <trkpt lat="45.25184" lon="6.35017">
        <ele>1426</ele>
        <time>2020-08-22T12:58:08.000Z</time>
      </trkpt>
      <trkpt lat="45.25182" lon="6.3502">
        <ele>1426.8</ele>
        <time>2020-08-22T12:58:10.000Z</time>
      </trkpt>
      <trkpt lat="45.2518" lon="6.35021">
        <ele>1427.4</ele>
        <time>2020-08-22T12:58:12.000Z</time>
      </trkpt>
      <trkpt lat="45.25179" lon="6.35022">
        <ele>1427.7</ele>
        <time>2020-08-22T12:58:13.000Z</time>
      </trkpt>
      <trkpt lat="45.25178" lon="6.35023">
        <ele>1428</ele>
        <time>2020-08-22T12:58:14.000Z</time>
      </trkpt>
      <trkpt lat="45.25177" lon="6.35024">
        <ele>1428.2</ele>
        <time>2020-08-22T12:58:15.000Z</time>
      </trkpt>
      <trkpt lat="45.25174" lon="6.35027">
        <ele>1428.8</ele>
        <time>2020-08-22T12:58:19.000Z</time>
      </trkpt>
      <trkpt lat="45.25172" lon="6.35028">
        <ele>1429.2</ele>
        <time>2020-08-22T12:58:21.000Z</time>
      </trkpt>
      <trkpt lat="45.25171" lon="6.35029">
        <ele>1429.2</ele>
        <time>2020-08-22T12:58:22.000Z</time>
      </trkpt>
      <trkpt lat="45.2517" lon="6.3503">
        <ele>1429.4</ele>
        <time>2020-08-22T12:58:24.000Z</time>
      </trkpt>
      <trkpt lat="45.25165" lon="6.35033">
        <ele>1429.5</ele>
        <time>2020-08-22T12:58:28.000Z</time>
      </trkpt>
      <trkpt lat="45.2516" lon="6.35034">
        <ele>1429.4</ele>
        <time>2020-08-22T12:58:31.000Z</time>
      </trkpt>
      <trkpt lat="45.25154" lon="6.35033">
        <ele>1429.1</ele>
        <time>2020-08-22T12:58:33.000Z</time>
      </trkpt>
      <trkpt lat="45.2515" lon="6.35032">
        <ele>1428.9</ele>
        <time>2020-08-22T12:58:34.000Z</time>
      </trkpt>
      <trkpt lat="45.25143" lon="6.3503">
        <ele>1428.7</ele>
        <time>2020-08-22T12:58:36.000Z</time>
      </trkpt>
      <trkpt lat="45.25134" lon="6.35027">
        <ele>1428.8</ele>
        <time>2020-08-22T12:58:39.000Z</time>
      </trkpt>
      <trkpt lat="45.25117" lon="6.35023">
        <ele>1429.3</ele>
        <time>2020-08-22T12:58:46.000Z</time>
      </trkpt>
      <trkpt lat="45.25107" lon="6.35019">
        <ele>1429.3</ele>
        <time>2020-08-22T12:58:50.000Z</time>
      </trkpt>
      <trkpt lat="45.25102" lon="6.35017">
        <ele>1429.4</ele>
        <time>2020-08-22T12:58:52.000Z</time>
      </trkpt>
      <trkpt lat="45.2509" lon="6.35011">
        <ele>1429.6</ele>
        <time>2020-08-22T12:58:57.000Z</time>
      </trkpt>
      <trkpt lat="45.25087" lon="6.35011">
        <ele>1429.6</ele>
        <time>2020-08-22T12:58:58.000Z</time>
      </trkpt>
      <trkpt lat="45.2508" lon="6.35009">
        <ele>1429.7</ele>
        <time>2020-08-22T12:59:00.000Z</time>
      </trkpt>
      <trkpt lat="45.25074" lon="6.35008">
        <ele>1429.8</ele>
        <time>2020-08-22T12:59:02.000Z</time>
      </trkpt>
      <trkpt lat="45.25052" lon="6.35004">
        <ele>1430.2</ele>
        <time>2020-08-22T12:59:09.000Z</time>
      </trkpt>
      <trkpt lat="45.25046" lon="6.35004">
        <ele>1430.2</ele>
        <time>2020-08-22T12:59:11.000Z</time>
      </trkpt>
      <trkpt lat="45.25035" lon="6.35004">
        <ele>1430.1</ele>
        <time>2020-08-22T12:59:14.000Z</time>
      </trkpt>
      <trkpt lat="45.25031" lon="6.35004">
        <ele>1430.1</ele>
        <time>2020-08-22T12:59:15.000Z</time>
      </trkpt>
      <trkpt lat="45.25027" lon="6.35002">
        <ele>1429.9</ele>
        <time>2020-08-22T12:59:16.000Z</time>
      </trkpt>
      <trkpt lat="45.25016" lon="6.34998">
        <ele>1429.5</ele>
        <time>2020-08-22T12:59:19.000Z</time>
      </trkpt>
      <trkpt lat="45.25012" lon="6.34998">
        <ele>1429.4</ele>
        <time>2020-08-22T12:59:20.000Z</time>
      </trkpt>
      <trkpt lat="45.24982" lon="6.34986">
        <ele>1427.9</ele>
        <time>2020-08-22T12:59:26.000Z</time>
      </trkpt>
      <trkpt lat="45.24976" lon="6.34983">
        <ele>1427</ele>
        <time>2020-08-22T12:59:27.000Z</time>
      </trkpt>
      <trkpt lat="45.2496" lon="6.34982">
        <ele>1424.2</ele>
        <time>2020-08-22T12:59:29.000Z</time>
      </trkpt>
      <trkpt lat="45.24944" lon="6.34976">
        <ele>1421.2</ele>
        <time>2020-08-22T12:59:31.000Z</time>
      </trkpt>
      <trkpt lat="45.24927" lon="6.34971">
        <ele>1418.8</ele>
        <time>2020-08-22T12:59:33.000Z</time>
      </trkpt>
      <trkpt lat="45.2492" lon="6.34969">
        <ele>1418</ele>
        <time>2020-08-22T12:59:34.000Z</time>
      </trkpt>
      <trkpt lat="45.24914" lon="6.34969">
        <ele>1417.4</ele>
        <time>2020-08-22T12:59:35.000Z</time>
      </trkpt>
      <trkpt lat="45.24909" lon="6.34969">
        <ele>1416.9</ele>
        <time>2020-08-22T12:59:36.000Z</time>
      </trkpt>
      <trkpt lat="45.24897" lon="6.34972">
        <ele>1415.4</ele>
        <time>2020-08-22T12:59:38.000Z</time>
      </trkpt>
      <trkpt lat="45.24891" lon="6.34972">
        <ele>1414.5</ele>
        <time>2020-08-22T12:59:39.000Z</time>
      </trkpt>
      <trkpt lat="45.24874" lon="6.34973">
        <ele>1413.5</ele>
        <time>2020-08-22T12:59:42.000Z</time>
      </trkpt>
      <trkpt lat="45.24869" lon="6.34974">
        <ele>1413</ele>
        <time>2020-08-22T12:59:43.000Z</time>
      </trkpt>
      <trkpt lat="45.24859" lon="6.34974">
        <ele>1411.4</ele>
        <time>2020-08-22T12:59:45.000Z</time>
      </trkpt>
      <trkpt lat="45.24854" lon="6.34974">
        <ele>1410.2</ele>
        <time>2020-08-22T12:59:46.000Z</time>
      </trkpt>
      <trkpt lat="45.24849" lon="6.34974">
        <ele>1408.9</ele>
        <time>2020-08-22T12:59:47.000Z</time>
      </trkpt>
      <trkpt lat="45.2484" lon="6.3497">
        <ele>1406.4</ele>
        <time>2020-08-22T12:59:49.000Z</time>
      </trkpt>
      <trkpt lat="45.24821" lon="6.34967">
        <ele>1402.4</ele>
        <time>2020-08-22T12:59:53.000Z</time>
      </trkpt>
      <trkpt lat="45.24817" lon="6.34968">
        <ele>1401.5</ele>
        <time>2020-08-22T12:59:54.000Z</time>
      </trkpt>
      <trkpt lat="45.24811" lon="6.34969">
        <ele>1400.3</ele>
        <time>2020-08-22T12:59:55.000Z</time>
      </trkpt>
      <trkpt lat="45.24794" lon="6.34971">
        <ele>1397</ele>
        <time>2020-08-22T12:59:57.000Z</time>
      </trkpt>
      <trkpt lat="45.24784" lon="6.3497">
        <ele>1395.2</ele>
        <time>2020-08-22T12:59:58.000Z</time>
      </trkpt>
      <trkpt lat="45.24774" lon="6.34968">
        <ele>1393.4</ele>
        <time>2020-08-22T12:59:59.000Z</time>
      </trkpt>
      <trkpt lat="45.24765" lon="6.34966">
        <ele>1391.9</ele>
        <time>2020-08-22T13:00:00.000Z</time>
      </trkpt>
      <trkpt lat="45.24757" lon="6.34964">
        <ele>1390.5</ele>
        <time>2020-08-22T13:00:01.000Z</time>
      </trkpt>
      <trkpt lat="45.2475" lon="6.34962">
        <ele>1389.2</ele>
        <time>2020-08-22T13:00:02.000Z</time>
      </trkpt>
      <trkpt lat="45.24746" lon="6.34958">
        <ele>1387.9</ele>
        <time>2020-08-22T13:00:03.000Z</time>
      </trkpt>
      <trkpt lat="45.24741" lon="6.34954">
        <ele>1386.7</ele>
        <time>2020-08-22T13:00:04.000Z</time>
      </trkpt>
      <trkpt lat="45.24735" lon="6.34952">
        <ele>1385.4</ele>
        <time>2020-08-22T13:00:05.000Z</time>
      </trkpt>
      <trkpt lat="45.24727" lon="6.34953">
        <ele>1383.8</ele>
        <time>2020-08-22T13:00:06.000Z</time>
      </trkpt>
      <trkpt lat="45.24719" lon="6.34954">
        <ele>1381.8</ele>
        <time>2020-08-22T13:00:07.000Z</time>
      </trkpt>
      <trkpt lat="45.24711" lon="6.34958">
        <ele>1379.7</ele>
        <time>2020-08-22T13:00:08.000Z</time>
      </trkpt>
      <trkpt lat="45.24697" lon="6.34977">
        <ele>1376.5</ele>
        <time>2020-08-22T13:00:10.000Z</time>
      </trkpt>
      <trkpt lat="45.24683" lon="6.34997">
        <ele>1373.9</ele>
        <time>2020-08-22T13:00:12.000Z</time>
      </trkpt>
      <trkpt lat="45.24676" lon="6.35004">
        <ele>1373.1</ele>
        <time>2020-08-22T13:00:13.000Z</time>
      </trkpt>
      <trkpt lat="45.24669" lon="6.35008">
        <ele>1372.4</ele>
        <time>2020-08-22T13:00:14.000Z</time>
      </trkpt>
      <trkpt lat="45.24662" lon="6.35008">
        <ele>1371.7</ele>
        <time>2020-08-22T13:00:15.000Z</time>
      </trkpt>
      <trkpt lat="45.24654" lon="6.35007">
        <ele>1370.7</ele>
        <time>2020-08-22T13:00:16.000Z</time>
      </trkpt>
      <trkpt lat="45.24645" lon="6.35006">
        <ele>1369.6</ele>
        <time>2020-08-22T13:00:17.000Z</time>
      </trkpt>
      <trkpt lat="45.24637" lon="6.35007">
        <ele>1368.5</ele>
        <time>2020-08-22T13:00:18.000Z</time>
      </trkpt>
      <trkpt lat="45.24628" lon="6.35007">
        <ele>1367.5</ele>
        <time>2020-08-22T13:00:19.000Z</time>
      </trkpt>
      <trkpt lat="45.2461" lon="6.3501">
        <ele>1366</ele>
        <time>2020-08-22T13:00:21.000Z</time>
      </trkpt>
      <trkpt lat="45.24601" lon="6.35012">
        <ele>1365.3</ele>
        <time>2020-08-22T13:00:22.000Z</time>
      </trkpt>
      <trkpt lat="45.24592" lon="6.35013">
        <ele>1363.7</ele>
        <time>2020-08-22T13:00:23.000Z</time>
      </trkpt>
      <trkpt lat="45.24583" lon="6.35013">
        <ele>1363.1</ele>
        <time>2020-08-22T13:00:24.000Z</time>
      </trkpt>
      <trkpt lat="45.24575" lon="6.35011">
        <ele>1362.7</ele>
        <time>2020-08-22T13:00:25.000Z</time>
      </trkpt>
      <trkpt lat="45.24567" lon="6.3501">
        <ele>1362.4</ele>
        <time>2020-08-22T13:00:26.000Z</time>
      </trkpt>
      <trkpt lat="45.24562" lon="6.35011">
        <ele>1362.2</ele>
        <time>2020-08-22T13:00:27.000Z</time>
      </trkpt>
      <trkpt lat="45.24557" lon="6.35014">
        <ele>1362</ele>
        <time>2020-08-22T13:00:28.000Z</time>
      </trkpt>
      <trkpt lat="45.24548" lon="6.35021">
        <ele>1361.9</ele>
        <time>2020-08-22T13:00:31.000Z</time>
      </trkpt>
      <trkpt lat="45.24545" lon="6.35026">
        <ele>1362.2</ele>
        <time>2020-08-22T13:00:32.000Z</time>
      </trkpt>
      <trkpt lat="45.2454" lon="6.35032">
        <ele>1362.6</ele>
        <time>2020-08-22T13:00:34.000Z</time>
      </trkpt>
      <trkpt lat="45.24531" lon="6.35042">
        <ele>1363.2</ele>
        <time>2020-08-22T13:00:37.000Z</time>
      </trkpt>
      <trkpt lat="45.24528" lon="6.35046">
        <ele>1363.3</ele>
        <time>2020-08-22T13:00:38.000Z</time>
      </trkpt>
      <trkpt lat="45.24523" lon="6.35056">
        <ele>1363.6</ele>
        <time>2020-08-22T13:00:40.000Z</time>
      </trkpt>
      <trkpt lat="45.2452" lon="6.35068">
        <ele>1363.9</ele>
        <time>2020-08-22T13:00:42.000Z</time>
      </trkpt>
      <trkpt lat="45.24518" lon="6.35074">
        <ele>1364</ele>
        <time>2020-08-22T13:00:43.000Z</time>
      </trkpt>
      <trkpt lat="45.24516" lon="6.3508">
        <ele>1364.1</ele>
        <time>2020-08-22T13:00:44.000Z</time>
      </trkpt>
      <trkpt lat="45.24514" lon="6.35085">
        <ele>1364.2</ele>
        <time>2020-08-22T13:00:45.000Z</time>
      </trkpt>
      <trkpt lat="45.2451" lon="6.35091">
        <ele>1364.2</ele>
        <time>2020-08-22T13:00:46.000Z</time>
      </trkpt>
      <trkpt lat="45.24506" lon="6.35096">
        <ele>1364.2</ele>
        <time>2020-08-22T13:00:47.000Z</time>
      </trkpt>
      <trkpt lat="45.24499" lon="6.35108">
        <ele>1364.1</ele>
        <time>2020-08-22T13:00:49.000Z</time>
      </trkpt>
      <trkpt lat="45.24499" lon="6.35114">
        <ele>1363.8</ele>
        <time>2020-08-22T13:00:50.000Z</time>
      </trkpt>
      <trkpt lat="45.24506" lon="6.35134">
        <ele>1363.9</ele>
        <time>2020-08-22T13:00:54.000Z</time>
      </trkpt>
      <trkpt lat="45.24517" lon="6.35147">
        <ele>1364.1</ele>
        <time>2020-08-22T13:00:58.000Z</time>
      </trkpt>
      <trkpt lat="45.2452" lon="6.35151">
        <ele>1364.2</ele>
        <time>2020-08-22T13:00:59.000Z</time>
      </trkpt>
      <trkpt lat="45.24541" lon="6.35173">
        <ele>1364.8</ele>
        <time>2020-08-22T13:01:06.000Z</time>
      </trkpt>
      <trkpt lat="45.2455" lon="6.35181">
        <ele>1364.9</ele>
        <time>2020-08-22T13:01:09.000Z</time>
      </trkpt>
      <trkpt lat="45.2456" lon="6.35191">
        <ele>1365.1</ele>
        <time>2020-08-22T13:01:12.000Z</time>
      </trkpt>
      <trkpt lat="45.24567" lon="6.35199">
        <ele>1365.1</ele>
        <time>2020-08-22T13:01:14.000Z</time>
      </trkpt>
      <trkpt lat="45.24571" lon="6.3521">
        <ele>1365.1</ele>
        <time>2020-08-22T13:01:16.000Z</time>
      </trkpt>
      <trkpt lat="45.2457" lon="6.35228">
        <ele>1365.7</ele>
        <time>2020-08-22T13:01:19.000Z</time>
      </trkpt>
      <trkpt lat="45.24567" lon="6.35238">
        <ele>1366.1</ele>
        <time>2020-08-22T13:01:21.000Z</time>
      </trkpt>
      <trkpt lat="45.24559" lon="6.3526">
        <ele>1367.1</ele>
        <time>2020-08-22T13:01:26.000Z</time>
      </trkpt>
      <trkpt lat="45.24558" lon="6.35264">
        <ele>1367.3</ele>
        <time>2020-08-22T13:01:27.000Z</time>
      </trkpt>
      <trkpt lat="45.24553" lon="6.35275">
        <ele>1367.9</ele>
        <time>2020-08-22T13:01:30.000Z</time>
      </trkpt>
      <trkpt lat="45.24547" lon="6.3529">
        <ele>1368.9</ele>
        <time>2020-08-22T13:01:34.000Z</time>
      </trkpt>
      <trkpt lat="45.24542" lon="6.35299">
        <ele>1369.6</ele>
        <time>2020-08-22T13:01:37.000Z</time>
      </trkpt>
      <trkpt lat="45.2453" lon="6.35315">
        <ele>1370.8</ele>
        <time>2020-08-22T13:01:43.000Z</time>
      </trkpt>
      <trkpt lat="45.24528" lon="6.35318">
        <ele>1371</ele>
        <time>2020-08-22T13:01:44.000Z</time>
      </trkpt>
      <trkpt lat="45.24518" lon="6.35332">
        <ele>1372</ele>
        <time>2020-08-22T13:01:49.000Z</time>
      </trkpt>
      <trkpt lat="45.24517" lon="6.35335">
        <ele>1372.2</ele>
        <time>2020-08-22T13:01:50.000Z</time>
      </trkpt>
      <trkpt lat="45.24511" lon="6.35344">
        <ele>1372.9</ele>
        <time>2020-08-22T13:01:53.000Z</time>
      </trkpt>
      <trkpt lat="45.24507" lon="6.35349">
        <ele>1373.3</ele>
        <time>2020-08-22T13:01:55.000Z</time>
      </trkpt>
      <trkpt lat="45.24503" lon="6.35355">
        <ele>1373.8</ele>
        <time>2020-08-22T13:01:57.000Z</time>
      </trkpt>
      <trkpt lat="45.24493" lon="6.35365">
        <ele>1374.6</ele>
        <time>2020-08-22T13:02:01.000Z</time>
      </trkpt>
      <trkpt lat="45.24483" lon="6.35373">
        <ele>1375.3</ele>
        <time>2020-08-22T13:02:05.000Z</time>
      </trkpt>
      <trkpt lat="45.24474" lon="6.35377">
        <ele>1375.9</ele>
        <time>2020-08-22T13:02:08.000Z</time>
      </trkpt>
      <trkpt lat="45.24471" lon="6.35378">
        <ele>1376</ele>
        <time>2020-08-22T13:02:09.000Z</time>
      </trkpt>
      <trkpt lat="45.2446" lon="6.35383">
        <ele>1376.8</ele>
        <time>2020-08-22T13:02:13.000Z</time>
      </trkpt>
      <trkpt lat="45.24452" lon="6.35387">
        <ele>1377.7</ele>
        <time>2020-08-22T13:02:16.000Z</time>
      </trkpt>
      <trkpt lat="45.24435" lon="6.35397">
        <ele>1379.7</ele>
        <time>2020-08-22T13:02:23.000Z</time>
      </trkpt>
      <trkpt lat="45.24423" lon="6.35404">
        <ele>1381.6</ele>
        <time>2020-08-22T13:02:29.000Z</time>
      </trkpt>
      <trkpt lat="45.24421" lon="6.35405">
        <ele>1381.9</ele>
        <time>2020-08-22T13:02:30.000Z</time>
      </trkpt>
      <trkpt lat="45.24419" lon="6.35406">
        <ele>1382.2</ele>
        <time>2020-08-22T13:02:31.000Z</time>
      </trkpt>
      <trkpt lat="45.24415" lon="6.35407">
        <ele>1382.7</ele>
        <time>2020-08-22T13:02:33.000Z</time>
      </trkpt>
      <trkpt lat="45.24408" lon="6.35408">
        <ele>1383.8</ele>
        <time>2020-08-22T13:02:37.000Z</time>
      </trkpt>
      <trkpt lat="45.24406" lon="6.35408">
        <ele>1384.1</ele>
        <time>2020-08-22T13:02:38.000Z</time>
      </trkpt>
      <trkpt lat="45.24404" lon="6.35408">
        <ele>1384.4</ele>
        <time>2020-08-22T13:02:39.000Z</time>
      </trkpt>
      <trkpt lat="45.244" lon="6.35407">
        <ele>1385</ele>
        <time>2020-08-22T13:02:41.000Z</time>
      </trkpt>
      <trkpt lat="45.24395" lon="6.35405">
        <ele>1385.7</ele>
        <time>2020-08-22T13:02:44.000Z</time>
      </trkpt>
      <trkpt lat="45.24393" lon="6.35404">
        <ele>1386</ele>
        <time>2020-08-22T13:02:45.000Z</time>
      </trkpt>
      <trkpt lat="45.24386" lon="6.35399">
        <ele>1387.2</ele>
        <time>2020-08-22T13:02:50.000Z</time>
      </trkpt>
      <trkpt lat="45.24375" lon="6.35399">
        <ele>1388.9</ele>
        <time>2020-08-22T13:02:56.000Z</time>
      </trkpt>
      <trkpt lat="45.24373" lon="6.35399">
        <ele>1389.1</ele>
        <time>2020-08-22T13:02:57.000Z</time>
      </trkpt>
      <trkpt lat="45.24365" lon="6.35399">
        <ele>1390.2</ele>
        <time>2020-08-22T13:03:03.000Z</time>
      </trkpt>
      <trkpt lat="45.24362" lon="6.35398">
        <ele>1390.6</ele>
        <time>2020-08-22T13:03:05.000Z</time>
      </trkpt>
      <trkpt lat="45.24353" lon="6.35399">
        <ele>1391.7</ele>
        <time>2020-08-22T13:03:10.000Z</time>
      </trkpt>
      <trkpt lat="45.24345" lon="6.35403">
        <ele>1392.8</ele>
        <time>2020-08-22T13:03:14.000Z</time>
      </trkpt>
      <trkpt lat="45.24338" lon="6.35407">
        <ele>1393.4</ele>
        <time>2020-08-22T13:03:17.000Z</time>
      </trkpt>
      <trkpt lat="45.24332" lon="6.35412">
        <ele>1394</ele>
        <time>2020-08-22T13:03:20.000Z</time>
      </trkpt>
      <trkpt lat="45.24322" lon="6.35415">
        <ele>1394.8</ele>
        <time>2020-08-22T13:03:24.000Z</time>
      </trkpt>
      <trkpt lat="45.24319" lon="6.35416">
        <ele>1395</ele>
        <time>2020-08-22T13:03:25.000Z</time>
      </trkpt>
      <trkpt lat="45.24317" lon="6.35417">
        <ele>1395.2</ele>
        <time>2020-08-22T13:03:26.000Z</time>
      </trkpt>
      <trkpt lat="45.24312" lon="6.35421">
        <ele>1395.6</ele>
        <time>2020-08-22T13:03:28.000Z</time>
      </trkpt>
      <trkpt lat="45.24306" lon="6.35425">
        <ele>1396.2</ele>
        <time>2020-08-22T13:03:31.000Z</time>
      </trkpt>
      <trkpt lat="45.24303" lon="6.35427">
        <ele>1396.4</ele>
        <time>2020-08-22T13:03:32.000Z</time>
      </trkpt>
      <trkpt lat="45.24285" lon="6.35433">
        <ele>1397.9</ele>
        <time>2020-08-22T13:03:39.000Z</time>
      </trkpt>
      <trkpt lat="45.24272" lon="6.35436">
        <ele>1398.8</ele>
        <time>2020-08-22T13:03:44.000Z</time>
      </trkpt>
      <trkpt lat="45.24268" lon="6.35437">
        <ele>1399.2</ele>
        <time>2020-08-22T13:03:46.000Z</time>
      </trkpt>
      <trkpt lat="45.24262" lon="6.35439">
        <ele>1399.7</ele>
        <time>2020-08-22T13:03:49.000Z</time>
      </trkpt>
      <trkpt lat="45.24254" lon="6.3544">
        <ele>1400.6</ele>
        <time>2020-08-22T13:03:53.000Z</time>
      </trkpt>
      <trkpt lat="45.24237" lon="6.35442">
        <ele>1402.6</ele>
        <time>2020-08-22T13:04:01.000Z</time>
      </trkpt>
      <trkpt lat="45.24234" lon="6.35444">
        <ele>1403.2</ele>
        <time>2020-08-22T13:04:05.000Z</time>
      </trkpt>
      <trkpt lat="45.24233" lon="6.35445">
        <ele>1403.3</ele>
        <time>2020-08-22T13:04:06.000Z</time>
      </trkpt>
      <trkpt lat="45.24232" lon="6.35449">
        <ele>1403.8</ele>
        <time>2020-08-22T13:04:08.000Z</time>
      </trkpt>
      <trkpt lat="45.24231" lon="6.35456">
        <ele>1403.8</ele>
        <time>2020-08-22T13:04:11.000Z</time>
      </trkpt>
      <trkpt lat="45.24231" lon="6.35459">
        <ele>1404.4</ele>
        <time>2020-08-22T13:04:13.000Z</time>
      </trkpt>
      <trkpt lat="45.24231" lon="6.35461">
        <ele>1404.8</ele>
        <time>2020-08-22T13:04:14.000Z</time>
      </trkpt>
      <trkpt lat="45.24231" lon="6.35463">
        <ele>1405</ele>
        <time>2020-08-22T13:04:15.000Z</time>
      </trkpt>
      <trkpt lat="45.24231" lon="6.35466">
        <ele>1405.5</ele>
        <time>2020-08-22T13:04:17.000Z</time>
      </trkpt>
      <trkpt lat="45.24231" lon="6.35469">
        <ele>1406.1</ele>
        <time>2020-08-22T13:04:19.000Z</time>
      </trkpt>
      <trkpt lat="45.24231" lon="6.3547">
        <ele>1406.3</ele>
        <time>2020-08-22T13:04:20.000Z</time>
      </trkpt>
      <trkpt lat="45.24231" lon="6.35471">
        <ele>1406.5</ele>
        <time>2020-08-22T13:04:21.000Z</time>
      </trkpt>
      <trkpt lat="45.24229" lon="6.35474">
        <ele>1407.1</ele>
        <time>2020-08-22T13:04:23.000Z</time>
      </trkpt>
      <trkpt lat="45.24228" lon="6.35479">
        <ele>1407.9</ele>
        <time>2020-08-22T13:04:26.000Z</time>
      </trkpt>
      <trkpt lat="45.24227" lon="6.35482">
        <ele>1408.5</ele>
        <time>2020-08-22T13:04:28.000Z</time>
      </trkpt>
      <trkpt lat="45.24226" lon="6.35489">
        <ele>1409.8</ele>
        <time>2020-08-22T13:04:33.000Z</time>
      </trkpt>
      <trkpt lat="45.24227" lon="6.35492">
        <ele>1410.3</ele>
        <time>2020-08-22T13:04:35.000Z</time>
      </trkpt>
      <trkpt lat="45.24226" lon="6.35494">
        <ele>1410.7</ele>
        <time>2020-08-22T13:04:36.000Z</time>
      </trkpt>
      <trkpt lat="45.24226" lon="6.35499">
        <ele>1411.7</ele>
        <time>2020-08-22T13:04:39.000Z</time>
      </trkpt>
      <trkpt lat="45.24226" lon="6.35503">
        <ele>1412.5</ele>
        <time>2020-08-22T13:04:41.000Z</time>
      </trkpt>
      <trkpt lat="45.24226" lon="6.35509">
        <ele>1413.6</ele>
        <time>2020-08-22T13:04:44.000Z</time>
      </trkpt>
      <trkpt lat="45.24226" lon="6.35511">
        <ele>1414</ele>
        <time>2020-08-22T13:04:45.000Z</time>
      </trkpt>
      <trkpt lat="45.24227" lon="6.35517">
        <ele>1415.2</ele>
        <time>2020-08-22T13:04:48.000Z</time>
      </trkpt>
      <trkpt lat="45.24226" lon="6.35522">
        <ele>1416.2</ele>
        <time>2020-08-22T13:04:51.000Z</time>
      </trkpt>
      <trkpt lat="45.24226" lon="6.35524">
        <ele>1416.5</ele>
        <time>2020-08-22T13:04:52.000Z</time>
      </trkpt>
      <trkpt lat="45.24226" lon="6.35525">
        <ele>1416.8</ele>
        <time>2020-08-22T13:04:53.000Z</time>
      </trkpt>
      <trkpt lat="45.24225" lon="6.35527">
        <ele>1417.2</ele>
        <time>2020-08-22T13:04:54.000Z</time>
      </trkpt>
      <trkpt lat="45.24224" lon="6.3553">
        <ele>1417.8</ele>
        <time>2020-08-22T13:04:56.000Z</time>
      </trkpt>
      <trkpt lat="45.24222" lon="6.35537">
        <ele>1419.1</ele>
        <time>2020-08-22T13:05:01.000Z</time>
      </trkpt>
      <trkpt lat="45.24221" lon="6.3554">
        <ele>1419.6</ele>
        <time>2020-08-22T13:05:03.000Z</time>
      </trkpt>
      <trkpt lat="45.24221" lon="6.35541">
        <ele>1419.9</ele>
        <time>2020-08-22T13:05:04.000Z</time>
      </trkpt>
      <trkpt lat="45.24219" lon="6.35547">
        <ele>1420.8</ele>
        <time>2020-08-22T13:05:09.000Z</time>
      </trkpt>
      <trkpt lat="45.24218" lon="6.35551">
        <ele>1421.3</ele>
        <time>2020-08-22T13:05:12.000Z</time>
      </trkpt>
      <trkpt lat="45.24218" lon="6.35552">
        <ele>1421.5</ele>
        <time>2020-08-22T13:05:13.000Z</time>
      </trkpt>
      <trkpt lat="45.24217" lon="6.35553">
        <ele>1421.7</ele>
        <time>2020-08-22T13:05:14.000Z</time>
      </trkpt>
      <trkpt lat="45.24215" lon="6.35561">
        <ele>1422.8</ele>
        <time>2020-08-22T13:05:19.000Z</time>
      </trkpt>
      <trkpt lat="45.24212" lon="6.35568">
        <ele>1424</ele>
        <time>2020-08-22T13:05:23.000Z</time>
      </trkpt>
      <trkpt lat="45.24211" lon="6.35569">
        <ele>1424.3</ele>
        <time>2020-08-22T13:05:24.000Z</time>
      </trkpt>
      <trkpt lat="45.2421" lon="6.3557">
        <ele>1424.6</ele>
        <time>2020-08-22T13:05:25.000Z</time>
      </trkpt>
      <trkpt lat="45.24205" lon="6.35577">
        <ele>1426</ele>
        <time>2020-08-22T13:05:30.000Z</time>
      </trkpt>
      <trkpt lat="45.24203" lon="6.35581">
        <ele>1426.7</ele>
        <time>2020-08-22T13:05:33.000Z</time>
      </trkpt>
      <trkpt lat="45.24199" lon="6.35587">
        <ele>1427.8</ele>
        <time>2020-08-22T13:05:38.000Z</time>
      </trkpt>
      <trkpt lat="45.24197" lon="6.35589">
        <ele>1428.3</ele>
        <time>2020-08-22T13:05:40.000Z</time>
      </trkpt>
      <trkpt lat="45.24197" lon="6.3559">
        <ele>1428.5</ele>
        <time>2020-08-22T13:05:41.000Z</time>
      </trkpt>
      <trkpt lat="45.24193" lon="6.35594">
        <ele>1429.4</ele>
        <time>2020-08-22T13:05:45.000Z</time>
      </trkpt>
      <trkpt lat="45.24191" lon="6.35595">
        <ele>1429.8</ele>
        <time>2020-08-22T13:05:47.000Z</time>
      </trkpt>
      <trkpt lat="45.2419" lon="6.35597">
        <ele>1430.1</ele>
        <time>2020-08-22T13:05:48.000Z</time>
      </trkpt>
      <trkpt lat="45.24185" lon="6.35602">
        <ele>1431.4</ele>
        <time>2020-08-22T13:05:52.000Z</time>
      </trkpt>
      <trkpt lat="45.24184" lon="6.35603">
        <ele>1431.7</ele>
        <time>2020-08-22T13:05:53.000Z</time>
      </trkpt>
      <trkpt lat="45.24181" lon="6.35608">
        <ele>1432.8</ele>
        <time>2020-08-22T13:05:57.000Z</time>
      </trkpt>
      <trkpt lat="45.24179" lon="6.35609">
        <ele>1433.4</ele>
        <time>2020-08-22T13:05:59.000Z</time>
      </trkpt>
      <trkpt lat="45.24177" lon="6.3561">
        <ele>1433.7</ele>
        <time>2020-08-22T13:06:00.000Z</time>
      </trkpt>
      <trkpt lat="45.24176" lon="6.3561">
        <ele>1433.9</ele>
        <time>2020-08-22T13:06:01.000Z</time>
      </trkpt>
      <trkpt lat="45.24173" lon="6.35612">
        <ele>1434.7</ele>
        <time>2020-08-22T13:06:05.000Z</time>
      </trkpt>
      <trkpt lat="45.24173" lon="6.35612">
        <ele>1434.8</ele>
        <time>2020-08-22T13:06:07.000Z</time>
      </trkpt>
      <trkpt lat="45.24167" lon="6.35612">
        <ele>1436</ele>
        <time>2020-08-22T13:06:13.000Z</time>
      </trkpt>
      <trkpt lat="45.24164" lon="6.35612">
        <ele>1436.7</ele>
        <time>2020-08-22T13:06:16.000Z</time>
      </trkpt>
      <trkpt lat="45.24157" lon="6.35615">
        <ele>1438.1</ele>
        <time>2020-08-22T13:06:22.000Z</time>
      </trkpt>
      <trkpt lat="45.24154" lon="6.35617">
        <ele>1438.6</ele>
        <time>2020-08-22T13:06:25.000Z</time>
      </trkpt>
      <trkpt lat="45.24151" lon="6.35619">
        <ele>1439.1</ele>
        <time>2020-08-22T13:06:28.000Z</time>
      </trkpt>
      <trkpt lat="45.2415" lon="6.35619">
        <ele>1439.2</ele>
        <time>2020-08-22T13:06:29.000Z</time>
      </trkpt>
      <trkpt lat="45.24143" lon="6.35624">
        <ele>1440</ele>
        <time>2020-08-22T13:06:34.000Z</time>
      </trkpt>
      <trkpt lat="45.24135" lon="6.35629">
        <ele>1440.3</ele>
        <time>2020-08-22T13:06:39.000Z</time>
      </trkpt>
      <trkpt lat="45.24129" lon="6.35632">
        <ele>1440.3</ele>
        <time>2020-08-22T13:06:42.000Z</time>
      </trkpt>
      <trkpt lat="45.24121" lon="6.35633">
        <ele>1440</ele>
        <time>2020-08-22T13:06:45.000Z</time>
      </trkpt>
      <trkpt lat="45.24115" lon="6.35633">
        <ele>1439.8</ele>
        <time>2020-08-22T13:06:47.000Z</time>
      </trkpt>
      <trkpt lat="45.24105" lon="6.3563">
        <ele>1439.8</ele>
        <time>2020-08-22T13:06:51.000Z</time>
      </trkpt>
      <trkpt lat="45.241" lon="6.35629">
        <ele>1439.9</ele>
        <time>2020-08-22T13:06:53.000Z</time>
      </trkpt>
      <trkpt lat="45.2409" lon="6.35628">
        <ele>1440.8</ele>
        <time>2020-08-22T13:06:58.000Z</time>
      </trkpt>
      <trkpt lat="45.24088" lon="6.35628">
        <ele>1440.9</ele>
        <time>2020-08-22T13:06:59.000Z</time>
      </trkpt>
      <trkpt lat="45.24076" lon="6.35629">
        <ele>1442.6</ele>
        <time>2020-08-22T13:07:06.000Z</time>
      </trkpt>
      <trkpt lat="45.24074" lon="6.3563">
        <ele>1442.9</ele>
        <time>2020-08-22T13:07:07.000Z</time>
      </trkpt>
      <trkpt lat="45.24072" lon="6.3563">
        <ele>1443.4</ele>
        <time>2020-08-22T13:07:09.000Z</time>
      </trkpt>
      <trkpt lat="45.24068" lon="6.35633">
        <ele>1444.1</ele>
        <time>2020-08-22T13:07:12.000Z</time>
      </trkpt>
      <trkpt lat="45.24067" lon="6.35633">
        <ele>1444.3</ele>
        <time>2020-08-22T13:07:13.000Z</time>
      </trkpt>
      <trkpt lat="45.24061" lon="6.35634">
        <ele>1445.2</ele>
        <time>2020-08-22T13:07:17.000Z</time>
      </trkpt>
      <trkpt lat="45.24058" lon="6.35635">
        <ele>1445.7</ele>
        <time>2020-08-22T13:07:19.000Z</time>
      </trkpt>
      <trkpt lat="45.24052" lon="6.35637">
        <ele>1446.5</ele>
        <time>2020-08-22T13:07:23.000Z</time>
      </trkpt>
      <trkpt lat="45.2405" lon="6.35639">
        <ele>1446.8</ele>
        <time>2020-08-22T13:07:25.000Z</time>
      </trkpt>
      <trkpt lat="45.24048" lon="6.35639">
        <ele>1447</ele>
        <time>2020-08-22T13:07:26.000Z</time>
      </trkpt>
      <trkpt lat="45.24039" lon="6.35642">
        <ele>1447.8</ele>
        <time>2020-08-22T13:07:32.000Z</time>
      </trkpt>
      <trkpt lat="45.24035" lon="6.35644">
        <ele>1448</ele>
        <time>2020-08-22T13:07:34.000Z</time>
      </trkpt>
      <trkpt lat="45.24029" lon="6.3565">
        <ele>1448.5</ele>
        <time>2020-08-22T13:07:38.000Z</time>
      </trkpt>
      <trkpt lat="45.24027" lon="6.35651">
        <ele>1448.6</ele>
        <time>2020-08-22T13:07:39.000Z</time>
      </trkpt>
      <trkpt lat="45.24026" lon="6.35653">
        <ele>1448.7</ele>
        <time>2020-08-22T13:07:40.000Z</time>
      </trkpt>
      <trkpt lat="45.24019" lon="6.35657">
        <ele>1449.2</ele>
        <time>2020-08-22T13:07:44.000Z</time>
      </trkpt>
      <trkpt lat="45.24015" lon="6.3566">
        <ele>1449.4</ele>
        <time>2020-08-22T13:07:46.000Z</time>
      </trkpt>
      <trkpt lat="45.24008" lon="6.35666">
        <ele>1449.9</ele>
        <time>2020-08-22T13:07:50.000Z</time>
      </trkpt>
      <trkpt lat="45.24007" lon="6.35666">
        <ele>1450</ele>
        <time>2020-08-22T13:07:51.000Z</time>
      </trkpt>
      <trkpt lat="45.24001" lon="6.35669">
        <ele>1450.5</ele>
        <time>2020-08-22T13:07:55.000Z</time>
      </trkpt>
      <trkpt lat="45.23999" lon="6.35669">
        <ele>1450.7</ele>
        <time>2020-08-22T13:07:56.000Z</time>
      </trkpt>
      <trkpt lat="45.23994" lon="6.35671">
        <ele>1451.4</ele>
        <time>2020-08-22T13:08:00.000Z</time>
      </trkpt>
      <trkpt lat="45.2399" lon="6.35672">
        <ele>1451.9</ele>
        <time>2020-08-22T13:08:03.000Z</time>
      </trkpt>
      <trkpt lat="45.23982" lon="6.35675">
        <ele>1453.2</ele>
        <time>2020-08-22T13:08:08.000Z</time>
      </trkpt>
      <trkpt lat="45.23978" lon="6.35676">
        <ele>1453.8</ele>
        <time>2020-08-22T13:08:10.000Z</time>
      </trkpt>
      <trkpt lat="45.23969" lon="6.35683">
        <ele>1455.4</ele>
        <time>2020-08-22T13:08:16.000Z</time>
      </trkpt>
      <trkpt lat="45.23968" lon="6.35685">
        <ele>1455.7</ele>
        <time>2020-08-22T13:08:17.000Z</time>
      </trkpt>
      <trkpt lat="45.2396" lon="6.35693">
        <ele>1457.1</ele>
        <time>2020-08-22T13:08:23.000Z</time>
      </trkpt>
      <trkpt lat="45.23956" lon="6.35696">
        <ele>1457.8</ele>
        <time>2020-08-22T13:08:26.000Z</time>
      </trkpt>
      <trkpt lat="45.23952" lon="6.35697">
        <ele>1458.4</ele>
        <time>2020-08-22T13:08:29.000Z</time>
      </trkpt>
      <trkpt lat="45.2395" lon="6.35698">
        <ele>1458.6</ele>
        <time>2020-08-22T13:08:30.000Z</time>
      </trkpt>
      <trkpt lat="45.23946" lon="6.35701">
        <ele>1459.3</ele>
        <time>2020-08-22T13:08:33.000Z</time>
      </trkpt>
      <trkpt lat="45.23943" lon="6.35703">
        <ele>1459.7</ele>
        <time>2020-08-22T13:08:35.000Z</time>
      </trkpt>
      <trkpt lat="45.2394" lon="6.35705">
        <ele>1460.1</ele>
        <time>2020-08-22T13:08:37.000Z</time>
      </trkpt>
      <trkpt lat="45.23936" lon="6.35708">
        <ele>1460.6</ele>
        <time>2020-08-22T13:08:40.000Z</time>
      </trkpt>
      <trkpt lat="45.23934" lon="6.35708">
        <ele>1460.8</ele>
        <time>2020-08-22T13:08:41.000Z</time>
      </trkpt>
      <trkpt lat="45.23931" lon="6.35711">
        <ele>1461.2</ele>
        <time>2020-08-22T13:08:43.000Z</time>
      </trkpt>
      <trkpt lat="45.23925" lon="6.35713">
        <ele>1461.9</ele>
        <time>2020-08-22T13:08:46.000Z</time>
      </trkpt>
      <trkpt lat="45.23918" lon="6.35717">
        <ele>1462.9</ele>
        <time>2020-08-22T13:08:51.000Z</time>
      </trkpt>
      <trkpt lat="45.23909" lon="6.35724">
        <ele>1464.6</ele>
        <time>2020-08-22T13:08:58.000Z</time>
      </trkpt>
      <trkpt lat="45.23903" lon="6.35728">
        <ele>1465.7</ele>
        <time>2020-08-22T13:09:05.000Z</time>
      </trkpt>
      <trkpt lat="45.23899" lon="6.3573">
        <ele>1466.4</ele>
        <time>2020-08-22T13:09:09.000Z</time>
      </trkpt>
      <trkpt lat="45.23896" lon="6.35732">
        <ele>1467</ele>
        <time>2020-08-22T13:09:12.000Z</time>
      </trkpt>
      <trkpt lat="45.23893" lon="6.35733">
        <ele>1467.5</ele>
        <time>2020-08-22T13:09:14.000Z</time>
      </trkpt>
      <trkpt lat="45.2389" lon="6.35734">
        <ele>1467.9</ele>
        <time>2020-08-22T13:09:16.000Z</time>
      </trkpt>
      <trkpt lat="45.23888" lon="6.35737">
        <ele>1468.4</ele>
        <time>2020-08-22T13:09:18.000Z</time>
      </trkpt>
      <trkpt lat="45.23884" lon="6.35738">
        <ele>1469.1</ele>
        <time>2020-08-22T13:09:21.000Z</time>
      </trkpt>
      <trkpt lat="45.23878" lon="6.3574">
        <ele>1470</ele>
        <time>2020-08-22T13:09:25.000Z</time>
      </trkpt>
      <trkpt lat="45.23877" lon="6.35741">
        <ele>1470.2</ele>
        <time>2020-08-22T13:09:26.000Z</time>
      </trkpt>
      <trkpt lat="45.23869" lon="6.35745">
        <ele>1471.2</ele>
        <time>2020-08-22T13:09:31.000Z</time>
      </trkpt>
      <trkpt lat="45.23866" lon="6.35746">
        <ele>1471.5</ele>
        <time>2020-08-22T13:09:33.000Z</time>
      </trkpt>
      <trkpt lat="45.23862" lon="6.35745">
        <ele>1472</ele>
        <time>2020-08-22T13:09:36.000Z</time>
      </trkpt>
      <trkpt lat="45.23854" lon="6.35745">
        <ele>1472.9</ele>
        <time>2020-08-22T13:09:43.000Z</time>
      </trkpt>
      <trkpt lat="45.23852" lon="6.35744">
        <ele>1473.2</ele>
        <time>2020-08-22T13:09:45.000Z</time>
      </trkpt>
      <trkpt lat="45.23846" lon="6.35742">
        <ele>1473.9</ele>
        <time>2020-08-22T13:09:49.000Z</time>
      </trkpt>
      <trkpt lat="45.23839" lon="6.35744">
        <ele>1474.6</ele>
        <time>2020-08-22T13:09:53.000Z</time>
      </trkpt>
      <trkpt lat="45.23837" lon="6.35746">
        <ele>1474.9</ele>
        <time>2020-08-22T13:09:55.000Z</time>
      </trkpt>
      <trkpt lat="45.23829" lon="6.35751">
        <ele>1475.9</ele>
        <time>2020-08-22T13:10:01.000Z</time>
      </trkpt>
      <trkpt lat="45.23826" lon="6.35752">
        <ele>1476.2</ele>
        <time>2020-08-22T13:10:03.000Z</time>
      </trkpt>
      <trkpt lat="45.23816" lon="6.35758">
        <ele>1477.6</ele>
        <time>2020-08-22T13:10:10.000Z</time>
      </trkpt>
      <trkpt lat="45.23814" lon="6.35758">
        <ele>1477.9</ele>
        <time>2020-08-22T13:10:11.000Z</time>
      </trkpt>
      <trkpt lat="45.23803" lon="6.35761">
        <ele>1479.7</ele>
        <time>2020-08-22T13:10:18.000Z</time>
      </trkpt>
      <trkpt lat="45.23799" lon="6.35762">
        <ele>1480.5</ele>
        <time>2020-08-22T13:10:21.000Z</time>
      </trkpt>
      <trkpt lat="45.23795" lon="6.35765">
        <ele>1481.2</ele>
        <time>2020-08-22T13:10:25.000Z</time>
      </trkpt>
      <trkpt lat="45.2379" lon="6.35768">
        <ele>1481.9</ele>
        <time>2020-08-22T13:10:31.000Z</time>
      </trkpt>
      <trkpt lat="45.23789" lon="6.35769">
        <ele>1482.1</ele>
        <time>2020-08-22T13:10:32.000Z</time>
      </trkpt>
      <trkpt lat="45.23785" lon="6.35774">
        <ele>1482.7</ele>
        <time>2020-08-22T13:10:37.000Z</time>
      </trkpt>
      <trkpt lat="45.23782" lon="6.3578">
        <ele>1483.2</ele>
        <time>2020-08-22T13:10:40.000Z</time>
      </trkpt>
      <trkpt lat="45.23779" lon="6.35785">
        <ele>1483.8</ele>
        <time>2020-08-22T13:10:42.000Z</time>
      </trkpt>
      <trkpt lat="45.23778" lon="6.35786">
        <ele>1484</ele>
        <time>2020-08-22T13:10:43.000Z</time>
      </trkpt>
      <trkpt lat="45.23772" lon="6.35788">
        <ele>1484.9</ele>
        <time>2020-08-22T13:10:47.000Z</time>
      </trkpt>
      <trkpt lat="45.23771" lon="6.35788">
        <ele>1485.1</ele>
        <time>2020-08-22T13:10:48.000Z</time>
      </trkpt>
      <trkpt lat="45.23765" lon="6.35787">
        <ele>1485.8</ele>
        <time>2020-08-22T13:10:52.000Z</time>
      </trkpt>
      <trkpt lat="45.23761" lon="6.35786">
        <ele>1486.4</ele>
        <time>2020-08-22T13:10:55.000Z</time>
      </trkpt>
      <trkpt lat="45.2376" lon="6.35787">
        <ele>1486.6</ele>
        <time>2020-08-22T13:10:56.000Z</time>
      </trkpt>
      <trkpt lat="45.23754" lon="6.35791">
        <ele>1487.9</ele>
        <time>2020-08-22T13:11:02.000Z</time>
      </trkpt>
      <trkpt lat="45.23753" lon="6.35794">
        <ele>1488.5</ele>
        <time>2020-08-22T13:11:04.000Z</time>
      </trkpt>
      <trkpt lat="45.23748" lon="6.35801">
        <ele>1490</ele>
        <time>2020-08-22T13:11:09.000Z</time>
      </trkpt>
      <trkpt lat="45.23741" lon="6.35809">
        <ele>1492</ele>
        <time>2020-08-22T13:11:16.000Z</time>
      </trkpt>
      <trkpt lat="45.23738" lon="6.35813">
        <ele>1493.1</ele>
        <time>2020-08-22T13:11:20.000Z</time>
      </trkpt>
      <trkpt lat="45.23736" lon="6.35815">
        <ele>1493.6</ele>
        <time>2020-08-22T13:11:22.000Z</time>
      </trkpt>
      <trkpt lat="45.23735" lon="6.35816">
        <ele>1493.9</ele>
        <time>2020-08-22T13:11:23.000Z</time>
      </trkpt>
      <trkpt lat="45.23734" lon="6.35817">
        <ele>1494.1</ele>
        <time>2020-08-22T13:11:24.000Z</time>
      </trkpt>
      <trkpt lat="45.23732" lon="6.35819">
        <ele>1494.7</ele>
        <time>2020-08-22T13:11:27.000Z</time>
      </trkpt>
      <trkpt lat="45.23732" lon="6.35821">
        <ele>1494.9</ele>
        <time>2020-08-22T13:11:28.000Z</time>
      </trkpt>
      <trkpt lat="45.23731" lon="6.35822">
        <ele>1495.2</ele>
        <time>2020-08-22T13:11:29.000Z</time>
      </trkpt>
      <trkpt lat="45.23728" lon="6.35824">
        <ele>1496.1</ele>
        <time>2020-08-22T13:11:32.000Z</time>
      </trkpt>
      <trkpt lat="45.23722" lon="6.35828">
        <ele>1497.5</ele>
        <time>2020-08-22T13:11:37.000Z</time>
      </trkpt>
      <trkpt lat="45.23721" lon="6.35829">
        <ele>1497.8</ele>
        <time>2020-08-22T13:11:38.000Z</time>
      </trkpt>
      <trkpt lat="45.23714" lon="6.35835">
        <ele>1499.6</ele>
        <time>2020-08-22T13:11:44.000Z</time>
      </trkpt>
      <trkpt lat="45.23707" lon="6.35841">
        <ele>1501.5</ele>
        <time>2020-08-22T13:11:51.000Z</time>
      </trkpt>
      <trkpt lat="45.23705" lon="6.35841">
        <ele>1501.8</ele>
        <time>2020-08-22T13:11:52.000Z</time>
      </trkpt>
      <trkpt lat="45.237" lon="6.35844">
        <ele>1503</ele>
        <time>2020-08-22T13:11:57.000Z</time>
      </trkpt>
      <trkpt lat="45.23698" lon="6.35846">
        <ele>1503.6</ele>
        <time>2020-08-22T13:11:59.000Z</time>
      </trkpt>
      <trkpt lat="45.23697" lon="6.35846">
        <ele>1503.8</ele>
        <time>2020-08-22T13:12:00.000Z</time>
      </trkpt>
      <trkpt lat="45.23695" lon="6.35847">
        <ele>1504.4</ele>
        <time>2020-08-22T13:12:02.000Z</time>
      </trkpt>
      <trkpt lat="45.23691" lon="6.35848">
        <ele>1505.4</ele>
        <time>2020-08-22T13:12:06.000Z</time>
      </trkpt>
      <trkpt lat="45.23689" lon="6.35848">
        <ele>1505.6</ele>
        <time>2020-08-22T13:12:07.000Z</time>
      </trkpt>
      <trkpt lat="45.23687" lon="6.35847">
        <ele>1506.1</ele>
        <time>2020-08-22T13:12:09.000Z</time>
      </trkpt>
      <trkpt lat="45.23686" lon="6.35847">
        <ele>1506.4</ele>
        <time>2020-08-22T13:12:10.000Z</time>
      </trkpt>
      <trkpt lat="45.23684" lon="6.35847">
        <ele>1506.9</ele>
        <time>2020-08-22T13:12:12.000Z</time>
      </trkpt>
      <trkpt lat="45.23675" lon="6.35846">
        <ele>1508.9</ele>
        <time>2020-08-22T13:12:20.000Z</time>
      </trkpt>
      <trkpt lat="45.23672" lon="6.35849">
        <ele>1509.7</ele>
        <time>2020-08-22T13:12:24.000Z</time>
      </trkpt>
      <trkpt lat="45.2367" lon="6.3585">
        <ele>1510.1</ele>
        <time>2020-08-22T13:12:26.000Z</time>
      </trkpt>
      <trkpt lat="45.23667" lon="6.35853">
        <ele>1510.9</ele>
        <time>2020-08-22T13:12:30.000Z</time>
      </trkpt>
      <trkpt lat="45.23664" lon="6.35855">
        <ele>1511.8</ele>
        <time>2020-08-22T13:12:33.000Z</time>
      </trkpt>
      <trkpt lat="45.23654" lon="6.35861">
        <ele>1514.2</ele>
        <time>2020-08-22T13:12:41.000Z</time>
      </trkpt>
      <trkpt lat="45.23653" lon="6.35862">
        <ele>1514.4</ele>
        <time>2020-08-22T13:12:42.000Z</time>
      </trkpt>
      <trkpt lat="45.23648" lon="6.35866">
        <ele>1515.7</ele>
        <time>2020-08-22T13:12:47.000Z</time>
      </trkpt>
      <trkpt lat="45.23647" lon="6.35868">
        <ele>1516.2</ele>
        <time>2020-08-22T13:12:49.000Z</time>
      </trkpt>
      <trkpt lat="45.23641" lon="6.35873">
        <ele>1517.6</ele>
        <time>2020-08-22T13:12:54.000Z</time>
      </trkpt>
      <trkpt lat="45.2364" lon="6.35873">
        <ele>1517.9</ele>
        <time>2020-08-22T13:12:55.000Z</time>
      </trkpt>
      <trkpt lat="45.23633" lon="6.35882">
        <ele>1520.1</ele>
        <time>2020-08-22T13:13:02.000Z</time>
      </trkpt>
      <trkpt lat="45.23631" lon="6.35884">
        <ele>1520.7</ele>
        <time>2020-08-22T13:13:04.000Z</time>
      </trkpt>
      <trkpt lat="45.23621" lon="6.3589">
        <ele>1523</ele>
        <time>2020-08-22T13:13:12.000Z</time>
      </trkpt>
      <trkpt lat="45.23614" lon="6.35899">
        <ele>1525.2</ele>
        <time>2020-08-22T13:13:20.000Z</time>
      </trkpt>
      <trkpt lat="45.23612" lon="6.35901">
        <ele>1525.8</ele>
        <time>2020-08-22T13:13:22.000Z</time>
      </trkpt>
      <trkpt lat="45.23606" lon="6.35909">
        <ele>1527.7</ele>
        <time>2020-08-22T13:13:29.000Z</time>
      </trkpt>
      <trkpt lat="45.23605" lon="6.3591">
        <ele>1527.9</ele>
        <time>2020-08-22T13:13:30.000Z</time>
      </trkpt>
      <trkpt lat="45.23603" lon="6.35914">
        <ele>1528.6</ele>
        <time>2020-08-22T13:13:33.000Z</time>
      </trkpt>
      <trkpt lat="45.23601" lon="6.35919">
        <ele>1529.7</ele>
        <time>2020-08-22T13:13:37.000Z</time>
      </trkpt>
      <trkpt lat="45.23599" lon="6.35922">
        <ele>1530.3</ele>
        <time>2020-08-22T13:13:40.000Z</time>
      </trkpt>
      <trkpt lat="45.23598" lon="6.35924">
        <ele>1530.7</ele>
        <time>2020-08-22T13:13:42.000Z</time>
      </trkpt>
      <trkpt lat="45.23596" lon="6.35927">
        <ele>1531.2</ele>
        <time>2020-08-22T13:13:44.000Z</time>
      </trkpt>
      <trkpt lat="45.23596" lon="6.35929">
        <ele>1531.6</ele>
        <time>2020-08-22T13:13:46.000Z</time>
      </trkpt>
      <trkpt lat="45.23593" lon="6.35933">
        <ele>1532.5</ele>
        <time>2020-08-22T13:13:49.000Z</time>
      </trkpt>
      <trkpt lat="45.23592" lon="6.35936">
        <ele>1533</ele>
        <time>2020-08-22T13:13:51.000Z</time>
      </trkpt>
      <trkpt lat="45.23591" lon="6.35937">
        <ele>1533.3</ele>
        <time>2020-08-22T13:13:52.000Z</time>
      </trkpt>
      <trkpt lat="45.23588" lon="6.35944">
        <ele>1534.5</ele>
        <time>2020-08-22T13:13:57.000Z</time>
      </trkpt>
      <trkpt lat="45.23587" lon="6.35946">
        <ele>1534.9</ele>
        <time>2020-08-22T13:13:59.000Z</time>
      </trkpt>
      <trkpt lat="45.23585" lon="6.3595">
        <ele>1535.7</ele>
        <time>2020-08-22T13:14:03.000Z</time>
      </trkpt>
      <trkpt lat="45.23584" lon="6.35952">
        <ele>1536.1</ele>
        <time>2020-08-22T13:14:05.000Z</time>
      </trkpt>
      <trkpt lat="45.23581" lon="6.35957">
        <ele>1537.2</ele>
        <time>2020-08-22T13:14:10.000Z</time>
      </trkpt>
      <trkpt lat="45.2358" lon="6.35961">
        <ele>1537.9</ele>
        <time>2020-08-22T13:14:13.000Z</time>
      </trkpt>
      <trkpt lat="45.23578" lon="6.35966">
        <ele>1538.7</ele>
        <time>2020-08-22T13:14:17.000Z</time>
      </trkpt>
      <trkpt lat="45.23578" lon="6.35969">
        <ele>1539.2</ele>
        <time>2020-08-22T13:14:19.000Z</time>
      </trkpt>
      <trkpt lat="45.23577" lon="6.35972">
        <ele>1539.8</ele>
        <time>2020-08-22T13:14:22.000Z</time>
      </trkpt>
      <trkpt lat="45.23576" lon="6.35978">
        <ele>1540.8</ele>
        <time>2020-08-22T13:14:26.000Z</time>
      </trkpt>
      <trkpt lat="45.23576" lon="6.35981">
        <ele>1541.3</ele>
        <time>2020-08-22T13:14:28.000Z</time>
      </trkpt>
      <trkpt lat="45.23575" lon="6.35988">
        <ele>1542.4</ele>
        <time>2020-08-22T13:14:33.000Z</time>
      </trkpt>
      <trkpt lat="45.23574" lon="6.35992">
        <ele>1543.1</ele>
        <time>2020-08-22T13:14:36.000Z</time>
      </trkpt>
      <trkpt lat="45.23573" lon="6.35994">
        <ele>1543.5</ele>
        <time>2020-08-22T13:14:38.000Z</time>
      </trkpt>
      <trkpt lat="45.23572" lon="6.35997">
        <ele>1544</ele>
        <time>2020-08-22T13:14:40.000Z</time>
      </trkpt>
      <trkpt lat="45.23572" lon="6.36">
        <ele>1544.5</ele>
        <time>2020-08-22T13:14:42.000Z</time>
      </trkpt>
      <trkpt lat="45.23571" lon="6.36004">
        <ele>1545.1</ele>
        <time>2020-08-22T13:14:45.000Z</time>
      </trkpt>
      <trkpt lat="45.23571" lon="6.36005">
        <ele>1545.4</ele>
        <time>2020-08-22T13:14:46.000Z</time>
      </trkpt>
      <trkpt lat="45.23571" lon="6.36008">
        <ele>1545.8</ele>
        <time>2020-08-22T13:14:48.000Z</time>
      </trkpt>
      <trkpt lat="45.23569" lon="6.36012">
        <ele>1546.4</ele>
        <time>2020-08-22T13:14:51.000Z</time>
      </trkpt>
      <trkpt lat="45.23569" lon="6.36013">
        <ele>1546.7</ele>
        <time>2020-08-22T13:14:52.000Z</time>
      </trkpt>
      <trkpt lat="45.23568" lon="6.36019">
        <ele>1547.6</ele>
        <time>2020-08-22T13:14:56.000Z</time>
      </trkpt>
      <trkpt lat="45.23568" lon="6.3602">
        <ele>1547.8</ele>
        <time>2020-08-22T13:14:57.000Z</time>
      </trkpt>
      <trkpt lat="45.23566" lon="6.36024">
        <ele>1548.6</ele>
        <time>2020-08-22T13:15:00.000Z</time>
      </trkpt>
      <trkpt lat="45.23565" lon="6.36028">
        <ele>1549.3</ele>
        <time>2020-08-22T13:15:03.000Z</time>
      </trkpt>
      <trkpt lat="45.23565" lon="6.3603">
        <ele>1549.5</ele>
        <time>2020-08-22T13:15:04.000Z</time>
      </trkpt>
      <trkpt lat="45.23563" lon="6.36034">
        <ele>1550.2</ele>
        <time>2020-08-22T13:15:07.000Z</time>
      </trkpt>
      <trkpt lat="45.23563" lon="6.36038">
        <ele>1550.9</ele>
        <time>2020-08-22T13:15:10.000Z</time>
      </trkpt>
      <trkpt lat="45.23562" lon="6.36046">
        <ele>1552.3</ele>
        <time>2020-08-22T13:15:16.000Z</time>
      </trkpt>
      <trkpt lat="45.23563" lon="6.36047">
        <ele>1552.5</ele>
        <time>2020-08-22T13:15:17.000Z</time>
      </trkpt>
      <trkpt lat="45.23563" lon="6.36052">
        <ele>1553.3</ele>
        <time>2020-08-22T13:15:21.000Z</time>
      </trkpt>
      <trkpt lat="45.23563" lon="6.36054">
        <ele>1553.6</ele>
        <time>2020-08-22T13:15:23.000Z</time>
      </trkpt>
      <trkpt lat="45.23563" lon="6.36058">
        <ele>1554.1</ele>
        <time>2020-08-22T13:15:26.000Z</time>
      </trkpt>
      <trkpt lat="45.23564" lon="6.36062">
        <ele>1554.8</ele>
        <time>2020-08-22T13:15:29.000Z</time>
      </trkpt>
      <trkpt lat="45.23565" lon="6.36067">
        <ele>1555.7</ele>
        <time>2020-08-22T13:15:33.000Z</time>
      </trkpt>
      <trkpt lat="45.23565" lon="6.36071">
        <ele>1556.4</ele>
        <time>2020-08-22T13:15:36.000Z</time>
      </trkpt>
      <trkpt lat="45.23565" lon="6.3608">
        <ele>1557.7</ele>
        <time>2020-08-22T13:15:42.000Z</time>
      </trkpt>
      <trkpt lat="45.23566" lon="6.36083">
        <ele>1558.2</ele>
        <time>2020-08-22T13:15:44.000Z</time>
      </trkpt>
      <trkpt lat="45.23567" lon="6.36084">
        <ele>1558.4</ele>
        <time>2020-08-22T13:15:45.000Z</time>
      </trkpt>
      <trkpt lat="45.23568" lon="6.36088">
        <ele>1559.1</ele>
        <time>2020-08-22T13:15:48.000Z</time>
      </trkpt>
      <trkpt lat="45.23568" lon="6.36095">
        <ele>1560.3</ele>
        <time>2020-08-22T13:15:53.000Z</time>
      </trkpt>
      <trkpt lat="45.23569" lon="6.36097">
        <ele>1560.7</ele>
        <time>2020-08-22T13:15:55.000Z</time>
      </trkpt>
      <trkpt lat="45.23569" lon="6.36102">
        <ele>1561.4</ele>
        <time>2020-08-22T13:15:59.000Z</time>
      </trkpt>
      <trkpt lat="45.23567" lon="6.36108">
        <ele>1562.5</ele>
        <time>2020-08-22T13:16:05.000Z</time>
      </trkpt>
      <trkpt lat="45.23566" lon="6.3611">
        <ele>1562.9</ele>
        <time>2020-08-22T13:16:07.000Z</time>
      </trkpt>
      <trkpt lat="45.23565" lon="6.36112">
        <ele>1563.2</ele>
        <time>2020-08-22T13:16:09.000Z</time>
      </trkpt>
      <trkpt lat="45.23564" lon="6.36115">
        <ele>1563.8</ele>
        <time>2020-08-22T13:16:11.000Z</time>
      </trkpt>
      <trkpt lat="45.2356" lon="6.36118">
        <ele>1564.9</ele>
        <time>2020-08-22T13:16:15.000Z</time>
      </trkpt>
      <trkpt lat="45.23558" lon="6.36121">
        <ele>1565.5</ele>
        <time>2020-08-22T13:16:17.000Z</time>
      </trkpt>
      <trkpt lat="45.23553" lon="6.36126">
        <ele>1566.9</ele>
        <time>2020-08-22T13:16:21.000Z</time>
      </trkpt>
      <trkpt lat="45.23552" lon="6.36127">
        <ele>1567</ele>
        <time>2020-08-22T13:16:22.000Z</time>
      </trkpt>
      <trkpt lat="45.23552" lon="6.36127">
        <ele>1567.1</ele>
        <time>2020-08-22T13:16:27.000Z</time>
      </trkpt>
      <trkpt lat="45.23551" lon="6.36129">
        <ele>1567.4</ele>
        <time>2020-08-22T13:16:30.000Z</time>
      </trkpt>
      <trkpt lat="45.2355" lon="6.36131">
        <ele>1567.8</ele>
        <time>2020-08-22T13:16:33.000Z</time>
      </trkpt>
      <trkpt lat="45.2355" lon="6.36135">
        <ele>1568.5</ele>
        <time>2020-08-22T13:16:41.000Z</time>
      </trkpt>
      <trkpt lat="45.2355" lon="6.36136">
        <ele>1568.8</ele>
        <time>2020-08-22T13:16:44.000Z</time>
      </trkpt>
      <trkpt lat="45.23549" lon="6.36139">
        <ele>1569.3</ele>
        <time>2020-08-22T13:16:47.000Z</time>
      </trkpt>
      <trkpt lat="45.23549" lon="6.36143">
        <ele>1569.8</ele>
        <time>2020-08-22T13:16:49.000Z</time>
      </trkpt>
      <trkpt lat="45.23548" lon="6.36149">
        <ele>1570.9</ele>
        <time>2020-08-22T13:16:53.000Z</time>
      </trkpt>
      <trkpt lat="45.23543" lon="6.36158">
        <ele>1573</ele>
        <time>2020-08-22T13:17:00.000Z</time>
      </trkpt>
      <trkpt lat="45.2354" lon="6.3616">
        <ele>1573.6</ele>
        <time>2020-08-22T13:17:02.000Z</time>
      </trkpt>
      <trkpt lat="45.23536" lon="6.36163">
        <ele>1574.7</ele>
        <time>2020-08-22T13:17:06.000Z</time>
      </trkpt>
      <trkpt lat="45.23532" lon="6.36167">
        <ele>1575.8</ele>
        <time>2020-08-22T13:17:10.000Z</time>
      </trkpt>
      <trkpt lat="45.23524" lon="6.36174">
        <ele>1577.8</ele>
        <time>2020-08-22T13:17:17.000Z</time>
      </trkpt>
      <trkpt lat="45.23522" lon="6.36175">
        <ele>1578.3</ele>
        <time>2020-08-22T13:17:19.000Z</time>
      </trkpt>
      <trkpt lat="45.23519" lon="6.36179">
        <ele>1579.2</ele>
        <time>2020-08-22T13:17:22.000Z</time>
      </trkpt>
      <trkpt lat="45.23518" lon="6.3618">
        <ele>1579.6</ele>
        <time>2020-08-22T13:17:23.000Z</time>
      </trkpt>
      <trkpt lat="45.23515" lon="6.36184">
        <ele>1580.5</ele>
        <time>2020-08-22T13:17:26.000Z</time>
      </trkpt>
      <trkpt lat="45.23512" lon="6.36188">
        <ele>1581.3</ele>
        <time>2020-08-22T13:17:29.000Z</time>
      </trkpt>
      <trkpt lat="45.23506" lon="6.36193">
        <ele>1583.1</ele>
        <time>2020-08-22T13:17:35.000Z</time>
      </trkpt>
      <trkpt lat="45.23504" lon="6.36196">
        <ele>1583.7</ele>
        <time>2020-08-22T13:17:37.000Z</time>
      </trkpt>
      <trkpt lat="45.23498" lon="6.36204">
        <ele>1585.5</ele>
        <time>2020-08-22T13:17:43.000Z</time>
      </trkpt>
      <trkpt lat="45.23496" lon="6.36207">
        <ele>1586.1</ele>
        <time>2020-08-22T13:17:45.000Z</time>
      </trkpt>
      <trkpt lat="45.23492" lon="6.36212">
        <ele>1587.4</ele>
        <time>2020-08-22T13:17:49.000Z</time>
      </trkpt>
      <trkpt lat="45.2349" lon="6.36215">
        <ele>1588</ele>
        <time>2020-08-22T13:17:51.000Z</time>
      </trkpt>
      <trkpt lat="45.23486" lon="6.36222">
        <ele>1589.7</ele>
        <time>2020-08-22T13:17:56.000Z</time>
      </trkpt>
      <trkpt lat="45.2348" lon="6.36231">
        <ele>1591.9</ele>
        <time>2020-08-22T13:18:02.000Z</time>
      </trkpt>
      <trkpt lat="45.23474" lon="6.36242">
        <ele>1594.1</ele>
        <time>2020-08-22T13:18:08.000Z</time>
      </trkpt>
      <trkpt lat="45.23472" lon="6.36245">
        <ele>1594.7</ele>
        <time>2020-08-22T13:18:10.000Z</time>
      </trkpt>
      <trkpt lat="45.23463" lon="6.36257">
        <ele>1597.5</ele>
        <time>2020-08-22T13:18:19.000Z</time>
      </trkpt>
      <trkpt lat="45.23459" lon="6.36261">
        <ele>1598.6</ele>
        <time>2020-08-22T13:18:22.000Z</time>
      </trkpt>
      <trkpt lat="45.23457" lon="6.36264">
        <ele>1599.2</ele>
        <time>2020-08-22T13:18:24.000Z</time>
      </trkpt>
      <trkpt lat="45.23451" lon="6.3627">
        <ele>1600.9</ele>
        <time>2020-08-22T13:18:29.000Z</time>
      </trkpt>
      <trkpt lat="45.23449" lon="6.36272">
        <ele>1601.7</ele>
        <time>2020-08-22T13:18:31.000Z</time>
      </trkpt>
      <trkpt lat="45.23447" lon="6.36275">
        <ele>1602.3</ele>
        <time>2020-08-22T13:18:33.000Z</time>
      </trkpt>
      <trkpt lat="45.23443" lon="6.36279">
        <ele>1603.4</ele>
        <time>2020-08-22T13:18:37.000Z</time>
      </trkpt>
      <trkpt lat="45.23442" lon="6.3628">
        <ele>1603.7</ele>
        <time>2020-08-22T13:18:38.000Z</time>
      </trkpt>
      <trkpt lat="45.23437" lon="6.36285">
        <ele>1605</ele>
        <time>2020-08-22T13:18:42.000Z</time>
      </trkpt>
      <trkpt lat="45.23434" lon="6.36288">
        <ele>1605.7</ele>
        <time>2020-08-22T13:18:44.000Z</time>
      </trkpt>
      <trkpt lat="45.23432" lon="6.36289">
        <ele>1606.1</ele>
        <time>2020-08-22T13:18:45.000Z</time>
      </trkpt>
      <trkpt lat="45.2343" lon="6.36292">
        <ele>1606.7</ele>
        <time>2020-08-22T13:18:47.000Z</time>
      </trkpt>
      <trkpt lat="45.23428" lon="6.36296">
        <ele>1607.4</ele>
        <time>2020-08-22T13:18:49.000Z</time>
      </trkpt>
      <trkpt lat="45.23423" lon="6.36302">
        <ele>1608.8</ele>
        <time>2020-08-22T13:18:53.000Z</time>
      </trkpt>
      <trkpt lat="45.23422" lon="6.36305">
        <ele>1609.1</ele>
        <time>2020-08-22T13:18:54.000Z</time>
      </trkpt>
      <trkpt lat="45.23419" lon="6.36313">
        <ele>1610.5</ele>
        <time>2020-08-22T13:18:58.000Z</time>
      </trkpt>
      <trkpt lat="45.23414" lon="6.36321">
        <ele>1612.1</ele>
        <time>2020-08-22T13:19:03.000Z</time>
      </trkpt>
      <trkpt lat="45.23412" lon="6.36323">
        <ele>1612.4</ele>
        <time>2020-08-22T13:19:04.000Z</time>
      </trkpt>
      <trkpt lat="45.2341" lon="6.36326">
        <ele>1613</ele>
        <time>2020-08-22T13:19:06.000Z</time>
      </trkpt>
      <trkpt lat="45.23406" lon="6.36331">
        <ele>1614.1</ele>
        <time>2020-08-22T13:19:10.000Z</time>
      </trkpt>
      <trkpt lat="45.23404" lon="6.36333">
        <ele>1614.4</ele>
        <time>2020-08-22T13:19:11.000Z</time>
      </trkpt>
      <trkpt lat="45.23401" lon="6.36338">
        <ele>1615.3</ele>
        <time>2020-08-22T13:19:14.000Z</time>
      </trkpt>
      <trkpt lat="45.23397" lon="6.36343">
        <ele>1616.2</ele>
        <time>2020-08-22T13:19:17.000Z</time>
      </trkpt>
      <trkpt lat="45.23395" lon="6.36347">
        <ele>1616.8</ele>
        <time>2020-08-22T13:19:19.000Z</time>
      </trkpt>
      <trkpt lat="45.23393" lon="6.36351">
        <ele>1617.5</ele>
        <time>2020-08-22T13:19:21.000Z</time>
      </trkpt>
      <trkpt lat="45.23391" lon="6.36355">
        <ele>1618</ele>
        <time>2020-08-22T13:19:23.000Z</time>
      </trkpt>
      <trkpt lat="45.23387" lon="6.36361">
        <ele>1619</ele>
        <time>2020-08-22T13:19:26.000Z</time>
      </trkpt>
      <trkpt lat="45.23383" lon="6.36369">
        <ele>1620.3</ele>
        <time>2020-08-22T13:19:30.000Z</time>
      </trkpt>
      <trkpt lat="45.23381" lon="6.36375">
        <ele>1621.1</ele>
        <time>2020-08-22T13:19:33.000Z</time>
      </trkpt>
      <trkpt lat="45.23378" lon="6.3638">
        <ele>1621.8</ele>
        <time>2020-08-22T13:19:36.000Z</time>
      </trkpt>
      <trkpt lat="45.23377" lon="6.36381">
        <ele>1622</ele>
        <time>2020-08-22T13:19:37.000Z</time>
      </trkpt>
      <trkpt lat="45.23374" lon="6.36386">
        <ele>1622.7</ele>
        <time>2020-08-22T13:19:40.000Z</time>
      </trkpt>
      <trkpt lat="45.23374" lon="6.36388">
        <ele>1623</ele>
        <time>2020-08-22T13:19:41.000Z</time>
      </trkpt>
      <trkpt lat="45.23373" lon="6.36389">
        <ele>1623.2</ele>
        <time>2020-08-22T13:19:42.000Z</time>
      </trkpt>
      <trkpt lat="45.23369" lon="6.36397">
        <ele>1624.4</ele>
        <time>2020-08-22T13:19:46.000Z</time>
      </trkpt>
      <trkpt lat="45.2336" lon="6.36407">
        <ele>1626.8</ele>
        <time>2020-08-22T13:19:53.000Z</time>
      </trkpt>
      <trkpt lat="45.2335" lon="6.36419">
        <ele>1629</ele>
        <time>2020-08-22T13:20:01.000Z</time>
      </trkpt>
      <trkpt lat="45.23344" lon="6.36423">
        <ele>1629.9</ele>
        <time>2020-08-22T13:20:06.000Z</time>
      </trkpt>
      <trkpt lat="45.23341" lon="6.36424">
        <ele>1630.3</ele>
        <time>2020-08-22T13:20:09.000Z</time>
      </trkpt>
      <trkpt lat="45.2334" lon="6.36425">
        <ele>1630.5</ele>
        <time>2020-08-22T13:20:10.000Z</time>
      </trkpt>
      <trkpt lat="45.23338" lon="6.36426">
        <ele>1630.8</ele>
        <time>2020-08-22T13:20:13.000Z</time>
      </trkpt>
      <trkpt lat="45.23332" lon="6.36429">
        <ele>1631.7</ele>
        <time>2020-08-22T13:20:20.000Z</time>
      </trkpt>
      <trkpt lat="45.23332" lon="6.3643">
        <ele>1631.8</ele>
        <time>2020-08-22T13:20:21.000Z</time>
      </trkpt>
      <trkpt lat="45.23327" lon="6.36432">
        <ele>1632.7</ele>
        <time>2020-08-22T13:20:25.000Z</time>
      </trkpt>
      <trkpt lat="45.23326" lon="6.36436">
        <ele>1633.2</ele>
        <time>2020-08-22T13:20:27.000Z</time>
      </trkpt>
      <trkpt lat="45.23324" lon="6.36438">
        <ele>1633.7</ele>
        <time>2020-08-22T13:20:29.000Z</time>
      </trkpt>
      <trkpt lat="45.23323" lon="6.36439">
        <ele>1633.9</ele>
        <time>2020-08-22T13:20:30.000Z</time>
      </trkpt>
      <trkpt lat="45.23321" lon="6.3644">
        <ele>1634.3</ele>
        <time>2020-08-22T13:20:32.000Z</time>
      </trkpt>
      <trkpt lat="45.2332" lon="6.36442">
        <ele>1634.8</ele>
        <time>2020-08-22T13:20:34.000Z</time>
      </trkpt>
      <trkpt lat="45.23319" lon="6.36444">
        <ele>1635</ele>
        <time>2020-08-22T13:20:35.000Z</time>
      </trkpt>
      <trkpt lat="45.23318" lon="6.36445">
        <ele>1635.3</ele>
        <time>2020-08-22T13:20:37.000Z</time>
      </trkpt>
      <trkpt lat="45.23316" lon="6.3645">
        <ele>1636</ele>
        <time>2020-08-22T13:20:40.000Z</time>
      </trkpt>
      <trkpt lat="45.23314" lon="6.36452">
        <ele>1636.4</ele>
        <time>2020-08-22T13:20:42.000Z</time>
      </trkpt>
      <trkpt lat="45.23312" lon="6.36452">
        <ele>1636.8</ele>
        <time>2020-08-22T13:20:44.000Z</time>
      </trkpt>
      <trkpt lat="45.23311" lon="6.36454">
        <ele>1637.1</ele>
        <time>2020-08-22T13:20:45.000Z</time>
      </trkpt>
      <trkpt lat="45.23309" lon="6.36456">
        <ele>1637.6</ele>
        <time>2020-08-22T13:20:47.000Z</time>
      </trkpt>
      <trkpt lat="45.23307" lon="6.36456">
        <ele>1637.9</ele>
        <time>2020-08-22T13:20:49.000Z</time>
      </trkpt>
      <trkpt lat="45.23306" lon="6.36457">
        <ele>1638.1</ele>
        <time>2020-08-22T13:20:50.000Z</time>
      </trkpt>
      <trkpt lat="45.23304" lon="6.36459">
        <ele>1638.6</ele>
        <time>2020-08-22T13:20:52.000Z</time>
      </trkpt>
      <trkpt lat="45.23302" lon="6.3646">
        <ele>1639.1</ele>
        <time>2020-08-22T13:20:55.000Z</time>
      </trkpt>
      <trkpt lat="45.23301" lon="6.36461">
        <ele>1639.3</ele>
        <time>2020-08-22T13:20:56.000Z</time>
      </trkpt>
      <trkpt lat="45.23299" lon="6.36462">
        <ele>1639.7</ele>
        <time>2020-08-22T13:20:58.000Z</time>
      </trkpt>
      <trkpt lat="45.23295" lon="6.36464">
        <ele>1640.6</ele>
        <time>2020-08-22T13:21:02.000Z</time>
      </trkpt>
      <trkpt lat="45.23294" lon="6.36465">
        <ele>1640.9</ele>
        <time>2020-08-22T13:21:03.000Z</time>
      </trkpt>
      <trkpt lat="45.23289" lon="6.36468">
        <ele>1641.8</ele>
        <time>2020-08-22T13:21:07.000Z</time>
      </trkpt>
      <trkpt lat="45.23287" lon="6.36469">
        <ele>1642.3</ele>
        <time>2020-08-22T13:21:10.000Z</time>
      </trkpt>
      <trkpt lat="45.23285" lon="6.36469">
        <ele>1642.6</ele>
        <time>2020-08-22T13:21:12.000Z</time>
      </trkpt>
      <trkpt lat="45.2328" lon="6.36471">
        <ele>1643.5</ele>
        <time>2020-08-22T13:21:16.000Z</time>
      </trkpt>
      <trkpt lat="45.23275" lon="6.36478">
        <ele>1644.8</ele>
        <time>2020-08-22T13:21:23.000Z</time>
      </trkpt>
      <trkpt lat="45.23274" lon="6.36479">
        <ele>1644.9</ele>
        <time>2020-08-22T13:21:24.000Z</time>
      </trkpt>
      <trkpt lat="45.23272" lon="6.36481">
        <ele>1645.4</ele>
        <time>2020-08-22T13:21:27.000Z</time>
      </trkpt>
      <trkpt lat="45.23271" lon="6.36482">
        <ele>1645.6</ele>
        <time>2020-08-22T13:21:29.000Z</time>
      </trkpt>
      <trkpt lat="45.23266" lon="6.36486">
        <ele>1646.5</ele>
        <time>2020-08-22T13:21:34.000Z</time>
      </trkpt>
      <trkpt lat="45.23264" lon="6.3649">
        <ele>1647</ele>
        <time>2020-08-22T13:21:37.000Z</time>
      </trkpt>
      <trkpt lat="45.23262" lon="6.36495">
        <ele>1647.6</ele>
        <time>2020-08-22T13:21:40.000Z</time>
      </trkpt>
      <trkpt lat="45.23261" lon="6.36496">
        <ele>1647.9</ele>
        <time>2020-08-22T13:21:42.000Z</time>
      </trkpt>
      <trkpt lat="45.2326" lon="6.36497">
        <ele>1648</ele>
        <time>2020-08-22T13:21:43.000Z</time>
      </trkpt>
      <trkpt lat="45.23257" lon="6.36502">
        <ele>1648.7</ele>
        <time>2020-08-22T13:21:47.000Z</time>
      </trkpt>
      <trkpt lat="45.23255" lon="6.36505">
        <ele>1649.2</ele>
        <time>2020-08-22T13:21:50.000Z</time>
      </trkpt>
      <trkpt lat="45.23253" lon="6.36508">
        <ele>1649.7</ele>
        <time>2020-08-22T13:21:53.000Z</time>
      </trkpt>
      <trkpt lat="45.23249" lon="6.36512">
        <ele>1650.4</ele>
        <time>2020-08-22T13:21:57.000Z</time>
      </trkpt>
      <trkpt lat="45.23246" lon="6.36515">
        <ele>1650.9</ele>
        <time>2020-08-22T13:22:01.000Z</time>
      </trkpt>
      <trkpt lat="45.23243" lon="6.36515">
        <ele>1651.4</ele>
        <time>2020-08-22T13:22:04.000Z</time>
      </trkpt>
      <trkpt lat="45.23239" lon="6.36517">
        <ele>1652</ele>
        <time>2020-08-22T13:22:08.000Z</time>
      </trkpt>
      <trkpt lat="45.23236" lon="6.36519">
        <ele>1652.4</ele>
        <time>2020-08-22T13:22:11.000Z</time>
      </trkpt>
      <trkpt lat="45.2323" lon="6.36525">
        <ele>1653.6</ele>
        <time>2020-08-22T13:22:18.000Z</time>
      </trkpt>
      <trkpt lat="45.23229" lon="6.36526">
        <ele>1653.8</ele>
        <time>2020-08-22T13:22:19.000Z</time>
      </trkpt>
      <trkpt lat="45.23226" lon="6.3653">
        <ele>1654.7</ele>
        <time>2020-08-22T13:22:23.000Z</time>
      </trkpt>
      <trkpt lat="45.23224" lon="6.36533">
        <ele>1655.2</ele>
        <time>2020-08-22T13:22:26.000Z</time>
      </trkpt>
      <trkpt lat="45.23221" lon="6.36534">
        <ele>1655.9</ele>
        <time>2020-08-22T13:22:29.000Z</time>
      </trkpt>
      <trkpt lat="45.23217" lon="6.36537">
        <ele>1657</ele>
        <time>2020-08-22T13:22:33.000Z</time>
      </trkpt>
      <trkpt lat="45.23213" lon="6.36539">
        <ele>1657.8</ele>
        <time>2020-08-22T13:22:36.000Z</time>
      </trkpt>
      <trkpt lat="45.23212" lon="6.36542">
        <ele>1658.4</ele>
        <time>2020-08-22T13:22:39.000Z</time>
      </trkpt>
      <trkpt lat="45.23211" lon="6.36545">
        <ele>1658.8</ele>
        <time>2020-08-22T13:22:41.000Z</time>
      </trkpt>
      <trkpt lat="45.23207" lon="6.36547">
        <ele>1659.8</ele>
        <time>2020-08-22T13:22:46.000Z</time>
      </trkpt>
      <trkpt lat="45.23206" lon="6.36547">
        <ele>1659.9</ele>
        <time>2020-08-22T13:22:47.000Z</time>
      </trkpt>
      <trkpt lat="45.23202" lon="6.36551">
        <ele>1660.9</ele>
        <time>2020-08-22T13:22:52.000Z</time>
      </trkpt>
      <trkpt lat="45.232" lon="6.36553">
        <ele>1661.4</ele>
        <time>2020-08-22T13:22:55.000Z</time>
      </trkpt>
      <trkpt lat="45.23199" lon="6.36554">
        <ele>1661.6</ele>
        <time>2020-08-22T13:22:56.000Z</time>
      </trkpt>
      <trkpt lat="45.23197" lon="6.36556">
        <ele>1662.2</ele>
        <time>2020-08-22T13:22:59.000Z</time>
      </trkpt>
      <trkpt lat="45.23195" lon="6.3656">
        <ele>1662.9</ele>
        <time>2020-08-22T13:23:02.000Z</time>
      </trkpt>
      <trkpt lat="45.23195" lon="6.36567">
        <ele>1664.4</ele>
        <time>2020-08-22T13:23:07.000Z</time>
      </trkpt>
      <trkpt lat="45.23196" lon="6.3657">
        <ele>1664.9</ele>
        <time>2020-08-22T13:23:09.000Z</time>
      </trkpt>
      <trkpt lat="45.23197" lon="6.36572">
        <ele>1665.3</ele>
        <time>2020-08-22T13:23:10.000Z</time>
      </trkpt>
      <trkpt lat="45.23197" lon="6.36575">
        <ele>1665.8</ele>
        <time>2020-08-22T13:23:13.000Z</time>
      </trkpt>
      <trkpt lat="45.23197" lon="6.36575">
        <ele>1665.8</ele>
        <time>2020-08-22T13:23:14.000Z</time>
      </trkpt>
      <trkpt lat="45.23197" lon="6.36575">
        <ele>1665.9</ele>
        <time>2020-08-22T13:23:15.000Z</time>
      </trkpt>
      <trkpt lat="45.23199" lon="6.3658">
        <ele>1666.9</ele>
        <time>2020-08-22T13:23:18.000Z</time>
      </trkpt>
      <trkpt lat="45.232" lon="6.36583">
        <ele>1667.4</ele>
        <time>2020-08-22T13:23:21.000Z</time>
      </trkpt>
      <trkpt lat="45.23205" lon="6.36597">
        <ele>1670.1</ele>
        <time>2020-08-22T13:23:33.000Z</time>
      </trkpt>
      <trkpt lat="45.23204" lon="6.36606">
        <ele>1671.7</ele>
        <time>2020-08-22T13:23:41.000Z</time>
      </trkpt>
      <trkpt lat="45.23203" lon="6.36612">
        <ele>1672.8</ele>
        <time>2020-08-22T13:23:46.000Z</time>
      </trkpt>
      <trkpt lat="45.232" lon="6.36615">
        <ele>1673.6</ele>
        <time>2020-08-22T13:23:51.000Z</time>
      </trkpt>
      <trkpt lat="45.232" lon="6.36616">
        <ele>1673.8</ele>
        <time>2020-08-22T13:23:52.000Z</time>
      </trkpt>
      <trkpt lat="45.23198" lon="6.36619">
        <ele>1674.5</ele>
        <time>2020-08-22T13:23:56.000Z</time>
      </trkpt>
      <trkpt lat="45.23196" lon="6.36625">
        <ele>1675.6</ele>
        <time>2020-08-22T13:24:03.000Z</time>
      </trkpt>
      <trkpt lat="45.23194" lon="6.36629">
        <ele>1676.3</ele>
        <time>2020-08-22T13:24:07.000Z</time>
      </trkpt>
      <trkpt lat="45.23188" lon="6.36644">
        <ele>1679.4</ele>
        <time>2020-08-22T13:24:20.000Z</time>
      </trkpt>
      <trkpt lat="45.23185" lon="6.36653">
        <ele>1681</ele>
        <time>2020-08-22T13:24:28.000Z</time>
      </trkpt>
      <trkpt lat="45.23182" lon="6.3666">
        <ele>1682.4</ele>
        <time>2020-08-22T13:24:35.000Z</time>
      </trkpt>
      <trkpt lat="45.23178" lon="6.3667">
        <ele>1684.4</ele>
        <time>2020-08-22T13:24:43.000Z</time>
      </trkpt>
      <trkpt lat="45.23176" lon="6.36675">
        <ele>1685.4</ele>
        <time>2020-08-22T13:24:47.000Z</time>
      </trkpt>
      <trkpt lat="45.23175" lon="6.36679">
        <ele>1686.2</ele>
        <time>2020-08-22T13:24:51.000Z</time>
      </trkpt>
      <trkpt lat="45.23177" lon="6.36691">
        <ele>1688.1</ele>
        <time>2020-08-22T13:25:00.000Z</time>
      </trkpt>
      <trkpt lat="45.23183" lon="6.36696">
        <ele>1689.8</ele>
        <time>2020-08-22T13:25:09.000Z</time>
      </trkpt>
      <trkpt lat="45.23186" lon="6.36698">
        <ele>1690.7</ele>
        <time>2020-08-22T13:25:14.000Z</time>
      </trkpt>
      <trkpt lat="45.2319" lon="6.367">
        <ele>1691.7</ele>
        <time>2020-08-22T13:25:19.000Z</time>
      </trkpt>
      <trkpt lat="45.23191" lon="6.36701">
        <ele>1692</ele>
        <time>2020-08-22T13:25:21.000Z</time>
      </trkpt>
      <trkpt lat="45.23196" lon="6.36704">
        <ele>1693.4</ele>
        <time>2020-08-22T13:25:28.000Z</time>
      </trkpt>
      <trkpt lat="45.232" lon="6.36708">
        <ele>1694.5</ele>
        <time>2020-08-22T13:25:34.000Z</time>
      </trkpt>
      <trkpt lat="45.23202" lon="6.3671">
        <ele>1695</ele>
        <time>2020-08-22T13:25:36.000Z</time>
      </trkpt>
      <trkpt lat="45.23203" lon="6.36712">
        <ele>1695.5</ele>
        <time>2020-08-22T13:25:39.000Z</time>
      </trkpt>
      <trkpt lat="45.23208" lon="6.36722">
        <ele>1697.7</ele>
        <time>2020-08-22T13:25:48.000Z</time>
      </trkpt>
      <trkpt lat="45.23214" lon="6.36733">
        <ele>1699.9</ele>
        <time>2020-08-22T13:26:01.000Z</time>
      </trkpt>
      <trkpt lat="45.23215" lon="6.36734">
        <ele>1700.2</ele>
        <time>2020-08-22T13:26:03.000Z</time>
      </trkpt>
      <trkpt lat="45.2322" lon="6.3674">
        <ele>1701.8</ele>
        <time>2020-08-22T13:26:12.000Z</time>
      </trkpt>
      <trkpt lat="45.23221" lon="6.36742">
        <ele>1702.3</ele>
        <time>2020-08-22T13:26:15.000Z</time>
      </trkpt>
      <trkpt lat="45.23224" lon="6.36747">
        <ele>1703.5</ele>
        <time>2020-08-22T13:26:21.000Z</time>
      </trkpt>
      <trkpt lat="45.23227" lon="6.36752">
        <ele>1704.5</ele>
        <time>2020-08-22T13:26:28.000Z</time>
      </trkpt>
      <trkpt lat="45.23227" lon="6.36752">
        <ele>1704.5</ele>
        <time>2020-08-22T13:26:29.000Z</time>
      </trkpt>
      <trkpt lat="45.23228" lon="6.36755">
        <ele>1705.1</ele>
        <time>2020-08-22T13:26:33.000Z</time>
      </trkpt>
      <trkpt lat="45.23229" lon="6.36757">
        <ele>1705.6</ele>
        <time>2020-08-22T13:26:38.000Z</time>
      </trkpt>
      <trkpt lat="45.23229" lon="6.36758">
        <ele>1705.7</ele>
        <time>2020-08-22T13:26:39.000Z</time>
      </trkpt>
      <trkpt lat="45.23233" lon="6.36767">
        <ele>1707.5</ele>
        <time>2020-08-22T13:26:56.000Z</time>
      </trkpt>
      <trkpt lat="45.23235" lon="6.3677">
        <ele>1708.2</ele>
        <time>2020-08-22T13:27:02.000Z</time>
      </trkpt>
      <trkpt lat="45.2324" lon="6.36772">
        <ele>1709.5</ele>
        <time>2020-08-22T13:27:10.000Z</time>
      </trkpt>
      <trkpt lat="45.23241" lon="6.36772">
        <ele>1709.6</ele>
        <time>2020-08-22T13:27:11.000Z</time>
      </trkpt>
      <trkpt lat="45.23243" lon="6.36779">
        <ele>1710.8</ele>
        <time>2020-08-22T13:27:21.000Z</time>
      </trkpt>
      <trkpt lat="45.23243" lon="6.3678">
        <ele>1711</ele>
        <time>2020-08-22T13:27:23.000Z</time>
      </trkpt>
      <trkpt lat="45.23247" lon="6.36781">
        <ele>1711.9</ele>
        <time>2020-08-22T13:27:28.000Z</time>
      </trkpt>
      <trkpt lat="45.23252" lon="6.36787">
        <ele>1713.5</ele>
        <time>2020-08-22T13:27:34.000Z</time>
      </trkpt>
      <trkpt lat="45.23253" lon="6.36789">
        <ele>1713.9</ele>
        <time>2020-08-22T13:27:36.000Z</time>
      </trkpt>
      <trkpt lat="45.23257" lon="6.36792">
        <ele>1715</ele>
        <time>2020-08-22T13:27:42.000Z</time>
      </trkpt>
      <trkpt lat="45.2326" lon="6.36794">
        <ele>1715.8</ele>
        <time>2020-08-22T13:27:47.000Z</time>
      </trkpt>
      <trkpt lat="45.23261" lon="6.36794">
        <ele>1716</ele>
        <time>2020-08-22T13:27:48.000Z</time>
      </trkpt>
      <trkpt lat="45.23265" lon="6.36799">
        <ele>1717.3</ele>
        <time>2020-08-22T13:27:57.000Z</time>
      </trkpt>
      <trkpt lat="45.23268" lon="6.36799">
        <ele>1717.9</ele>
        <time>2020-08-22T13:28:00.000Z</time>
      </trkpt>
      <trkpt lat="45.23269" lon="6.368">
        <ele>1718.4</ele>
        <time>2020-08-22T13:28:03.000Z</time>
      </trkpt>
      <trkpt lat="45.23274" lon="6.36802">
        <ele>1719.5</ele>
        <time>2020-08-22T13:28:10.000Z</time>
      </trkpt>
      <trkpt lat="45.23278" lon="6.36805">
        <ele>1720.6</ele>
        <time>2020-08-22T13:28:17.000Z</time>
      </trkpt>
      <trkpt lat="45.23279" lon="6.36806">
        <ele>1720.9</ele>
        <time>2020-08-22T13:28:19.000Z</time>
      </trkpt>
      <trkpt lat="45.23286" lon="6.3681">
        <ele>1722.7</ele>
        <time>2020-08-22T13:28:28.000Z</time>
      </trkpt>
      <trkpt lat="45.23287" lon="6.36812">
        <ele>1723.2</ele>
        <time>2020-08-22T13:28:30.000Z</time>
      </trkpt>
      <trkpt lat="45.23294" lon="6.36819">
        <ele>1725.1</ele>
        <time>2020-08-22T13:28:40.000Z</time>
      </trkpt>
      <trkpt lat="45.23295" lon="6.3682">
        <ele>1725.4</ele>
        <time>2020-08-22T13:28:41.000Z</time>
      </trkpt>
      <trkpt lat="45.23299" lon="6.36823">
        <ele>1726.6</ele>
        <time>2020-08-22T13:28:46.000Z</time>
      </trkpt>
      <trkpt lat="45.23305" lon="6.36824">
        <ele>1728</ele>
        <time>2020-08-22T13:28:53.000Z</time>
      </trkpt>
      <trkpt lat="45.2331" lon="6.36829">
        <ele>1729.5</ele>
        <time>2020-08-22T13:29:01.000Z</time>
      </trkpt>
      <trkpt lat="45.23314" lon="6.36832">
        <ele>1730.7</ele>
        <time>2020-08-22T13:29:06.000Z</time>
      </trkpt>
      <trkpt lat="45.23315" lon="6.36831">
        <ele>1730.8</ele>
        <time>2020-08-22T13:29:07.000Z</time>
      </trkpt>
      <trkpt lat="45.23321" lon="6.36832">
        <ele>1732.2</ele>
        <time>2020-08-22T13:29:16.000Z</time>
      </trkpt>
      <trkpt lat="45.23322" lon="6.36833">
        <ele>1732.5</ele>
        <time>2020-08-22T13:29:17.000Z</time>
      </trkpt>
      <trkpt lat="45.23326" lon="6.36833">
        <ele>1733.5</ele>
        <time>2020-08-22T13:29:22.000Z</time>
      </trkpt>
      <trkpt lat="45.23332" lon="6.36832">
        <ele>1735</ele>
        <time>2020-08-22T13:29:31.000Z</time>
      </trkpt>
      <trkpt lat="45.23334" lon="6.36832">
        <ele>1735.5</ele>
        <time>2020-08-22T13:29:33.000Z</time>
      </trkpt>
      <trkpt lat="45.23339" lon="6.36831">
        <ele>1736.8</ele>
        <time>2020-08-22T13:29:39.000Z</time>
      </trkpt>
      <trkpt lat="45.23345" lon="6.36829">
        <ele>1738.2</ele>
        <time>2020-08-22T13:29:44.000Z</time>
      </trkpt>
      <trkpt lat="45.2335" lon="6.36829">
        <ele>1739.4</ele>
        <time>2020-08-22T13:29:49.000Z</time>
      </trkpt>
      <trkpt lat="45.23352" lon="6.36829">
        <ele>1739.9</ele>
        <time>2020-08-22T13:29:51.000Z</time>
      </trkpt>
      <trkpt lat="45.2336" lon="6.3683">
        <ele>1741.8</ele>
        <time>2020-08-22T13:29:59.000Z</time>
      </trkpt>
      <trkpt lat="45.23364" lon="6.36831">
        <ele>1742.9</ele>
        <time>2020-08-22T13:30:05.000Z</time>
      </trkpt>
      <trkpt lat="45.23371" lon="6.3683">
        <ele>1744.6</ele>
        <time>2020-08-22T13:30:14.000Z</time>
      </trkpt>
      <trkpt lat="45.23376" lon="6.3683">
        <ele>1745.9</ele>
        <time>2020-08-22T13:30:20.000Z</time>
      </trkpt>
      <trkpt lat="45.23378" lon="6.3683">
        <ele>1746.2</ele>
        <time>2020-08-22T13:30:22.000Z</time>
      </trkpt>
      <trkpt lat="45.23383" lon="6.36832">
        <ele>1747.5</ele>
        <time>2020-08-22T13:30:28.000Z</time>
      </trkpt>
      <trkpt lat="45.23387" lon="6.36833">
        <ele>1748.4</ele>
        <time>2020-08-22T13:30:32.000Z</time>
      </trkpt>
      <trkpt lat="45.2339" lon="6.36832">
        <ele>1749.3</ele>
        <time>2020-08-22T13:30:36.000Z</time>
      </trkpt>
      <trkpt lat="45.23391" lon="6.36833">
        <ele>1749.5</ele>
        <time>2020-08-22T13:30:37.000Z</time>
      </trkpt>
      <trkpt lat="45.23395" lon="6.36833">
        <ele>1750.5</ele>
        <time>2020-08-22T13:30:42.000Z</time>
      </trkpt>
      <trkpt lat="45.234" lon="6.36834">
        <ele>1751.7</ele>
        <time>2020-08-22T13:30:48.000Z</time>
      </trkpt>
      <trkpt lat="45.23403" lon="6.36833">
        <ele>1752.5</ele>
        <time>2020-08-22T13:30:53.000Z</time>
      </trkpt>
      <trkpt lat="45.23413" lon="6.36832">
        <ele>1754.9</ele>
        <time>2020-08-22T13:31:01.000Z</time>
      </trkpt>
      <trkpt lat="45.23418" lon="6.36831">
        <ele>1756.1</ele>
        <time>2020-08-22T13:31:06.000Z</time>
      </trkpt>
      <trkpt lat="45.23422" lon="6.36833">
        <ele>1757.2</ele>
        <time>2020-08-22T13:31:12.000Z</time>
      </trkpt>
      <trkpt lat="45.23428" lon="6.36835">
        <ele>1758.6</ele>
        <time>2020-08-22T13:31:16.000Z</time>
      </trkpt>
      <trkpt lat="45.23429" lon="6.36835">
        <ele>1758.8</ele>
        <time>2020-08-22T13:31:17.000Z</time>
      </trkpt>
      <trkpt lat="45.23432" lon="6.36835">
        <ele>1759.6</ele>
        <time>2020-08-22T13:31:20.000Z</time>
      </trkpt>
      <trkpt lat="45.23435" lon="6.36834">
        <ele>1760.3</ele>
        <time>2020-08-22T13:31:23.000Z</time>
      </trkpt>
      <trkpt lat="45.23438" lon="6.36833">
        <ele>1761.2</ele>
        <time>2020-08-22T13:31:27.000Z</time>
      </trkpt>
      <trkpt lat="45.23441" lon="6.36833">
        <ele>1761.9</ele>
        <time>2020-08-22T13:31:31.000Z</time>
      </trkpt>
      <trkpt lat="45.23444" lon="6.36833">
        <ele>1762.6</ele>
        <time>2020-08-22T13:31:34.000Z</time>
      </trkpt>
      <trkpt lat="45.23445" lon="6.36833">
        <ele>1762.8</ele>
        <time>2020-08-22T13:31:35.000Z</time>
      </trkpt>
      <trkpt lat="45.23448" lon="6.36833">
        <ele>1763.6</ele>
        <time>2020-08-22T13:31:38.000Z</time>
      </trkpt>
      <trkpt lat="45.23453" lon="6.36832">
        <ele>1764.7</ele>
        <time>2020-08-22T13:31:43.000Z</time>
      </trkpt>
      <trkpt lat="45.23459" lon="6.36827">
        <ele>1766.3</ele>
        <time>2020-08-22T13:31:51.000Z</time>
      </trkpt>
      <trkpt lat="45.2346" lon="6.36827">
        <ele>1766.6</ele>
        <time>2020-08-22T13:31:52.000Z</time>
      </trkpt>
      <trkpt lat="45.23463" lon="6.36822">
        <ele>1767.8</ele>
        <time>2020-08-22T13:32:01.000Z</time>
      </trkpt>
      <trkpt lat="45.23465" lon="6.3682">
        <ele>1768.4</ele>
        <time>2020-08-22T13:32:03.000Z</time>
      </trkpt>
      <trkpt lat="45.23471" lon="6.36816">
        <ele>1769.9</ele>
        <time>2020-08-22T13:32:08.000Z</time>
      </trkpt>
      <trkpt lat="45.23475" lon="6.36814">
        <ele>1770.8</ele>
        <time>2020-08-22T13:32:12.000Z</time>
      </trkpt>
      <trkpt lat="45.23476" lon="6.36813">
        <ele>1771.3</ele>
        <time>2020-08-22T13:32:14.000Z</time>
      </trkpt>
      <trkpt lat="45.23481" lon="6.36812">
        <ele>1772.4</ele>
        <time>2020-08-22T13:32:19.000Z</time>
      </trkpt>
      <trkpt lat="45.23483" lon="6.3681">
        <ele>1773.1</ele>
        <time>2020-08-22T13:32:23.000Z</time>
      </trkpt>
      <trkpt lat="45.23485" lon="6.3681">
        <ele>1773.5</ele>
        <time>2020-08-22T13:32:25.000Z</time>
      </trkpt>
      <trkpt lat="45.23489" lon="6.36812">
        <ele>1774.5</ele>
        <time>2020-08-22T13:32:29.000Z</time>
      </trkpt>
      <trkpt lat="45.23491" lon="6.36813">
        <ele>1775.1</ele>
        <time>2020-08-22T13:32:33.000Z</time>
      </trkpt>
      <trkpt lat="45.23495" lon="6.36813">
        <ele>1776</ele>
        <time>2020-08-22T13:32:37.000Z</time>
      </trkpt>
      <trkpt lat="45.23496" lon="6.36813">
        <ele>1776.4</ele>
        <time>2020-08-22T13:32:38.000Z</time>
      </trkpt>
      <trkpt lat="45.235" lon="6.36813">
        <ele>1777.1</ele>
        <time>2020-08-22T13:32:41.000Z</time>
      </trkpt>
      <trkpt lat="45.23503" lon="6.36812">
        <ele>1778</ele>
        <time>2020-08-22T13:32:45.000Z</time>
      </trkpt>
      <trkpt lat="45.23506" lon="6.36812">
        <ele>1778.6</ele>
        <time>2020-08-22T13:32:47.000Z</time>
      </trkpt>
      <trkpt lat="45.23511" lon="6.36813">
        <ele>1779.9</ele>
        <time>2020-08-22T13:32:51.000Z</time>
      </trkpt>
      <trkpt lat="45.23512" lon="6.36813">
        <ele>1780.2</ele>
        <time>2020-08-22T13:32:52.000Z</time>
      </trkpt>
      <trkpt lat="45.23521" lon="6.36816">
        <ele>1782.3</ele>
        <time>2020-08-22T13:32:59.000Z</time>
      </trkpt>
      <trkpt lat="45.23524" lon="6.36816">
        <ele>1783.1</ele>
        <time>2020-08-22T13:33:02.000Z</time>
      </trkpt>
      <trkpt lat="45.23526" lon="6.36816">
        <ele>1783.7</ele>
        <time>2020-08-22T13:33:04.000Z</time>
      </trkpt>
      <trkpt lat="45.23527" lon="6.36815">
        <ele>1783.9</ele>
        <time>2020-08-22T13:33:05.000Z</time>
      </trkpt>
      <trkpt lat="45.23535" lon="6.36819">
        <ele>1785.9</ele>
        <time>2020-08-22T13:33:11.000Z</time>
      </trkpt>
      <trkpt lat="45.23539" lon="6.36819">
        <ele>1786.9</ele>
        <time>2020-08-22T13:33:14.000Z</time>
      </trkpt>
      <trkpt lat="45.2354" lon="6.36819">
        <ele>1787.1</ele>
        <time>2020-08-22T13:33:15.000Z</time>
      </trkpt>
      <trkpt lat="45.2355" lon="6.36822">
        <ele>1789.6</ele>
        <time>2020-08-22T13:33:25.000Z</time>
      </trkpt>
      <trkpt lat="45.23551" lon="6.36822">
        <ele>1789.9</ele>
        <time>2020-08-22T13:33:27.000Z</time>
      </trkpt>
      <trkpt lat="45.2356" lon="6.36825">
        <ele>1792.1</ele>
        <time>2020-08-22T13:33:42.000Z</time>
      </trkpt>
      <trkpt lat="45.23564" lon="6.36827">
        <ele>1793.2</ele>
        <time>2020-08-22T13:33:47.000Z</time>
      </trkpt>
      <trkpt lat="45.23568" lon="6.36828">
        <ele>1794.1</ele>
        <time>2020-08-22T13:33:52.000Z</time>
      </trkpt>
      <trkpt lat="45.2357" lon="6.36828">
        <ele>1794.6</ele>
        <time>2020-08-22T13:33:55.000Z</time>
      </trkpt>
      <trkpt lat="45.23574" lon="6.36828">
        <ele>1795.7</ele>
        <time>2020-08-22T13:34:02.000Z</time>
      </trkpt>
      <trkpt lat="45.23579" lon="6.36827">
        <ele>1796.9</ele>
        <time>2020-08-22T13:34:11.000Z</time>
      </trkpt>
      <trkpt lat="45.23582" lon="6.3683">
        <ele>1797.7</ele>
        <time>2020-08-22T13:34:21.000Z</time>
      </trkpt>
      <trkpt lat="45.23583" lon="6.36832">
        <ele>1798.2</ele>
        <time>2020-08-22T13:34:27.000Z</time>
      </trkpt>
      <trkpt lat="45.23585" lon="6.36835">
        <ele>1798.9</ele>
        <time>2020-08-22T13:34:32.000Z</time>
      </trkpt>
      <trkpt lat="45.23586" lon="6.36836">
        <ele>1799.2</ele>
        <time>2020-08-22T13:34:34.000Z</time>
      </trkpt>
      <trkpt lat="45.23588" lon="6.3684">
        <ele>1800.1</ele>
        <time>2020-08-22T13:34:39.000Z</time>
      </trkpt>
      <trkpt lat="45.23589" lon="6.36843">
        <ele>1800.7</ele>
        <time>2020-08-22T13:34:44.000Z</time>
      </trkpt>
      <trkpt lat="45.2359" lon="6.36845">
        <ele>1801</ele>
        <time>2020-08-22T13:34:45.000Z</time>
      </trkpt>
      <trkpt lat="45.23591" lon="6.36849">
        <ele>1801.7</ele>
        <time>2020-08-22T13:34:48.000Z</time>
      </trkpt>
      <trkpt lat="45.2359" lon="6.36855">
        <ele>1802.7</ele>
        <time>2020-08-22T13:34:52.000Z</time>
      </trkpt>
      <trkpt lat="45.23589" lon="6.36858">
        <ele>1803.4</ele>
        <time>2020-08-22T13:34:56.000Z</time>
      </trkpt>
      <trkpt lat="45.23588" lon="6.36859">
        <ele>1803.6</ele>
        <time>2020-08-22T13:34:57.000Z</time>
      </trkpt>
      <trkpt lat="45.23586" lon="6.36862">
        <ele>1804.3</ele>
        <time>2020-08-22T13:35:02.000Z</time>
      </trkpt>
      <trkpt lat="45.23585" lon="6.36867">
        <ele>1805.2</ele>
        <time>2020-08-22T13:35:08.000Z</time>
      </trkpt>
      <trkpt lat="45.23588" lon="6.36874">
        <ele>1806.5</ele>
        <time>2020-08-22T13:35:18.000Z</time>
      </trkpt>
      <trkpt lat="45.2359" lon="6.36877">
        <ele>1807.2</ele>
        <time>2020-08-22T13:35:22.000Z</time>
      </trkpt>
      <trkpt lat="45.2359" lon="6.36878">
        <ele>1807.4</ele>
        <time>2020-08-22T13:35:24.000Z</time>
      </trkpt>
      <trkpt lat="45.23591" lon="6.3688">
        <ele>1807.8</ele>
        <time>2020-08-22T13:35:26.000Z</time>
      </trkpt>
      <trkpt lat="45.2359" lon="6.36885">
        <ele>1808.6</ele>
        <time>2020-08-22T13:35:30.000Z</time>
      </trkpt>
      <trkpt lat="45.23589" lon="6.36887">
        <ele>1809.1</ele>
        <time>2020-08-22T13:35:33.000Z</time>
      </trkpt>
      <trkpt lat="45.23587" lon="6.36891">
        <ele>1809.9</ele>
        <time>2020-08-22T13:35:37.000Z</time>
      </trkpt>
      <trkpt lat="45.23586" lon="6.36896">
        <ele>1810.8</ele>
        <time>2020-08-22T13:35:41.000Z</time>
      </trkpt>
      <trkpt lat="45.23586" lon="6.36897">
        <ele>1811</ele>
        <time>2020-08-22T13:35:42.000Z</time>
      </trkpt>
      <trkpt lat="45.23582" lon="6.369">
        <ele>1812</ele>
        <time>2020-08-22T13:35:48.000Z</time>
      </trkpt>
      <trkpt lat="45.2358" lon="6.36902">
        <ele>1812.6</ele>
        <time>2020-08-22T13:35:51.000Z</time>
      </trkpt>
      <trkpt lat="45.23578" lon="6.36905">
        <ele>1813.2</ele>
        <time>2020-08-22T13:35:54.000Z</time>
      </trkpt>
      <trkpt lat="45.23576" lon="6.36908">
        <ele>1814.1</ele>
        <time>2020-08-22T13:35:58.000Z</time>
      </trkpt>
      <trkpt lat="45.23575" lon="6.36911">
        <ele>1814.6</ele>
        <time>2020-08-22T13:36:01.000Z</time>
      </trkpt>
      <trkpt lat="45.23569" lon="6.36916">
        <ele>1816.2</ele>
        <time>2020-08-22T13:36:10.000Z</time>
      </trkpt>
      <trkpt lat="45.23569" lon="6.36918">
        <ele>1816.4</ele>
        <time>2020-08-22T13:36:11.000Z</time>
      </trkpt>
      <trkpt lat="45.23563" lon="6.36924">
        <ele>1818.3</ele>
        <time>2020-08-22T13:36:20.000Z</time>
      </trkpt>
      <trkpt lat="45.23555" lon="6.36935">
        <ele>1820.9</ele>
        <time>2020-08-22T13:36:32.000Z</time>
      </trkpt>
      <trkpt lat="45.23551" lon="6.36947">
        <ele>1823.1</ele>
        <time>2020-08-22T13:36:43.000Z</time>
      </trkpt>
      <trkpt lat="45.23549" lon="6.36955">
        <ele>1824.7</ele>
        <time>2020-08-22T13:36:52.000Z</time>
      </trkpt>
      <trkpt lat="45.23547" lon="6.36959">
        <ele>1825.4</ele>
        <time>2020-08-22T13:36:56.000Z</time>
      </trkpt>
      <trkpt lat="45.23545" lon="6.36967">
        <ele>1826.9</ele>
        <time>2020-08-22T13:37:06.000Z</time>
      </trkpt>
      <trkpt lat="45.23544" lon="6.36974">
        <ele>1828.1</ele>
        <time>2020-08-22T13:37:14.000Z</time>
      </trkpt>
      <trkpt lat="45.23545" lon="6.36975">
        <ele>1828.4</ele>
        <time>2020-08-22T13:37:16.000Z</time>
      </trkpt>
      <trkpt lat="45.23548" lon="6.36978">
        <ele>1829.2</ele>
        <time>2020-08-22T13:37:20.000Z</time>
      </trkpt>
      <trkpt lat="45.23549" lon="6.36979">
        <ele>1829.4</ele>
        <time>2020-08-22T13:37:22.000Z</time>
      </trkpt>
      <trkpt lat="45.23551" lon="6.36981">
        <ele>1830.2</ele>
        <time>2020-08-22T13:37:26.000Z</time>
      </trkpt>
      <trkpt lat="45.23554" lon="6.36982">
        <ele>1830.9</ele>
        <time>2020-08-22T13:37:30.000Z</time>
      </trkpt>
      <trkpt lat="45.23556" lon="6.36983">
        <ele>1831.3</ele>
        <time>2020-08-22T13:37:32.000Z</time>
      </trkpt>
      <trkpt lat="45.23557" lon="6.36983">
        <ele>1831.5</ele>
        <time>2020-08-22T13:37:33.000Z</time>
      </trkpt>
      <trkpt lat="45.23557" lon="6.36984">
        <ele>1831.7</ele>
        <time>2020-08-22T13:37:34.000Z</time>
      </trkpt>
      <trkpt lat="45.2356" lon="6.36986">
        <ele>1832.4</ele>
        <time>2020-08-22T13:37:38.000Z</time>
      </trkpt>
      <trkpt lat="45.23562" lon="6.36987">
        <ele>1833</ele>
        <time>2020-08-22T13:37:41.000Z</time>
      </trkpt>
      <trkpt lat="45.23563" lon="6.36988">
        <ele>1833.2</ele>
        <time>2020-08-22T13:37:42.000Z</time>
      </trkpt>
      <trkpt lat="45.23569" lon="6.36993">
        <ele>1834.9</ele>
        <time>2020-08-22T13:37:52.000Z</time>
      </trkpt>
      <trkpt lat="45.2357" lon="6.36994">
        <ele>1835.2</ele>
        <time>2020-08-22T13:37:54.000Z</time>
      </trkpt>
      <trkpt lat="45.23575" lon="6.37">
        <ele>1836.8</ele>
        <time>2020-08-22T13:38:02.000Z</time>
      </trkpt>
      <trkpt lat="45.23583" lon="6.37008">
        <ele>1839.1</ele>
        <time>2020-08-22T13:38:14.000Z</time>
      </trkpt>
      <trkpt lat="45.23585" lon="6.3701">
        <ele>1839.7</ele>
        <time>2020-08-22T13:38:16.000Z</time>
      </trkpt>
      <trkpt lat="45.23589" lon="6.37015">
        <ele>1841.1</ele>
        <time>2020-08-22T13:38:23.000Z</time>
      </trkpt>
      <trkpt lat="45.23591" lon="6.37016">
        <ele>1841.5</ele>
        <time>2020-08-22T13:38:26.000Z</time>
      </trkpt>
      <trkpt lat="45.23597" lon="6.37023">
        <ele>1843.4</ele>
        <time>2020-08-22T13:38:37.000Z</time>
      </trkpt>
      <trkpt lat="45.23602" lon="6.37026">
        <ele>1844.7</ele>
        <time>2020-08-22T13:38:45.000Z</time>
      </trkpt>
      <trkpt lat="45.23603" lon="6.37027">
        <ele>1845.1</ele>
        <time>2020-08-22T13:38:47.000Z</time>
      </trkpt>
      <trkpt lat="45.23609" lon="6.37033">
        <ele>1846.9</ele>
        <time>2020-08-22T13:39:00.000Z</time>
      </trkpt>
      <trkpt lat="45.2361" lon="6.37034">
        <ele>1847.1</ele>
        <time>2020-08-22T13:39:02.000Z</time>
      </trkpt>
      <trkpt lat="45.23615" lon="6.37036">
        <ele>1848.3</ele>
        <time>2020-08-22T13:39:10.000Z</time>
      </trkpt>
      <trkpt lat="45.23615" lon="6.37036">
        <ele>1848.5</ele>
        <time>2020-08-22T13:39:12.000Z</time>
      </trkpt>
      <trkpt lat="45.23616" lon="6.37036">
        <ele>1848.6</ele>
        <time>2020-08-22T13:39:14.000Z</time>
      </trkpt>
      <trkpt lat="45.23618" lon="6.37038">
        <ele>1849.3</ele>
        <time>2020-08-22T13:39:18.000Z</time>
      </trkpt>
      <trkpt lat="45.23621" lon="6.37039">
        <ele>1849.9</ele>
        <time>2020-08-22T13:39:21.000Z</time>
      </trkpt>
      <trkpt lat="45.23623" lon="6.3704">
        <ele>1850.5</ele>
        <time>2020-08-22T13:39:25.000Z</time>
      </trkpt>
      <trkpt lat="45.23624" lon="6.3704">
        <ele>1850.6</ele>
        <time>2020-08-22T13:39:26.000Z</time>
      </trkpt>
      <trkpt lat="45.23626" lon="6.3704">
        <ele>1851.1</ele>
        <time>2020-08-22T13:39:30.000Z</time>
      </trkpt>
      <trkpt lat="45.23628" lon="6.37041">
        <ele>1851.6</ele>
        <time>2020-08-22T13:39:34.000Z</time>
      </trkpt>
      <trkpt lat="45.23629" lon="6.37043">
        <ele>1852</ele>
        <time>2020-08-22T13:39:39.000Z</time>
      </trkpt>
      <trkpt lat="45.23631" lon="6.37048">
        <ele>1853</ele>
        <time>2020-08-22T13:39:45.000Z</time>
      </trkpt>
      <trkpt lat="45.23634" lon="6.3705">
        <ele>1853.8</ele>
        <time>2020-08-22T13:39:49.000Z</time>
      </trkpt>
      <trkpt lat="45.23635" lon="6.3705">
        <ele>1854</ele>
        <time>2020-08-22T13:39:50.000Z</time>
      </trkpt>
      <trkpt lat="45.23636" lon="6.37051">
        <ele>1854.3</ele>
        <time>2020-08-22T13:39:52.000Z</time>
      </trkpt>
      <trkpt lat="45.2364" lon="6.37056">
        <ele>1855.5</ele>
        <time>2020-08-22T13:40:00.000Z</time>
      </trkpt>
      <trkpt lat="45.2364" lon="6.37057">
        <ele>1855.8</ele>
        <time>2020-08-22T13:40:02.000Z</time>
      </trkpt>
      <trkpt lat="45.23643" lon="6.3706">
        <ele>1856.6</ele>
        <time>2020-08-22T13:40:05.000Z</time>
      </trkpt>
      <trkpt lat="45.23645" lon="6.37061">
        <ele>1857.1</ele>
        <time>2020-08-22T13:40:08.000Z</time>
      </trkpt>
      <trkpt lat="45.23646" lon="6.37061">
        <ele>1857.4</ele>
        <time>2020-08-22T13:40:10.000Z</time>
      </trkpt>
      <trkpt lat="45.23648" lon="6.37062">
        <ele>1857.8</ele>
        <time>2020-08-22T13:40:12.000Z</time>
      </trkpt>
      <trkpt lat="45.23648" lon="6.37062">
        <ele>1857.9</ele>
        <time>2020-08-22T13:40:13.000Z</time>
      </trkpt>
      <trkpt lat="45.23649" lon="6.37064">
        <ele>1858.3</ele>
        <time>2020-08-22T13:40:15.000Z</time>
      </trkpt>
      <trkpt lat="45.23652" lon="6.37065">
        <ele>1859</ele>
        <time>2020-08-22T13:40:18.000Z</time>
      </trkpt>
      <trkpt lat="45.23654" lon="6.37064">
        <ele>1859.4</ele>
        <time>2020-08-22T13:40:20.000Z</time>
      </trkpt>
      <trkpt lat="45.23656" lon="6.37065">
        <ele>1860</ele>
        <time>2020-08-22T13:40:23.000Z</time>
      </trkpt>
      <trkpt lat="45.23658" lon="6.37066">
        <ele>1860.5</ele>
        <time>2020-08-22T13:40:25.000Z</time>
      </trkpt>
      <trkpt lat="45.23659" lon="6.37066">
        <ele>1860.7</ele>
        <time>2020-08-22T13:40:26.000Z</time>
      </trkpt>
      <trkpt lat="45.23661" lon="6.37068">
        <ele>1861.3</ele>
        <time>2020-08-22T13:40:28.000Z</time>
      </trkpt>
      <trkpt lat="45.23664" lon="6.37069">
        <ele>1862</ele>
        <time>2020-08-22T13:40:30.000Z</time>
      </trkpt>
      <trkpt lat="45.23666" lon="6.3707">
        <ele>1862.4</ele>
        <time>2020-08-22T13:40:32.000Z</time>
      </trkpt>
      <trkpt lat="45.23667" lon="6.3707">
        <ele>1862.8</ele>
        <time>2020-08-22T13:40:34.000Z</time>
      </trkpt>
      <trkpt lat="45.23669" lon="6.37071">
        <ele>1863.3</ele>
        <time>2020-08-22T13:40:36.000Z</time>
      </trkpt>
      <trkpt lat="45.2367" lon="6.37072">
        <ele>1863.6</ele>
        <time>2020-08-22T13:40:38.000Z</time>
      </trkpt>
      <trkpt lat="45.23673" lon="6.37073">
        <ele>1864.3</ele>
        <time>2020-08-22T13:40:41.000Z</time>
      </trkpt>
      <trkpt lat="45.23675" lon="6.37073">
        <ele>1864.8</ele>
        <time>2020-08-22T13:40:44.000Z</time>
      </trkpt>
      <trkpt lat="45.23676" lon="6.37072">
        <ele>1865</ele>
        <time>2020-08-22T13:40:45.000Z</time>
      </trkpt>
      <trkpt lat="45.2368" lon="6.37073">
        <ele>1866</ele>
        <time>2020-08-22T13:40:50.000Z</time>
      </trkpt>
      <trkpt lat="45.23685" lon="6.37072">
        <ele>1867.3</ele>
        <time>2020-08-22T13:40:56.000Z</time>
      </trkpt>
      <trkpt lat="45.23687" lon="6.37072">
        <ele>1867.8</ele>
        <time>2020-08-22T13:40:58.000Z</time>
      </trkpt>
      <trkpt lat="45.23689" lon="6.37072">
        <ele>1868.4</ele>
        <time>2020-08-22T13:41:00.000Z</time>
      </trkpt>
      <trkpt lat="45.23693" lon="6.37071">
        <ele>1869.1</ele>
        <time>2020-08-22T13:41:04.000Z</time>
      </trkpt>
      <trkpt lat="45.23696" lon="6.37072">
        <ele>1870</ele>
        <time>2020-08-22T13:41:10.000Z</time>
      </trkpt>
      <trkpt lat="45.23696" lon="6.37072">
        <ele>1870.1</ele>
        <time>2020-08-22T13:41:11.000Z</time>
      </trkpt>
      <trkpt lat="45.23704" lon="6.37076">
        <ele>1872.1</ele>
        <time>2020-08-22T13:41:24.000Z</time>
      </trkpt>
      <trkpt lat="45.23714" lon="6.37082">
        <ele>1874.7</ele>
        <time>2020-08-22T13:41:38.000Z</time>
      </trkpt>
      <trkpt lat="45.23721" lon="6.37091">
        <ele>1877</ele>
        <time>2020-08-22T13:41:50.000Z</time>
      </trkpt>
      <trkpt lat="45.23722" lon="6.37092">
        <ele>1877.2</ele>
        <time>2020-08-22T13:41:51.000Z</time>
      </trkpt>
      <trkpt lat="45.23726" lon="6.37096">
        <ele>1878.4</ele>
        <time>2020-08-22T13:41:57.000Z</time>
      </trkpt>
      <trkpt lat="45.23728" lon="6.371">
        <ele>1879.3</ele>
        <time>2020-08-22T13:42:02.000Z</time>
      </trkpt>
      <trkpt lat="45.23729" lon="6.37103">
        <ele>1879.8</ele>
        <time>2020-08-22T13:42:04.000Z</time>
      </trkpt>
      <trkpt lat="45.23729" lon="6.37104">
        <ele>1880</ele>
        <time>2020-08-22T13:42:05.000Z</time>
      </trkpt>
      <trkpt lat="45.23729" lon="6.37108">
        <ele>1880.7</ele>
        <time>2020-08-22T13:42:10.000Z</time>
      </trkpt>
      <trkpt lat="45.23729" lon="6.3711">
        <ele>1881.1</ele>
        <time>2020-08-22T13:42:12.000Z</time>
      </trkpt>
      <trkpt lat="45.23728" lon="6.37111">
        <ele>1881.3</ele>
        <time>2020-08-22T13:42:14.000Z</time>
      </trkpt>
      <trkpt lat="45.23728" lon="6.37112">
        <ele>1881.5</ele>
        <time>2020-08-22T13:42:15.000Z</time>
      </trkpt>
      <trkpt lat="45.23727" lon="6.37113">
        <ele>1881.8</ele>
        <time>2020-08-22T13:42:17.000Z</time>
      </trkpt>
      <trkpt lat="45.23724" lon="6.37112">
        <ele>1882.5</ele>
        <time>2020-08-22T13:42:21.000Z</time>
      </trkpt>
      <trkpt lat="45.23722" lon="6.37112">
        <ele>1882.9</ele>
        <time>2020-08-22T13:42:24.000Z</time>
      </trkpt>
      <trkpt lat="45.23721" lon="6.37115">
        <ele>1883.5</ele>
        <time>2020-08-22T13:42:28.000Z</time>
      </trkpt>
      <trkpt lat="45.23722" lon="6.37116">
        <ele>1883.7</ele>
        <time>2020-08-22T13:42:29.000Z</time>
      </trkpt>
      <trkpt lat="45.23723" lon="6.3712">
        <ele>1884.4</ele>
        <time>2020-08-22T13:42:33.000Z</time>
      </trkpt>
      <trkpt lat="45.23727" lon="6.37128">
        <ele>1886</ele>
        <time>2020-08-22T13:42:40.000Z</time>
      </trkpt>
      <trkpt lat="45.23729" lon="6.3713">
        <ele>1886.6</ele>
        <time>2020-08-22T13:42:43.000Z</time>
      </trkpt>
      <trkpt lat="45.2373" lon="6.37131">
        <ele>1886.9</ele>
        <time>2020-08-22T13:42:46.000Z</time>
      </trkpt>
      <trkpt lat="45.23731" lon="6.37135">
        <ele>1887.6</ele>
        <time>2020-08-22T13:42:50.000Z</time>
      </trkpt>
      <trkpt lat="45.23732" lon="6.37136">
        <ele>1887.9</ele>
        <time>2020-08-22T13:42:52.000Z</time>
      </trkpt>
      <trkpt lat="45.23732" lon="6.37137">
        <ele>1888.1</ele>
        <time>2020-08-22T13:42:54.000Z</time>
      </trkpt>
      <trkpt lat="45.23734" lon="6.37139">
        <ele>1888.7</ele>
        <time>2020-08-22T13:42:59.000Z</time>
      </trkpt>
      <trkpt lat="45.23727" lon="6.37185">
        <ele>1913</ele>
      </trkpt>
      <trkpt lat="45.23727" lon="6.37185">
        <ele>1913</ele>
      </trkpt>
      <trkpt lat="45.23738" lon="6.37181">
        <ele>1913</ele>
      </trkpt>
      <trkpt lat="45.23744" lon="6.37169">
        <ele>1913</ele>
      </trkpt>
      <trkpt lat="45.2375" lon="6.3718">
        <ele>1913</ele>
      </trkpt>
      <trkpt lat="45.23718" lon="6.37257">
        <ele>1902</ele>
      </trkpt>
      <trkpt lat="45.23652" lon="6.37344">
        <ele>1917</ele>
      </trkpt>
      <trkpt lat="45.23625" lon="6.37389">
        <ele>1883</ele>
      </trkpt>
      <trkpt lat="45.23606" lon="6.37429">
        <ele>1924</ele>
      </trkpt>
      <trkpt lat="45.23592" lon="6.37446">
        <ele>1924</ele>
      </trkpt>
      <trkpt lat="45.23554" lon="6.37479">
        <ele>1894</ele>
      </trkpt>
      <trkpt lat="45.23537" lon="6.37511">
        <ele>1922</ele>
      </trkpt>
      <trkpt lat="45.23486" lon="6.37587">
        <ele>1891</ele>
      </trkpt>
      <trkpt lat="45.23491" lon="6.376">
        <ele>1891</ele>
      </trkpt>
      <trkpt lat="45.23487" lon="6.37612">
        <ele>1891</ele>
      </trkpt>
      <trkpt lat="45.23497" lon="6.37687">
        <ele>1868</ele>
      </trkpt>
      <trkpt lat="45.23507" lon="6.37691">
        <ele>1868</ele>
      </trkpt>
      <trkpt lat="45.23513" lon="6.37678">
        <ele>1868</ele>
      </trkpt>
      <trkpt lat="45.23519" lon="6.37689">
        <ele>1868</ele>
      </trkpt>
      <trkpt lat="45.23528" lon="6.37832">
        <ele>1838</ele>
      </trkpt>
      <trkpt lat="45.23549" lon="6.3788">
        <ele>1796</ele>
      </trkpt>
      <trkpt lat="45.23549" lon="6.37896">
        <ele>1796</ele>
      </trkpt>
      <trkpt lat="45.2354" lon="6.37926">
        <ele>1835</ele>
      </trkpt>
      <trkpt lat="45.23539" lon="6.3794">
        <ele>1835</ele>
      </trkpt>
      <trkpt lat="45.23549" lon="6.37941">
        <ele>1796</ele>
      </trkpt>
      <trkpt lat="45.23587" lon="6.37927">
        <ele>1796</ele>
      </trkpt>
      <trkpt lat="45.23594" lon="6.37952">
        <ele>1796</ele>
      </trkpt>
      <trkpt lat="45.23621" lon="6.37923">
        <ele>1796</ele>
      </trkpt>
      <trkpt lat="45.23638" lon="6.37939">
        <ele>1753</ele>
      </trkpt>
      <trkpt lat="45.23638" lon="6.37956">
        <ele>1753</ele>
      </trkpt>
      <trkpt lat="45.23634" lon="6.37969">
        <ele>1742</ele>
      </trkpt>
      <trkpt lat="45.23613" lon="6.38004">
        <ele>1781</ele>
      </trkpt>
      <trkpt lat="45.23602" lon="6.38035">
        <ele>1781</ele>
      </trkpt>
      <trkpt lat="45.23603" lon="6.38108">
        <ele>1757</ele>
      </trkpt>
      <trkpt lat="45.23608" lon="6.38137">
        <ele>1748</ele>
      </trkpt>
      <trkpt lat="45.23604" lon="6.38192">
        <ele>1748</ele>
      </trkpt>
      <trkpt lat="45.23598" lon="6.38219">
        <ele>1720</ele>
      </trkpt>
      <trkpt lat="45.23568" lon="6.38266">
        <ele>1720</ele>
      </trkpt>
      <trkpt lat="45.2356" lon="6.3829">
        <ele>1720</ele>
      </trkpt>
      <trkpt lat="45.23558" lon="6.38315">
        <ele>1683</ele>
      </trkpt>
      <trkpt lat="45.23533" lon="6.38363">
        <ele>1702</ele>
      </trkpt>
      <trkpt lat="45.23542" lon="6.38368">
        <ele>1683</ele>
      </trkpt>
      <trkpt lat="45.23561" lon="6.38399">
        <ele>1651</ele>
      </trkpt>
      <trkpt lat="45.23569" lon="6.3843">
        <ele>1651</ele>
      </trkpt>
      <trkpt lat="45.23588" lon="6.38422">
        <ele>1651</ele>
      </trkpt>
      <trkpt lat="45.23595" lon="6.38431">
        <ele>1651</ele>
      </trkpt>
      <trkpt lat="45.23595" lon="6.38447">
        <ele>1651</ele>
      </trkpt>
      <trkpt lat="45.23614" lon="6.38452">
        <ele>1651</ele>
      </trkpt>
      <trkpt lat="45.23622" lon="6.38479">
        <ele>1615</ele>
      </trkpt>
      <trkpt lat="45.2363" lon="6.38488">
        <ele>1594</ele>
      </trkpt>
      <trkpt lat="45.23634" lon="6.38517">
        <ele>1594</ele>
      </trkpt>
      <trkpt lat="45.23631" lon="6.3853">
        <ele>1594</ele>
      </trkpt>
      <trkpt lat="45.23639" lon="6.38553">
        <ele>1573</ele>
      </trkpt>
      <trkpt lat="45.23541" lon="6.38605">
        <ele>1588</ele>
      </trkpt>
      <trkpt lat="45.23473" lon="6.38651">
        <ele>1553</ele>
      </trkpt>
      <trkpt lat="45.2338" lon="6.38728">
        <ele>1519</ele>
      </trkpt>
      <trkpt lat="45.23371" lon="6.38741">
        <ele>1544</ele>
      </trkpt>
      <trkpt lat="45.23352" lon="6.38796">
        <ele>1534</ele>
      </trkpt>
      <trkpt lat="45.23326" lon="6.38805">
        <ele>1534</ele>
      </trkpt>
      <trkpt lat="45.23294" lon="6.3889">
        <ele>1518</ele>
      </trkpt>
      <trkpt lat="45.2329" lon="6.38921">
        <ele>1561</ele>
      </trkpt>
      <trkpt lat="45.23273" lon="6.3896">
        <ele>1530</ele>
      </trkpt>
      <trkpt lat="45.23258" lon="6.38981">
        <ele>1530</ele>
      </trkpt>
      <trkpt lat="45.23257" lon="6.3902">
        <ele>1530</ele>
      </trkpt>
      <trkpt lat="45.2324" lon="6.39063">
        <ele>1514</ele>
      </trkpt>
      <trkpt lat="45.23233" lon="6.39096">
        <ele>1514</ele>
      </trkpt>
      <trkpt lat="45.23216" lon="6.39133">
        <ele>1502</ele>
      </trkpt>
      <trkpt lat="45.23219" lon="6.39178">
        <ele>1502</ele>
      </trkpt>
      <trkpt lat="45.23215" lon="6.39191">
        <ele>1502</ele>
      </trkpt>
      <trkpt lat="45.2321" lon="6.39247">
        <ele>1505</ele>
      </trkpt>
      <trkpt lat="45.23212" lon="6.39262">
        <ele>1505</ele>
      </trkpt>
      <trkpt lat="45.23223" lon="6.39288">
        <ele>1505</ele>
      </trkpt>
      <trkpt lat="45.23251" lon="6.39319">
        <ele>1515</ele>
      </trkpt>
      <trkpt lat="45.2327" lon="6.3936">
        <ele>1515</ele>
      </trkpt>
      <trkpt lat="45.23282" lon="6.39407">
        <ele>1526</ele>
      </trkpt>
      <trkpt lat="45.23312" lon="6.39469">
        <ele>1486</ele>
      </trkpt>
      <trkpt lat="45.2332" lon="6.39501">
        <ele>1486</ele>
      </trkpt>
      <trkpt lat="45.23318" lon="6.39514">
        <ele>1486</ele>
      </trkpt>
      <trkpt lat="45.23323" lon="6.39569">
        <ele>1498</ele>
      </trkpt>
      <trkpt lat="45.2331" lon="6.39615">
        <ele>1498</ele>
      </trkpt>
      <trkpt lat="45.23327" lon="6.39651">
        <ele>1526</ele>
      </trkpt>
      <trkpt lat="45.23371" lon="6.39696">
        <ele>1526</ele>
      </trkpt>
      <trkpt lat="45.23399" lon="6.39716">
        <ele>1487</ele>
      </trkpt>
      <trkpt lat="45.23404" lon="6.3973">
        <ele>1487</ele>
      </trkpt>
      <trkpt lat="45.23397" lon="6.39841">
        <ele>1484</ele>
      </trkpt>
      <trkpt lat="45.23399" lon="6.39899">
        <ele>1473</ele>
      </trkpt>
      <trkpt lat="45.23405" lon="6.39929">
        <ele>1473</ele>
      </trkpt>
      <trkpt lat="45.23436" lon="6.3998">
        <ele>1471</ele>
      </trkpt>
      <trkpt lat="45.23456" lon="6.40006">
        <ele>1471</ele>
      </trkpt>
      <trkpt lat="45.2346" lon="6.40032">
        <ele>1417</ele>
      </trkpt>
      <trkpt lat="45.2347" lon="6.40056">
        <ele>1411</ele>
      </trkpt>
      <trkpt lat="45.2347" lon="6.40069">
        <ele>1411</ele>
      </trkpt>
      <trkpt lat="45.2347" lon="6.40056">
        <ele>1411</ele>
      </trkpt>
      <trkpt lat="45.2347" lon="6.40056">
        <ele>1411</ele>
      </trkpt>
      <trkpt lat="45.2347" lon="6.40069">
        <ele>1411</ele>
      </trkpt>
      <trkpt lat="45.23438" lon="6.4009">
        <ele>1450</ele>
      </trkpt>
      <trkpt lat="45.23393" lon="6.4012">
        <ele>1450</ele>
      </trkpt>
      <trkpt lat="45.23376" lon="6.40142">
        <ele>1423</ele>
      </trkpt>
      <trkpt lat="45.2336" lon="6.40177">
        <ele>1467</ele>
      </trkpt>
      <trkpt lat="45.23301" lon="6.40255">
        <ele>1443</ele>
      </trkpt>
      <trkpt lat="45.2329" lon="6.40307">
        <ele>1481</ele>
      </trkpt>
      <trkpt lat="45.23272" lon="6.40337">
        <ele>1481</ele>
      </trkpt>
      <trkpt lat="45.23255" lon="6.40352">
        <ele>1481</ele>
      </trkpt>
      <trkpt lat="45.23245" lon="6.40376">
        <ele>1463</ele>
      </trkpt>
      <trkpt lat="45.23239" lon="6.40419">
        <ele>1463</ele>
      </trkpt>
      <trkpt lat="45.23226" lon="6.40461">
        <ele>1453</ele>
      </trkpt>
      <trkpt lat="45.23194" lon="6.40497">
        <ele>1496</ele>
      </trkpt>
      <trkpt lat="45.23163" lon="6.40656">
        <ele>1478</ele>
      </trkpt>
      <trkpt lat="45.23138" lon="6.40705">
        <ele>1478</ele>
      </trkpt>
      <trkpt lat="45.2312" lon="6.40717">
        <ele>1482</ele>
      </trkpt>
      <trkpt lat="45.23066" lon="6.40711">
        <ele>1482</ele>
      </trkpt>
      <trkpt lat="45.23059" lon="6.40703">
        <ele>1492</ele>
      </trkpt>
      <trkpt lat="45.23041" lon="6.40709">
        <ele>1502</ele>
      </trkpt>
      <trkpt lat="45.23013" lon="6.40732">
        <ele>1502</ele>
      </trkpt>
      <trkpt lat="45.23001" lon="6.4079">
        <ele>1502</ele>
      </trkpt>
      <trkpt lat="45.22994" lon="6.40803">
        <ele>1496</ele>
      </trkpt>
      <trkpt lat="45.22976" lon="6.40817">
        <ele>1496</ele>
      </trkpt>
      <trkpt lat="45.22963" lon="6.40852">
        <ele>1496</ele>
      </trkpt>
      <trkpt lat="45.22951" lon="6.40918">
        <ele>1518</ele>
      </trkpt>
      <trkpt lat="45.22942" lon="6.40927">
        <ele>1518</ele>
      </trkpt>
      <trkpt lat="45.22933" lon="6.40926">
        <ele>1518</ele>
      </trkpt>
      <trkpt lat="45.22925" lon="6.40916">
        <ele>1518</ele>
      </trkpt>
      <trkpt lat="45.22922" lon="6.40885">
        <ele>1518</ele>
      </trkpt>
      <trkpt lat="45.22928" lon="6.40858">
        <ele>1523</ele>
      </trkpt>
      <trkpt lat="45.22926" lon="6.40843">
        <ele>1523</ele>
      </trkpt>
      <trkpt lat="45.22941" lon="6.40823">
        <ele>1523</ele>
      </trkpt>
      <trkpt lat="45.22964" lon="6.40728">
        <ele>1502</ele>
      </trkpt>
      <trkpt lat="45.22954" lon="6.40721">
        <ele>1531</ele>
      </trkpt>
      <trkpt lat="45.22945" lon="6.40727">
        <ele>1531</ele>
      </trkpt>
      <trkpt lat="45.22942" lon="6.40742">
        <ele>1531</ele>
      </trkpt>
      <trkpt lat="45.22945" lon="6.40771">
        <ele>1531</ele>
      </trkpt>
      <trkpt lat="45.22907" lon="6.40829">
        <ele>1523</ele>
      </trkpt>
      <trkpt lat="45.22885" lon="6.40897">
        <ele>1518</ele>
      </trkpt>
      <trkpt lat="45.22869" lon="6.40919">
        <ele>1538</ele>
      </trkpt>
      <trkpt lat="45.22794" lon="6.40966">
        <ele>1528</ele>
      </trkpt>
      <trkpt lat="45.22794" lon="6.40966">
        <ele>1528</ele>
      </trkpt>
      <trkpt lat="45.2273" lon="6.40911">
        <ele>1531</ele>
      </trkpt>
      <trkpt lat="45.22744" lon="6.40872">
        <ele>1536</ele>
      </trkpt>
      <trkpt lat="45.2277" lon="6.40851">
        <ele>1536</ele>
      </trkpt>
      <trkpt lat="45.2279" lon="6.40847">
        <ele>1536</ele>
      </trkpt>
      <trkpt lat="45.22796" lon="6.40835">
        <ele>1546</ele>
      </trkpt>
      <trkpt lat="45.22816" lon="6.40836">
        <ele>1546</ele>
      </trkpt>
      <trkpt lat="45.2282" lon="6.40823">
        <ele>1546</ele>
      </trkpt>
      <trkpt lat="45.22823" lon="6.40764">
        <ele>1556</ele>
      </trkpt>
      <trkpt lat="45.2283" lon="6.40738">
        <ele>1556</ele>
      </trkpt>
      <trkpt lat="45.22843" lon="6.40717">
        <ele>1556</ele>
      </trkpt>
      <trkpt lat="45.22852" lon="6.40714">
        <ele>1556</ele>
      </trkpt>
      <trkpt lat="45.22898" lon="6.40641">
        <ele>1551</ele>
      </trkpt>
      <trkpt lat="45.22918" lon="6.40594">
        <ele>1571</ele>
      </trkpt>
      <trkpt lat="45.2294" lon="6.40564">
        <ele>1571</ele>
      </trkpt>
      <trkpt lat="45.22944" lon="6.40551">
        <ele>1571</ele>
      </trkpt>
      <trkpt lat="45.22939" lon="6.40539">
        <ele>1590</ele>
      </trkpt>
      <trkpt lat="45.22866" lon="6.40588">
        <ele>1590</ele>
      </trkpt>
      <trkpt lat="45.22818" lon="6.40635">
        <ele>1575</ele>
      </trkpt>
      <trkpt lat="45.22791" lon="6.40639">
        <ele>1579</ele>
      </trkpt>
      <trkpt lat="45.22757" lon="6.40613">
        <ele>1593</ele>
      </trkpt>
      <trkpt lat="45.22738" lon="6.40581">
        <ele>1593</ele>
      </trkpt>
      <trkpt lat="45.22731" lon="6.40555">
        <ele>1593</ele>
      </trkpt>
      <trkpt lat="45.22725" lon="6.40501">
        <ele>1600</ele>
      </trkpt>
      <trkpt lat="45.22703" lon="6.40476">
        <ele>1604</ele>
      </trkpt>
      <trkpt lat="45.22685" lon="6.40471">
        <ele>1604</ele>
      </trkpt>
      <trkpt lat="45.22647" lon="6.40486">
        <ele>1604</ele>
      </trkpt>
      <trkpt lat="45.22618" lon="6.40482">
        <ele>1610</ele>
      </trkpt>
      <trkpt lat="45.22609" lon="6.40486">
        <ele>1610</ele>
      </trkpt>
      <trkpt lat="45.22588" lon="6.40459">
        <ele>1610</ele>
      </trkpt>
      <trkpt lat="45.22585" lon="6.40445">
        <ele>1621</ele>
      </trkpt>
      <trkpt lat="45.22569" lon="6.4043">
        <ele>1621</ele>
      </trkpt>
      <trkpt lat="45.22551" lon="6.40423">
        <ele>1621</ele>
      </trkpt>
      <trkpt lat="45.22502" lon="6.40469">
        <ele>1633</ele>
      </trkpt>
      <trkpt lat="45.22387" lon="6.40637">
        <ele>1640</ele>
      </trkpt>
      <trkpt lat="45.22387" lon="6.4069">
        <ele>1640</ele>
      </trkpt>
      <trkpt lat="45.22368" lon="6.40878">
        <ele>1685</ele>
      </trkpt>
      <trkpt lat="45.22355" lon="6.40948">
        <ele>1685</ele>
      </trkpt>
      <trkpt lat="45.22324" lon="6.41035">
        <ele>1675</ele>
      </trkpt>
      <trkpt lat="45.22277" lon="6.41104">
        <ele>1691</ele>
      </trkpt>
      <trkpt lat="45.22199" lon="6.41164">
        <ele>1701</ele>
      </trkpt>
      <trkpt lat="45.22171" lon="6.41175">
        <ele>1701</ele>
      </trkpt>
      <trkpt lat="45.22135" lon="6.41199">
        <ele>1701</ele>
      </trkpt>
      <trkpt lat="45.22111" lon="6.41223">
        <ele>1706</ele>
      </trkpt>
      <trkpt lat="45.22063" lon="6.41293">
        <ele>1688</ele>
      </trkpt>
      <trkpt lat="45.22037" lon="6.41313">
        <ele>1699</ele>
      </trkpt>
      <trkpt lat="45.21959" lon="6.41324">
        <ele>1699</ele>
      </trkpt>
      <trkpt lat="45.21887" lon="6.41385">
        <ele>1700</ele>
      </trkpt>
      <trkpt lat="45.21824" lon="6.41454">
        <ele>1729</ele>
      </trkpt>
      <trkpt lat="45.2178" lon="6.41484">
        <ele>1728</ele>
      </trkpt>
      <trkpt lat="45.21752" lon="6.41496">
        <ele>1728</ele>
      </trkpt>
      <trkpt lat="45.21645" lon="6.4152">
        <ele>1739</ele>
      </trkpt>
      <trkpt lat="45.21628" lon="6.41535">
        <ele>1739</ele>
      </trkpt>
      <trkpt lat="45.21622" lon="6.41526">
        <ele>1741</ele>
      </trkpt>
      <trkpt lat="45.21566" lon="6.41495">
        <ele>1741</ele>
      </trkpt>
      <trkpt lat="45.21527" lon="6.41485">
        <ele>1745</ele>
      </trkpt>
      <trkpt lat="45.21421" lon="6.41502">
        <ele>1754</ele>
      </trkpt>
      <trkpt lat="45.21383" lon="6.41495">
        <ele>1754</ele>
      </trkpt>
      <trkpt lat="45.21337" lon="6.41509">
        <ele>1762</ele>
      </trkpt>
      <trkpt lat="45.21298" lon="6.41513">
        <ele>1762</ele>
      </trkpt>
      <trkpt lat="45.21217" lon="6.41551">
        <ele>1758</ele>
      </trkpt>
      <trkpt lat="45.21155" lon="6.41594">
        <ele>1776</ele>
      </trkpt>
      <trkpt lat="45.21126" lon="6.41597">
        <ele>1776</ele>
      </trkpt>
      <trkpt lat="45.21096" lon="6.41588">
        <ele>1778</ele>
      </trkpt>
      <trkpt lat="45.21073" lon="6.41563">
        <ele>1778</ele>
      </trkpt>
      <trkpt lat="45.21057" lon="6.41529">
        <ele>1790</ele>
      </trkpt>
      <trkpt lat="45.21065" lon="6.41556">
        <ele>1778</ele>
      </trkpt>
      <trkpt lat="45.21033" lon="6.41559">
        <ele>1770</ele>
      </trkpt>
      <trkpt lat="45.20963" lon="6.41585">
        <ele>1770</ele>
      </trkpt>
      <trkpt lat="45.20918" lon="6.41591">
        <ele>1755</ele>
      </trkpt>
      <trkpt lat="45.20902" lon="6.41609">
        <ele>1755</ele>
      </trkpt>
      <trkpt lat="45.20893" lon="6.41632">
        <ele>1739</ele>
      </trkpt>
      <trkpt lat="45.20873" lon="6.41633">
        <ele>1728</ele>
      </trkpt>
      <trkpt lat="45.20835" lon="6.41584">
        <ele>1740</ele>
      </trkpt>
      <trkpt lat="45.20813" lon="6.41587">
        <ele>1740</ele>
      </trkpt>
      <trkpt lat="45.2078" lon="6.41572">
        <ele>1722</ele>
      </trkpt>
      <trkpt lat="45.20764" lon="6.41551">
        <ele>1722</ele>
      </trkpt>
      <trkpt lat="45.20747" lon="6.41515">
        <ele>1735</ele>
      </trkpt>
      <trkpt lat="45.20694" lon="6.41455">
        <ele>1749</ele>
      </trkpt>
      <trkpt lat="45.20684" lon="6.41432">
        <ele>1749</ele>
      </trkpt>
      <trkpt lat="45.20638" lon="6.4141">
        <ele>1749</ele>
      </trkpt>
      <trkpt lat="45.2059" lon="6.414">
        <ele>1746</ele>
      </trkpt>
      <trkpt lat="45.20537" lon="6.41364">
        <ele>1779</ele>
      </trkpt>
      <trkpt lat="45.20499" lon="6.41358">
        <ele>1779</ele>
      </trkpt>
      <trkpt lat="45.20436" lon="6.41328">
        <ele>1765</ele>
      </trkpt>
      <trkpt lat="45.20361" lon="6.41269">
        <ele>1774</ele>
      </trkpt>
      <trkpt lat="45.20347" lon="6.41248">
        <ele>1774</ele>
      </trkpt>
      <trkpt lat="45.20338" lon="6.41223">
        <ele>1774</ele>
      </trkpt>
      <trkpt lat="45.20325" lon="6.41203">
        <ele>1814</ele>
      </trkpt>
      <trkpt lat="45.20253" lon="6.41162">
        <ele>1794</ele>
      </trkpt>
      <trkpt lat="45.20212" lon="6.41121">
        <ele>1836</ele>
      </trkpt>
      <trkpt lat="45.20185" lon="6.41107">
        <ele>1819</ele>
      </trkpt>
      <trkpt lat="45.20136" lon="6.41111">
        <ele>1819</ele>
      </trkpt>
      <trkpt lat="45.20079" lon="6.41089">
        <ele>1813</ele>
      </trkpt>
      <trkpt lat="45.2005" lon="6.41095">
        <ele>1813</ele>
      </trkpt>
      <trkpt lat="45.20033" lon="6.4111">
        <ele>1825</ele>
      </trkpt>
      <trkpt lat="45.19995" lon="6.41161">
        <ele>1796</ele>
      </trkpt>
      <trkpt lat="45.19986" lon="6.41161">
        <ele>1796</ele>
      </trkpt>
      <trkpt lat="45.1995" lon="6.41116">
        <ele>1816</ele>
      </trkpt>
      <trkpt lat="45.1992" lon="6.41108">
        <ele>1816</ele>
      </trkpt>
      <trkpt lat="45.19876" lon="6.4107">
        <ele>1816</ele>
      </trkpt>
      <trkpt lat="45.19861" lon="6.41051">
        <ele>1792</ele>
      </trkpt>
      <trkpt lat="45.19849" lon="6.41013">
        <ele>1816</ele>
      </trkpt>
      <trkpt lat="45.19781" lon="6.4095">
        <ele>1805</ele>
      </trkpt>
      <trkpt lat="45.1971" lon="6.40763">
        <ele>1848</ele>
      </trkpt>
      <trkpt lat="45.19644" lon="6.40672">
        <ele>1838</ele>
      </trkpt>
      <trkpt lat="45.19632" lon="6.40607">
        <ele>1851</ele>
      </trkpt>
      <trkpt lat="45.19603" lon="6.40592">
        <ele>1842</ele>
      </trkpt>
      <trkpt lat="45.19594" lon="6.40594">
        <ele>1842</ele>
      </trkpt>
      <trkpt lat="45.19587" lon="6.40603">
        <ele>1842</ele>
      </trkpt>
      <trkpt lat="45.19581" lon="6.40642">
        <ele>1838</ele>
      </trkpt>
      <trkpt lat="45.19583" lon="6.40668">
        <ele>1838</ele>
      </trkpt>
      <trkpt lat="45.19574" lon="6.40705">
        <ele>1838</ele>
      </trkpt>
      <trkpt lat="45.19552" lon="6.40735">
        <ele>1828</ele>
      </trkpt>
      <trkpt lat="45.19532" lon="6.40813">
        <ele>1869</ele>
      </trkpt>
      <trkpt lat="45.19522" lon="6.40835">
        <ele>1869</ele>
      </trkpt>
      <trkpt lat="45.19514" lon="6.40842">
        <ele>1869</ele>
      </trkpt>
      <trkpt lat="45.19494" lon="6.40901">
        <ele>1858</ele>
      </trkpt>
      <trkpt lat="45.19476" lon="6.40905">
        <ele>1858</ele>
      </trkpt>
      <trkpt lat="45.19469" lon="6.40914">
        <ele>1858</ele>
      </trkpt>
      <trkpt lat="45.19451" lon="6.40922">
        <ele>1908</ele>
      </trkpt>
      <trkpt lat="45.19437" lon="6.40971">
        <ele>1886</ele>
      </trkpt>
      <trkpt lat="45.19416" lon="6.40997">
        <ele>1886</ele>
      </trkpt>
      <trkpt lat="45.19403" lon="6.41048">
        <ele>1864</ele>
      </trkpt>
      <trkpt lat="45.19387" lon="6.4108">
        <ele>1864</ele>
      </trkpt>
      <trkpt lat="45.19362" lon="6.41098">
        <ele>1914</ele>
      </trkpt>
      <trkpt lat="45.1935" lon="6.41116">
        <ele>1914</ele>
      </trkpt>
      <trkpt lat="45.19341" lon="6.4112">
        <ele>1914</ele>
      </trkpt>
      <trkpt lat="45.19335" lon="6.41131">
        <ele>1893</ele>
      </trkpt>
      <trkpt lat="45.19331" lon="6.41157">
        <ele>1893</ele>
      </trkpt>
      <trkpt lat="45.19317" lon="6.4118">
        <ele>1893</ele>
      </trkpt>
      <trkpt lat="45.19317" lon="6.41193">
        <ele>1893</ele>
      </trkpt>
      <trkpt lat="45.19297" lon="6.41229">
        <ele>1875</ele>
      </trkpt>
      <trkpt lat="45.19253" lon="6.41252">
        <ele>1914</ele>
      </trkpt>
      <trkpt lat="45.19228" lon="6.41291">
        <ele>1914</ele>
      </trkpt>
      <trkpt lat="45.1922" lon="6.41331">
        <ele>1898</ele>
      </trkpt>
      <trkpt lat="45.19222" lon="6.41357">
        <ele>1898</ele>
      </trkpt>
      <trkpt lat="45.19209" lon="6.41464">
        <ele>1889</ele>
      </trkpt>
      <trkpt lat="45.19177" lon="6.41493">
        <ele>1931</ele>
      </trkpt>
      <trkpt lat="45.19165" lon="6.41516">
        <ele>1931</ele>
      </trkpt>
      <trkpt lat="45.19118" lon="6.41556">
        <ele>1939</ele>
      </trkpt>
      <trkpt lat="45.19073" lon="6.41578">
        <ele>1939</ele>
      </trkpt>
      <trkpt lat="45.19064" lon="6.41603">
        <ele>1939</ele>
      </trkpt>
      <trkpt lat="45.19076" lon="6.41684">
        <ele>1942</ele>
      </trkpt>
      <trkpt lat="45.19074" lon="6.41712">
        <ele>1938</ele>
      </trkpt>
      <trkpt lat="45.19046" lon="6.41708">
        <ele>1942</ele>
      </trkpt>
      <trkpt lat="45.1902" lon="6.41696">
        <ele>1963</ele>
      </trkpt>
      <trkpt lat="45.18983" lon="6.41695">
        <ele>1963</ele>
      </trkpt>
      <trkpt lat="45.19035" lon="6.417">
        <ele>1963</ele>
      </trkpt>
      <trkpt lat="45.19043" lon="6.41707">
        <ele>1942</ele>
      </trkpt>
      <trkpt lat="45.19053" lon="6.41703">
        <ele>1942</ele>
      </trkpt>
      <trkpt lat="45.19067" lon="6.41683">
        <ele>1942</ele>
      </trkpt>
      <trkpt lat="45.1907" lon="6.4167">
        <ele>1942</ele>
      </trkpt>
      <trkpt lat="45.19076" lon="6.41681">
        <ele>1942</ele>
      </trkpt>
      <trkpt lat="45.19073" lon="6.41709">
        <ele>1938</ele>
      </trkpt>
      <trkpt lat="45.19062" lon="6.4173">
        <ele>1938</ele>
      </trkpt>
      <trkpt lat="45.19043" lon="6.41746">
        <ele>1938</ele>
      </trkpt>
      <trkpt lat="45.19061" lon="6.41732">
        <ele>1938</ele>
      </trkpt>
      <trkpt lat="45.19079" lon="6.41701">
        <ele>1942</ele>
      </trkpt>
      <trkpt lat="45.1908" lon="6.41669">
        <ele>1942</ele>
      </trkpt>
      <trkpt lat="45.1907" lon="6.41637">
        <ele>1942</ele>
      </trkpt>
      <trkpt lat="45.19068" lon="6.41593">
        <ele>1939</ele>
      </trkpt>
      <trkpt lat="45.19073" lon="6.41582">
        <ele>1939</ele>
      </trkpt>
      <trkpt lat="45.19085" lon="6.41587">
        <ele>1939</ele>
      </trkpt>
      <trkpt lat="45.19102" lon="6.41617">
        <ele>1939</ele>
      </trkpt>
      <trkpt lat="45.19107" lon="6.41712">
        <ele>1938</ele>
      </trkpt>
      <trkpt lat="45.19119" lon="6.41732">
        <ele>1938</ele>
      </trkpt>
      <trkpt lat="45.1911" lon="6.41772">
        <ele>1938</ele>
      </trkpt>
      <trkpt lat="45.19113" lon="6.41784">
        <ele>1938</ele>
      </trkpt>
      <trkpt lat="45.19122" lon="6.41783">
        <ele>1938</ele>
      </trkpt>
      <trkpt lat="45.19147" lon="6.41763">
        <ele>1920</ele>
      </trkpt>
      <trkpt lat="45.19158" lon="6.41742">
        <ele>1920</ele>
      </trkpt>
      <trkpt lat="45.19173" lon="6.41677">
        <ele>1926</ele>
      </trkpt>
      <trkpt lat="45.19171" lon="6.41624">
        <ele>1922</ele>
      </trkpt>
      <trkpt lat="45.19175" lon="6.41612">
        <ele>1922</ele>
      </trkpt>
      <trkpt lat="45.19172" lon="6.41599">
        <ele>1922</ele>
      </trkpt>
      <trkpt lat="45.19175" lon="6.41586">
        <ele>1922</ele>
      </trkpt>
      <trkpt lat="45.19172" lon="6.41574">
        <ele>1922</ele>
      </trkpt>
      <trkpt lat="45.19181" lon="6.41567">
        <ele>1922</ele>
      </trkpt>
      <trkpt lat="45.19205" lon="6.41586">
        <ele>1922</ele>
      </trkpt>
      <trkpt lat="45.19203" lon="6.41601">
        <ele>1922</ele>
      </trkpt>
      <trkpt lat="45.19234" lon="6.41689">
        <ele>1881</ele>
      </trkpt>
      <trkpt lat="45.19235" lon="6.41703">
        <ele>1881</ele>
      </trkpt>
      <trkpt lat="45.19245" lon="6.41705">
        <ele>1881</ele>
      </trkpt>
      <trkpt lat="45.19251" lon="6.41692">
        <ele>1881</ele>
      </trkpt>
      <trkpt lat="45.19253" lon="6.41664">
        <ele>1881</ele>
      </trkpt>
      <trkpt lat="45.19262" lon="6.41666">
        <ele>1881</ele>
      </trkpt>
      <trkpt lat="45.19292" lon="6.41692">
        <ele>1825</ele>
      </trkpt>
      <trkpt lat="45.19303" lon="6.41694">
        <ele>1825</ele>
      </trkpt>
      <trkpt lat="45.19298" lon="6.41683">
        <ele>1825</ele>
      </trkpt>
      <trkpt lat="45.19316" lon="6.41694">
        <ele>1825</ele>
      </trkpt>
      <trkpt lat="45.19326" lon="6.4169">
        <ele>1825</ele>
      </trkpt>
      <trkpt lat="45.1935" lon="6.41717">
        <ele>1827</ele>
      </trkpt>
      <trkpt lat="45.1935" lon="6.41731">
        <ele>1827</ele>
      </trkpt>
      <trkpt lat="45.19356" lon="6.41741">
        <ele>1827</ele>
      </trkpt>
      <trkpt lat="45.19357" lon="6.4177">
        <ele>1827</ele>
      </trkpt>
      <trkpt lat="45.1937" lon="6.41828">
        <ele>1817</ele>
      </trkpt>
      <trkpt lat="45.19419" lon="6.41906">
        <ele>1776</ele>
      </trkpt>
      <trkpt lat="45.19433" lon="6.41945">
        <ele>1776</ele>
      </trkpt>
      <trkpt lat="45.19465" lon="6.42005">
        <ele>1728</ele>
      </trkpt>
      <trkpt lat="45.19465" lon="6.42018">
        <ele>1728</ele>
      </trkpt>
      <trkpt lat="45.19457" lon="6.42043">
        <ele>1738</ele>
      </trkpt>
      <trkpt lat="45.19449" lon="6.4204">
        <ele>1768</ele>
      </trkpt>
      <trkpt lat="45.19444" lon="6.42051">
        <ele>1738</ele>
      </trkpt>
      <trkpt lat="45.19511" lon="6.42058">
        <ele>1714</ele>
      </trkpt>
      <trkpt lat="45.19514" lon="6.42071">
        <ele>1714</ele>
      </trkpt>
      <trkpt lat="45.19536" lon="6.42066">
        <ele>1714</ele>
      </trkpt>
      <trkpt lat="45.19548" lon="6.4204">
        <ele>1681</ele>
      </trkpt>
      <trkpt lat="45.19554" lon="6.42069">
        <ele>1674</ele>
      </trkpt>
      <trkpt lat="45.19562" lon="6.42059">
        <ele>1674</ele>
      </trkpt>
      <trkpt lat="45.19563" lon="6.42091">
        <ele>1674</ele>
      </trkpt>
      <trkpt lat="45.19558" lon="6.42104">
        <ele>1674</ele>
      </trkpt>
      <trkpt lat="45.19522" lon="6.42148">
        <ele>1679</ele>
      </trkpt>
      <trkpt lat="45.1953" lon="6.42153">
        <ele>1679</ele>
      </trkpt>
      <trkpt lat="45.19552" lon="6.42149">
        <ele>1664</ele>
      </trkpt>
      <trkpt lat="45.19595" lon="6.42156">
        <ele>1664</ele>
      </trkpt>
      <trkpt lat="45.19591" lon="6.42168">
        <ele>1664</ele>
      </trkpt>
      <trkpt lat="45.19593" lon="6.42181">
        <ele>1664</ele>
      </trkpt>
      <trkpt lat="45.19633" lon="6.42185">
        <ele>1625</ele>
      </trkpt>
      <trkpt lat="45.19631" lon="6.42199">
        <ele>1625</ele>
      </trkpt>
      <trkpt lat="45.1964" lon="6.422">
        <ele>1625</ele>
      </trkpt>
      <trkpt lat="45.19629" lon="6.42222">
        <ele>1610</ele>
      </trkpt>
      <trkpt lat="45.19638" lon="6.4223">
        <ele>1610</ele>
      </trkpt>
      <trkpt lat="45.19659" lon="6.42233">
        <ele>1610</ele>
      </trkpt>
      <trkpt lat="45.19649" lon="6.42239">
        <ele>1610</ele>
      </trkpt>
      <trkpt lat="45.19636" lon="6.42261">
        <ele>1610</ele>
      </trkpt>
      <trkpt lat="45.19646" lon="6.4227">
        <ele>1610</ele>
      </trkpt>
      <trkpt lat="45.1968" lon="6.42278">
        <ele>1610</ele>
      </trkpt>
      <trkpt lat="45.19699" lon="6.42265">
        <ele>1610</ele>
      </trkpt>
      <trkpt lat="45.19708" lon="6.42237">
        <ele>1610</ele>
      </trkpt>
      <trkpt lat="45.19716" lon="6.42246">
        <ele>1557</ele>
      </trkpt>
      <trkpt lat="45.19719" lon="6.42276">
        <ele>1557</ele>
      </trkpt>
      <trkpt lat="45.19729" lon="6.4227">
        <ele>1557</ele>
      </trkpt>
      <trkpt lat="45.19737" lon="6.42279">
        <ele>1557</ele>
      </trkpt>
      <trkpt lat="45.1974" lon="6.4232">
        <ele>1533</ele>
      </trkpt>
      <trkpt lat="45.1972" lon="6.42356">
        <ele>1533</ele>
      </trkpt>
      <trkpt lat="45.19713" lon="6.42385">
        <ele>1504</ele>
      </trkpt>
      <trkpt lat="45.19714" lon="6.42399">
        <ele>1504</ele>
      </trkpt>
      <trkpt lat="45.19724" lon="6.42389">
        <ele>1504</ele>
      </trkpt>
      <trkpt lat="45.19727" lon="6.42376">
        <ele>1504</ele>
      </trkpt>
      <trkpt lat="45.19724" lon="6.42388">
        <ele>1504</ele>
      </trkpt>
      <trkpt lat="45.19734" lon="6.42386">
        <ele>1504</ele>
      </trkpt>
      <trkpt lat="45.19732" lon="6.42399">
        <ele>1504</ele>
      </trkpt>
      <trkpt lat="45.19741" lon="6.42403">
        <ele>1504</ele>
      </trkpt>
      <trkpt lat="45.19734" lon="6.42433">
        <ele>1504</ele>
      </trkpt>
      <trkpt lat="45.19736" lon="6.42464">
        <ele>1487</ele>
      </trkpt>
      <trkpt lat="45.19745" lon="6.42493">
        <ele>1487</ele>
      </trkpt>
      <trkpt lat="45.19758" lon="6.42513">
        <ele>1487</ele>
      </trkpt>
      <trkpt lat="45.19757" lon="6.42526">
        <ele>1487</ele>
      </trkpt>
      <trkpt lat="45.19749" lon="6.4252">
        <ele>1487</ele>
      </trkpt>
      <trkpt lat="45.19758" lon="6.42526">
        <ele>1487</ele>
      </trkpt>
      <trkpt lat="45.19751" lon="6.42478">
        <ele>1487</ele>
      </trkpt>
      <trkpt lat="45.19754" lon="6.42446">
        <ele>1504</ele>
      </trkpt>
      <trkpt lat="45.19773" lon="6.42366">
        <ele>1533</ele>
      </trkpt>
      <trkpt lat="45.19773" lon="6.42334">
        <ele>1533</ele>
      </trkpt>
      <trkpt lat="45.19796" lon="6.42266">
        <ele>1482</ele>
      </trkpt>
      <trkpt lat="45.19804" lon="6.42255">
        <ele>1482</ele>
      </trkpt>
      <trkpt lat="45.19815" lon="6.42157">
        <ele>1504</ele>
      </trkpt>
      <trkpt lat="45.19848" lon="6.42124">
        <ele>1526</ele>
      </trkpt>
      <trkpt lat="45.19877" lon="6.42083">
        <ele>1482</ele>
      </trkpt>
      <trkpt lat="45.19881" lon="6.42069">
        <ele>1482</ele>
      </trkpt>
      <trkpt lat="45.19876" lon="6.42044">
        <ele>1482</ele>
      </trkpt>
      <trkpt lat="45.19864" lon="6.42024">
        <ele>1524</ele>
      </trkpt>
      <trkpt lat="45.19842" lon="6.42004">
        <ele>1524</ele>
      </trkpt>
      <trkpt lat="45.1983" lon="6.41982">
        <ele>1524</ele>
      </trkpt>
      <trkpt lat="45.19827" lon="6.41952">
        <ele>1531</ele>
      </trkpt>
      <trkpt lat="45.19818" lon="6.41951">
        <ele>1531</ele>
      </trkpt>
      <trkpt lat="45.19812" lon="6.41979">
        <ele>1524</ele>
      </trkpt>
      <trkpt lat="45.19819" lon="6.42005">
        <ele>1524</ele>
      </trkpt>
      <trkpt lat="45.19838" lon="6.42038">
        <ele>1524</ele>
      </trkpt>
      <trkpt lat="45.1984" lon="6.42052">
        <ele>1526</ele>
      </trkpt>
      <trkpt lat="45.19828" lon="6.4205">
        <ele>1526</ele>
      </trkpt>
      <trkpt lat="45.19797" lon="6.41998">
        <ele>1524</ele>
      </trkpt>
      <trkpt lat="45.19789" lon="6.41956">
        <ele>1568</ele>
      </trkpt>
      <trkpt lat="45.19787" lon="6.41902">
        <ele>1568</ele>
      </trkpt>
      <trkpt lat="45.19781" lon="6.41881">
        <ele>1568</ele>
      </trkpt>
      <trkpt lat="45.19815" lon="6.41846">
        <ele>1553</ele>
      </trkpt>
      <trkpt lat="45.19817" lon="6.41833">
        <ele>1553</ele>
      </trkpt>
      <trkpt lat="45.19834" lon="6.41799">
        <ele>1553</ele>
      </trkpt>
      <trkpt lat="45.19854" lon="6.4172">
        <ele>1576</ele>
      </trkpt>
      <trkpt lat="45.19862" lon="6.41712">
        <ele>1576</ele>
      </trkpt>
      <trkpt lat="45.19921" lon="6.41691">
        <ele>1572</ele>
      </trkpt>
      <trkpt lat="45.19934" lon="6.41621">
        <ele>1599</ele>
      </trkpt>
      <trkpt lat="45.19943" lon="6.41618">
        <ele>1599</ele>
      </trkpt>
      <trkpt lat="45.19969" lon="6.41638">
        <ele>1576</ele>
      </trkpt>
      <trkpt lat="45.19989" lon="6.41667">
        <ele>1576</ele>
      </trkpt>
      <trkpt lat="45.20018" lon="6.4168">
        <ele>1576</ele>
      </trkpt>
      <trkpt lat="45.20049" lon="6.41668">
        <ele>1592</ele>
      </trkpt>
      <trkpt lat="45.20079" lon="6.41672">
        <ele>1592</ele>
      </trkpt>
      <trkpt lat="45.20095" lon="6.41686">
        <ele>1592</ele>
      </trkpt>
      <trkpt lat="45.20114" lon="6.41717">
        <ele>1564</ele>
      </trkpt>
      <trkpt lat="45.20124" lon="6.41723">
        <ele>1564</ele>
      </trkpt>
      <trkpt lat="45.20133" lon="6.4172">
        <ele>1569</ele>
      </trkpt>
      <trkpt lat="45.20141" lon="6.41709">
        <ele>1569</ele>
      </trkpt>
      <trkpt lat="45.20157" lon="6.41659">
        <ele>1592</ele>
      </trkpt>
      <trkpt lat="45.2016" lon="6.41628">
        <ele>1592</ele>
      </trkpt>
      <trkpt lat="45.20168" lon="6.416">
        <ele>1617</ele>
      </trkpt>
      <trkpt lat="45.20186" lon="6.4159">
        <ele>1617</ele>
      </trkpt>
      <trkpt lat="45.20204" lon="6.41604">
        <ele>1617</ele>
      </trkpt>
      <trkpt lat="45.20251" lon="6.41684">
        <ele>1601</ele>
      </trkpt>
      <trkpt lat="45.20267" lon="6.41699">
        <ele>1601</ele>
      </trkpt>
      <trkpt lat="45.20287" lon="6.41706">
        <ele>1601</ele>
      </trkpt>
      <trkpt lat="45.20332" lon="6.41681">
        <ele>1616</ele>
      </trkpt>
      <trkpt lat="45.2036" lon="6.41694">
        <ele>1616</ele>
      </trkpt>
      <trkpt lat="45.20401" lon="6.41789">
        <ele>1621</ele>
      </trkpt>
      <trkpt lat="45.20447" lon="6.41847">
        <ele>1603</ele>
      </trkpt>
      <trkpt lat="45.20464" lon="6.41851">
        <ele>1624</ele>
      </trkpt>
      <trkpt lat="45.20514" lon="6.41933">
        <ele>1613</ele>
      </trkpt>
      <trkpt lat="45.20517" lon="6.41945">
        <ele>1613</ele>
      </trkpt>
      <trkpt lat="45.20546" lon="6.41959">
        <ele>1613</ele>
      </trkpt>
      <trkpt lat="45.20585" lon="6.41943">
        <ele>1620</ele>
      </trkpt>
      <trkpt lat="45.20656" lon="6.42025">
        <ele>1625</ele>
      </trkpt>
      <trkpt lat="45.20694" lon="6.42048">
        <ele>1613</ele>
      </trkpt>
      <trkpt lat="45.20736" lon="6.4206">
        <ele>1614</ele>
      </trkpt>
      <trkpt lat="45.20756" lon="6.42053">
        <ele>1614</ele>
      </trkpt>
      <trkpt lat="45.20809" lon="6.42051">
        <ele>1619</ele>
      </trkpt>
      <trkpt lat="45.20805" lon="6.42039">
        <ele>1643</ele>
      </trkpt>
      <trkpt lat="45.20753" lon="6.42002">
        <ele>1633</ele>
      </trkpt>
      <trkpt lat="45.20759" lon="6.41991">
        <ele>1633</ele>
      </trkpt>
      <trkpt lat="45.20786" lon="6.42001">
        <ele>1633</ele>
      </trkpt>
      <trkpt lat="45.20796" lon="6.41999">
        <ele>1643</ele>
      </trkpt>
      <trkpt lat="45.20795" lon="6.41984">
        <ele>1643</ele>
      </trkpt>
      <trkpt lat="45.20777" lon="6.41975">
        <ele>1633</ele>
      </trkpt>
      <trkpt lat="45.20722" lon="6.41917">
        <ele>1649</ele>
      </trkpt>
      <trkpt lat="45.20728" lon="6.41906">
        <ele>1649</ele>
      </trkpt>
      <trkpt lat="45.20745" lon="6.41917">
        <ele>1649</ele>
      </trkpt>
      <trkpt lat="45.20814" lon="6.41929">
        <ele>1662</ele>
      </trkpt>
      <trkpt lat="45.20925" lon="6.41916">
        <ele>1667</ele>
      </trkpt>
      <trkpt lat="45.20985" lon="6.41898">
        <ele>1674</ele>
      </trkpt>
      <trkpt lat="45.21016" lon="6.41911">
        <ele>1674</ele>
      </trkpt>
      <trkpt lat="45.21027" lon="6.41934">
        <ele>1674</ele>
      </trkpt>
      <trkpt lat="45.21025" lon="6.41976">
        <ele>1665</ele>
      </trkpt>
      <trkpt lat="45.21035" lon="6.4198">
        <ele>1665</ele>
      </trkpt>
      <trkpt lat="45.21077" lon="6.41884">
        <ele>1685</ele>
      </trkpt>
      <trkpt lat="45.21092" lon="6.41866">
        <ele>1691</ele>
      </trkpt>
      <trkpt lat="45.21261" lon="6.41815">
        <ele>1706</ele>
      </trkpt>
      <trkpt lat="45.21444" lon="6.41784">
        <ele>1718</ele>
      </trkpt>
      <trkpt lat="45.21606" lon="6.41674">
        <ele>1721</ele>
      </trkpt>
      <trkpt lat="45.2166" lon="6.41585">
        <ele>1727</ele>
      </trkpt>
      <trkpt lat="45.21577" lon="6.41481">
        <ele>1750</ele>
      </trkpt>
      <trkpt lat="45.2139" lon="6.41502">
        <ele>1752</ele>
      </trkpt>
      <trkpt lat="45.21276" lon="6.41543">
        <ele>1762</ele>
      </trkpt>
      <trkpt lat="45.21114" lon="6.41596">
        <ele>1771</ele>
      </trkpt>
      <trkpt lat="45.21042" lon="6.41517">
        <ele>1783</ele>
      </trkpt>
      <trkpt lat="45.2124" lon="6.41329">
        <ele>1813</ele>
      </trkpt>
      <trkpt lat="45.21329" lon="6.41335">
        <ele>1798</ele>
      </trkpt>
      <trkpt lat="45.21405" lon="6.41408">
        <ele>1784</ele>
      </trkpt>
      <trkpt lat="45.21513" lon="6.41476">
        <ele>1753</ele>
      </trkpt>
      <trkpt lat="45.21606" lon="6.41481">
        <ele>1748</ele>
      </trkpt>
      <trkpt lat="45.21696" lon="6.41476">
        <ele>1743</ele>
      </trkpt>
      <trkpt lat="45.21901" lon="6.41303">
        <ele>1740</ele>
      </trkpt>
      <trkpt lat="45.22012" lon="6.41204">
        <ele>1730</ele>
      </trkpt>
      <trkpt lat="45.22127" lon="6.41115">
        <ele>1728</ele>
      </trkpt>
      <trkpt lat="45.22265" lon="6.40985">
        <ele>1711</ele>
      </trkpt>
      <trkpt lat="45.22319" lon="6.40792">
        <ele>1692</ele>
      </trkpt>
      <trkpt lat="45.22247" lon="6.40656">
        <ele>1688</ele>
      </trkpt>
      <trkpt lat="45.22287" lon="6.40703">
        <ele>1681</ele>
      </trkpt>
      <trkpt lat="45.22301" lon="6.40614">
        <ele>1671</ele>
      </trkpt>
      <trkpt lat="45.22344" lon="6.40593">
        <ele>1659</ele>
      </trkpt>
      <trkpt lat="45.22344" lon="6.40531">
        <ele>1663</ele>
      </trkpt>
      <trkpt lat="45.22423" lon="6.4051">
        <ele>1648</ele>
      </trkpt>
      <trkpt lat="45.22495" lon="6.40463">
        <ele>1647</ele>
      </trkpt>
      <trkpt lat="45.22564" lon="6.40452">
        <ele>1625</ele>
      </trkpt>
      <trkpt lat="45.22582" lon="6.40499">
        <ele>1611</ele>
      </trkpt>
      <trkpt lat="45.22617" lon="6.40552">
        <ele>1597</ele>
      </trkpt>
      <trkpt lat="45.22671" lon="6.40614">
        <ele>1580</ele>
      </trkpt>
      <trkpt lat="45.22736" lon="6.40734">
        <ele>1558</ele>
      </trkpt>
      <trkpt lat="45.22754" lon="6.40797">
        <ele>1547</ele>
      </trkpt>
      <trkpt lat="45.22772" lon="6.40844">
        <ele>1537</ele>
      </trkpt>
      <trkpt lat="45.22768" lon="6.40891">
        <ele>1536</ele>
      </trkpt>
      <trkpt lat="45.22754" lon="6.40954">
        <ele>1529</ele>
      </trkpt>
      <trkpt lat="45.22758" lon="6.41021">
        <ele>1518</ele>
      </trkpt>
      <trkpt lat="45.22865" lon="6.41016">
        <ele>1515</ele>
      </trkpt>
      <trkpt lat="45.22804" lon="6.41147">
        <ele>1488</ele>
      </trkpt>
      <trkpt lat="45.22844" lon="6.41173">
        <ele>1473</ele>
      </trkpt>
      <trkpt lat="45.22898" lon="6.4123">
        <ele>1455</ele>
      </trkpt>
      <trkpt lat="45.22966" lon="6.41282">
        <ele>1423</ele>
      </trkpt>
      <trkpt lat="45.23135" lon="6.41241">
        <ele>1402</ele>
      </trkpt>
      <trkpt lat="45.23074" lon="6.41418">
        <ele>1338</ele>
      </trkpt>
      <trkpt lat="45.23121" lon="6.41418">
        <ele>1317</ele>
      </trkpt>
      <trkpt lat="45.2311" lon="6.41455">
        <ele>1313</ele>
      </trkpt>
      <trkpt lat="45.23128" lon="6.4146">
        <ele>1310</ele>
      </trkpt>
      <trkpt lat="45.2311" lon="6.41512">
        <ele>1292</ele>
      </trkpt>
      <trkpt lat="45.23174" lon="6.41533">
        <ele>1274</ele>
      </trkpt>
      <trkpt lat="45.23304" lon="6.41491">
        <ele>1249</ele>
      </trkpt>
      <trkpt lat="45.23361" lon="6.4146">
        <ele>1232</ele>
      </trkpt>
      <trkpt lat="45.23397" lon="6.41434">
        <ele>1227</ele>
      </trkpt>
      <trkpt lat="45.23387" lon="6.41347">
        <ele>1231</ele>
      </trkpt>
      <trkpt lat="45.23409" lon="6.41198">
        <ele>1254.5</ele>
      </trkpt>
      <trkpt lat="45.23453" lon="6.41145">
        <ele>1243.4</ele>
      </trkpt>
      <trkpt lat="45.23506" lon="6.41027">
        <ele>1237.7</ele>
      </trkpt>
      <trkpt lat="45.23484" lon="6.40962">
        <ele>1258.8</ele>
      </trkpt>
      <trkpt lat="45.23469" lon="6.40971">
        <ele>1261.2</ele>
      </trkpt>
      <trkpt lat="45.23485" lon="6.41025">
        <ele>1254.4</ele>
      </trkpt>
      <trkpt lat="45.23392" lon="6.41109">
        <ele>1277.3</ele>
      </trkpt>
      <trkpt lat="45.23385" lon="6.41086">
        <ele>1280.5</ele>
      </trkpt>
      <trkpt lat="45.23418" lon="6.4105">
        <ele>1261.4</ele>
      </trkpt>
      <trkpt lat="45.23403" lon="6.40887">
        <ele>1304.4</ele>
      </trkpt>
      <trkpt lat="45.23427" lon="6.40701">
        <ele>1302.9</ele>
      </trkpt>
      <trkpt lat="45.23471" lon="6.40541">
        <ele>1319.7</ele>
      </trkpt>
      <trkpt lat="45.23464" lon="6.40484">
        <ele>1330.8</ele>
      </trkpt>
      <trkpt lat="45.23485" lon="6.40407">
        <ele>1331.2</ele>
      </trkpt>
      <trkpt lat="45.23496" lon="6.40354">
        <ele>1341.4</ele>
      </trkpt>
      <trkpt lat="45.23562" lon="6.40204">
        <ele>1344.6</ele>
      </trkpt>
      <trkpt lat="45.23599" lon="6.4017">
        <ele>1325</ele>
      </trkpt>
      <trkpt lat="45.23604" lon="6.40078">
        <ele>1355.2</ele>
      </trkpt>
      <trkpt lat="45.23683" lon="6.39929">
        <ele>1346.2</ele>
      </trkpt>
      <trkpt lat="45.23681" lon="6.39872">
        <ele>1348.4</ele>
      </trkpt>
      <trkpt lat="45.23588" lon="6.39718">
        <ele>1367.7</ele>
      </trkpt>
      <trkpt lat="45.23567" lon="6.39629">
        <ele>1383.2</ele>
      </trkpt>
      <trkpt lat="45.23553" lon="6.39608">
        <ele>1384</ele>
      </trkpt>
      <trkpt lat="45.23534" lon="6.39617">
        <ele>1389.3</ele>
      </trkpt>
      <trkpt lat="45.23531" lon="6.39652">
        <ele>1393.9</ele>
      </trkpt>
      <trkpt lat="45.23589" lon="6.39798">
        <ele>1378.2</ele>
      </trkpt>
      <trkpt lat="45.23492" lon="6.39947">
        <ele>1435.6</ele>
      </trkpt>
      <trkpt lat="45.23489" lon="6.39999">
        <ele>1427</ele>
      </trkpt>
      <trkpt lat="45.23502" lon="6.40078">
        <ele>1407.4</ele>
      </trkpt>
      <trkpt lat="45.23448" lon="6.40098">
        <ele>1424.8</ele>
      </trkpt>
      <trkpt lat="45.23391" lon="6.40134">
        <ele>1453.2</ele>
      </trkpt>
      <trkpt lat="45.23354" lon="6.40202">
        <ele>1440.5</ele>
      </trkpt>
      <trkpt lat="45.23302" lon="6.40265">
        <ele>1460.6</ele>
      </trkpt>
      <trkpt lat="45.23255" lon="6.4037">
        <ele>1456.1</ele>
      </trkpt>
      <trkpt lat="45.23198" lon="6.40525">
        <ele>1472.3</ele>
      </trkpt>
      <trkpt lat="45.23164" lon="6.40675">
        <ele>1478.7</ele>
      </trkpt>
      <trkpt lat="45.2313" lon="6.40729">
        <ele>1479</ele>
      </trkpt>
      <trkpt lat="45.2305" lon="6.40712">
        <ele>1496.6</ele>
      </trkpt>
      <trkpt lat="45.23001" lon="6.40808">
        <ele>1493</ele>
      </trkpt>
      <trkpt lat="45.22939" lon="6.40934">
        <ele>1511.2</ele>
      </trkpt>
      <trkpt lat="45.22925" lon="6.40891">
        <ele>1513.2</ele>
      </trkpt>
      <trkpt lat="45.22967" lon="6.40747">
        <ele>1519.3</ele>
      </trkpt>
      <trkpt lat="45.22959" lon="6.4073">
        <ele>1522.8</ele>
      </trkpt>
      <trkpt lat="45.22948" lon="6.40773">
        <ele>1515.9</ele>
      </trkpt>
      <trkpt lat="45.22885" lon="6.40915">
        <ele>1528.1</ele>
      </trkpt>
      <trkpt lat="45.22787" lon="6.40972">
        <ele>1528.8</ele>
      </trkpt>
      <trkpt lat="45.22746" lon="6.4095">
        <ele>1515.3</ele>
      </trkpt>
      <trkpt lat="45.22744" lon="6.40898">
        <ele>1524.5</ele>
      </trkpt>
      <trkpt lat="45.22802" lon="6.40852">
        <ele>1539.4</ele>
      </trkpt>
      <trkpt lat="45.2283" lon="6.40761">
        <ele>1553.5</ele>
      </trkpt>
      <trkpt lat="45.22946" lon="6.40542">
        <ele>1565.8</ele>
      </trkpt>
      <trkpt lat="45.22895" lon="6.40579">
        <ele>1580.7</ele>
      </trkpt>
      <trkpt lat="45.22798" lon="6.40647">
        <ele>1582.2</ele>
      </trkpt>
      <trkpt lat="45.22867" lon="6.40511">
        <ele>1590.5</ele>
      </trkpt>
      <trkpt lat="45.22795" lon="6.40455">
        <ele>1603.1</ele>
      </trkpt>
      <trkpt lat="45.22837" lon="6.40405">
        <ele>1606.1</ele>
      </trkpt>
      <trkpt lat="45.2283" lon="6.40343">
        <ele>1612.4</ele>
      </trkpt>
      <trkpt lat="45.22837" lon="6.40315">
        <ele>1614.1</ele>
      </trkpt>
      <trkpt lat="45.22963" lon="6.39861">
        <ele>1716</ele>
        <time>2018-08-16T10:52:00Z</time>
      </trkpt>
      <trkpt lat="45.22962" lon="6.39874">
        <ele>1715.8</ele>
        <time>2018-08-16T10:52:02Z</time>
      </trkpt>
      <trkpt lat="45.2305" lon="6.39789">
        <ele>1682.8</ele>
      </trkpt>
      <trkpt lat="45.22961" lon="6.39564">
        <ele>1722.3</ele>
      </trkpt>
      <trkpt lat="45.22961" lon="6.39446">
        <ele>1712.1</ele>
      </trkpt>
      <trkpt lat="45.22833" lon="6.38917">
        <ele>1763.8</ele>
      </trkpt>
      <trkpt lat="45.22871" lon="6.38713">
        <ele>1783</ele>
      </trkpt>
      <trkpt lat="45.22988" lon="6.38506">
        <ele>1777.5</ele>
      </trkpt>
      <trkpt lat="45.23012" lon="6.38396">
        <ele>1806.4</ele>
      </trkpt>
      <trkpt lat="45.23109" lon="6.38343">
        <ele>1790.5</ele>
      </trkpt>
      <trkpt lat="45.23103" lon="6.38228">
        <ele>1850.4</ele>
      </trkpt>
      <trkpt lat="45.23171" lon="6.38188">
        <ele>1827.6</ele>
      </trkpt>
      <trkpt lat="45.23424" lon="6.38002">
        <ele>1851.9</ele>
      </trkpt>
      <trkpt lat="45.23429" lon="6.3793">
        <ele>1859.6</ele>
      </trkpt>
      <trkpt lat="45.23455" lon="6.37893">
        <ele>1857.6</ele>
      </trkpt>
      <trkpt lat="45.23449" lon="6.37758">
        <ele>1874</ele>
      </trkpt>
      <trkpt lat="45.23484" lon="6.37707">
        <ele>1875.6</ele>
      </trkpt>
      <trkpt lat="45.2347" lon="6.37632">
        <ele>1895.4</ele>
      </trkpt>
      <trkpt lat="45.23683" lon="6.37324">
        <ele>1913</ele>
      </trkpt>
      <trkpt lat="45.23684" lon="6.37323">
        <ele>1912.7</ele>
      </trkpt>
      <trkpt lat="45.23683" lon="6.37325">
        <ele>1912.9</ele>
      </trkpt>
      <trkpt lat="45.23751" lon="6.3716">
        <ele>1907.1</ele>
      </trkpt>
      <trkpt lat="45.2375" lon="6.37137">
        <ele>1895.9</ele>
      </trkpt>
      <trkpt lat="45.23735" lon="6.37112">
        <ele>1905.2</ele>
      </trkpt>
      <trkpt lat="45.23733" lon="6.37111">
        <ele>1881.6</ele>
        <time>2020-08-22T13:53:28.000Z</time>
      </trkpt>
      <trkpt lat="45.23733" lon="6.37111">
        <ele>1881.6</ele>
        <time>2020-08-22T13:53:28.000Z</time>
      </trkpt>
      <trkpt lat="45.23733" lon="6.37105">
        <ele>1880.5</ele>
        <time>2020-08-22T13:53:30.000Z</time>
      </trkpt>
      <trkpt lat="45.23731" lon="6.37103">
        <ele>1879.9</ele>
        <time>2020-08-22T13:53:31.000Z</time>
      </trkpt>
      <trkpt lat="45.23725" lon="6.37098">
        <ele>1878</ele>
        <time>2020-08-22T13:53:33.000Z</time>
      </trkpt>
      <trkpt lat="45.23716" lon="6.37091">
        <ele>1875.6</ele>
        <time>2020-08-22T13:53:36.000Z</time>
      </trkpt>
      <trkpt lat="45.2371" lon="6.37088">
        <ele>1873.9</ele>
        <time>2020-08-22T13:53:38.000Z</time>
      </trkpt>
      <trkpt lat="45.23707" lon="6.37087">
        <ele>1873.1</ele>
        <time>2020-08-22T13:53:39.000Z</time>
      </trkpt>
      <trkpt lat="45.23698" lon="6.37082">
        <ele>1870.8</ele>
        <time>2020-08-22T13:53:41.000Z</time>
      </trkpt>
      <trkpt lat="45.23685" lon="6.37076">
        <ele>1867.3</ele>
        <time>2020-08-22T13:53:43.000Z</time>
      </trkpt>
      <trkpt lat="45.23665" lon="6.37066">
        <ele>1861.8</ele>
        <time>2020-08-22T13:53:47.000Z</time>
      </trkpt>
      <trkpt lat="45.23647" lon="6.37052">
        <ele>1856.7</ele>
        <time>2020-08-22T13:53:52.000Z</time>
      </trkpt>
      <trkpt lat="45.23638" lon="6.37043">
        <ele>1854</ele>
        <time>2020-08-22T13:53:55.000Z</time>
      </trkpt>
      <trkpt lat="45.23628" lon="6.37036">
        <ele>1851.2</ele>
        <time>2020-08-22T13:53:57.000Z</time>
      </trkpt>
      <trkpt lat="45.23623" lon="6.37032">
        <ele>1849.7</ele>
        <time>2020-08-22T13:53:58.000Z</time>
      </trkpt>
      <trkpt lat="45.23617" lon="6.37027">
        <ele>1848</ele>
        <time>2020-08-22T13:53:59.000Z</time>
      </trkpt>
      <trkpt lat="45.23611" lon="6.37021">
        <ele>1846</ele>
        <time>2020-08-22T13:54:00.000Z</time>
      </trkpt>
      <trkpt lat="45.23604" lon="6.37015">
        <ele>1844</ele>
        <time>2020-08-22T13:54:01.000Z</time>
      </trkpt>
      <trkpt lat="45.23596" lon="6.37008">
        <ele>1841.7</ele>
        <time>2020-08-22T13:54:02.000Z</time>
      </trkpt>
      <trkpt lat="45.23588" lon="6.37002">
        <ele>1839.3</ele>
        <time>2020-08-22T13:54:03.000Z</time>
      </trkpt>
      <trkpt lat="45.2358" lon="6.36995">
        <ele>1837</ele>
        <time>2020-08-22T13:54:04.000Z</time>
      </trkpt>
      <trkpt lat="45.23571" lon="6.36988">
        <ele>1834.4</ele>
        <time>2020-08-22T13:54:05.000Z</time>
      </trkpt>
      <trkpt lat="45.23564" lon="6.36982">
        <ele>1832.3</ele>
        <time>2020-08-22T13:54:06.000Z</time>
      </trkpt>
      <trkpt lat="45.23558" lon="6.36977">
        <ele>1830.6</ele>
        <time>2020-08-22T13:54:07.000Z</time>
      </trkpt>
      <trkpt lat="45.23554" lon="6.36972">
        <ele>1829.3</ele>
        <time>2020-08-22T13:54:08.000Z</time>
      </trkpt>
      <trkpt lat="45.23553" lon="6.36965">
        <ele>1828</ele>
        <time>2020-08-22T13:54:09.000Z</time>
      </trkpt>
      <trkpt lat="45.23557" lon="6.3695">
        <ele>1825.2</ele>
        <time>2020-08-22T13:54:11.000Z</time>
      </trkpt>
      <trkpt lat="45.23565" lon="6.36932">
        <ele>1821.5</ele>
        <time>2020-08-22T13:54:13.000Z</time>
      </trkpt>
      <trkpt lat="45.2357" lon="6.36924">
        <ele>1819.6</ele>
        <time>2020-08-22T13:54:14.000Z</time>
      </trkpt>
      <trkpt lat="45.23575" lon="6.36916">
        <ele>1817.5</ele>
        <time>2020-08-22T13:54:15.000Z</time>
      </trkpt>
      <trkpt lat="45.23581" lon="6.36907">
        <ele>1815.5</ele>
        <time>2020-08-22T13:54:16.000Z</time>
      </trkpt>
      <trkpt lat="45.23587" lon="6.369">
        <ele>1813.6</ele>
        <time>2020-08-22T13:54:17.000Z</time>
      </trkpt>
      <trkpt lat="45.23591" lon="6.36893">
        <ele>1811.9</ele>
        <time>2020-08-22T13:54:18.000Z</time>
      </trkpt>
      <trkpt lat="45.23594" lon="6.36887">
        <ele>1810.5</ele>
        <time>2020-08-22T13:54:19.000Z</time>
      </trkpt>
      <trkpt lat="45.23596" lon="6.36882">
        <ele>1809.6</ele>
        <time>2020-08-22T13:54:20.000Z</time>
      </trkpt>
      <trkpt lat="45.23597" lon="6.36879">
        <ele>1809</ele>
        <time>2020-08-22T13:54:21.000Z</time>
      </trkpt>
      <trkpt lat="45.23596" lon="6.36877">
        <ele>1808.6</ele>
        <time>2020-08-22T13:54:22.000Z</time>
      </trkpt>
      <trkpt lat="45.23595" lon="6.36875">
        <ele>1808.1</ele>
        <time>2020-08-22T13:54:23.000Z</time>
      </trkpt>
      <trkpt lat="45.2359" lon="6.36871">
        <ele>1806.8</ele>
        <time>2020-08-22T13:54:24.000Z</time>
      </trkpt>
      <trkpt lat="45.23584" lon="6.36869">
        <ele>1805.3</ele>
        <time>2020-08-22T13:54:25.000Z</time>
      </trkpt>
      <trkpt lat="45.23573" lon="6.36866">
        <ele>1802.4</ele>
        <time>2020-08-22T13:54:27.000Z</time>
      </trkpt>
      <trkpt lat="45.23568" lon="6.36864">
        <ele>1801.2</ele>
        <time>2020-08-22T13:54:28.000Z</time>
      </trkpt>
      <trkpt lat="45.23562" lon="6.36863">
        <ele>1799.5</ele>
        <time>2020-08-22T13:54:30.000Z</time>
      </trkpt>
      <trkpt lat="45.23562" lon="6.36861">
        <ele>1799.1</ele>
        <time>2020-08-22T13:54:32.000Z</time>
      </trkpt>
      <trkpt lat="45.23565" lon="6.36857">
        <ele>1798.2</ele>
        <time>2020-08-22T13:54:33.000Z</time>
      </trkpt>
      <trkpt lat="45.2357" lon="6.3685">
        <ele>1796.4</ele>
        <time>2020-08-22T13:54:35.000Z</time>
      </trkpt>
      <trkpt lat="45.23571" lon="6.36847">
        <ele>1795.8</ele>
        <time>2020-08-22T13:54:36.000Z</time>
      </trkpt>
      <trkpt lat="45.2357" lon="6.36844">
        <ele>1795.2</ele>
        <time>2020-08-22T13:54:37.000Z</time>
      </trkpt>
      <trkpt lat="45.23568" lon="6.36841">
        <ele>1794.5</ele>
        <time>2020-08-22T13:54:38.000Z</time>
      </trkpt>
      <trkpt lat="45.23559" lon="6.36835">
        <ele>1792</ele>
        <time>2020-08-22T13:54:40.000Z</time>
      </trkpt>
      <trkpt lat="45.23551" lon="6.36831">
        <ele>1789.9</ele>
        <time>2020-08-22T13:54:41.000Z</time>
      </trkpt>
      <trkpt lat="45.23544" lon="6.36827">
        <ele>1787.9</ele>
        <time>2020-08-22T13:54:42.000Z</time>
      </trkpt>
      <trkpt lat="45.23536" lon="6.36824">
        <ele>1785.9</ele>
        <time>2020-08-22T13:54:43.000Z</time>
      </trkpt>
      <trkpt lat="45.23524" lon="6.36821">
        <ele>1782.6</ele>
        <time>2020-08-22T13:54:45.000Z</time>
      </trkpt>
      <trkpt lat="45.23518" lon="6.36821">
        <ele>1781.2</ele>
        <time>2020-08-22T13:54:46.000Z</time>
      </trkpt>
      <trkpt lat="45.23512" lon="6.36821">
        <ele>1779.8</ele>
        <time>2020-08-22T13:54:47.000Z</time>
      </trkpt>
      <trkpt lat="45.23508" lon="6.3682">
        <ele>1778.6</ele>
        <time>2020-08-22T13:54:48.000Z</time>
      </trkpt>
      <trkpt lat="45.23499" lon="6.36821">
        <ele>1776.3</ele>
        <time>2020-08-22T13:54:50.000Z</time>
      </trkpt>
      <trkpt lat="45.23488" lon="6.36826">
        <ele>1773.5</ele>
        <time>2020-08-22T13:54:52.000Z</time>
      </trkpt>
      <trkpt lat="45.23481" lon="6.3683">
        <ele>1771.7</ele>
        <time>2020-08-22T13:54:53.000Z</time>
      </trkpt>
      <trkpt lat="45.23474" lon="6.36832">
        <ele>1769.7</ele>
        <time>2020-08-22T13:54:54.000Z</time>
      </trkpt>
      <trkpt lat="45.23456" lon="6.36831">
        <ele>1765.4</ele>
        <time>2020-08-22T13:54:56.000Z</time>
      </trkpt>
      <trkpt lat="45.23439" lon="6.3683">
        <ele>1761</ele>
        <time>2020-08-22T13:54:58.000Z</time>
      </trkpt>
      <trkpt lat="45.23431" lon="6.3683">
        <ele>1758.9</ele>
        <time>2020-08-22T13:54:59.000Z</time>
      </trkpt>
      <trkpt lat="45.23418" lon="6.3683">
        <ele>1755.6</ele>
        <time>2020-08-22T13:55:01.000Z</time>
      </trkpt>
      <trkpt lat="45.23412" lon="6.36828">
        <ele>1754</ele>
        <time>2020-08-22T13:55:02.000Z</time>
      </trkpt>
      <trkpt lat="45.23398" lon="6.36826">
        <ele>1750.6</ele>
        <time>2020-08-22T13:55:04.000Z</time>
      </trkpt>
      <trkpt lat="45.23389" lon="6.36825">
        <ele>1748.3</ele>
        <time>2020-08-22T13:55:05.000Z</time>
      </trkpt>
      <trkpt lat="45.2338" lon="6.36826">
        <ele>1745.9</ele>
        <time>2020-08-22T13:55:06.000Z</time>
      </trkpt>
      <trkpt lat="45.23361" lon="6.36827">
        <ele>1741.3</ele>
        <time>2020-08-22T13:55:08.000Z</time>
      </trkpt>
      <trkpt lat="45.23352" lon="6.36826">
        <ele>1738.9</ele>
        <time>2020-08-22T13:55:09.000Z</time>
      </trkpt>
      <trkpt lat="45.23343" lon="6.36824">
        <ele>1736.6</ele>
        <time>2020-08-22T13:55:10.000Z</time>
      </trkpt>
      <trkpt lat="45.23334" lon="6.36821">
        <ele>1734.4</ele>
        <time>2020-08-22T13:55:11.000Z</time>
      </trkpt>
      <trkpt lat="45.23328" lon="6.36819">
        <ele>1732.7</ele>
        <time>2020-08-22T13:55:12.000Z</time>
      </trkpt>
      <trkpt lat="45.23317" lon="6.36821">
        <ele>1729.9</ele>
        <time>2020-08-22T13:55:15.000Z</time>
      </trkpt>
      <trkpt lat="45.23314" lon="6.36825">
        <ele>1729</ele>
        <time>2020-08-22T13:55:18.000Z</time>
      </trkpt>
      <trkpt lat="45.23313" lon="6.36826">
        <ele>1728.7</ele>
        <time>2020-08-22T13:55:19.000Z</time>
      </trkpt>
      <trkpt lat="45.23312" lon="6.36827">
        <ele>1728.2</ele>
        <time>2020-08-22T13:55:22.000Z</time>
      </trkpt>
      <trkpt lat="45.23309" lon="6.36826">
        <ele>1727.6</ele>
        <time>2020-08-22T13:55:23.000Z</time>
      </trkpt>
      <trkpt lat="45.23307" lon="6.36825">
        <ele>1727.1</ele>
        <time>2020-08-22T13:55:24.000Z</time>
      </trkpt>
      <trkpt lat="45.233" lon="6.36824">
        <ele>1725.4</ele>
        <time>2020-08-22T13:55:28.000Z</time>
      </trkpt>
      <trkpt lat="45.23299" lon="6.36824">
        <ele>1725</ele>
        <time>2020-08-22T13:55:30.000Z</time>
      </trkpt>
      <trkpt lat="45.2329" lon="6.36819">
        <ele>1722.6</ele>
        <time>2020-08-22T13:55:33.000Z</time>
      </trkpt>
      <trkpt lat="45.23266" lon="6.36802">
        <ele>1715.9</ele>
        <time>2020-08-22T13:55:38.000Z</time>
      </trkpt>
      <trkpt lat="45.23261" lon="6.36798">
        <ele>1714.4</ele>
        <time>2020-08-22T13:55:39.000Z</time>
      </trkpt>
      <trkpt lat="45.23251" lon="6.36788">
        <ele>1711.2</ele>
        <time>2020-08-22T13:55:42.000Z</time>
      </trkpt>
      <trkpt lat="45.23247" lon="6.36783">
        <ele>1710</ele>
        <time>2020-08-22T13:55:43.000Z</time>
      </trkpt>
      <trkpt lat="45.23236" lon="6.36758">
        <ele>1704.8</ele>
        <time>2020-08-22T13:55:46.000Z</time>
      </trkpt>
      <trkpt lat="45.23233" lon="6.36751">
        <ele>1703.3</ele>
        <time>2020-08-22T13:55:47.000Z</time>
      </trkpt>
      <trkpt lat="45.23219" lon="6.36722">
        <ele>1697</ele>
        <time>2020-08-22T13:55:51.000Z</time>
      </trkpt>
      <trkpt lat="45.23214" lon="6.36715">
        <ele>1695.3</ele>
        <time>2020-08-22T13:55:52.000Z</time>
      </trkpt>
      <trkpt lat="45.232" lon="6.367">
        <ele>1691</ele>
        <time>2020-08-22T13:55:54.000Z</time>
      </trkpt>
      <trkpt lat="45.23188" lon="6.36687">
        <ele>1687.1</ele>
        <time>2020-08-22T13:55:56.000Z</time>
      </trkpt>
      <trkpt lat="45.23185" lon="6.36681">
        <ele>1685.7</ele>
        <time>2020-08-22T13:55:57.000Z</time>
      </trkpt>
      <trkpt lat="45.23183" lon="6.36674">
        <ele>1684.4</ele>
        <time>2020-08-22T13:55:58.000Z</time>
      </trkpt>
      <trkpt lat="45.23184" lon="6.36665">
        <ele>1682.8</ele>
        <time>2020-08-22T13:55:59.000Z</time>
      </trkpt>
      <trkpt lat="45.23186" lon="6.36654">
        <ele>1680.8</ele>
        <time>2020-08-22T13:56:00.000Z</time>
      </trkpt>
      <trkpt lat="45.23195" lon="6.36633">
        <ele>1676.5</ele>
        <time>2020-08-22T13:56:02.000Z</time>
      </trkpt>
      <trkpt lat="45.23199" lon="6.36622">
        <ele>1674.2</ele>
        <time>2020-08-22T13:56:03.000Z</time>
      </trkpt>
      <trkpt lat="45.23208" lon="6.36593">
        <ele>1668.6</ele>
        <time>2020-08-22T13:56:06.000Z</time>
      </trkpt>
      <trkpt lat="45.23207" lon="6.36585">
        <ele>1667.2</ele>
        <time>2020-08-22T13:56:07.000Z</time>
      </trkpt>
      <trkpt lat="45.23206" lon="6.3657">
        <ele>1664.4</ele>
        <time>2020-08-22T13:56:09.000Z</time>
      </trkpt>
      <trkpt lat="45.23207" lon="6.36553">
        <ele>1660.8</ele>
        <time>2020-08-22T13:56:11.000Z</time>
      </trkpt>
      <trkpt lat="45.2321" lon="6.36546">
        <ele>1659.5</ele>
        <time>2020-08-22T13:56:12.000Z</time>
      </trkpt>
      <trkpt lat="45.23216" lon="6.36537">
        <ele>1657.8</ele>
        <time>2020-08-22T13:56:13.000Z</time>
      </trkpt>
      <trkpt lat="45.23223" lon="6.3653">
        <ele>1655.7</ele>
        <time>2020-08-22T13:56:14.000Z</time>
      </trkpt>
      <trkpt lat="45.2323" lon="6.36522">
        <ele>1653.7</ele>
        <time>2020-08-22T13:56:15.000Z</time>
      </trkpt>
      <trkpt lat="45.23238" lon="6.36514">
        <ele>1652.1</ele>
        <time>2020-08-22T13:56:16.000Z</time>
      </trkpt>
      <trkpt lat="45.23247" lon="6.36508">
        <ele>1650.5</ele>
        <time>2020-08-22T13:56:17.000Z</time>
      </trkpt>
      <trkpt lat="45.23256" lon="6.36501">
        <ele>1649</ele>
        <time>2020-08-22T13:56:18.000Z</time>
      </trkpt>
      <trkpt lat="45.23264" lon="6.36492">
        <ele>1647.4</ele>
        <time>2020-08-22T13:56:19.000Z</time>
      </trkpt>
      <trkpt lat="45.23279" lon="6.36473">
        <ele>1643.9</ele>
        <time>2020-08-22T13:56:21.000Z</time>
      </trkpt>
      <trkpt lat="45.23287" lon="6.36465">
        <ele>1642</ele>
        <time>2020-08-22T13:56:22.000Z</time>
      </trkpt>
      <trkpt lat="45.23294" lon="6.36457">
        <ele>1640.2</ele>
        <time>2020-08-22T13:56:23.000Z</time>
      </trkpt>
      <trkpt lat="45.23302" lon="6.36451">
        <ele>1638.5</ele>
        <time>2020-08-22T13:56:24.000Z</time>
      </trkpt>
      <trkpt lat="45.2331" lon="6.36446">
        <ele>1636.8</ele>
        <time>2020-08-22T13:56:25.000Z</time>
      </trkpt>
      <trkpt lat="45.23325" lon="6.36434">
        <ele>1633.3</ele>
        <time>2020-08-22T13:56:27.000Z</time>
      </trkpt>
      <trkpt lat="45.23342" lon="6.36422">
        <ele>1630.1</ele>
        <time>2020-08-22T13:56:29.000Z</time>
      </trkpt>
      <trkpt lat="45.23361" lon="6.36408">
        <ele>1626.7</ele>
        <time>2020-08-22T13:56:31.000Z</time>
      </trkpt>
      <trkpt lat="45.23374" lon="6.36387">
        <ele>1622.9</ele>
        <time>2020-08-22T13:56:33.000Z</time>
      </trkpt>
      <trkpt lat="45.23384" lon="6.36365">
        <ele>1619.8</ele>
        <time>2020-08-22T13:56:35.000Z</time>
      </trkpt>
      <trkpt lat="45.23395" lon="6.36343">
        <ele>1616.4</ele>
        <time>2020-08-22T13:56:37.000Z</time>
      </trkpt>
      <trkpt lat="45.23408" lon="6.36323">
        <ele>1612.8</ele>
        <time>2020-08-22T13:56:39.000Z</time>
      </trkpt>
      <trkpt lat="45.23423" lon="6.36304">
        <ele>1608.8</ele>
        <time>2020-08-22T13:56:41.000Z</time>
      </trkpt>
      <trkpt lat="45.23438" lon="6.36285">
        <ele>1604.7</ele>
        <time>2020-08-22T13:56:43.000Z</time>
      </trkpt>
      <trkpt lat="45.23452" lon="6.36265">
        <ele>1600.1</ele>
        <time>2020-08-22T13:56:45.000Z</time>
      </trkpt>
      <trkpt lat="45.23459" lon="6.36254">
        <ele>1597.6</ele>
        <time>2020-08-22T13:56:46.000Z</time>
      </trkpt>
      <trkpt lat="45.23466" lon="6.36243">
        <ele>1595.4</ele>
        <time>2020-08-22T13:56:47.000Z</time>
      </trkpt>
      <trkpt lat="45.2348" lon="6.36221">
        <ele>1590.4</ele>
        <time>2020-08-22T13:56:49.000Z</time>
      </trkpt>
      <trkpt lat="45.23487" lon="6.36211">
        <ele>1587.9</ele>
        <time>2020-08-22T13:56:50.000Z</time>
      </trkpt>
      <trkpt lat="45.23494" lon="6.36201">
        <ele>1585.6</ele>
        <time>2020-08-22T13:56:51.000Z</time>
      </trkpt>
      <trkpt lat="45.23508" lon="6.36182">
        <ele>1581.1</ele>
        <time>2020-08-22T13:56:53.000Z</time>
      </trkpt>
      <trkpt lat="45.23522" lon="6.36165">
        <ele>1577</ele>
        <time>2020-08-22T13:56:55.000Z</time>
      </trkpt>
      <trkpt lat="45.23528" lon="6.36158">
        <ele>1575.3</ele>
        <time>2020-08-22T13:56:56.000Z</time>
      </trkpt>
      <trkpt lat="45.23533" lon="6.36153">
        <ele>1573.8</ele>
        <time>2020-08-22T13:56:57.000Z</time>
      </trkpt>
      <trkpt lat="45.23541" lon="6.36146">
        <ele>1571.5</ele>
        <time>2020-08-22T13:56:59.000Z</time>
      </trkpt>
      <trkpt lat="45.23546" lon="6.36141">
        <ele>1570</ele>
        <time>2020-08-22T13:57:01.000Z</time>
      </trkpt>
      <trkpt lat="45.23548" lon="6.36138">
        <ele>1569.3</ele>
        <time>2020-08-22T13:57:02.000Z</time>
      </trkpt>
      <trkpt lat="45.23548" lon="6.36134">
        <ele>1568.7</ele>
        <time>2020-08-22T13:57:03.000Z</time>
      </trkpt>
      <trkpt lat="45.23549" lon="6.36129">
        <ele>1567.9</ele>
        <time>2020-08-22T13:57:05.000Z</time>
      </trkpt>
      <trkpt lat="45.23549" lon="6.36127">
        <ele>1567.7</ele>
        <time>2020-08-22T13:57:07.000Z</time>
      </trkpt>
      <trkpt lat="45.23549" lon="6.36127">
        <ele>1567.6</ele>
        <time>2020-08-22T13:57:09.000Z</time>
      </trkpt>
      <trkpt lat="45.23549" lon="6.36128">
        <ele>1567.5</ele>
        <time>2020-08-22T13:57:11.000Z</time>
      </trkpt>
      <trkpt lat="45.2355" lon="6.36128">
        <ele>1567.4</ele>
        <time>2020-08-22T13:57:13.000Z</time>
      </trkpt>
      <trkpt lat="45.2355" lon="6.36129">
        <ele>1567.4</ele>
        <time>2020-08-22T13:57:15.000Z</time>
      </trkpt>
      <trkpt lat="45.2355" lon="6.36128">
        <ele>1567.3</ele>
        <time>2020-08-22T13:57:17.000Z</time>
      </trkpt>
      <trkpt lat="45.23552" lon="6.36127">
        <ele>1566.8</ele>
        <time>2020-08-22T13:57:19.000Z</time>
      </trkpt>
      <trkpt lat="45.23553" lon="6.36126">
        <ele>1566.5</ele>
        <time>2020-08-22T13:57:20.000Z</time>
      </trkpt>
      <trkpt lat="45.23556" lon="6.36123">
        <ele>1565.9</ele>
        <time>2020-08-22T13:57:21.000Z</time>
      </trkpt>
      <trkpt lat="45.23559" lon="6.36118">
        <ele>1564.8</ele>
        <time>2020-08-22T13:57:22.000Z</time>
      </trkpt>
      <trkpt lat="45.23563" lon="6.36112">
        <ele>1563.6</ele>
        <time>2020-08-22T13:57:23.000Z</time>
      </trkpt>
      <trkpt lat="45.23567" lon="6.361">
        <ele>1561.7</ele>
        <time>2020-08-22T13:57:25.000Z</time>
      </trkpt>
      <trkpt lat="45.23566" lon="6.36093">
        <ele>1560.7</ele>
        <time>2020-08-22T13:57:26.000Z</time>
      </trkpt>
      <trkpt lat="45.23565" lon="6.36086">
        <ele>1559.6</ele>
        <time>2020-08-22T13:57:27.000Z</time>
      </trkpt>
      <trkpt lat="45.23563" lon="6.36066">
        <ele>1556.7</ele>
        <time>2020-08-22T13:57:29.000Z</time>
      </trkpt>
      <trkpt lat="45.23563" lon="6.36054">
        <ele>1555</ele>
        <time>2020-08-22T13:57:30.000Z</time>
      </trkpt>
      <trkpt lat="45.23564" lon="6.36043">
        <ele>1553.4</ele>
        <time>2020-08-22T13:57:31.000Z</time>
      </trkpt>
      <trkpt lat="45.23566" lon="6.36033">
        <ele>1551.8</ele>
        <time>2020-08-22T13:57:32.000Z</time>
      </trkpt>
      <trkpt lat="45.23569" lon="6.36022">
        <ele>1550.1</ele>
        <time>2020-08-22T13:57:33.000Z</time>
      </trkpt>
      <trkpt lat="45.23576" lon="6.36">
        <ele>1546.6</ele>
        <time>2020-08-22T13:57:35.000Z</time>
      </trkpt>
      <trkpt lat="45.23582" lon="6.35977">
        <ele>1543.1</ele>
        <time>2020-08-22T13:57:37.000Z</time>
      </trkpt>
      <trkpt lat="45.23589" lon="6.35955">
        <ele>1539.4</ele>
        <time>2020-08-22T13:57:39.000Z</time>
      </trkpt>
      <trkpt lat="45.23594" lon="6.35941">
        <ele>1537.2</ele>
        <time>2020-08-22T13:57:41.000Z</time>
      </trkpt>
      <trkpt lat="45.23594" lon="6.3594">
        <ele>1537</ele>
        <time>2020-08-22T13:57:43.000Z</time>
      </trkpt>
      <trkpt lat="45.23594" lon="6.3594">
        <ele>1536.9</ele>
        <time>2020-08-22T13:57:45.000Z</time>
      </trkpt>
      <trkpt lat="45.23594" lon="6.3594">
        <ele>1536.8</ele>
        <time>2020-08-22T13:57:47.000Z</time>
      </trkpt>
      <trkpt lat="45.23594" lon="6.3594">
        <ele>1536.8</ele>
        <time>2020-08-22T13:57:48.000Z</time>
      </trkpt>
      <trkpt lat="45.23594" lon="6.3594">
        <ele>1536.8</ele>
        <time>2020-08-22T13:57:49.000Z</time>
      </trkpt>
      <trkpt lat="45.23594" lon="6.3594">
        <ele>1536.7</ele>
        <time>2020-08-22T13:57:51.000Z</time>
      </trkpt>
      <trkpt lat="45.23594" lon="6.3594">
        <ele>1536.7</ele>
        <time>2020-08-22T13:57:53.000Z</time>
      </trkpt>
      <trkpt lat="45.23594" lon="6.3594">
        <ele>1536.6</ele>
        <time>2020-08-22T13:57:55.000Z</time>
      </trkpt>
      <trkpt lat="45.23594" lon="6.3594">
        <ele>1536.6</ele>
        <time>2020-08-22T13:57:57.000Z</time>
      </trkpt>
      <trkpt lat="45.23594" lon="6.3594">
        <ele>1536.6</ele>
        <time>2020-08-22T13:57:58.000Z</time>
      </trkpt>
      <trkpt lat="45.23594" lon="6.3594">
        <ele>1536.5</ele>
        <time>2020-08-22T13:57:59.000Z</time>
      </trkpt>
      <trkpt lat="45.23594" lon="6.3594">
        <ele>1536.5</ele>
        <time>2020-08-22T13:58:01.000Z</time>
      </trkpt>
      <trkpt lat="45.23594" lon="6.3594">
        <ele>1536.4</ele>
        <time>2020-08-22T13:58:03.000Z</time>
      </trkpt>
      <trkpt lat="45.23594" lon="6.35939">
        <ele>1536.4</ele>
        <time>2020-08-22T13:58:05.000Z</time>
      </trkpt>
      <trkpt lat="45.23597" lon="6.35937">
        <ele>1535.6</ele>
        <time>2020-08-22T13:58:07.000Z</time>
      </trkpt>
      <trkpt lat="45.23599" lon="6.35934">
        <ele>1535</ele>
        <time>2020-08-22T13:58:08.000Z</time>
      </trkpt>
      <trkpt lat="45.23602" lon="6.35929">
        <ele>1534.1</ele>
        <time>2020-08-22T13:58:09.000Z</time>
      </trkpt>
      <trkpt lat="45.2361" lon="6.35916">
        <ele>1531.6</ele>
        <time>2020-08-22T13:58:11.000Z</time>
      </trkpt>
      <trkpt lat="45.2362" lon="6.35901">
        <ele>1528.5</ele>
        <time>2020-08-22T13:58:13.000Z</time>
      </trkpt>
      <trkpt lat="45.23626" lon="6.35895">
        <ele>1527</ele>
        <time>2020-08-22T13:58:14.000Z</time>
      </trkpt>
      <trkpt lat="45.23633" lon="6.35889">
        <ele>1525.3</ele>
        <time>2020-08-22T13:58:15.000Z</time>
      </trkpt>
      <trkpt lat="45.23647" lon="6.35878">
        <ele>1522</ele>
        <time>2020-08-22T13:58:17.000Z</time>
      </trkpt>
      <trkpt lat="45.23661" lon="6.35867">
        <ele>1518.7</ele>
        <time>2020-08-22T13:58:19.000Z</time>
      </trkpt>
      <trkpt lat="45.23675" lon="6.35858">
        <ele>1515.5</ele>
        <time>2020-08-22T13:58:21.000Z</time>
      </trkpt>
      <trkpt lat="45.23682" lon="6.35855">
        <ele>1513.9</ele>
        <time>2020-08-22T13:58:22.000Z</time>
      </trkpt>
      <trkpt lat="45.23689" lon="6.35853">
        <ele>1512.5</ele>
        <time>2020-08-22T13:58:23.000Z</time>
      </trkpt>
      <trkpt lat="45.23695" lon="6.35852">
        <ele>1511.2</ele>
        <time>2020-08-22T13:58:24.000Z</time>
      </trkpt>
      <trkpt lat="45.237" lon="6.35851">
        <ele>1510.1</ele>
        <time>2020-08-22T13:58:25.000Z</time>
      </trkpt>
      <trkpt lat="45.23706" lon="6.35851">
        <ele>1509</ele>
        <time>2020-08-22T13:58:26.000Z</time>
      </trkpt>
      <trkpt lat="45.23711" lon="6.35849">
        <ele>1507.7</ele>
        <time>2020-08-22T13:58:27.000Z</time>
      </trkpt>
      <trkpt lat="45.23717" lon="6.35846">
        <ele>1506.6</ele>
        <time>2020-08-22T13:58:28.000Z</time>
      </trkpt>
      <trkpt lat="45.23722" lon="6.35843">
        <ele>1505.5</ele>
        <time>2020-08-22T13:58:29.000Z</time>
      </trkpt>
      <trkpt lat="45.23728" lon="6.35839">
        <ele>1504</ele>
        <time>2020-08-22T13:58:31.000Z</time>
      </trkpt>
      <trkpt lat="45.23729" lon="6.35839">
        <ele>1503.7</ele>
        <time>2020-08-22T13:58:32.000Z</time>
      </trkpt>
      <trkpt lat="45.2373" lon="6.35839">
        <ele>1503.7</ele>
        <time>2020-08-22T13:58:33.000Z</time>
      </trkpt>
      <trkpt lat="45.23729" lon="6.35838">
        <ele>1503.5</ele>
        <time>2020-08-22T13:58:35.000Z</time>
      </trkpt>
      <trkpt lat="45.23728" lon="6.35837">
        <ele>1503.2</ele>
        <time>2020-08-22T13:58:37.000Z</time>
      </trkpt>
      <trkpt lat="45.23727" lon="6.35835">
        <ele>1502.9</ele>
        <time>2020-08-22T13:58:39.000Z</time>
      </trkpt>
      <trkpt lat="45.23727" lon="6.35835">
        <ele>1502.8</ele>
        <time>2020-08-22T13:58:40.000Z</time>
      </trkpt>
      <trkpt lat="45.23727" lon="6.35835">
        <ele>1502.8</ele>
        <time>2020-08-22T13:58:41.000Z</time>
      </trkpt>
      <trkpt lat="45.23726" lon="6.35834">
        <ele>1502.7</ele>
        <time>2020-08-22T13:58:43.000Z</time>
      </trkpt>
      <trkpt lat="45.23726" lon="6.35834">
        <ele>1502.6</ele>
        <time>2020-08-22T13:58:45.000Z</time>
      </trkpt>
      <trkpt lat="45.23726" lon="6.35834">
        <ele>1502.6</ele>
        <time>2020-08-22T13:58:46.000Z</time>
      </trkpt>
      <trkpt lat="45.23726" lon="6.35834">
        <ele>1502.6</ele>
        <time>2020-08-22T13:58:47.000Z</time>
      </trkpt>
      <trkpt lat="45.23726" lon="6.35834">
        <ele>1502.5</ele>
        <time>2020-08-22T13:58:49.000Z</time>
      </trkpt>
      <trkpt lat="45.23726" lon="6.35834">
        <ele>1502.5</ele>
        <time>2020-08-22T13:58:51.000Z</time>
      </trkpt>
      <trkpt lat="45.23726" lon="6.35835">
        <ele>1502.4</ele>
        <time>2020-08-22T13:58:53.000Z</time>
      </trkpt>
      <trkpt lat="45.23725" lon="6.35836">
        <ele>1502.1</ele>
        <time>2020-08-22T13:58:55.000Z</time>
      </trkpt>
      <trkpt lat="45.23724" lon="6.35838">
        <ele>1501.8</ele>
        <time>2020-08-22T13:58:56.000Z</time>
      </trkpt>
      <trkpt lat="45.23724" lon="6.35839">
        <ele>1501.6</ele>
        <time>2020-08-22T13:58:57.000Z</time>
      </trkpt>
      <trkpt lat="45.23723" lon="6.35843">
        <ele>1501</ele>
        <time>2020-08-22T13:58:59.000Z</time>
      </trkpt>
      <trkpt lat="45.23722" lon="6.35846">
        <ele>1500.6</ele>
        <time>2020-08-22T13:59:01.000Z</time>
      </trkpt>
      <trkpt lat="45.23722" lon="6.35847">
        <ele>1500.4</ele>
        <time>2020-08-22T13:59:03.000Z</time>
      </trkpt>
      <trkpt lat="45.23722" lon="6.35847">
        <ele>1500.4</ele>
        <time>2020-08-22T13:59:04.000Z</time>
      </trkpt>
      <trkpt lat="45.23722" lon="6.35847">
        <ele>1500.3</ele>
        <time>2020-08-22T13:59:05.000Z</time>
      </trkpt>
      <trkpt lat="45.23721" lon="6.35848">
        <ele>1500.1</ele>
        <time>2020-08-22T13:59:07.000Z</time>
      </trkpt>
      <trkpt lat="45.23721" lon="6.3585">
        <ele>1499.9</ele>
        <time>2020-08-22T13:59:09.000Z</time>
      </trkpt>
      <trkpt lat="45.23721" lon="6.3585">
        <ele>1499.7</ele>
        <time>2020-08-22T13:59:11.000Z</time>
      </trkpt>
      <trkpt lat="45.23722" lon="6.3585">
        <ele>1499.7</ele>
        <time>2020-08-22T13:59:13.000Z</time>
      </trkpt>
      <trkpt lat="45.23722" lon="6.3585">
        <ele>1499.6</ele>
        <time>2020-08-22T13:59:15.000Z</time>
      </trkpt>
      <trkpt lat="45.23723" lon="6.35848">
        <ele>1499.3</ele>
        <time>2020-08-22T13:59:17.000Z</time>
      </trkpt>
      <trkpt lat="45.23724" lon="6.35848">
        <ele>1499.1</ele>
        <time>2020-08-22T13:59:18.000Z</time>
      </trkpt>
      <trkpt lat="45.23725" lon="6.35847">
        <ele>1498.9</ele>
        <time>2020-08-22T13:59:19.000Z</time>
      </trkpt>
      <trkpt lat="45.23725" lon="6.35846">
        <ele>1498.6</ele>
        <time>2020-08-22T13:59:21.000Z</time>
      </trkpt>
      <trkpt lat="45.23726" lon="6.35845">
        <ele>1498.5</ele>
        <time>2020-08-22T13:59:23.000Z</time>
      </trkpt>
      <trkpt lat="45.23726" lon="6.35844">
        <ele>1498.3</ele>
        <time>2020-08-22T13:59:25.000Z</time>
      </trkpt>
      <trkpt lat="45.23727" lon="6.3584">
        <ele>1497.8</ele>
        <time>2020-08-22T13:59:27.000Z</time>
      </trkpt>
      <trkpt lat="45.23727" lon="6.35839">
        <ele>1497.6</ele>
        <time>2020-08-22T13:59:28.000Z</time>
      </trkpt>
      <trkpt lat="45.23729" lon="6.35839">
        <ele>1497.2</ele>
        <time>2020-08-22T13:59:29.000Z</time>
      </trkpt>
      <trkpt lat="45.23732" lon="6.35839">
        <ele>1496.7</ele>
        <time>2020-08-22T13:59:31.000Z</time>
      </trkpt>
      <trkpt lat="45.23734" lon="6.35839">
        <ele>1496.7</ele>
        <time>2020-08-22T13:59:33.000Z</time>
      </trkpt>
      <trkpt lat="45.23734" lon="6.3584">
        <ele>1496</ele>
        <time>2020-08-22T13:59:35.000Z</time>
      </trkpt>
      <trkpt lat="45.23733" lon="6.35842">
        <ele>1496.6</ele>
        <time>2020-08-22T13:59:37.000Z</time>
      </trkpt>
      <trkpt lat="45.23732" lon="6.35843">
        <ele>1496.4</ele>
        <time>2020-08-22T13:59:39.000Z</time>
      </trkpt>
      <trkpt lat="45.23731" lon="6.35844">
        <ele>1496.3</ele>
        <time>2020-08-22T13:59:41.000Z</time>
      </trkpt>
      <trkpt lat="45.23731" lon="6.35844">
        <ele>1496.3</ele>
        <time>2020-08-22T13:59:42.000Z</time>
      </trkpt>
      <trkpt lat="45.23731" lon="6.35845">
        <ele>1496.3</ele>
        <time>2020-08-22T13:59:43.000Z</time>
      </trkpt>
      <trkpt lat="45.23731" lon="6.35847">
        <ele>1496.9</ele>
        <time>2020-08-22T13:59:46.000Z</time>
      </trkpt>
      <trkpt lat="45.2373" lon="6.35847">
        <ele>1496.6</ele>
        <time>2020-08-22T13:59:49.000Z</time>
      </trkpt>
      <trkpt lat="45.2373" lon="6.35847">
        <ele>1496.5</ele>
        <time>2020-08-22T13:59:50.000Z</time>
      </trkpt>
      <trkpt lat="45.23729" lon="6.35847">
        <ele>1496.5</ele>
        <time>2020-08-22T13:59:52.000Z</time>
      </trkpt>
      <trkpt lat="45.23729" lon="6.35848">
        <ele>1496.5</ele>
        <time>2020-08-22T13:59:53.000Z</time>
      </trkpt>
      <trkpt lat="45.23729" lon="6.3585">
        <ele>1496.4</ele>
        <time>2020-08-22T13:59:55.000Z</time>
      </trkpt>
      <trkpt lat="45.23728" lon="6.35855">
        <ele>1495.7</ele>
        <time>2020-08-22T13:59:58.000Z</time>
      </trkpt>
      <trkpt lat="45.23725" lon="6.35863">
        <ele>1495.9</ele>
        <time>2020-08-22T14:00:01.000Z</time>
      </trkpt>
      <trkpt lat="45.23724" lon="6.35866">
        <ele>1496</ele>
        <time>2020-08-22T14:00:02.000Z</time>
      </trkpt>
      <trkpt lat="45.23723" lon="6.3587">
        <ele>1495.5</ele>
        <time>2020-08-22T14:00:04.000Z</time>
      </trkpt>
      <trkpt lat="45.23722" lon="6.35871">
        <ele>1495.4</ele>
        <time>2020-08-22T14:00:06.000Z</time>
      </trkpt>
      <trkpt lat="45.23722" lon="6.35872">
        <ele>1495.4</ele>
        <time>2020-08-22T14:00:07.000Z</time>
      </trkpt>
      <trkpt lat="45.23722" lon="6.35873">
        <ele>1494.8</ele>
        <time>2020-08-22T14:00:09.000Z</time>
      </trkpt>
      <trkpt lat="45.23722" lon="6.35873">
        <ele>1494.8</ele>
        <time>2020-08-22T14:00:10.000Z</time>
      </trkpt>
      <trkpt lat="45.23722" lon="6.35876">
        <ele>1494.8</ele>
        <time>2020-08-22T14:00:13.000Z</time>
      </trkpt>
      <trkpt lat="45.23721" lon="6.3588">
        <ele>1495</ele>
        <time>2020-08-22T14:00:16.000Z</time>
      </trkpt>
      <trkpt lat="45.23722" lon="6.3588">
        <ele>1494.1</ele>
        <time>2020-08-22T14:00:19.000Z</time>
      </trkpt>
      <trkpt lat="45.23727" lon="6.3588">
        <ele>1493.2</ele>
        <time>2020-08-22T14:00:22.000Z</time>
      </trkpt>
      <trkpt lat="45.23728" lon="6.3588">
        <ele>1492.4</ele>
        <time>2020-08-22T14:00:23.000Z</time>
      </trkpt>
      <trkpt lat="45.23729" lon="6.35882">
        <ele>1491.7</ele>
        <time>2020-08-22T14:00:25.000Z</time>
      </trkpt>
      <trkpt lat="45.23729" lon="6.35883">
        <ele>1491.7</ele>
        <time>2020-08-22T14:00:26.000Z</time>
      </trkpt>
      <trkpt lat="45.23729" lon="6.35884">
        <ele>1491.6</ele>
        <time>2020-08-22T14:00:27.000Z</time>
      </trkpt>
      <trkpt lat="45.23728" lon="6.35886">
        <ele>1490.9</ele>
        <time>2020-08-22T14:00:28.000Z</time>
      </trkpt>
      <trkpt lat="45.23727" lon="6.3589">
        <ele>1491</ele>
        <time>2020-08-22T14:00:31.000Z</time>
      </trkpt>
      <trkpt lat="45.23728" lon="6.3589">
        <ele>1491.7</ele>
        <time>2020-08-22T14:00:32.000Z</time>
      </trkpt>
      <trkpt lat="45.23728" lon="6.35889">
        <ele>1490.8</ele>
        <time>2020-08-22T14:00:34.000Z</time>
      </trkpt>
      <trkpt lat="45.23727" lon="6.35889">
        <ele>1491.6</ele>
        <time>2020-08-22T14:00:37.000Z</time>
      </trkpt>
      <trkpt lat="45.23727" lon="6.35889">
        <ele>1491.6</ele>
        <time>2020-08-22T14:00:38.000Z</time>
      </trkpt>
      <trkpt lat="45.23727" lon="6.35889">
        <ele>1491.6</ele>
        <time>2020-08-22T14:00:40.000Z</time>
      </trkpt>
      <trkpt lat="45.23725" lon="6.35889">
        <ele>1491.5</ele>
        <time>2020-08-22T14:00:43.000Z</time>
      </trkpt>
      <trkpt lat="45.23725" lon="6.35887">
        <ele>1491.5</ele>
        <time>2020-08-22T14:00:46.000Z</time>
      </trkpt>
      <trkpt lat="45.23725" lon="6.35886">
        <ele>1491.5</ele>
        <time>2020-08-22T14:00:47.000Z</time>
      </trkpt>
      <trkpt lat="45.23726" lon="6.35884">
        <ele>1492.1</ele>
        <time>2020-08-22T14:00:51.000Z</time>
      </trkpt>
      <trkpt lat="45.23727" lon="6.35884">
        <ele>1492.1</ele>
        <time>2020-08-22T14:00:52.000Z</time>
      </trkpt>
      <trkpt lat="45.23727" lon="6.35883">
        <ele>1492.1</ele>
        <time>2020-08-22T14:00:53.000Z</time>
      </trkpt>
      <trkpt lat="45.23728" lon="6.35883">
        <ele>1491.2</ele>
        <time>2020-08-22T14:00:55.000Z</time>
      </trkpt>
      <trkpt lat="45.23728" lon="6.35883">
        <ele>1491.2</ele>
        <time>2020-08-22T14:00:57.000Z</time>
      </trkpt>
      <trkpt lat="45.23728" lon="6.35884">
        <ele>1491.2</ele>
        <time>2020-08-22T14:00:59.000Z</time>
      </trkpt>
      <trkpt lat="45.23728" lon="6.35889">
        <ele>1490.4</ele>
        <time>2020-08-22T14:01:04.000Z</time>
      </trkpt>
      <trkpt lat="45.23729" lon="6.3589">
        <ele>1490.4</ele>
        <time>2020-08-22T14:01:06.000Z</time>
      </trkpt>
      <trkpt lat="45.2373" lon="6.35893">
        <ele>1489.6</ele>
        <time>2020-08-22T14:01:09.000Z</time>
      </trkpt>
      <trkpt lat="45.23731" lon="6.35896">
        <ele>1488.8</ele>
        <time>2020-08-22T14:01:12.000Z</time>
      </trkpt>
      <trkpt lat="45.23732" lon="6.35896">
        <ele>1487.9</ele>
        <time>2020-08-22T14:01:13.000Z</time>
      </trkpt>
      <trkpt lat="45.23734" lon="6.35895">
        <ele>1486.9</ele>
        <time>2020-08-22T14:01:14.000Z</time>
      </trkpt>
      <trkpt lat="45.23737" lon="6.35894">
        <ele>1486.9</ele>
        <time>2020-08-22T14:01:15.000Z</time>
      </trkpt>
      <trkpt lat="45.23742" lon="6.35892">
        <ele>1485.9</ele>
        <time>2020-08-22T14:01:17.000Z</time>
      </trkpt>
      <trkpt lat="45.2375" lon="6.35889">
        <ele>1483.9</ele>
        <time>2020-08-22T14:01:19.000Z</time>
      </trkpt>
      <trkpt lat="45.23754" lon="6.35888">
        <ele>1482.9</ele>
        <time>2020-08-22T14:01:20.000Z</time>
      </trkpt>
      <trkpt lat="45.23758" lon="6.35889">
        <ele>1480.9</ele>
        <time>2020-08-22T14:01:21.000Z</time>
      </trkpt>
      <trkpt lat="45.23767" lon="6.35888">
        <ele>1478.4</ele>
        <time>2020-08-22T14:01:24.000Z</time>
      </trkpt>
      <trkpt lat="45.23769" lon="6.35887">
        <ele>1478.4</ele>
        <time>2020-08-22T14:01:25.000Z</time>
      </trkpt>
      <trkpt lat="45.23771" lon="6.35885">
        <ele>1478.6</ele>
        <time>2020-08-22T14:01:26.000Z</time>
      </trkpt>
      <trkpt lat="45.23776" lon="6.35874">
        <ele>1479.7</ele>
        <time>2020-08-22T14:01:29.000Z</time>
      </trkpt>
      <trkpt lat="45.23782" lon="6.35861">
        <ele>1480.2</ele>
        <time>2020-08-22T14:01:32.000Z</time>
      </trkpt>
      <trkpt lat="45.23788" lon="6.35852">
        <ele>1480</ele>
        <time>2020-08-22T14:01:34.000Z</time>
      </trkpt>
      <trkpt lat="45.23792" lon="6.35848">
        <ele>1479.4</ele>
        <time>2020-08-22T14:01:35.000Z</time>
      </trkpt>
      <trkpt lat="45.23796" lon="6.35845">
        <ele>1479.4</ele>
        <time>2020-08-22T14:01:36.000Z</time>
      </trkpt>
      <trkpt lat="45.23807" lon="6.35836">
        <ele>1477.6</ele>
        <time>2020-08-22T14:01:39.000Z</time>
      </trkpt>
      <trkpt lat="45.23823" lon="6.35817">
        <ele>1476.5</ele>
        <time>2020-08-22T14:01:44.000Z</time>
      </trkpt>
      <trkpt lat="45.23838" lon="6.35815">
        <ele>1473.5</ele>
        <time>2020-08-22T14:01:46.000Z</time>
      </trkpt>
      <trkpt lat="45.23849" lon="6.35819">
        <ele>1470.1</ele>
        <time>2020-08-22T14:01:48.000Z</time>
      </trkpt>
      <trkpt lat="45.23854" lon="6.35822">
        <ele>1468.6</ele>
        <time>2020-08-22T14:01:49.000Z</time>
      </trkpt>
      <trkpt lat="45.23868" lon="6.35832">
        <ele>1462.6</ele>
        <time>2020-08-22T14:01:52.000Z</time>
      </trkpt>
      <trkpt lat="45.23877" lon="6.35837">
        <ele>1459.3</ele>
        <time>2020-08-22T14:01:54.000Z</time>
      </trkpt>
      <trkpt lat="45.23895" lon="6.3584">
        <ele>1452.2</ele>
        <time>2020-08-22T14:01:57.000Z</time>
      </trkpt>
      <trkpt lat="45.23901" lon="6.35837">
        <ele>1451.3</ele>
        <time>2020-08-22T14:01:59.000Z</time>
      </trkpt>
      <trkpt lat="45.23904" lon="6.35834">
        <ele>1450.3</ele>
        <time>2020-08-22T14:02:00.000Z</time>
      </trkpt>
      <trkpt lat="45.2391" lon="6.35825">
        <ele>1451.2</ele>
        <time>2020-08-22T14:02:02.000Z</time>
      </trkpt>
      <trkpt lat="45.23914" lon="6.35821">
        <ele>1450.1</ele>
        <time>2020-08-22T14:02:03.000Z</time>
      </trkpt>
      <trkpt lat="45.23918" lon="6.35818">
        <ele>1449.9</ele>
        <time>2020-08-22T14:02:04.000Z</time>
      </trkpt>
      <trkpt lat="45.23929" lon="6.35809">
        <ele>1447.6</ele>
        <time>2020-08-22T14:02:07.000Z</time>
      </trkpt>
      <trkpt lat="45.23935" lon="6.35803">
        <ele>1447.5</ele>
        <time>2020-08-22T14:02:09.000Z</time>
      </trkpt>
      <trkpt lat="45.23939" lon="6.35797">
        <ele>1447.5</ele>
        <time>2020-08-22T14:02:11.000Z</time>
      </trkpt>
      <trkpt lat="45.23945" lon="6.35785">
        <ele>1448.3</ele>
        <time>2020-08-22T14:02:14.000Z</time>
      </trkpt>
      <trkpt lat="45.23948" lon="6.35782">
        <ele>1448.2</ele>
        <time>2020-08-22T14:02:15.000Z</time>
      </trkpt>
      <trkpt lat="45.23954" lon="6.35778">
        <ele>1446.1</ele>
        <time>2020-08-22T14:02:17.000Z</time>
      </trkpt>
      <trkpt lat="45.23961" lon="6.35776">
        <ele>1444.2</ele>
        <time>2020-08-22T14:02:19.000Z</time>
      </trkpt>
      <trkpt lat="45.2397" lon="6.35774">
        <ele>1441.2</ele>
        <time>2020-08-22T14:02:21.000Z</time>
      </trkpt>
      <trkpt lat="45.23977" lon="6.35771">
        <ele>1440.1</ele>
        <time>2020-08-22T14:02:23.000Z</time>
      </trkpt>
      <trkpt lat="45.23982" lon="6.35766">
        <ele>1439.4</ele>
        <time>2020-08-22T14:02:25.000Z</time>
      </trkpt>
      <trkpt lat="45.23983" lon="6.35762">
        <ele>1440.4</ele>
        <time>2020-08-22T14:02:26.000Z</time>
      </trkpt>
      <trkpt lat="45.23983" lon="6.35759">
        <ele>1441.4</ele>
        <time>2020-08-22T14:02:27.000Z</time>
      </trkpt>
      <trkpt lat="45.23985" lon="6.35752">
        <ele>1442.7</ele>
        <time>2020-08-22T14:02:29.000Z</time>
      </trkpt>
      <trkpt lat="45.2399" lon="6.35746">
        <ele>1443</ele>
        <time>2020-08-22T14:02:31.000Z</time>
      </trkpt>
      <trkpt lat="45.23995" lon="6.35739">
        <ele>1443.4</ele>
        <time>2020-08-22T14:02:33.000Z</time>
      </trkpt>
      <trkpt lat="45.24007" lon="6.3573">
        <ele>1442.6</ele>
        <time>2020-08-22T14:02:36.000Z</time>
      </trkpt>
      <trkpt lat="45.24016" lon="6.35726">
        <ele>1442</ele>
        <time>2020-08-22T14:02:38.000Z</time>
      </trkpt>
      <trkpt lat="45.24031" lon="6.35721">
        <ele>1440.7</ele>
        <time>2020-08-22T14:02:41.000Z</time>
      </trkpt>
      <trkpt lat="45.24045" lon="6.35717">
        <ele>1439.7</ele>
        <time>2020-08-22T14:02:43.000Z</time>
      </trkpt>
      <trkpt lat="45.24064" lon="6.35709">
        <ele>1439.6</ele>
        <time>2020-08-22T14:02:46.000Z</time>
      </trkpt>
      <trkpt lat="45.24072" lon="6.35705">
        <ele>1440.1</ele>
        <time>2020-08-22T14:02:47.000Z</time>
      </trkpt>
      <trkpt lat="45.24079" lon="6.35705">
        <ele>1439.4</ele>
        <time>2020-08-22T14:02:48.000Z</time>
      </trkpt>
      <trkpt lat="45.24086" lon="6.35706">
        <ele>1437.9</ele>
        <time>2020-08-22T14:02:49.000Z</time>
      </trkpt>
      <trkpt lat="45.24092" lon="6.35709">
        <ele>1436.5</ele>
        <time>2020-08-22T14:02:50.000Z</time>
      </trkpt>
      <trkpt lat="45.24097" lon="6.35714">
        <ele>1436.1</ele>
        <time>2020-08-22T14:02:51.000Z</time>
      </trkpt>
      <trkpt lat="45.24112" lon="6.35729">
        <ele>1431</ele>
        <time>2020-08-22T14:02:54.000Z</time>
      </trkpt>
      <trkpt lat="45.24115" lon="6.35734">
        <ele>1429.7</ele>
        <time>2020-08-22T14:02:55.000Z</time>
      </trkpt>
      <trkpt lat="45.24118" lon="6.35738">
        <ele>1428.4</ele>
        <time>2020-08-22T14:02:57.000Z</time>
      </trkpt>
      <trkpt lat="45.24121" lon="6.35738">
        <ele>1428.3</ele>
        <time>2020-08-22T14:02:58.000Z</time>
      </trkpt>
      <trkpt lat="45.24129" lon="6.35731">
        <ele>1429.2</ele>
        <time>2020-08-22T14:03:02.000Z</time>
      </trkpt>
      <trkpt lat="45.24136" lon="6.35721">
        <ele>1431.7</ele>
        <time>2020-08-22T14:03:06.000Z</time>
      </trkpt>
      <trkpt lat="45.24138" lon="6.35717">
        <ele>1432.6</ele>
        <time>2020-08-22T14:03:07.000Z</time>
      </trkpt>
      <trkpt lat="45.24142" lon="6.35714">
        <ele>1432.2</ele>
        <time>2020-08-22T14:03:08.000Z</time>
      </trkpt>
      <trkpt lat="45.24151" lon="6.35709">
        <ele>1433.3</ele>
        <time>2020-08-22T14:03:10.000Z</time>
      </trkpt>
      <trkpt lat="45.24161" lon="6.35711">
        <ele>1431.7</ele>
        <time>2020-08-22T14:03:12.000Z</time>
      </trkpt>
      <trkpt lat="45.24166" lon="6.35716">
        <ele>1430.1</ele>
        <time>2020-08-22T14:03:13.000Z</time>
      </trkpt>
      <trkpt lat="45.24171" lon="6.35721">
        <ele>1428.9</ele>
        <time>2020-08-22T14:03:14.000Z</time>
      </trkpt>
      <trkpt lat="45.24185" lon="6.35733">
        <ele>1424.6</ele>
        <time>2020-08-22T14:03:17.000Z</time>
      </trkpt>
      <trkpt lat="45.24196" lon="6.35739">
        <ele>1421.8</ele>
        <time>2020-08-22T14:03:19.000Z</time>
      </trkpt>
      <trkpt lat="45.242" lon="6.35744">
        <ele>1420.2</ele>
        <time>2020-08-22T14:03:20.000Z</time>
      </trkpt>
      <trkpt lat="45.24205" lon="6.3575">
        <ele>1418.6</ele>
        <time>2020-08-22T14:03:21.000Z</time>
      </trkpt>
      <trkpt lat="45.24215" lon="6.35764">
        <ele>1414.7</ele>
        <time>2020-08-22T14:03:23.000Z</time>
      </trkpt>
      <trkpt lat="45.2422" lon="6.35772">
        <ele>1412.2</ele>
        <time>2020-08-22T14:03:24.000Z</time>
      </trkpt>
      <trkpt lat="45.24231" lon="6.35793">
        <ele>1404.8</ele>
        <time>2020-08-22T14:03:27.000Z</time>
      </trkpt>
      <trkpt lat="45.24238" lon="6.35807">
        <ele>1400.6</ele>
        <time>2020-08-22T14:03:29.000Z</time>
      </trkpt>
      <trkpt lat="45.24242" lon="6.35815">
        <ele>1397.8</ele>
        <time>2020-08-22T14:03:30.000Z</time>
      </trkpt>
      <trkpt lat="45.24259" lon="6.35835">
        <ele>1389.8</ele>
        <time>2020-08-22T14:03:33.000Z</time>
      </trkpt>
      <trkpt lat="45.24271" lon="6.35846">
        <ele>1385.8</ele>
        <time>2020-08-22T14:03:35.000Z</time>
      </trkpt>
      <trkpt lat="45.24277" lon="6.35848">
        <ele>1383.8</ele>
        <time>2020-08-22T14:03:36.000Z</time>
      </trkpt>
      <trkpt lat="45.24283" lon="6.35848">
        <ele>1382.9</ele>
        <time>2020-08-22T14:03:37.000Z</time>
      </trkpt>
      <trkpt lat="45.24293" lon="6.3584">
        <ele>1383.5</ele>
        <time>2020-08-22T14:03:39.000Z</time>
      </trkpt>
      <trkpt lat="45.24295" lon="6.35831">
        <ele>1385.9</ele>
        <time>2020-08-22T14:03:40.000Z</time>
      </trkpt>
      <trkpt lat="45.24296" lon="6.35822">
        <ele>1387.7</ele>
        <time>2020-08-22T14:03:41.000Z</time>
      </trkpt>
      <trkpt lat="45.24297" lon="6.35811">
        <ele>1390.7</ele>
        <time>2020-08-22T14:03:42.000Z</time>
      </trkpt>
      <trkpt lat="45.24298" lon="6.35802">
        <ele>1392.8</ele>
        <time>2020-08-22T14:03:43.000Z</time>
      </trkpt>
      <trkpt lat="45.243" lon="6.35794">
        <ele>1394.3</ele>
        <time>2020-08-22T14:03:44.000Z</time>
      </trkpt>
      <trkpt lat="45.24302" lon="6.35786">
        <ele>1395.8</ele>
        <time>2020-08-22T14:03:45.000Z</time>
      </trkpt>
      <trkpt lat="45.24307" lon="6.35772">
        <ele>1398.2</ele>
        <time>2020-08-22T14:03:48.000Z</time>
      </trkpt>
      <trkpt lat="45.24308" lon="6.35768">
        <ele>1398.5</ele>
        <time>2020-08-22T14:03:49.000Z</time>
      </trkpt>
      <trkpt lat="45.24314" lon="6.35758">
        <ele>1398.9</ele>
        <time>2020-08-22T14:03:52.000Z</time>
      </trkpt>
      <trkpt lat="45.2432" lon="6.35752">
        <ele>1399.4</ele>
        <time>2020-08-22T14:03:55.000Z</time>
      </trkpt>
      <trkpt lat="45.24322" lon="6.3575">
        <ele>1399.3</ele>
        <time>2020-08-22T14:03:56.000Z</time>
      </trkpt>
      <trkpt lat="45.2433" lon="6.35744">
        <ele>1398.4</ele>
        <time>2020-08-22T14:04:00.000Z</time>
      </trkpt>
      <trkpt lat="45.24332" lon="6.35744">
        <ele>1397.7</ele>
        <time>2020-08-22T14:04:01.000Z</time>
      </trkpt>
      <trkpt lat="45.24341" lon="6.35742">
        <ele>1397.2</ele>
        <time>2020-08-22T14:04:05.000Z</time>
      </trkpt>
      <trkpt lat="45.24347" lon="6.35741">
        <ele>1395.4</ele>
        <time>2020-08-22T14:04:08.000Z</time>
      </trkpt>
      <trkpt lat="45.24349" lon="6.35741">
        <ele>1395.4</ele>
        <time>2020-08-22T14:04:09.000Z</time>
      </trkpt>
      <trkpt lat="45.24352" lon="6.35741">
        <ele>1394.8</ele>
        <time>2020-08-22T14:04:10.000Z</time>
      </trkpt>
      <trkpt lat="45.24361" lon="6.35741">
        <ele>1392.6</ele>
        <time>2020-08-22T14:04:14.000Z</time>
      </trkpt>
      <trkpt lat="45.24365" lon="6.35741">
        <ele>1391</ele>
        <time>2020-08-22T14:04:16.000Z</time>
      </trkpt>
      <trkpt lat="45.24374" lon="6.35741">
        <ele>1388.9</ele>
        <time>2020-08-22T14:04:20.000Z</time>
      </trkpt>
      <trkpt lat="45.24379" lon="6.35741">
        <ele>1388.1</ele>
        <time>2020-08-22T14:04:22.000Z</time>
      </trkpt>
      <trkpt lat="45.24392" lon="6.35743">
        <ele>1384.8</ele>
        <time>2020-08-22T14:04:27.000Z</time>
      </trkpt>
      <trkpt lat="45.24398" lon="6.35742">
        <ele>1382.5</ele>
        <time>2020-08-22T14:04:29.000Z</time>
      </trkpt>
      <trkpt lat="45.24407" lon="6.35742">
        <ele>1379.9</ele>
        <time>2020-08-22T14:04:32.000Z</time>
      </trkpt>
      <trkpt lat="45.24412" lon="6.3574">
        <ele>1378</ele>
        <time>2020-08-22T14:04:34.000Z</time>
      </trkpt>
      <trkpt lat="45.24414" lon="6.35739">
        <ele>1377.8</ele>
        <time>2020-08-22T14:04:35.000Z</time>
      </trkpt>
      <trkpt lat="45.24419" lon="6.35733">
        <ele>1377.5</ele>
        <time>2020-08-22T14:04:37.000Z</time>
      </trkpt>
      <trkpt lat="45.24422" lon="6.35724">
        <ele>1378</ele>
        <time>2020-08-22T14:04:39.000Z</time>
      </trkpt>
      <trkpt lat="45.24424" lon="6.35718">
        <ele>1378.5</ele>
        <time>2020-08-22T14:04:40.000Z</time>
      </trkpt>
      <trkpt lat="45.24425" lon="6.35711">
        <ele>1379.2</ele>
        <time>2020-08-22T14:04:41.000Z</time>
      </trkpt>
      <trkpt lat="45.24436" lon="6.35663">
        <ele>1383.2</ele>
        <time>2020-08-22T14:04:47.000Z</time>
      </trkpt>
      <trkpt lat="45.24438" lon="6.35653">
        <ele>1383.8</ele>
        <time>2020-08-22T14:04:48.000Z</time>
      </trkpt>
      <trkpt lat="45.2444" lon="6.35642">
        <ele>1384.6</ele>
        <time>2020-08-22T14:04:49.000Z</time>
      </trkpt>
      <trkpt lat="45.24441" lon="6.3563">
        <ele>1384.8</ele>
        <time>2020-08-22T14:04:50.000Z</time>
      </trkpt>
      <trkpt lat="45.24442" lon="6.35618">
        <ele>1385.4</ele>
        <time>2020-08-22T14:04:51.000Z</time>
      </trkpt>
      <trkpt lat="45.2445" lon="6.35539">
        <ele>1384.6</ele>
        <time>2020-08-22T14:04:57.000Z</time>
      </trkpt>
      <trkpt lat="45.24452" lon="6.35526">
        <ele>1383.4</ele>
        <time>2020-08-22T14:04:58.000Z</time>
      </trkpt>
      <trkpt lat="45.24455" lon="6.35471">
        <ele>1381.2</ele>
        <time>2020-08-22T14:05:02.000Z</time>
      </trkpt>
      <trkpt lat="45.24454" lon="6.35458">
        <ele>1380.8</ele>
        <time>2020-08-22T14:05:03.000Z</time>
      </trkpt>
      <trkpt lat="45.24447" lon="6.35419">
        <ele>1379</ele>
        <time>2020-08-22T14:05:06.000Z</time>
      </trkpt>
      <trkpt lat="45.24446" lon="6.35408">
        <ele>1378.5</ele>
        <time>2020-08-22T14:05:07.000Z</time>
      </trkpt>
      <trkpt lat="45.2445" lon="6.35391">
        <ele>1377.7</ele>
        <time>2020-08-22T14:05:09.000Z</time>
      </trkpt>
      <trkpt lat="45.24461" lon="6.35381">
        <ele>1376.7</ele>
        <time>2020-08-22T14:05:11.000Z</time>
      </trkpt>
      <trkpt lat="45.24468" lon="6.35379">
        <ele>1376.3</ele>
        <time>2020-08-22T14:05:12.000Z</time>
      </trkpt>
      <trkpt lat="45.24488" lon="6.35372">
        <ele>1375</ele>
        <time>2020-08-22T14:05:15.000Z</time>
      </trkpt>
      <trkpt lat="45.245" lon="6.35361">
        <ele>1374.1</ele>
        <time>2020-08-22T14:05:17.000Z</time>
      </trkpt>
      <trkpt lat="45.2453" lon="6.35322">
        <ele>1371.1</ele>
        <time>2020-08-22T14:05:22.000Z</time>
      </trkpt>
      <trkpt lat="45.24536" lon="6.35313">
        <ele>1370.5</ele>
        <time>2020-08-22T14:05:23.000Z</time>
      </trkpt>
      <trkpt lat="45.24543" lon="6.35304">
        <ele>1369.8</ele>
        <time>2020-08-22T14:05:24.000Z</time>
      </trkpt>
      <trkpt lat="45.24554" lon="6.35284">
        <ele>1368.3</ele>
        <time>2020-08-22T14:05:26.000Z</time>
      </trkpt>
      <trkpt lat="45.24559" lon="6.35273">
        <ele>1367.6</ele>
        <time>2020-08-22T14:05:27.000Z</time>
      </trkpt>
      <trkpt lat="45.24575" lon="6.35227">
        <ele>1365.6</ele>
        <time>2020-08-22T14:05:31.000Z</time>
      </trkpt>
      <trkpt lat="45.24578" lon="6.35212">
        <ele>1365.2</ele>
        <time>2020-08-22T14:05:33.000Z</time>
      </trkpt>
      <trkpt lat="45.24578" lon="6.35206">
        <ele>1365.1</ele>
        <time>2020-08-22T14:05:34.000Z</time>
      </trkpt>
      <trkpt lat="45.24576" lon="6.35201">
        <ele>1365.1</ele>
        <time>2020-08-22T14:05:35.000Z</time>
      </trkpt>
      <trkpt lat="45.2457" lon="6.35191">
        <ele>1365.1</ele>
        <time>2020-08-22T14:05:37.000Z</time>
      </trkpt>
      <trkpt lat="45.24566" lon="6.35186">
        <ele>1365.1</ele>
        <time>2020-08-22T14:05:38.000Z</time>
      </trkpt>
      <trkpt lat="45.24539" lon="6.35161">
        <ele>1364.7</ele>
        <time>2020-08-22T14:05:44.000Z</time>
      </trkpt>
      <trkpt lat="45.24509" lon="6.35135">
        <ele>1363.9</ele>
        <time>2020-08-22T14:05:50.000Z</time>
      </trkpt>
      <trkpt lat="45.24503" lon="6.35133">
        <ele>1363.9</ele>
        <time>2020-08-22T14:05:51.000Z</time>
      </trkpt>
      <trkpt lat="45.24498" lon="6.35134">
        <ele>1363.9</ele>
        <time>2020-08-22T14:05:52.000Z</time>
      </trkpt>
      <trkpt lat="45.24493" lon="6.35137">
        <ele>1363.8</ele>
        <time>2020-08-22T14:05:53.000Z</time>
      </trkpt>
      <trkpt lat="45.24488" lon="6.3514">
        <ele>1363.8</ele>
        <time>2020-08-22T14:05:54.000Z</time>
      </trkpt>
      <trkpt lat="45.24484" lon="6.35144">
        <ele>1363.8</ele>
        <time>2020-08-22T14:05:55.000Z</time>
      </trkpt>
      <trkpt lat="45.24466" lon="6.35162">
        <ele>1364.2</ele>
        <time>2020-08-22T14:06:00.000Z</time>
      </trkpt>
      <trkpt lat="45.24457" lon="6.35175">
        <ele>1364.5</ele>
        <time>2020-08-22T14:06:03.000Z</time>
      </trkpt>
      <trkpt lat="45.24451" lon="6.35184">
        <ele>1364.5</ele>
        <time>2020-08-22T14:06:05.000Z</time>
      </trkpt>
      <trkpt lat="45.24434" lon="6.35209">
        <ele>1363.7</ele>
        <time>2020-08-22T14:06:10.000Z</time>
      </trkpt>
      <trkpt lat="45.24429" lon="6.35213">
        <ele>1363.5</ele>
        <time>2020-08-22T14:06:11.000Z</time>
      </trkpt>
      <trkpt lat="45.24424" lon="6.35217">
        <ele>1363.2</ele>
        <time>2020-08-22T14:06:12.000Z</time>
      </trkpt>
      <trkpt lat="45.2439" lon="6.35241">
        <ele>1361.4</ele>
        <time>2020-08-22T14:06:18.000Z</time>
      </trkpt>
      <trkpt lat="45.24377" lon="6.35243">
        <ele>1360.9</ele>
        <time>2020-08-22T14:06:20.000Z</time>
      </trkpt>
      <trkpt lat="45.2437" lon="6.35242">
        <ele>1360.7</ele>
        <time>2020-08-22T14:06:21.000Z</time>
      </trkpt>
      <trkpt lat="45.24323" lon="6.3523">
        <ele>1358.9</ele>
        <time>2020-08-22T14:06:28.000Z</time>
      </trkpt>
      <trkpt lat="45.24274" lon="6.35218">
        <ele>1357</ele>
        <time>2020-08-22T14:06:35.000Z</time>
      </trkpt>
      <trkpt lat="45.24239" lon="6.35208">
        <ele>1356.2</ele>
        <time>2020-08-22T14:06:40.000Z</time>
      </trkpt>
      <trkpt lat="45.24225" lon="6.35203">
        <ele>1356.2</ele>
        <time>2020-08-22T14:06:42.000Z</time>
      </trkpt>
      <trkpt lat="45.24212" lon="6.35198">
        <ele>1356.4</ele>
        <time>2020-08-22T14:06:44.000Z</time>
      </trkpt>
      <trkpt lat="45.24206" lon="6.35194">
        <ele>1356.5</ele>
        <time>2020-08-22T14:06:45.000Z</time>
      </trkpt>
      <trkpt lat="45.24201" lon="6.3519">
        <ele>1356.7</ele>
        <time>2020-08-22T14:06:46.000Z</time>
      </trkpt>
      <trkpt lat="45.24196" lon="6.35185">
        <ele>1356.9</ele>
        <time>2020-08-22T14:06:47.000Z</time>
      </trkpt>
      <trkpt lat="45.2418" lon="6.3517">
        <ele>1357.1</ele>
        <time>2020-08-22T14:06:50.000Z</time>
      </trkpt>
      <trkpt lat="45.24146" lon="6.35135">
        <ele>1356.8</ele>
        <time>2020-08-22T14:06:57.000Z</time>
      </trkpt>
      <trkpt lat="45.24141" lon="6.35131">
        <ele>1356.7</ele>
        <time>2020-08-22T14:06:58.000Z</time>
      </trkpt>
      <trkpt lat="45.24123" lon="6.3512">
        <ele>1356.5</ele>
        <time>2020-08-22T14:07:01.000Z</time>
      </trkpt>
      <trkpt lat="45.24117" lon="6.35118">
        <ele>1356.5</ele>
        <time>2020-08-22T14:07:02.000Z</time>
      </trkpt>
      <trkpt lat="45.2408" lon="6.35114">
        <ele>1356.8</ele>
        <time>2020-08-22T14:07:08.000Z</time>
      </trkpt>
      <trkpt lat="45.24053" lon="6.3511">
        <ele>1357.1</ele>
        <time>2020-08-22T14:07:13.000Z</time>
      </trkpt>
      <trkpt lat="45.24019" lon="6.35102">
        <ele>1357.5</ele>
        <time>2020-08-22T14:07:20.000Z</time>
      </trkpt>
      <trkpt lat="45.23987" lon="6.35107">
        <ele>1358.8</ele>
        <time>2020-08-22T14:07:26.000Z</time>
      </trkpt>
      <trkpt lat="45.23976" lon="6.35109">
        <ele>1359.3</ele>
        <time>2020-08-22T14:07:28.000Z</time>
      </trkpt>
      <trkpt lat="45.23939" lon="6.35119">
        <ele>1361.2</ele>
        <time>2020-08-22T14:07:35.000Z</time>
      </trkpt>
      <trkpt lat="45.23923" lon="6.35123">
        <ele>1362.2</ele>
        <time>2020-08-22T14:07:38.000Z</time>
      </trkpt>
      <trkpt lat="45.23913" lon="6.35124">
        <ele>1363</ele>
        <time>2020-08-22T14:07:40.000Z</time>
      </trkpt>
      <trkpt lat="45.23904" lon="6.35124">
        <ele>1363.7</ele>
        <time>2020-08-22T14:07:42.000Z</time>
      </trkpt>
      <trkpt lat="45.23884" lon="6.35123">
        <ele>1365.4</ele>
        <time>2020-08-22T14:07:47.000Z</time>
      </trkpt>
      <trkpt lat="45.23877" lon="6.35122">
        <ele>1366.1</ele>
        <time>2020-08-22T14:07:49.000Z</time>
      </trkpt>
      <trkpt lat="45.23858" lon="6.3512">
        <ele>1367.8</ele>
        <time>2020-08-22T14:07:54.000Z</time>
      </trkpt>
      <trkpt lat="45.23841" lon="6.35113">
        <ele>1369.4</ele>
        <time>2020-08-22T14:07:59.000Z</time>
      </trkpt>
      <trkpt lat="45.23838" lon="6.35111">
        <ele>1369.6</ele>
        <time>2020-08-22T14:08:00.000Z</time>
      </trkpt>
      <trkpt lat="45.23835" lon="6.35109">
        <ele>1369.8</ele>
        <time>2020-08-22T14:08:01.000Z</time>
      </trkpt>
      <trkpt lat="45.2382" lon="6.35095">
        <ele>1370.7</ele>
        <time>2020-08-22T14:08:07.000Z</time>
      </trkpt>
      <trkpt lat="45.23805" lon="6.3508">
        <ele>1371.7</ele>
        <time>2020-08-22T14:08:13.000Z</time>
      </trkpt>
      <trkpt lat="45.238" lon="6.35075">
        <ele>1372</ele>
        <time>2020-08-22T14:08:15.000Z</time>
      </trkpt>
      <trkpt lat="45.23787" lon="6.35064">
        <ele>1372.7</ele>
        <time>2020-08-22T14:08:20.000Z</time>
      </trkpt>
      <trkpt lat="45.23784" lon="6.35063">
        <ele>1372.8</ele>
        <time>2020-08-22T14:08:21.000Z</time>
      </trkpt>
      <trkpt lat="45.23779" lon="6.35061">
        <ele>1373</ele>
        <time>2020-08-22T14:08:23.000Z</time>
      </trkpt>
      <trkpt lat="45.23773" lon="6.35059">
        <ele>1373.3</ele>
        <time>2020-08-22T14:08:25.000Z</time>
      </trkpt>
      <trkpt lat="45.2376" lon="6.35054">
        <ele>1373.9</ele>
        <time>2020-08-22T14:08:30.000Z</time>
      </trkpt>
      <trkpt lat="45.23738" lon="6.35049">
        <ele>1375</ele>
        <time>2020-08-22T14:08:38.000Z</time>
      </trkpt>
      <trkpt lat="45.23726" lon="6.3505">
        <ele>1375.4</ele>
        <time>2020-08-22T14:08:42.000Z</time>
      </trkpt>
      <trkpt lat="45.23719" lon="6.35053">
        <ele>1375.7</ele>
        <time>2020-08-22T14:08:45.000Z</time>
      </trkpt>
      <trkpt lat="45.23704" lon="6.35066">
        <ele>1376.4</ele>
        <time>2020-08-22T14:08:51.000Z</time>
      </trkpt>
      <trkpt lat="45.23684" lon="6.35083">
        <ele>1377.6</ele>
        <time>2020-08-22T14:08:58.000Z</time>
      </trkpt>
      <trkpt lat="45.23657" lon="6.351">
        <ele>1378.4</ele>
        <time>2020-08-22T14:09:05.000Z</time>
      </trkpt>
      <trkpt lat="45.23641" lon="6.35111">
        <ele>1378.7</ele>
        <time>2020-08-22T14:09:09.000Z</time>
      </trkpt>
      <trkpt lat="45.23628" lon="6.3512">
        <ele>1378.8</ele>
        <time>2020-08-22T14:09:12.000Z</time>
      </trkpt>
      <trkpt lat="45.23624" lon="6.35124">
        <ele>1378.9</ele>
        <time>2020-08-22T14:09:13.000Z</time>
      </trkpt>
      <trkpt lat="45.23597" lon="6.35149">
        <ele>1378.8</ele>
        <time>2020-08-22T14:09:19.000Z</time>
      </trkpt>
      <trkpt lat="45.23592" lon="6.35154">
        <ele>1378.7</ele>
        <time>2020-08-22T14:09:20.000Z</time>
      </trkpt>
      <trkpt lat="45.23582" lon="6.35165">
        <ele>1378.6</ele>
        <time>2020-08-22T14:09:22.000Z</time>
      </trkpt>
      <trkpt lat="45.23559" lon="6.35189">
        <ele>1378.6</ele>
        <time>2020-08-22T14:09:26.000Z</time>
      </trkpt>
      <trkpt lat="45.23541" lon="6.35203">
        <ele>1379.1</ele>
        <time>2020-08-22T14:09:29.000Z</time>
      </trkpt>
      <trkpt lat="45.23532" lon="6.35215">
        <ele>1379.5</ele>
        <time>2020-08-22T14:09:31.000Z</time>
      </trkpt>
      <trkpt lat="45.23525" lon="6.35229">
        <ele>1380</ele>
        <time>2020-08-22T14:09:33.000Z</time>
      </trkpt>
      <trkpt lat="45.23519" lon="6.35252">
        <ele>1380.8</ele>
        <time>2020-08-22T14:09:36.000Z</time>
      </trkpt>
      <trkpt lat="45.23512" lon="6.35282">
        <ele>1382</ele>
        <time>2020-08-22T14:09:40.000Z</time>
      </trkpt>
      <trkpt lat="45.23506" lon="6.35301">
        <ele>1383</ele>
        <time>2020-08-22T14:09:43.000Z</time>
      </trkpt>
      <trkpt lat="45.23493" lon="6.35325">
        <ele>1384.6</ele>
        <time>2020-08-22T14:09:48.000Z</time>
      </trkpt>
      <trkpt lat="45.23487" lon="6.35333">
        <ele>1385.2</ele>
        <time>2020-08-22T14:09:50.000Z</time>
      </trkpt>
      <trkpt lat="45.23473" lon="6.35352">
        <ele>1386.7</ele>
        <time>2020-08-22T14:09:55.000Z</time>
      </trkpt>
      <trkpt lat="45.23465" lon="6.35362">
        <ele>1387.5</ele>
        <time>2020-08-22T14:09:58.000Z</time>
      </trkpt>
      <trkpt lat="45.23453" lon="6.35374">
        <ele>1388.6</ele>
        <time>2020-08-22T14:10:02.000Z</time>
      </trkpt>
      <trkpt lat="45.23435" lon="6.3539">
        <ele>1390.2</ele>
        <time>2020-08-22T14:10:08.000Z</time>
      </trkpt>
      <trkpt lat="45.23432" lon="6.35392">
        <ele>1390.4</ele>
        <time>2020-08-22T14:10:09.000Z</time>
      </trkpt>
      <trkpt lat="45.23415" lon="6.35409">
        <ele>1392</ele>
        <time>2020-08-22T14:10:15.000Z</time>
      </trkpt>
      <trkpt lat="45.23413" lon="6.35412">
        <ele>1392.3</ele>
        <time>2020-08-22T14:10:16.000Z</time>
      </trkpt>
      <trkpt lat="45.23411" lon="6.35417">
        <ele>1392.5</ele>
        <time>2020-08-22T14:10:17.000Z</time>
      </trkpt>
      <trkpt lat="45.23405" lon="6.3543">
        <ele>1393.3</ele>
        <time>2020-08-22T14:10:20.000Z</time>
      </trkpt>
      <trkpt lat="45.23403" lon="6.35435">
        <ele>1393.5</ele>
        <time>2020-08-22T14:10:21.000Z</time>
      </trkpt>
      <trkpt lat="45.234" lon="6.35444">
        <ele>1393.9</ele>
        <time>2020-08-22T14:10:23.000Z</time>
      </trkpt>
      <trkpt lat="45.23387" lon="6.35464">
        <ele>1395</ele>
        <time>2020-08-22T14:10:28.000Z</time>
      </trkpt>
      <trkpt lat="45.23378" lon="6.35473">
        <ele>1395.7</ele>
        <time>2020-08-22T14:10:31.000Z</time>
      </trkpt>
      <trkpt lat="45.23362" lon="6.35487">
        <ele>1397</ele>
        <time>2020-08-22T14:10:36.000Z</time>
      </trkpt>
      <trkpt lat="45.23342" lon="6.35503">
        <ele>1398.7</ele>
        <time>2020-08-22T14:10:43.000Z</time>
      </trkpt>
      <trkpt lat="45.23327" lon="6.35516">
        <ele>1400.1</ele>
        <time>2020-08-22T14:10:48.000Z</time>
      </trkpt>
      <trkpt lat="45.23321" lon="6.3552">
        <ele>1400.6</ele>
        <time>2020-08-22T14:10:50.000Z</time>
      </trkpt>
      <trkpt lat="45.23298" lon="6.35541">
        <ele>1402.7</ele>
        <time>2020-08-22T14:10:58.000Z</time>
      </trkpt>
      <trkpt lat="45.23296" lon="6.35545">
        <ele>1402.9</ele>
        <time>2020-08-22T14:10:59.000Z</time>
      </trkpt>
      <trkpt lat="45.2329" lon="6.35551">
        <ele>1403.4</ele>
        <time>2020-08-22T14:11:01.000Z</time>
      </trkpt>
      <trkpt lat="45.23281" lon="6.35565">
        <ele>1404.4</ele>
        <time>2020-08-22T14:11:05.000Z</time>
      </trkpt>
      <trkpt lat="45.23277" lon="6.35573">
        <ele>1404.8</ele>
        <time>2020-08-22T14:11:07.000Z</time>
      </trkpt>
      <trkpt lat="45.23275" lon="6.35578">
        <ele>1404.9</ele>
        <time>2020-08-22T14:11:08.000Z</time>
      </trkpt>
      <trkpt lat="45.23271" lon="6.35591">
        <ele>1405.5</ele>
        <time>2020-08-22T14:11:11.000Z</time>
      </trkpt>
      <trkpt lat="45.2326" lon="6.35613">
        <ele>1406</ele>
        <time>2020-08-22T14:11:16.000Z</time>
      </trkpt>
      <trkpt lat="45.23256" lon="6.35615">
        <ele>1406</ele>
        <time>2020-08-22T14:11:17.000Z</time>
      </trkpt>
      <trkpt lat="45.23248" lon="6.35614">
        <ele>1405.8</ele>
        <time>2020-08-22T14:11:19.000Z</time>
      </trkpt>
      <trkpt lat="45.23245" lon="6.35612">
        <ele>1405.7</ele>
        <time>2020-08-22T14:11:20.000Z</time>
      </trkpt>
      <trkpt lat="45.23237" lon="6.356">
        <ele>1405.8</ele>
        <time>2020-08-22T14:11:23.000Z</time>
      </trkpt>
      <trkpt lat="45.23216" lon="6.35566">
        <ele>1407.1</ele>
        <time>2020-08-22T14:11:31.000Z</time>
      </trkpt>
      <trkpt lat="45.23211" lon="6.35558">
        <ele>1407.5</ele>
        <time>2020-08-22T14:11:33.000Z</time>
      </trkpt>
      <trkpt lat="45.23203" lon="6.35542">
        <ele>1408.3</ele>
        <time>2020-08-22T14:11:37.000Z</time>
      </trkpt>
      <trkpt lat="45.23189" lon="6.35516">
        <ele>1409.6</ele>
        <time>2020-08-22T14:11:44.000Z</time>
      </trkpt>
      <trkpt lat="45.23186" lon="6.35512">
        <ele>1409.9</ele>
        <time>2020-08-22T14:11:45.000Z</time>
      </trkpt>
      <trkpt lat="45.2317" lon="6.35495">
        <ele>1410.9</ele>
        <time>2020-08-22T14:11:51.000Z</time>
      </trkpt>
      <trkpt lat="45.23168" lon="6.35492">
        <ele>1411</ele>
        <time>2020-08-22T14:11:52.000Z</time>
      </trkpt>
      <trkpt lat="45.23148" lon="6.35471">
        <ele>1412.1</ele>
        <time>2020-08-22T14:11:59.000Z</time>
      </trkpt>
      <trkpt lat="45.23145" lon="6.35469">
        <ele>1412.3</ele>
        <time>2020-08-22T14:12:00.000Z</time>
      </trkpt>
      <trkpt lat="45.23128" lon="6.35463">
        <ele>1412.9</ele>
        <time>2020-08-22T14:12:05.000Z</time>
      </trkpt>
      <trkpt lat="45.23121" lon="6.35463">
        <ele>1413</ele>
        <time>2020-08-22T14:12:07.000Z</time>
      </trkpt>
      <trkpt lat="45.23115" lon="6.35467">
        <ele>1413.2</ele>
        <time>2020-08-22T14:12:09.000Z</time>
      </trkpt>
      <trkpt lat="45.23112" lon="6.35469">
        <ele>1413.3</ele>
        <time>2020-08-22T14:12:10.000Z</time>
      </trkpt>
      <trkpt lat="45.23101" lon="6.35486">
        <ele>1413.4</ele>
        <time>2020-08-22T14:12:14.000Z</time>
      </trkpt>
      <trkpt lat="45.23098" lon="6.35491">
        <ele>1413.4</ele>
        <time>2020-08-22T14:12:15.000Z</time>
      </trkpt>
      <trkpt lat="45.23083" lon="6.35515">
        <ele>1413.3</ele>
        <time>2020-08-22T14:12:20.000Z</time>
      </trkpt>
      <trkpt lat="45.23077" lon="6.35525">
        <ele>1413.3</ele>
        <time>2020-08-22T14:12:22.000Z</time>
      </trkpt>
      <trkpt lat="45.23067" lon="6.35539">
        <ele>1413.4</ele>
        <time>2020-08-22T14:12:25.000Z</time>
      </trkpt>
      <trkpt lat="45.23064" lon="6.35544">
        <ele>1413.5</ele>
        <time>2020-08-22T14:12:26.000Z</time>
      </trkpt>
      <trkpt lat="45.23051" lon="6.3556">
        <ele>1413.9</ele>
        <time>2020-08-22T14:12:30.000Z</time>
      </trkpt>
      <trkpt lat="45.23047" lon="6.35564">
        <ele>1414.1</ele>
        <time>2020-08-22T14:12:31.000Z</time>
      </trkpt>
      <trkpt lat="45.23037" lon="6.35574">
        <ele>1414.5</ele>
        <time>2020-08-22T14:12:34.000Z</time>
      </trkpt>
      <trkpt lat="45.23031" lon="6.35581">
        <ele>1414.8</ele>
        <time>2020-08-22T14:12:36.000Z</time>
      </trkpt>
      <trkpt lat="45.23027" lon="6.35584">
        <ele>1415</ele>
        <time>2020-08-22T14:12:37.000Z</time>
      </trkpt>
      <trkpt lat="45.2301" lon="6.35597">
        <ele>1416</ele>
        <time>2020-08-22T14:12:42.000Z</time>
      </trkpt>
      <trkpt lat="45.23006" lon="6.35599">
        <ele>1416.3</ele>
        <time>2020-08-22T14:12:43.000Z</time>
      </trkpt>
      <trkpt lat="45.2299" lon="6.35602">
        <ele>1417.3</ele>
        <time>2020-08-22T14:12:48.000Z</time>
      </trkpt>
      <trkpt lat="45.22975" lon="6.35602">
        <ele>1418.4</ele>
        <time>2020-08-22T14:12:53.000Z</time>
      </trkpt>
      <trkpt lat="45.22972" lon="6.35602">
        <ele>1418.5</ele>
        <time>2020-08-22T14:12:54.000Z</time>
      </trkpt>
      <trkpt lat="45.22966" lon="6.35601">
        <ele>1418.9</ele>
        <time>2020-08-22T14:12:56.000Z</time>
      </trkpt>
      <trkpt lat="45.2296" lon="6.35601">
        <ele>1419.2</ele>
        <time>2020-08-22T14:12:58.000Z</time>
      </trkpt>
      <trkpt lat="45.22951" lon="6.35602">
        <ele>1419.6</ele>
        <time>2020-08-22T14:13:01.000Z</time>
      </trkpt>
      <trkpt lat="45.2294" lon="6.35607">
        <ele>1420.1</ele>
        <time>2020-08-22T14:13:04.000Z</time>
      </trkpt>
      <trkpt lat="45.22927" lon="6.35613">
        <ele>1420.9</ele>
        <time>2020-08-22T14:13:08.000Z</time>
      </trkpt>
      <trkpt lat="45.22921" lon="6.35616">
        <ele>1421.3</ele>
        <time>2020-08-22T14:13:10.000Z</time>
      </trkpt>
      <trkpt lat="45.22908" lon="6.35619">
        <ele>1422.3</ele>
        <time>2020-08-22T14:13:14.000Z</time>
      </trkpt>
      <trkpt lat="45.22899" lon="6.35619">
        <ele>1422.9</ele>
        <time>2020-08-22T14:13:17.000Z</time>
      </trkpt>
      <trkpt lat="45.22884" lon="6.35617">
        <ele>1424</ele>
        <time>2020-08-22T14:13:22.000Z</time>
      </trkpt>
      <trkpt lat="45.22878" lon="6.35615">
        <ele>1424.5</ele>
        <time>2020-08-22T14:13:24.000Z</time>
      </trkpt>
      <trkpt lat="45.22861" lon="6.35603">
        <ele>1426.2</ele>
        <time>2020-08-22T14:13:31.000Z</time>
      </trkpt>
      <trkpt lat="45.22859" lon="6.35601">
        <ele>1426.4</ele>
        <time>2020-08-22T14:13:32.000Z</time>
      </trkpt>
      <trkpt lat="45.22844" lon="6.3559">
        <ele>1427.9</ele>
        <time>2020-08-22T14:13:39.000Z</time>
      </trkpt>
      <trkpt lat="45.22841" lon="6.35589">
        <ele>1428.1</ele>
        <time>2020-08-22T14:13:40.000Z</time>
      </trkpt>
      <trkpt lat="45.22835" lon="6.35585">
        <ele>1428.6</ele>
        <time>2020-08-22T14:13:43.000Z</time>
      </trkpt>
      <trkpt lat="45.2283" lon="6.35584">
        <ele>1428.9</ele>
        <time>2020-08-22T14:13:45.000Z</time>
      </trkpt>
      <trkpt lat="45.22816" lon="6.35585">
        <ele>1429.7</ele>
        <time>2020-08-22T14:13:50.000Z</time>
      </trkpt>
      <trkpt lat="45.22814" lon="6.35587">
        <ele>1429.9</ele>
        <time>2020-08-22T14:13:51.000Z</time>
      </trkpt>
      <trkpt lat="45.22803" lon="6.35597">
        <ele>1430.6</ele>
        <time>2020-08-22T14:13:55.000Z</time>
      </trkpt>
      <trkpt lat="45.22798" lon="6.35604">
        <ele>1430.9</ele>
        <time>2020-08-22T14:13:57.000Z</time>
      </trkpt>
      <trkpt lat="45.22793" lon="6.35612">
        <ele>1431.1</ele>
        <time>2020-08-22T14:13:59.000Z</time>
      </trkpt>
      <trkpt lat="45.22783" lon="6.35626">
        <ele>1431.3</ele>
        <time>2020-08-22T14:14:03.000Z</time>
      </trkpt>
      <trkpt lat="45.22773" lon="6.3564">
        <ele>1431.3</ele>
        <time>2020-08-22T14:14:07.000Z</time>
      </trkpt>
      <trkpt lat="45.22771" lon="6.35643">
        <ele>1431.3</ele>
        <time>2020-08-22T14:14:08.000Z</time>
      </trkpt>
      <trkpt lat="45.22765" lon="6.35649">
        <ele>1431.2</ele>
        <time>2020-08-22T14:14:10.000Z</time>
      </trkpt>
      <trkpt lat="45.22762" lon="6.35652">
        <ele>1431.1</ele>
        <time>2020-08-22T14:14:11.000Z</time>
      </trkpt>
      <trkpt lat="45.22751" lon="6.35669">
        <ele>1430.5</ele>
        <time>2020-08-22T14:14:15.000Z</time>
      </trkpt>
      <trkpt lat="45.22749" lon="6.35674">
        <ele>1430.4</ele>
        <time>2020-08-22T14:14:16.000Z</time>
      </trkpt>
      <trkpt lat="45.2274" lon="6.3569">
        <ele>1429.9</ele>
        <time>2020-08-22T14:14:19.000Z</time>
      </trkpt>
      <trkpt lat="45.22732" lon="6.35706">
        <ele>1429.4</ele>
        <time>2020-08-22T14:14:22.000Z</time>
      </trkpt>
      <trkpt lat="45.22729" lon="6.35711">
        <ele>1429.3</ele>
        <time>2020-08-22T14:14:23.000Z</time>
      </trkpt>
      <trkpt lat="45.22724" lon="6.35723">
        <ele>1428.9</ele>
        <time>2020-08-22T14:14:25.000Z</time>
      </trkpt>
      <trkpt lat="45.22716" lon="6.35739">
        <ele>1428.4</ele>
        <time>2020-08-22T14:14:28.000Z</time>
      </trkpt>
      <trkpt lat="45.22708" lon="6.35754">
        <ele>1427.8</ele>
        <time>2020-08-22T14:14:31.000Z</time>
      </trkpt>
      <trkpt lat="45.22701" lon="6.35762">
        <ele>1427.4</ele>
        <time>2020-08-22T14:14:33.000Z</time>
      </trkpt>
      <trkpt lat="45.22698" lon="6.35766">
        <ele>1427.1</ele>
        <time>2020-08-22T14:14:34.000Z</time>
      </trkpt>
      <trkpt lat="45.2269" lon="6.35774">
        <ele>1426.3</ele>
        <time>2020-08-22T14:14:36.000Z</time>
      </trkpt>
      <trkpt lat="45.22685" lon="6.35776">
        <ele>1425.9</ele>
        <time>2020-08-22T14:14:37.000Z</time>
      </trkpt>
      <trkpt lat="45.2268" lon="6.35776">
        <ele>1425.5</ele>
        <time>2020-08-22T14:14:38.000Z</time>
      </trkpt>
      <trkpt lat="45.22674" lon="6.35774">
        <ele>1425</ele>
        <time>2020-08-22T14:14:39.000Z</time>
      </trkpt>
      <trkpt lat="45.22669" lon="6.35771">
        <ele>1424.5</ele>
        <time>2020-08-22T14:14:40.000Z</time>
      </trkpt>
      <trkpt lat="45.22663" lon="6.35767">
        <ele>1424</ele>
        <time>2020-08-22T14:14:41.000Z</time>
      </trkpt>
      <trkpt lat="45.22652" lon="6.35758">
        <ele>1423.4</ele>
        <time>2020-08-22T14:14:43.000Z</time>
      </trkpt>
      <trkpt lat="45.22646" lon="6.35754">
        <ele>1423.5</ele>
        <time>2020-08-22T14:14:44.000Z</time>
      </trkpt>
      <trkpt lat="45.22636" lon="6.35746">
        <ele>1424.3</ele>
        <time>2020-08-22T14:14:46.000Z</time>
      </trkpt>
      <trkpt lat="45.22632" lon="6.35741">
        <ele>1424.7</ele>
        <time>2020-08-22T14:14:47.000Z</time>
      </trkpt>
      <trkpt lat="45.22629" lon="6.35737">
        <ele>1425.1</ele>
        <time>2020-08-22T14:14:48.000Z</time>
      </trkpt>
      <trkpt lat="45.22627" lon="6.35733">
        <ele>1425.4</ele>
        <time>2020-08-22T14:14:49.000Z</time>
      </trkpt>
      <trkpt lat="45.22623" lon="6.35719">
        <ele>1426.1</ele>
        <time>2020-08-22T14:14:52.000Z</time>
      </trkpt>
      <trkpt lat="45.22622" lon="6.35706">
        <ele>1426.8</ele>
        <time>2020-08-22T14:14:55.000Z</time>
      </trkpt>
      <trkpt lat="45.22624" lon="6.35693">
        <ele>1427.6</ele>
        <time>2020-08-22T14:14:58.000Z</time>
      </trkpt>
      <trkpt lat="45.22626" lon="6.35683">
        <ele>1428.3</ele>
        <time>2020-08-22T14:15:01.000Z</time>
      </trkpt>
      <trkpt lat="45.22629" lon="6.35669">
        <ele>1429.3</ele>
        <time>2020-08-22T14:15:05.000Z</time>
      </trkpt>
      <trkpt lat="45.22629" lon="6.35666">
        <ele>1429.5</ele>
        <time>2020-08-22T14:15:06.000Z</time>
      </trkpt>
      <trkpt lat="45.2263" lon="6.35663">
        <ele>1429.8</ele>
        <time>2020-08-22T14:15:07.000Z</time>
      </trkpt>
      <trkpt lat="45.22632" lon="6.35656">
        <ele>1430.2</ele>
        <time>2020-08-22T14:15:09.000Z</time>
      </trkpt>
      <trkpt lat="45.22636" lon="6.35644">
        <ele>1431.1</ele>
        <time>2020-08-22T14:15:13.000Z</time>
      </trkpt>
      <trkpt lat="45.22639" lon="6.35631">
        <ele>1431.9</ele>
        <time>2020-08-22T14:15:17.000Z</time>
      </trkpt>
      <trkpt lat="45.22642" lon="6.35621">
        <ele>1432.4</ele>
        <time>2020-08-22T14:15:20.000Z</time>
      </trkpt>
      <trkpt lat="45.22644" lon="6.35615">
        <ele>1432.7</ele>
        <time>2020-08-22T14:15:22.000Z</time>
      </trkpt>
      <trkpt lat="45.22645" lon="6.35596">
        <ele>1433.5</ele>
        <time>2020-08-22T14:15:27.000Z</time>
      </trkpt>
      <trkpt lat="45.22646" lon="6.35572">
        <ele>1434.3</ele>
        <time>2020-08-22T14:15:33.000Z</time>
      </trkpt>
      <trkpt lat="45.22646" lon="6.35559">
        <ele>1434.7</ele>
        <time>2020-08-22T14:15:36.000Z</time>
      </trkpt>
      <trkpt lat="45.22646" lon="6.35546">
        <ele>1435</ele>
        <time>2020-08-22T14:15:39.000Z</time>
      </trkpt>
      <trkpt lat="45.22646" lon="6.35542">
        <ele>1435.1</ele>
        <time>2020-08-22T14:15:40.000Z</time>
      </trkpt>
      <trkpt lat="45.22644" lon="6.35534">
        <ele>1435.3</ele>
        <time>2020-08-22T14:15:42.000Z</time>
      </trkpt>
      <trkpt lat="45.22638" lon="6.35512">
        <ele>1435.7</ele>
        <time>2020-08-22T14:15:47.000Z</time>
      </trkpt>
      <trkpt lat="45.22635" lon="6.35504">
        <ele>1435.9</ele>
        <time>2020-08-22T14:15:49.000Z</time>
      </trkpt>
      <trkpt lat="45.22633" lon="6.355">
        <ele>1436</ele>
        <time>2020-08-22T14:15:50.000Z</time>
      </trkpt>
      <trkpt lat="45.22621" lon="6.35469">
        <ele>1436.6</ele>
        <time>2020-08-22T14:15:57.000Z</time>
      </trkpt>
      <trkpt lat="45.22614" lon="6.35457">
        <ele>1436.9</ele>
        <time>2020-08-22T14:16:00.000Z</time>
      </trkpt>
      <trkpt lat="45.22612" lon="6.35453">
        <ele>1437</ele>
        <time>2020-08-22T14:16:01.000Z</time>
      </trkpt>
      <trkpt lat="45.22607" lon="6.35446">
        <ele>1437.3</ele>
        <time>2020-08-22T14:16:03.000Z</time>
      </trkpt>
      <trkpt lat="45.22585" lon="6.35428">
        <ele>1438.7</ele>
        <time>2020-08-22T14:16:10.000Z</time>
      </trkpt>
      <trkpt lat="45.22577" lon="6.3542">
        <ele>1439.3</ele>
        <time>2020-08-22T14:16:13.000Z</time>
      </trkpt>
      <trkpt lat="45.22557" lon="6.35405">
        <ele>1440.6</ele>
        <time>2020-08-22T14:16:19.000Z</time>
      </trkpt>
      <trkpt lat="45.22532" lon="6.35397">
        <ele>1441.9</ele>
        <time>2020-08-22T14:16:26.000Z</time>
      </trkpt>
      <trkpt lat="45.22519" lon="6.35397">
        <ele>1442.8</ele>
        <time>2020-08-22T14:16:30.000Z</time>
      </trkpt>
      <trkpt lat="45.22511" lon="6.35398">
        <ele>1443.4</ele>
        <time>2020-08-22T14:16:33.000Z</time>
      </trkpt>
      <trkpt lat="45.22489" lon="6.35401">
        <ele>1445.3</ele>
        <time>2020-08-22T14:16:42.000Z</time>
      </trkpt>
      <trkpt lat="45.22487" lon="6.35402">
        <ele>1445.5</ele>
        <time>2020-08-22T14:16:43.000Z</time>
      </trkpt>
      <trkpt lat="45.22484" lon="6.35402">
        <ele>1445.7</ele>
        <time>2020-08-22T14:16:44.000Z</time>
      </trkpt>
      <trkpt lat="45.22476" lon="6.35403">
        <ele>1446.5</ele>
        <time>2020-08-22T14:16:48.000Z</time>
      </trkpt>
      <trkpt lat="45.22469" lon="6.35403">
        <ele>1447.1</ele>
        <time>2020-08-22T14:16:51.000Z</time>
      </trkpt>
      <trkpt lat="45.2246" lon="6.35405">
        <ele>1447.9</ele>
        <time>2020-08-22T14:16:55.000Z</time>
      </trkpt>
      <trkpt lat="45.22452" lon="6.35409">
        <ele>1448.7</ele>
        <time>2020-08-22T14:16:59.000Z</time>
      </trkpt>
      <trkpt lat="45.22447" lon="6.35412">
        <ele>1449.2</ele>
        <time>2020-08-22T14:17:01.000Z</time>
      </trkpt>
      <trkpt lat="45.2244" lon="6.35421">
        <ele>1450</ele>
        <time>2020-08-22T14:17:05.000Z</time>
      </trkpt>
      <trkpt lat="45.22438" lon="6.35424">
        <ele>1450.3</ele>
        <time>2020-08-22T14:17:06.000Z</time>
      </trkpt>
      <trkpt lat="45.22428" lon="6.35446">
        <ele>1451.9</ele>
        <time>2020-08-22T14:17:13.000Z</time>
      </trkpt>
      <trkpt lat="45.22416" lon="6.35465">
        <ele>1453.3</ele>
        <time>2020-08-22T14:17:20.000Z</time>
      </trkpt>
      <trkpt lat="45.22401" lon="6.3547">
        <ele>1454.2</ele>
        <time>2020-08-22T14:17:26.000Z</time>
      </trkpt>
      <trkpt lat="45.22382" lon="6.3547">
        <ele>1455.4</ele>
        <time>2020-08-22T14:17:34.000Z</time>
      </trkpt>
      <trkpt lat="45.22373" lon="6.35468">
        <ele>1456.1</ele>
        <time>2020-08-22T14:17:38.000Z</time>
      </trkpt>
      <trkpt lat="45.22366" lon="6.35467">
        <ele>1456.6</ele>
        <time>2020-08-22T14:17:41.000Z</time>
      </trkpt>
      <trkpt lat="45.22348" lon="6.35463">
        <ele>1458.3</ele>
        <time>2020-08-22T14:17:49.000Z</time>
      </trkpt>
      <trkpt lat="45.22329" lon="6.35458">
        <ele>1460.2</ele>
        <time>2020-08-22T14:17:57.000Z</time>
      </trkpt>
      <trkpt lat="45.22314" lon="6.35457">
        <ele>1461.9</ele>
        <time>2020-08-22T14:18:04.000Z</time>
      </trkpt>
      <trkpt lat="45.22299" lon="6.35454">
        <ele>1463.6</ele>
        <time>2020-08-22T14:18:11.000Z</time>
      </trkpt>
      <trkpt lat="45.22283" lon="6.35455">
        <ele>1465.4</ele>
        <time>2020-08-22T14:18:19.000Z</time>
      </trkpt>
      <trkpt lat="45.22272" lon="6.35458">
        <ele>1466.5</ele>
        <time>2020-08-22T14:18:24.000Z</time>
      </trkpt>
      <trkpt lat="45.22265" lon="6.35458">
        <ele>1467.1</ele>
        <time>2020-08-22T14:18:27.000Z</time>
      </trkpt>
      <trkpt lat="45.22247" lon="6.3546">
        <ele>1468.8</ele>
        <time>2020-08-22T14:18:35.000Z</time>
      </trkpt>
      <trkpt lat="45.22244" lon="6.3546">
        <ele>1469</ele>
        <time>2020-08-22T14:18:36.000Z</time>
      </trkpt>
      <trkpt lat="45.22237" lon="6.3546">
        <ele>1469.7</ele>
        <time>2020-08-22T14:18:41.000Z</time>
      </trkpt>
      <trkpt lat="45.22237" lon="6.35461">
        <ele>1469.8</ele>
        <time>2020-08-22T14:18:47.000Z</time>
      </trkpt>
      <trkpt lat="45.22237" lon="6.35461">
        <ele>1469.8</ele>
        <time>2020-08-22T14:18:53.000Z</time>
      </trkpt>
      <trkpt lat="45.22237" lon="6.35461">
        <ele>1469.8</ele>
        <time>2020-08-22T14:18:59.000Z</time>
      </trkpt>
      <trkpt lat="45.22236" lon="6.3546">
        <ele>1469.9</ele>
        <time>2020-08-22T14:19:04.000Z</time>
      </trkpt>
      <trkpt lat="45.22236" lon="6.3546">
        <ele>1469.9</ele>
        <time>2020-08-22T14:19:08.000Z</time>
      </trkpt>
      <trkpt lat="45.22236" lon="6.3546">
        <ele>1469.9</ele>
        <time>2020-08-22T14:19:13.000Z</time>
      </trkpt>
      <trkpt lat="45.22236" lon="6.3546">
        <ele>1469.9</ele>
        <time>2020-08-22T14:19:14.000Z</time>
      </trkpt>
      <trkpt lat="45.22236" lon="6.3546">
        <ele>1469.9</ele>
        <time>2020-08-22T14:19:18.000Z</time>
      </trkpt>
      <trkpt lat="45.22236" lon="6.3546">
        <ele>1469.9</ele>
        <time>2020-08-22T14:19:21.000Z</time>
      </trkpt>
      <trkpt lat="45.22236" lon="6.3546">
        <ele>1469.9</ele>
        <time>2020-08-22T14:19:22.000Z</time>
      </trkpt>
      <trkpt lat="45.22236" lon="6.3546">
        <ele>1469.9</ele>
        <time>2020-08-22T14:19:25.000Z</time>
      </trkpt>
      <trkpt lat="45.22236" lon="6.3546">
        <ele>1469.9</ele>
        <time>2020-08-22T14:19:30.000Z</time>
      </trkpt>
      <trkpt lat="45.22237" lon="6.3546">
        <ele>1469.9</ele>
        <time>2020-08-22T14:19:32.000Z</time>
      </trkpt>
      <trkpt lat="45.22237" lon="6.35461">
        <ele>1469.9</ele>
        <time>2020-08-22T14:19:35.000Z</time>
      </trkpt>
      <trkpt lat="45.22237" lon="6.3546">
        <ele>1470</ele>
        <time>2020-08-22T14:19:48.000Z</time>
      </trkpt>
      <trkpt lat="45.22237" lon="6.3546">
        <ele>1470</ele>
        <time>2020-08-22T14:19:54.000Z</time>
      </trkpt>
      <trkpt lat="45.22237" lon="6.3546">
        <ele>1470</ele>
        <time>2020-08-22T14:20:02.000Z</time>
      </trkpt>
      <trkpt lat="45.22236" lon="6.3546">
        <ele>1470</ele>
        <time>2020-08-22T14:20:12.000Z</time>
      </trkpt>
      <trkpt lat="45.22227" lon="6.35459">
        <ele>1470.8</ele>
        <time>2020-08-22T14:20:19.000Z</time>
      </trkpt>
      <trkpt lat="45.22207" lon="6.35458">
        <ele>1472.8</ele>
        <time>2020-08-22T14:20:28.000Z</time>
      </trkpt>
      <trkpt lat="45.22199" lon="6.35458">
        <ele>1473.5</ele>
        <time>2020-08-22T14:20:31.000Z</time>
      </trkpt>
      <trkpt lat="45.22194" lon="6.35458">
        <ele>1474</ele>
        <time>2020-08-22T14:20:33.000Z</time>
      </trkpt>
      <trkpt lat="45.22187" lon="6.35457">
        <ele>1474.8</ele>
        <time>2020-08-22T14:20:36.000Z</time>
      </trkpt>
      <trkpt lat="45.22168" lon="6.35455">
        <ele>1476.6</ele>
        <time>2020-08-22T14:20:44.000Z</time>
      </trkpt>
      <trkpt lat="45.22149" lon="6.35452">
        <ele>1478.5</ele>
        <time>2020-08-22T14:20:52.000Z</time>
      </trkpt>
      <trkpt lat="45.22134" lon="6.3544">
        <ele>1480.1</ele>
        <time>2020-08-22T14:20:59.000Z</time>
      </trkpt>
      <trkpt lat="45.2213" lon="6.35436">
        <ele>1480.6</ele>
        <time>2020-08-22T14:21:01.000Z</time>
      </trkpt>
      <trkpt lat="45.2212" lon="6.35425">
        <ele>1481.9</ele>
        <time>2020-08-22T14:21:06.000Z</time>
      </trkpt>
      <trkpt lat="45.22106" lon="6.35411">
        <ele>1483.7</ele>
        <time>2020-08-22T14:21:13.000Z</time>
      </trkpt>
      <trkpt lat="45.22105" lon="6.35409">
        <ele>1483.9</ele>
        <time>2020-08-22T14:21:14.000Z</time>
      </trkpt>
      <trkpt lat="45.22097" lon="6.35401">
        <ele>1485</ele>
        <time>2020-08-22T14:21:18.000Z</time>
      </trkpt>
      <trkpt lat="45.22095" lon="6.35399">
        <ele>1485.2</ele>
        <time>2020-08-22T14:21:19.000Z</time>
      </trkpt>
      <trkpt lat="45.22086" lon="6.35392">
        <ele>1486.2</ele>
        <time>2020-08-22T14:21:23.000Z</time>
      </trkpt>
      <trkpt lat="45.2208" lon="6.35386">
        <ele>1486.9</ele>
        <time>2020-08-22T14:21:26.000Z</time>
      </trkpt>
      <trkpt lat="45.22078" lon="6.35385">
        <ele>1487.1</ele>
        <time>2020-08-22T14:21:27.000Z</time>
      </trkpt>
      <trkpt lat="45.22071" lon="6.35379">
        <ele>1487.8</ele>
        <time>2020-08-22T14:21:30.000Z</time>
      </trkpt>
      <trkpt lat="45.22069" lon="6.35377">
        <ele>1488</ele>
        <time>2020-08-22T14:21:31.000Z</time>
      </trkpt>
      <trkpt lat="45.22059" lon="6.35367">
        <ele>1489.2</ele>
        <time>2020-08-22T14:21:36.000Z</time>
      </trkpt>
      <trkpt lat="45.22047" lon="6.35355">
        <ele>1490.5</ele>
        <time>2020-08-22T14:21:42.000Z</time>
      </trkpt>
      <trkpt lat="45.22044" lon="6.35353">
        <ele>1490.6</ele>
        <time>2020-08-22T14:21:43.000Z</time>
      </trkpt>
      <trkpt lat="45.22033" lon="6.35347">
        <ele>1491.5</ele>
        <time>2020-08-22T14:21:48.000Z</time>
      </trkpt>
      <trkpt lat="45.22028" lon="6.35344">
        <ele>1491.9</ele>
        <time>2020-08-22T14:21:50.000Z</time>
      </trkpt>
      <trkpt lat="45.22023" lon="6.35343">
        <ele>1492.4</ele>
        <time>2020-08-22T14:21:52.000Z</time>
      </trkpt>
      <trkpt lat="45.22015" lon="6.35342">
        <ele>1493.1</ele>
        <time>2020-08-22T14:21:55.000Z</time>
      </trkpt>
      <trkpt lat="45.22006" lon="6.35341">
        <ele>1494.1</ele>
        <time>2020-08-22T14:21:59.000Z</time>
      </trkpt>
      <trkpt lat="45.22001" lon="6.35339">
        <ele>1494.6</ele>
        <time>2020-08-22T14:22:01.000Z</time>
      </trkpt>
      <trkpt lat="45.21986" lon="6.35336">
        <ele>1496.2</ele>
        <time>2020-08-22T14:22:07.000Z</time>
      </trkpt>
      <trkpt lat="45.21977" lon="6.35335">
        <ele>1497</ele>
        <time>2020-08-22T14:22:10.000Z</time>
      </trkpt>
      <trkpt lat="45.21969" lon="6.35336">
        <ele>1497.8</ele>
        <time>2020-08-22T14:22:13.000Z</time>
      </trkpt>
      <trkpt lat="45.21964" lon="6.35336">
        <ele>1498.2</ele>
        <time>2020-08-22T14:22:15.000Z</time>
      </trkpt>
      <trkpt lat="45.21953" lon="6.35336">
        <ele>1499</ele>
        <time>2020-08-22T14:22:19.000Z</time>
      </trkpt>
      <trkpt lat="45.21944" lon="6.35338">
        <ele>1499.6</ele>
        <time>2020-08-22T14:22:22.000Z</time>
      </trkpt>
      <trkpt lat="45.21926" lon="6.35343">
        <ele>1500.2</ele>
        <time>2020-08-22T14:22:28.000Z</time>
      </trkpt>
      <trkpt lat="45.21915" lon="6.35346">
        <ele>1500.3</ele>
        <time>2020-08-22T14:22:31.000Z</time>
      </trkpt>
      <trkpt lat="45.21907" lon="6.35346">
        <ele>1500.2</ele>
        <time>2020-08-22T14:22:33.000Z</time>
      </trkpt>
      <trkpt lat="45.21898" lon="6.35345">
        <ele>1499.7</ele>
        <time>2020-08-22T14:22:35.000Z</time>
      </trkpt>
      <trkpt lat="45.21893" lon="6.35342">
        <ele>1499.3</ele>
        <time>2020-08-22T14:22:36.000Z</time>
      </trkpt>
      <trkpt lat="45.21888" lon="6.35338">
        <ele>1498.8</ele>
        <time>2020-08-22T14:22:37.000Z</time>
      </trkpt>
      <trkpt lat="45.21883" lon="6.35333">
        <ele>1498.3</ele>
        <time>2020-08-22T14:22:38.000Z</time>
      </trkpt>
      <trkpt lat="45.21872" lon="6.35321">
        <ele>1497.1</ele>
        <time>2020-08-22T14:22:40.000Z</time>
      </trkpt>
      <trkpt lat="45.21828" lon="6.3528">
        <ele>1493.8</ele>
        <time>2020-08-22T14:22:47.000Z</time>
      </trkpt>
      <trkpt lat="45.21819" lon="6.35262">
        <ele>1492.8</ele>
        <time>2020-08-22T14:22:49.000Z</time>
      </trkpt>
      <trkpt lat="45.21816" lon="6.3525">
        <ele>1492</ele>
        <time>2020-08-22T14:22:50.000Z</time>
      </trkpt>
      <trkpt lat="45.21815" lon="6.35237">
        <ele>1491.3</ele>
        <time>2020-08-22T14:22:51.000Z</time>
      </trkpt>
      <trkpt lat="45.21817" lon="6.3521">
        <ele>1489.8</ele>
        <time>2020-08-22T14:22:53.000Z</time>
      </trkpt>
      <trkpt lat="45.21828" lon="6.35131">
        <ele>1488.4</ele>
        <time>2020-08-22T14:22:59.000Z</time>
      </trkpt>
      <trkpt lat="45.21835" lon="6.3511">
        <ele>1489.1</ele>
        <time>2020-08-22T14:23:01.000Z</time>
      </trkpt>
      <trkpt lat="45.2184" lon="6.35102">
        <ele>1489.5</ele>
        <time>2020-08-22T14:23:02.000Z</time>
      </trkpt>
      <trkpt lat="45.21845" lon="6.35094">
        <ele>1489.9</ele>
        <time>2020-08-22T14:23:03.000Z</time>
      </trkpt>
      <trkpt lat="45.21867" lon="6.35065">
        <ele>1491.9</ele>
        <time>2020-08-22T14:23:07.000Z</time>
      </trkpt>
      <trkpt lat="45.21878" lon="6.35051">
        <ele>1492.9</ele>
        <time>2020-08-22T14:23:09.000Z</time>
      </trkpt>
      <trkpt lat="45.21886" lon="6.35035">
        <ele>1493.9</ele>
        <time>2020-08-22T14:23:11.000Z</time>
      </trkpt>
      <trkpt lat="45.21889" lon="6.35027">
        <ele>1494.3</ele>
        <time>2020-08-22T14:23:12.000Z</time>
      </trkpt>
      <trkpt lat="45.2189" lon="6.35019">
        <ele>1494.6</ele>
        <time>2020-08-22T14:23:13.000Z</time>
      </trkpt>
      <trkpt lat="45.21889" lon="6.35003">
        <ele>1495.1</ele>
        <time>2020-08-22T14:23:15.000Z</time>
      </trkpt>
      <trkpt lat="45.21884" lon="6.34989">
        <ele>1495.4</ele>
        <time>2020-08-22T14:23:17.000Z</time>
      </trkpt>
      <trkpt lat="45.2188" lon="6.34983">
        <ele>1495.5</ele>
        <time>2020-08-22T14:23:18.000Z</time>
      </trkpt>
      <trkpt lat="45.21852" lon="6.34953">
        <ele>1495.8</ele>
        <time>2020-08-22T14:23:24.000Z</time>
      </trkpt>
      <trkpt lat="45.21837" lon="6.34937">
        <ele>1496</ele>
        <time>2020-08-22T14:23:27.000Z</time>
      </trkpt>
      <trkpt lat="45.21825" lon="6.34917">
        <ele>1496.2</ele>
        <time>2020-08-22T14:23:30.000Z</time>
      </trkpt>
      <trkpt lat="45.21821" lon="6.3491">
        <ele>1496.4</ele>
        <time>2020-08-22T14:23:31.000Z</time>
      </trkpt>
      <trkpt lat="45.218" lon="6.34871">
        <ele>1496.9</ele>
        <time>2020-08-22T14:23:37.000Z</time>
      </trkpt>
      <trkpt lat="45.21795" lon="6.34856">
        <ele>1497</ele>
        <time>2020-08-22T14:23:39.000Z</time>
      </trkpt>
      <trkpt lat="45.21784" lon="6.34812">
        <ele>1498.3</ele>
        <time>2020-08-22T14:23:45.000Z</time>
      </trkpt>
      <trkpt lat="45.21782" lon="6.34805">
        <ele>1498.6</ele>
        <time>2020-08-22T14:23:46.000Z</time>
      </trkpt>
      <trkpt lat="45.21781" lon="6.34791">
        <ele>1499.2</ele>
        <time>2020-08-22T14:23:48.000Z</time>
      </trkpt>
      <trkpt lat="45.21782" lon="6.34771">
        <ele>1500.1</ele>
        <time>2020-08-22T14:23:51.000Z</time>
      </trkpt>
      <trkpt lat="45.21783" lon="6.34752">
        <ele>1501.3</ele>
        <time>2020-08-22T14:23:54.000Z</time>
      </trkpt>
      <trkpt lat="45.21783" lon="6.3473">
        <ele>1502.7</ele>
        <time>2020-08-22T14:23:58.000Z</time>
      </trkpt>
      <trkpt lat="45.21785" lon="6.34711">
        <ele>1503.4</ele>
        <time>2020-08-22T14:24:02.000Z</time>
      </trkpt>
      <trkpt lat="45.21786" lon="6.34706">
        <ele>1503.6</ele>
        <time>2020-08-22T14:24:03.000Z</time>
      </trkpt>
      <trkpt lat="45.21787" lon="6.34702">
        <ele>1503.7</ele>
        <time>2020-08-22T14:24:04.000Z</time>
      </trkpt>
      <trkpt lat="45.21793" lon="6.34668">
        <ele>1504.7</ele>
        <time>2020-08-22T14:24:11.000Z</time>
      </trkpt>
      <trkpt lat="45.21794" lon="6.34663">
        <ele>1504.8</ele>
        <time>2020-08-22T14:24:12.000Z</time>
      </trkpt>
      <trkpt lat="45.21801" lon="6.34623">
        <ele>1505.7</ele>
        <time>2020-08-22T14:24:20.000Z</time>
      </trkpt>
      <trkpt lat="45.21804" lon="6.34612">
        <ele>1505.9</ele>
        <time>2020-08-22T14:24:22.000Z</time>
      </trkpt>
      <trkpt lat="45.21816" lon="6.34583">
        <ele>1506.6</ele>
        <time>2020-08-22T14:24:28.000Z</time>
      </trkpt>
      <trkpt lat="45.21826" lon="6.34564">
        <ele>1507</ele>
        <time>2020-08-22T14:24:32.000Z</time>
      </trkpt>
      <trkpt lat="45.21841" lon="6.34534">
        <ele>1507.4</ele>
        <time>2020-08-22T14:24:38.000Z</time>
      </trkpt>
      <trkpt lat="45.21846" lon="6.34524">
        <ele>1507.5</ele>
        <time>2020-08-22T14:24:40.000Z</time>
      </trkpt>
      <trkpt lat="45.21851" lon="6.34513">
        <ele>1507.7</ele>
        <time>2020-08-22T14:24:42.000Z</time>
      </trkpt>
      <trkpt lat="45.21857" lon="6.34504">
        <ele>1508</ele>
        <time>2020-08-22T14:24:44.000Z</time>
      </trkpt>
      <trkpt lat="45.21868" lon="6.34492">
        <ele>1508.8</ele>
        <time>2020-08-22T14:24:47.000Z</time>
      </trkpt>
      <trkpt lat="45.21871" lon="6.34487">
        <ele>1509.1</ele>
        <time>2020-08-22T14:24:48.000Z</time>
      </trkpt>
      <trkpt lat="45.21878" lon="6.34479">
        <ele>1509.7</ele>
        <time>2020-08-22T14:24:50.000Z</time>
      </trkpt>
      <trkpt lat="45.21881" lon="6.34474">
        <ele>1510</ele>
        <time>2020-08-22T14:24:51.000Z</time>
      </trkpt>
      <trkpt lat="45.21886" lon="6.34464">
        <ele>1510.7</ele>
        <time>2020-08-22T14:24:53.000Z</time>
      </trkpt>
      <trkpt lat="45.21889" lon="6.34459">
        <ele>1511</ele>
        <time>2020-08-22T14:24:54.000Z</time>
      </trkpt>
      <trkpt lat="45.21891" lon="6.34453">
        <ele>1511.3</ele>
        <time>2020-08-22T14:24:55.000Z</time>
      </trkpt>
      <trkpt lat="45.21893" lon="6.34447">
        <ele>1511.6</ele>
        <time>2020-08-22T14:24:56.000Z</time>
      </trkpt>
      <trkpt lat="45.21894" lon="6.34441">
        <ele>1511.8</ele>
        <time>2020-08-22T14:24:57.000Z</time>
      </trkpt>
      <trkpt lat="45.21896" lon="6.34422">
        <ele>1512.5</ele>
        <time>2020-08-22T14:25:00.000Z</time>
      </trkpt>
      <trkpt lat="45.21895" lon="6.34401">
        <ele>1513.4</ele>
        <time>2020-08-22T14:25:03.000Z</time>
      </trkpt>
      <trkpt lat="45.21893" lon="6.34376">
        <ele>1514.4</ele>
        <time>2020-08-22T14:25:07.000Z</time>
      </trkpt>
      <trkpt lat="45.21892" lon="6.3437">
        <ele>1514.6</ele>
        <time>2020-08-22T14:25:08.000Z</time>
      </trkpt>
      <trkpt lat="45.2189" lon="6.34358">
        <ele>1515</ele>
        <time>2020-08-22T14:25:10.000Z</time>
      </trkpt>
      <trkpt lat="45.21889" lon="6.34346">
        <ele>1515.3</ele>
        <time>2020-08-22T14:25:12.000Z</time>
      </trkpt>
      <trkpt lat="45.21885" lon="6.34314">
        <ele>1515.9</ele>
        <time>2020-08-22T14:25:17.000Z</time>
      </trkpt>
      <trkpt lat="45.21883" lon="6.34302">
        <ele>1516.1</ele>
        <time>2020-08-22T14:25:19.000Z</time>
      </trkpt>
      <trkpt lat="45.21877" lon="6.34262">
        <ele>1516.4</ele>
        <time>2020-08-22T14:25:25.000Z</time>
      </trkpt>
      <trkpt lat="45.2187" lon="6.34216">
        <ele>1516.8</ele>
        <time>2020-08-22T14:25:32.000Z</time>
      </trkpt>
      <trkpt lat="45.21869" lon="6.34203">
        <ele>1516.8</ele>
        <time>2020-08-22T14:25:34.000Z</time>
      </trkpt>
      <trkpt lat="45.21868" lon="6.34191">
        <ele>1516.9</ele>
        <time>2020-08-22T14:25:36.000Z</time>
      </trkpt>
      <trkpt lat="45.21867" lon="6.34185">
        <ele>1516.9</ele>
        <time>2020-08-22T14:25:37.000Z</time>
      </trkpt>
      <trkpt lat="45.21865" lon="6.34172">
        <ele>1517</ele>
        <time>2020-08-22T14:25:39.000Z</time>
      </trkpt>
      <trkpt lat="45.21863" lon="6.34152">
        <ele>1516.9</ele>
        <time>2020-08-22T14:25:42.000Z</time>
      </trkpt>
    </trkseg>
  </trk>
</gpx>